<?xml version="1.0" encoding="UTF-8"?>
<gpx xmlns="http://www.topografix.com/GPX/1/1" xmlns:xsi="http://www.w3.org/2001/XMLSchema-instance" creator="IGNrando Android 1.97.19" version="1.1" xsi:schemaLocation="http://www.topografix.com/GPX/1/1 http://www.topografix.com/GPX/1/1/gpx.xsd">
<metadata><name>Parcours du 22-10-2025 14h18</name>
<desc></desc>
<author><name>Jean-Charles GROSJEAN</name></author>
<time>2025-10-22T12:21:49Z</time>
</metadata>
<trk>
<name>Parcours du 22/10/2025 14h18</name>
<desc></desc>
<trkseg>
<trkpt lat="43.692639" lon="-1.375175"><ele>24.8</ele><time>2025-10-22T06:15:13Z</time></trkpt>
<trkpt lat="43.692660" lon="-1.375235"><ele>17.9</ele><time>2025-10-22T06:19:52Z</time></trkpt>
<trkpt lat="43.692707" lon="-1.375266"><ele>17.2</ele><time>2025-10-22T06:19:58Z</time></trkpt>
<trkpt lat="43.692749" lon="-1.375293"><ele>18.1</ele><time>2025-10-22T06:20:16Z</time></trkpt>
<trkpt lat="43.692775" lon="-1.375352"><ele>18.8</ele><time>2025-10-22T06:21:01Z</time></trkpt>
<trkpt lat="43.692774" lon="-1.375417"><ele>19.1</ele><time>2025-10-22T06:21:13Z</time></trkpt>
<trkpt lat="43.692777" lon="-1.375487"><ele>19.3</ele><time>2025-10-22T06:21:18Z</time></trkpt>
<trkpt lat="43.692773" lon="-1.375552"><ele>19.6</ele><time>2025-10-22T06:21:23Z</time></trkpt>
<trkpt lat="43.692773" lon="-1.375627"><ele>19.6</ele><time>2025-10-22T06:21:28Z</time></trkpt>
<trkpt lat="43.692771" lon="-1.375692"><ele>19.0</ele><time>2025-10-22T06:21:32Z</time></trkpt>
<trkpt lat="43.692772" lon="-1.375762"><ele>18.2</ele><time>2025-10-22T06:21:36Z</time></trkpt>
<trkpt lat="43.692770" lon="-1.375832"><ele>18.5</ele><time>2025-10-22T06:21:40Z</time></trkpt>
<trkpt lat="43.692771" lon="-1.375896"><ele>18.6</ele><time>2025-10-22T06:21:44Z</time></trkpt>
<trkpt lat="43.692767" lon="-1.375962"><ele>17.9</ele><time>2025-10-22T06:21:48Z</time></trkpt>
<trkpt lat="43.692759" lon="-1.376024"><ele>17.6</ele><time>2025-10-22T06:21:51Z</time></trkpt>
<trkpt lat="43.692752" lon="-1.376099"><ele>17.6</ele><time>2025-10-22T06:21:55Z</time></trkpt>
<trkpt lat="43.692745" lon="-1.376180"><ele>16.4</ele><time>2025-10-22T06:21:59Z</time></trkpt>
<trkpt lat="43.692741" lon="-1.376259"><ele>15.9</ele><time>2025-10-22T06:22:03Z</time></trkpt>
<trkpt lat="43.692734" lon="-1.376336"><ele>15.1</ele><time>2025-10-22T06:22:07Z</time></trkpt>
<trkpt lat="43.692729" lon="-1.376412"><ele>16.8</ele><time>2025-10-22T06:22:12Z</time></trkpt>
<trkpt lat="43.692723" lon="-1.376478"><ele>17.9</ele><time>2025-10-22T06:22:16Z</time></trkpt>
<trkpt lat="43.692714" lon="-1.376541"><ele>19.1</ele><time>2025-10-22T06:22:20Z</time></trkpt>
<trkpt lat="43.692703" lon="-1.376604"><ele>19.2</ele><time>2025-10-22T06:22:24Z</time></trkpt>
<trkpt lat="43.692693" lon="-1.376670"><ele>19.6</ele><time>2025-10-22T06:22:28Z</time></trkpt>
<trkpt lat="43.692685" lon="-1.376735"><ele>20.4</ele><time>2025-10-22T06:22:32Z</time></trkpt>
<trkpt lat="43.692686" lon="-1.376805"><ele>21.2</ele><time>2025-10-22T06:22:36Z</time></trkpt>
<trkpt lat="43.692688" lon="-1.376880"><ele>21.5</ele><time>2025-10-22T06:22:40Z</time></trkpt>
<trkpt lat="43.692685" lon="-1.376956"><ele>21.7</ele><time>2025-10-22T06:22:44Z</time></trkpt>
<trkpt lat="43.692679" lon="-1.377023"><ele>21.7</ele><time>2025-10-22T06:22:48Z</time></trkpt>
<trkpt lat="43.692675" lon="-1.377098"><ele>21.4</ele><time>2025-10-22T06:22:52Z</time></trkpt>
<trkpt lat="43.692675" lon="-1.377163"><ele>21.7</ele><time>2025-10-22T06:22:56Z</time></trkpt>
<trkpt lat="43.692671" lon="-1.377233"><ele>21.6</ele><time>2025-10-22T06:23:00Z</time></trkpt>
<trkpt lat="43.692663" lon="-1.377297"><ele>22.4</ele><time>2025-10-22T06:23:05Z</time></trkpt>
<trkpt lat="43.692677" lon="-1.377361"><ele>21.7</ele><time>2025-10-22T06:23:10Z</time></trkpt>
<trkpt lat="43.692702" lon="-1.377417"><ele>21.5</ele><time>2025-10-22T06:23:14Z</time></trkpt>
<trkpt lat="43.692714" lon="-1.377480"><ele>21.4</ele><time>2025-10-22T06:23:18Z</time></trkpt>
<trkpt lat="43.692714" lon="-1.377550"><ele>22.9</ele><time>2025-10-22T06:23:23Z</time></trkpt>
<trkpt lat="43.692713" lon="-1.377618"><ele>25.0</ele><time>2025-10-22T06:23:30Z</time></trkpt>
<trkpt lat="43.692712" lon="-1.377694"><ele>25.2</ele><time>2025-10-22T06:23:35Z</time></trkpt>
<trkpt lat="43.692705" lon="-1.377758"><ele>26.0</ele><time>2025-10-22T06:23:39Z</time></trkpt>
<trkpt lat="43.692690" lon="-1.377822"><ele>29.1</ele><time>2025-10-22T06:23:44Z</time></trkpt>
<trkpt lat="43.692680" lon="-1.377897"><ele>29.5</ele><time>2025-10-22T06:23:48Z</time></trkpt>
<trkpt lat="43.692668" lon="-1.377959"><ele>28.2</ele><time>2025-10-22T06:23:53Z</time></trkpt>
<trkpt lat="43.692684" lon="-1.378023"><ele>27.3</ele><time>2025-10-22T06:24:06Z</time></trkpt>
<trkpt lat="43.692677" lon="-1.378094"><ele>25.9</ele><time>2025-10-22T06:24:11Z</time></trkpt>
<trkpt lat="43.692682" lon="-1.378166"><ele>26.2</ele><time>2025-10-22T06:24:18Z</time></trkpt>
<trkpt lat="43.692687" lon="-1.378241"><ele>25.6</ele><time>2025-10-22T06:24:22Z</time></trkpt>
<trkpt lat="43.692696" lon="-1.378313"><ele>26.5</ele><time>2025-10-22T06:24:26Z</time></trkpt>
<trkpt lat="43.692702" lon="-1.378389"><ele>27.1</ele><time>2025-10-22T06:24:32Z</time></trkpt>
<trkpt lat="43.692717" lon="-1.378460"><ele>27.0</ele><time>2025-10-22T06:24:36Z</time></trkpt>
<trkpt lat="43.692724" lon="-1.378541"><ele>25.8</ele><time>2025-10-22T06:24:41Z</time></trkpt>
<trkpt lat="43.692718" lon="-1.378604"><ele>25.6</ele><time>2025-10-22T06:24:44Z</time></trkpt>
<trkpt lat="43.692700" lon="-1.378678"><ele>25.6</ele><time>2025-10-22T06:24:49Z</time></trkpt>
<trkpt lat="43.692703" lon="-1.378742"><ele>25.4</ele><time>2025-10-22T06:24:53Z</time></trkpt>
<trkpt lat="43.692712" lon="-1.378804"><ele>25.8</ele><time>2025-10-22T06:24:59Z</time></trkpt>
<trkpt lat="43.692759" lon="-1.378822"><ele>25.5</ele><time>2025-10-22T06:25:04Z</time></trkpt>
<trkpt lat="43.692802" lon="-1.378805"><ele>23.1</ele><time>2025-10-22T06:25:11Z</time></trkpt>
<trkpt lat="43.692851" lon="-1.378796"><ele>23.2</ele><time>2025-10-22T06:25:22Z</time></trkpt>
<trkpt lat="43.692898" lon="-1.378778"><ele>20.1</ele><time>2025-10-22T06:25:33Z</time></trkpt>
<trkpt lat="43.692930" lon="-1.378723"><ele>18.7</ele><time>2025-10-22T06:25:39Z</time></trkpt>
<trkpt lat="43.692949" lon="-1.378654"><ele>20.1</ele><time>2025-10-22T06:25:56Z</time></trkpt>
<trkpt lat="43.692968" lon="-1.378596"><ele>18.3</ele><time>2025-10-22T06:26:01Z</time></trkpt>
<trkpt lat="43.692989" lon="-1.378534"><ele>17.2</ele><time>2025-10-22T06:26:06Z</time></trkpt>
<trkpt lat="43.693016" lon="-1.378478"><ele>17.6</ele><time>2025-10-22T06:26:10Z</time></trkpt>
<trkpt lat="43.693039" lon="-1.378416"><ele>20.5</ele><time>2025-10-22T06:26:17Z</time></trkpt>
<trkpt lat="43.693082" lon="-1.378370"><ele>22.0</ele><time>2025-10-22T06:26:22Z</time></trkpt>
<trkpt lat="43.693117" lon="-1.378329"><ele>25.6</ele><time>2025-10-22T06:26:28Z</time></trkpt>
<trkpt lat="43.693158" lon="-1.378285"><ele>24.6</ele><time>2025-10-22T06:26:32Z</time></trkpt>
<trkpt lat="43.693189" lon="-1.378229"><ele>22.7</ele><time>2025-10-22T06:26:36Z</time></trkpt>
<trkpt lat="43.693221" lon="-1.378170"><ele>20.7</ele><time>2025-10-22T06:26:41Z</time></trkpt>
<trkpt lat="43.693243" lon="-1.378114"><ele>18.7</ele><time>2025-10-22T06:26:46Z</time></trkpt>
<trkpt lat="43.693282" lon="-1.378063"><ele>19.1</ele><time>2025-10-22T06:26:51Z</time></trkpt>
<trkpt lat="43.693311" lon="-1.378012"><ele>20.6</ele><time>2025-10-22T06:26:56Z</time></trkpt>
<trkpt lat="43.693340" lon="-1.377959"><ele>22.0</ele><time>2025-10-22T06:27:02Z</time></trkpt>
<trkpt lat="43.693360" lon="-1.377900"><ele>22.5</ele><time>2025-10-22T06:27:17Z</time></trkpt>
<trkpt lat="43.693365" lon="-1.377838"><ele>19.3</ele><time>2025-10-22T06:27:25Z</time></trkpt>
<trkpt lat="43.693376" lon="-1.377777"><ele>19.0</ele><time>2025-10-22T06:28:19Z</time></trkpt>
<trkpt lat="43.693383" lon="-1.377706"><ele>20.3</ele><time>2025-10-22T06:28:25Z</time></trkpt>
<trkpt lat="43.693394" lon="-1.377641"><ele>19.4</ele><time>2025-10-22T06:28:29Z</time></trkpt>
<trkpt lat="43.693412" lon="-1.377581"><ele>20.3</ele><time>2025-10-22T06:28:34Z</time></trkpt>
<trkpt lat="43.693431" lon="-1.377514"><ele>20.0</ele><time>2025-10-22T06:28:41Z</time></trkpt>
<trkpt lat="43.693453" lon="-1.377459"><ele>19.9</ele><time>2025-10-22T06:28:46Z</time></trkpt>
<trkpt lat="43.693467" lon="-1.377394"><ele>19.8</ele><time>2025-10-22T06:28:52Z</time></trkpt>
<trkpt lat="43.693497" lon="-1.377340"><ele>20.7</ele><time>2025-10-22T06:28:57Z</time></trkpt>
<trkpt lat="43.693528" lon="-1.377288"><ele>21.7</ele><time>2025-10-22T06:29:02Z</time></trkpt>
<trkpt lat="43.693558" lon="-1.377240"><ele>22.4</ele><time>2025-10-22T06:29:06Z</time></trkpt>
<trkpt lat="43.693597" lon="-1.377197"><ele>22.0</ele><time>2025-10-22T06:29:11Z</time></trkpt>
<trkpt lat="43.693627" lon="-1.377144"><ele>22.0</ele><time>2025-10-22T06:29:16Z</time></trkpt>
<trkpt lat="43.693646" lon="-1.377087"><ele>21.8</ele><time>2025-10-22T06:29:23Z</time></trkpt>
<trkpt lat="43.693690" lon="-1.377038"><ele>20.8</ele><time>2025-10-22T06:29:27Z</time></trkpt>
<trkpt lat="43.693725" lon="-1.376986"><ele>21.1</ele><time>2025-10-22T06:29:33Z</time></trkpt>
<trkpt lat="43.693756" lon="-1.376932"><ele>21.8</ele><time>2025-10-22T06:29:39Z</time></trkpt>
<trkpt lat="43.693795" lon="-1.376886"><ele>21.9</ele><time>2025-10-22T06:29:44Z</time></trkpt>
<trkpt lat="43.693821" lon="-1.376831"><ele>24.1</ele><time>2025-10-22T06:29:50Z</time></trkpt>
<trkpt lat="43.693856" lon="-1.376777"><ele>22.8</ele><time>2025-10-22T06:29:56Z</time></trkpt>
<trkpt lat="43.693901" lon="-1.376739"><ele>22.7</ele><time>2025-10-22T06:30:01Z</time></trkpt>
<trkpt lat="43.693944" lon="-1.376698"><ele>22.8</ele><time>2025-10-22T06:30:06Z</time></trkpt>
<trkpt lat="43.693987" lon="-1.376664"><ele>23.7</ele><time>2025-10-22T06:30:11Z</time></trkpt>
<trkpt lat="43.694036" lon="-1.376643"><ele>22.8</ele><time>2025-10-22T06:30:17Z</time></trkpt>
<trkpt lat="43.694078" lon="-1.376615"><ele>22.2</ele><time>2025-10-22T06:30:23Z</time></trkpt>
<trkpt lat="43.694112" lon="-1.376558"><ele>23.1</ele><time>2025-10-22T06:30:30Z</time></trkpt>
<trkpt lat="43.694152" lon="-1.376525"><ele>22.9</ele><time>2025-10-22T06:30:34Z</time></trkpt>
<trkpt lat="43.694203" lon="-1.376509"><ele>22.7</ele><time>2025-10-22T06:30:39Z</time></trkpt>
<trkpt lat="43.694241" lon="-1.376474"><ele>22.1</ele><time>2025-10-22T06:30:43Z</time></trkpt>
<trkpt lat="43.694278" lon="-1.376429"><ele>23.4</ele><time>2025-10-22T06:30:49Z</time></trkpt>
<trkpt lat="43.694311" lon="-1.376379"><ele>23.2</ele><time>2025-10-22T06:30:56Z</time></trkpt>
<trkpt lat="43.694339" lon="-1.376324"><ele>26.4</ele><time>2025-10-22T06:31:02Z</time></trkpt>
<trkpt lat="43.694378" lon="-1.376274"><ele>24.1</ele><time>2025-10-22T06:31:07Z</time></trkpt>
<trkpt lat="43.694414" lon="-1.376237"><ele>24.5</ele><time>2025-10-22T06:31:12Z</time></trkpt>
<trkpt lat="43.694455" lon="-1.376183"><ele>24.2</ele><time>2025-10-22T06:31:17Z</time></trkpt>
<trkpt lat="43.694480" lon="-1.376128"><ele>22.1</ele><time>2025-10-22T06:31:21Z</time></trkpt>
<trkpt lat="43.694503" lon="-1.376075"><ele>23.4</ele><time>2025-10-22T06:31:27Z</time></trkpt>
<trkpt lat="43.694528" lon="-1.376019"><ele>22.0</ele><time>2025-10-22T06:31:33Z</time></trkpt>
<trkpt lat="43.694555" lon="-1.375960"><ele>23.2</ele><time>2025-10-22T06:31:39Z</time></trkpt>
<trkpt lat="43.694580" lon="-1.375906"><ele>23.6</ele><time>2025-10-22T06:31:45Z</time></trkpt>
<trkpt lat="43.694612" lon="-1.375854"><ele>26.0</ele><time>2025-10-22T06:31:51Z</time></trkpt>
<trkpt lat="43.694629" lon="-1.375787"><ele>25.6</ele><time>2025-10-22T06:31:55Z</time></trkpt>
<trkpt lat="43.694644" lon="-1.375724"><ele>25.4</ele><time>2025-10-22T06:32:00Z</time></trkpt>
<trkpt lat="43.694664" lon="-1.375659"><ele>25.3</ele><time>2025-10-22T06:32:06Z</time></trkpt>
<trkpt lat="43.694680" lon="-1.375591"><ele>24.8</ele><time>2025-10-22T06:32:11Z</time></trkpt>
<trkpt lat="43.694698" lon="-1.375532"><ele>22.0</ele><time>2025-10-22T06:32:14Z</time></trkpt>
<trkpt lat="43.694720" lon="-1.375469"><ele>19.8</ele><time>2025-10-22T06:32:18Z</time></trkpt>
<trkpt lat="43.694732" lon="-1.375402"><ele>19.6</ele><time>2025-10-22T06:32:23Z</time></trkpt>
<trkpt lat="43.694759" lon="-1.375335"><ele>20.1</ele><time>2025-10-22T06:32:28Z</time></trkpt>
<trkpt lat="43.694784" lon="-1.375281"><ele>21.0</ele><time>2025-10-22T06:32:33Z</time></trkpt>
<trkpt lat="43.694822" lon="-1.375239"><ele>21.8</ele><time>2025-10-22T06:32:39Z</time></trkpt>
<trkpt lat="43.694865" lon="-1.375208"><ele>22.7</ele><time>2025-10-22T06:32:45Z</time></trkpt>
<trkpt lat="43.694913" lon="-1.375192"><ele>20.7</ele><time>2025-10-22T06:32:53Z</time></trkpt>
<trkpt lat="43.694956" lon="-1.375171"><ele>20.4</ele><time>2025-10-22T06:32:59Z</time></trkpt>
<trkpt lat="43.694998" lon="-1.375142"><ele>18.3</ele><time>2025-10-22T06:33:06Z</time></trkpt>
<trkpt lat="43.695038" lon="-1.375098"><ele>17.5</ele><time>2025-10-22T06:33:13Z</time></trkpt>
<trkpt lat="43.695080" lon="-1.375060"><ele>13.4</ele><time>2025-10-22T06:33:20Z</time></trkpt>
<trkpt lat="43.695091" lon="-1.374998"><ele>12.5</ele><time>2025-10-22T06:33:29Z</time></trkpt>
<trkpt lat="43.695135" lon="-1.374981"><ele>13.1</ele><time>2025-10-22T06:34:53Z</time></trkpt>
<trkpt lat="43.695123" lon="-1.375045"><ele>14.6</ele><time>2025-10-22T06:39:34Z</time></trkpt>
<trkpt lat="43.695087" lon="-1.375095"><ele>15.0</ele><time>2025-10-22T06:39:43Z</time></trkpt>
<trkpt lat="43.695077" lon="-1.375163"><ele>16.3</ele><time>2025-10-22T06:39:55Z</time></trkpt>
<trkpt lat="43.695049" lon="-1.375214"><ele>19.8</ele><time>2025-10-22T06:40:05Z</time></trkpt>
<trkpt lat="43.695004" lon="-1.375221"><ele>19.0</ele><time>2025-10-22T06:40:12Z</time></trkpt>
<trkpt lat="43.694964" lon="-1.375252"><ele>18.1</ele><time>2025-10-22T06:40:19Z</time></trkpt>
<trkpt lat="43.694966" lon="-1.375315"><ele>15.7</ele><time>2025-10-22T06:40:24Z</time></trkpt>
<trkpt lat="43.694996" lon="-1.375366"><ele>20.8</ele><time>2025-10-22T06:40:41Z</time></trkpt>
<trkpt lat="43.695018" lon="-1.375429"><ele>20.2</ele><time>2025-10-22T06:40:54Z</time></trkpt>
<trkpt lat="43.695045" lon="-1.375485"><ele>21.3</ele><time>2025-10-22T06:41:00Z</time></trkpt>
<trkpt lat="43.695050" lon="-1.375547"><ele>21.3</ele><time>2025-10-22T06:41:10Z</time></trkpt>
<trkpt lat="43.695065" lon="-1.375607"><ele>22.6</ele><time>2025-10-22T06:41:16Z</time></trkpt>
<trkpt lat="43.695080" lon="-1.375666"><ele>24.2</ele><time>2025-10-22T06:41:24Z</time></trkpt>
<trkpt lat="43.695100" lon="-1.375739"><ele>26.0</ele><time>2025-10-22T06:41:29Z</time></trkpt>
<trkpt lat="43.695123" lon="-1.375793"><ele>24.7</ele><time>2025-10-22T06:41:35Z</time></trkpt>
<trkpt lat="43.695135" lon="-1.375860"><ele>22.2</ele><time>2025-10-22T06:41:42Z</time></trkpt>
<trkpt lat="43.695140" lon="-1.375925"><ele>25.2</ele><time>2025-10-22T06:41:47Z</time></trkpt>
<trkpt lat="43.695166" lon="-1.375988"><ele>25.2</ele><time>2025-10-22T06:41:52Z</time></trkpt>
<trkpt lat="43.695180" lon="-1.376051"><ele>24.3</ele><time>2025-10-22T06:41:58Z</time></trkpt>
<trkpt lat="43.695184" lon="-1.376117"><ele>23.2</ele><time>2025-10-22T06:42:04Z</time></trkpt>
<trkpt lat="43.695208" lon="-1.376175"><ele>24.9</ele><time>2025-10-22T06:42:13Z</time></trkpt>
<trkpt lat="43.695233" lon="-1.376238"><ele>25.3</ele><time>2025-10-22T06:42:23Z</time></trkpt>
<trkpt lat="43.695264" lon="-1.376284"><ele>25.6</ele><time>2025-10-22T06:42:27Z</time></trkpt>
<trkpt lat="43.695282" lon="-1.376349"><ele>25.5</ele><time>2025-10-22T06:42:34Z</time></trkpt>
<trkpt lat="43.695285" lon="-1.376421"><ele>20.3</ele><time>2025-10-22T06:42:40Z</time></trkpt>
<trkpt lat="43.695303" lon="-1.376482"><ele>20.7</ele><time>2025-10-22T06:42:44Z</time></trkpt>
<trkpt lat="43.695328" lon="-1.376537"><ele>20.9</ele><time>2025-10-22T06:42:52Z</time></trkpt>
<trkpt lat="43.695354" lon="-1.376591"><ele>20.9</ele><time>2025-10-22T06:42:59Z</time></trkpt>
<trkpt lat="43.695375" lon="-1.376652"><ele>19.0</ele><time>2025-10-22T06:43:08Z</time></trkpt>
<trkpt lat="43.695410" lon="-1.376700"><ele>22.4</ele><time>2025-10-22T06:43:15Z</time></trkpt>
<trkpt lat="43.695454" lon="-1.376731"><ele>19.3</ele><time>2025-10-22T06:43:29Z</time></trkpt>
<trkpt lat="43.695505" lon="-1.376725"><ele>19.9</ele><time>2025-10-22T06:43:36Z</time></trkpt>
<trkpt lat="43.695540" lon="-1.376685"><ele>20.2</ele><time>2025-10-22T06:43:51Z</time></trkpt>
<trkpt lat="43.695545" lon="-1.376751"><ele>18.3</ele><time>2025-10-22T06:45:10Z</time></trkpt>
<trkpt lat="43.695549" lon="-1.376816"><ele>18.1</ele><time>2025-10-22T06:45:16Z</time></trkpt>
<trkpt lat="43.695567" lon="-1.376876"><ele>16.9</ele><time>2025-10-22T06:45:22Z</time></trkpt>
<trkpt lat="43.695572" lon="-1.376938"><ele>17.3</ele><time>2025-10-22T06:45:27Z</time></trkpt>
<trkpt lat="43.695571" lon="-1.377009"><ele>20.4</ele><time>2025-10-22T06:45:34Z</time></trkpt>
<trkpt lat="43.695561" lon="-1.377073"><ele>21.6</ele><time>2025-10-22T06:45:41Z</time></trkpt>
<trkpt lat="43.695554" lon="-1.377141"><ele>20.6</ele><time>2025-10-22T06:45:47Z</time></trkpt>
<trkpt lat="43.695551" lon="-1.377211"><ele>19.8</ele><time>2025-10-22T06:45:52Z</time></trkpt>
<trkpt lat="43.695556" lon="-1.377275"><ele>19.0</ele><time>2025-10-22T06:45:56Z</time></trkpt>
<trkpt lat="43.695560" lon="-1.377349"><ele>18.6</ele><time>2025-10-22T06:46:01Z</time></trkpt>
<trkpt lat="43.695555" lon="-1.377413"><ele>17.8</ele><time>2025-10-22T06:46:07Z</time></trkpt>
<trkpt lat="43.695551" lon="-1.377482"><ele>16.5</ele><time>2025-10-22T06:46:12Z</time></trkpt>
<trkpt lat="43.695564" lon="-1.377553"><ele>15.9</ele><time>2025-10-22T06:46:19Z</time></trkpt>
<trkpt lat="43.695570" lon="-1.377629"><ele>15.8</ele><time>2025-10-22T06:46:25Z</time></trkpt>
<trkpt lat="43.695568" lon="-1.377697"><ele>16.1</ele><time>2025-10-22T06:46:29Z</time></trkpt>
<trkpt lat="43.695566" lon="-1.377760"><ele>16.3</ele><time>2025-10-22T06:46:33Z</time></trkpt>
<trkpt lat="43.695563" lon="-1.377827"><ele>16.1</ele><time>2025-10-22T06:46:38Z</time></trkpt>
<trkpt lat="43.695564" lon="-1.377900"><ele>16.0</ele><time>2025-10-22T06:46:44Z</time></trkpt>
<trkpt lat="43.695563" lon="-1.377965"><ele>16.7</ele><time>2025-10-22T06:46:50Z</time></trkpt>
<trkpt lat="43.695515" lon="-1.377977"><ele>17.0</ele><time>2025-10-22T06:46:56Z</time></trkpt>
<trkpt lat="43.695467" lon="-1.377969"><ele>16.0</ele><time>2025-10-22T06:47:00Z</time></trkpt>
<trkpt lat="43.695420" lon="-1.377967"><ele>16.0</ele><time>2025-10-22T06:47:04Z</time></trkpt>
<trkpt lat="43.695366" lon="-1.377967"><ele>16.9</ele><time>2025-10-22T06:47:09Z</time></trkpt>
<trkpt lat="43.695311" lon="-1.377960"><ele>16.8</ele><time>2025-10-22T06:47:14Z</time></trkpt>
<trkpt lat="43.695260" lon="-1.377960"><ele>16.6</ele><time>2025-10-22T06:47:19Z</time></trkpt>
<trkpt lat="43.695207" lon="-1.377960"><ele>15.9</ele><time>2025-10-22T06:47:24Z</time></trkpt>
<trkpt lat="43.695155" lon="-1.377961"><ele>16.2</ele><time>2025-10-22T06:47:29Z</time></trkpt>
<trkpt lat="43.695106" lon="-1.377955"><ele>16.1</ele><time>2025-10-22T06:47:34Z</time></trkpt>
<trkpt lat="43.695054" lon="-1.377949"><ele>15.8</ele><time>2025-10-22T06:47:39Z</time></trkpt>
<trkpt lat="43.695007" lon="-1.377946"><ele>16.1</ele><time>2025-10-22T06:47:45Z</time></trkpt>
<trkpt lat="43.694955" lon="-1.377930"><ele>16.3</ele><time>2025-10-22T06:47:52Z</time></trkpt>
<trkpt lat="43.694909" lon="-1.377914"><ele>17.3</ele><time>2025-10-22T06:47:57Z</time></trkpt>
<trkpt lat="43.694860" lon="-1.377891"><ele>16.4</ele><time>2025-10-22T06:48:04Z</time></trkpt>
<trkpt lat="43.694809" lon="-1.377892"><ele>17.0</ele><time>2025-10-22T06:48:10Z</time></trkpt>
<trkpt lat="43.694764" lon="-1.377903"><ele>18.1</ele><time>2025-10-22T06:48:17Z</time></trkpt>
<trkpt lat="43.694711" lon="-1.377891"><ele>17.0</ele><time>2025-10-22T06:48:23Z</time></trkpt>
<trkpt lat="43.694663" lon="-1.377884"><ele>16.9</ele><time>2025-10-22T06:48:30Z</time></trkpt>
<trkpt lat="43.694613" lon="-1.377874"><ele>19.8</ele><time>2025-10-22T06:48:36Z</time></trkpt>
<trkpt lat="43.694567" lon="-1.377867"><ele>21.1</ele><time>2025-10-22T06:48:44Z</time></trkpt>
<trkpt lat="43.694521" lon="-1.377862"><ele>19.3</ele><time>2025-10-22T06:48:51Z</time></trkpt>
<trkpt lat="43.694470" lon="-1.377876"><ele>19.5</ele><time>2025-10-22T06:48:57Z</time></trkpt>
<trkpt lat="43.694422" lon="-1.377868"><ele>18.9</ele><time>2025-10-22T06:49:03Z</time></trkpt>
<trkpt lat="43.694375" lon="-1.377851"><ele>17.4</ele><time>2025-10-22T06:49:08Z</time></trkpt>
<trkpt lat="43.694327" lon="-1.377846"><ele>17.9</ele><time>2025-10-22T06:49:13Z</time></trkpt>
<trkpt lat="43.694281" lon="-1.377844"><ele>18.1</ele><time>2025-10-22T06:49:20Z</time></trkpt>
<trkpt lat="43.694224" lon="-1.377848"><ele>16.3</ele><time>2025-10-22T06:49:27Z</time></trkpt>
<trkpt lat="43.694176" lon="-1.377864"><ele>16.6</ele><time>2025-10-22T06:49:31Z</time></trkpt>
<trkpt lat="43.694127" lon="-1.377881"><ele>17.3</ele><time>2025-10-22T06:49:36Z</time></trkpt>
<trkpt lat="43.694073" lon="-1.377897"><ele>18.1</ele><time>2025-10-22T06:49:41Z</time></trkpt>
<trkpt lat="43.694025" lon="-1.377918"><ele>17.1</ele><time>2025-10-22T06:49:46Z</time></trkpt>
<trkpt lat="43.693983" lon="-1.377956"><ele>18.4</ele><time>2025-10-22T06:49:52Z</time></trkpt>
<trkpt lat="43.693940" lon="-1.377991"><ele>19.5</ele><time>2025-10-22T06:50:00Z</time></trkpt>
<trkpt lat="43.693894" lon="-1.378022"><ele>17.8</ele><time>2025-10-22T06:50:06Z</time></trkpt>
<trkpt lat="43.693854" lon="-1.378053"><ele>18.7</ele><time>2025-10-22T06:50:11Z</time></trkpt>
<trkpt lat="43.693810" lon="-1.378088"><ele>20.1</ele><time>2025-10-22T06:50:19Z</time></trkpt>
<trkpt lat="43.693771" lon="-1.378124"><ele>20.2</ele><time>2025-10-22T06:50:24Z</time></trkpt>
<trkpt lat="43.693735" lon="-1.378168"><ele>19.5</ele><time>2025-10-22T06:50:29Z</time></trkpt>
<trkpt lat="43.693699" lon="-1.378221"><ele>17.8</ele><time>2025-10-22T06:50:34Z</time></trkpt>
<trkpt lat="43.693665" lon="-1.378261"><ele>16.8</ele><time>2025-10-22T06:50:38Z</time></trkpt>
<trkpt lat="43.693630" lon="-1.378312"><ele>17.4</ele><time>2025-10-22T06:50:43Z</time></trkpt>
<trkpt lat="43.693593" lon="-1.378363"><ele>19.7</ele><time>2025-10-22T06:50:48Z</time></trkpt>
<trkpt lat="43.693561" lon="-1.378412"><ele>18.5</ele><time>2025-10-22T06:50:54Z</time></trkpt>
<trkpt lat="43.693528" lon="-1.378456"><ele>20.2</ele><time>2025-10-22T06:50:59Z</time></trkpt>
<trkpt lat="43.693491" lon="-1.378495"><ele>21.4</ele><time>2025-10-22T06:51:05Z</time></trkpt>
<trkpt lat="43.693451" lon="-1.378539"><ele>22.7</ele><time>2025-10-22T06:51:10Z</time></trkpt>
<trkpt lat="43.693416" lon="-1.378582"><ele>22.8</ele><time>2025-10-22T06:51:15Z</time></trkpt>
<trkpt lat="43.693375" lon="-1.378620"><ele>23.9</ele><time>2025-10-22T06:51:21Z</time></trkpt>
<trkpt lat="43.693338" lon="-1.378668"><ele>24.1</ele><time>2025-10-22T06:51:25Z</time></trkpt>
<trkpt lat="43.693296" lon="-1.378720"><ele>23.3</ele><time>2025-10-22T06:51:30Z</time></trkpt>
<trkpt lat="43.693252" lon="-1.378746"><ele>22.3</ele><time>2025-10-22T06:51:34Z</time></trkpt>
<trkpt lat="43.693208" lon="-1.378763"><ele>21.8</ele><time>2025-10-22T06:51:38Z</time></trkpt>
<trkpt lat="43.693161" lon="-1.378777"><ele>23.1</ele><time>2025-10-22T06:51:42Z</time></trkpt>
<trkpt lat="43.693111" lon="-1.378803"><ele>21.7</ele><time>2025-10-22T06:51:46Z</time></trkpt>
<trkpt lat="43.693062" lon="-1.378828"><ele>21.2</ele><time>2025-10-22T06:51:50Z</time></trkpt>
<trkpt lat="43.693009" lon="-1.378839"><ele>20.8</ele><time>2025-10-22T06:51:55Z</time></trkpt>
<trkpt lat="43.692956" lon="-1.378844"><ele>20.9</ele><time>2025-10-22T06:51:59Z</time></trkpt>
<trkpt lat="43.692912" lon="-1.378831"><ele>19.7</ele><time>2025-10-22T06:52:02Z</time></trkpt>
<trkpt lat="43.692859" lon="-1.378850"><ele>18.2</ele><time>2025-10-22T06:52:06Z</time></trkpt>
<trkpt lat="43.692829" lon="-1.378904"><ele>17.7</ele><time>2025-10-22T06:52:10Z</time></trkpt>
<trkpt lat="43.692782" lon="-1.378897"><ele>17.1</ele><time>2025-10-22T06:52:21Z</time></trkpt>
<trkpt lat="43.692738" lon="-1.378880"><ele>16.6</ele><time>2025-10-22T06:52:27Z</time></trkpt>
<trkpt lat="43.692706" lon="-1.378824"><ele>17.3</ele><time>2025-10-22T06:52:33Z</time></trkpt>
<trkpt lat="43.692684" lon="-1.378759"><ele>19.5</ele><time>2025-10-22T06:52:38Z</time></trkpt>
<trkpt lat="43.692713" lon="-1.378694"><ele>19.3</ele><time>2025-10-22T06:52:43Z</time></trkpt>
<trkpt lat="43.692719" lon="-1.378622"><ele>19.2</ele><time>2025-10-22T06:52:49Z</time></trkpt>
<trkpt lat="43.692702" lon="-1.378551"><ele>18.7</ele><time>2025-10-22T06:52:54Z</time></trkpt>
<trkpt lat="43.692694" lon="-1.378481"><ele>18.4</ele><time>2025-10-22T06:52:58Z</time></trkpt>
<trkpt lat="43.692682" lon="-1.378416"><ele>17.5</ele><time>2025-10-22T06:53:02Z</time></trkpt>
<trkpt lat="43.692676" lon="-1.378340"><ele>18.1</ele><time>2025-10-22T06:53:07Z</time></trkpt>
<trkpt lat="43.692673" lon="-1.378273"><ele>18.0</ele><time>2025-10-22T06:53:12Z</time></trkpt>
<trkpt lat="43.692681" lon="-1.378204"><ele>18.6</ele><time>2025-10-22T06:53:17Z</time></trkpt>
<trkpt lat="43.692660" lon="-1.378143"><ele>19.6</ele><time>2025-10-22T06:53:23Z</time></trkpt>
<trkpt lat="43.692626" lon="-1.378101"><ele>20.1</ele><time>2025-10-22T06:54:07Z</time></trkpt>
<trkpt lat="43.692600" lon="-1.378153"><ele>20.0</ele><time>2025-10-22T06:54:36Z</time></trkpt>
<trkpt lat="43.692632" lon="-1.378102"><ele>18.3</ele><time>2025-10-22T06:54:57Z</time></trkpt>
<trkpt lat="43.692661" lon="-1.378152"><ele>20.5</ele><time>2025-10-22T06:55:33Z</time></trkpt>
<trkpt lat="43.692638" lon="-1.378095"><ele>21.5</ele><time>2025-10-22T06:56:14Z</time></trkpt>
<trkpt lat="43.692606" lon="-1.378146"><ele>23.5</ele><time>2025-10-22T06:56:35Z</time></trkpt>
<trkpt lat="43.692607" lon="-1.378214"><ele>22.0</ele><time>2025-10-22T06:56:49Z</time></trkpt>
<trkpt lat="43.692618" lon="-1.378282"><ele>22.1</ele><time>2025-10-22T06:56:53Z</time></trkpt>
<trkpt lat="43.692628" lon="-1.378350"><ele>20.4</ele><time>2025-10-22T06:56:57Z</time></trkpt>
<trkpt lat="43.692640" lon="-1.378414"><ele>20.3</ele><time>2025-10-22T06:57:01Z</time></trkpt>
<trkpt lat="43.692656" lon="-1.378478"><ele>21.5</ele><time>2025-10-22T06:57:05Z</time></trkpt>
<trkpt lat="43.692662" lon="-1.378553"><ele>21.5</ele><time>2025-10-22T06:57:10Z</time></trkpt>
<trkpt lat="43.692667" lon="-1.378618"><ele>21.5</ele><time>2025-10-22T06:57:14Z</time></trkpt>
<trkpt lat="43.692673" lon="-1.378689"><ele>21.1</ele><time>2025-10-22T06:57:18Z</time></trkpt>
<trkpt lat="43.692679" lon="-1.378751"><ele>20.6</ele><time>2025-10-22T06:57:22Z</time></trkpt>
<trkpt lat="43.692690" lon="-1.378816"><ele>21.7</ele><time>2025-10-22T06:57:27Z</time></trkpt>
<trkpt lat="43.692717" lon="-1.378873"><ele>22.5</ele><time>2025-10-22T06:57:32Z</time></trkpt>
<trkpt lat="43.692740" lon="-1.378936"><ele>23.9</ele><time>2025-10-22T06:57:36Z</time></trkpt>
<trkpt lat="43.692756" lon="-1.379005"><ele>24.2</ele><time>2025-10-22T06:57:40Z</time></trkpt>
<trkpt lat="43.692763" lon="-1.379075"><ele>24.1</ele><time>2025-10-22T06:57:44Z</time></trkpt>
<trkpt lat="43.692773" lon="-1.379137"><ele>23.4</ele><time>2025-10-22T06:57:48Z</time></trkpt>
<trkpt lat="43.692810" lon="-1.379190"><ele>22.4</ele><time>2025-10-22T06:57:53Z</time></trkpt>
<trkpt lat="43.692846" lon="-1.379230"><ele>22.9</ele><time>2025-10-22T06:57:57Z</time></trkpt>
<trkpt lat="43.692871" lon="-1.379283"><ele>22.9</ele><time>2025-10-22T06:58:01Z</time></trkpt>
<trkpt lat="43.692887" lon="-1.379344"><ele>23.1</ele><time>2025-10-22T06:58:05Z</time></trkpt>
<trkpt lat="43.692905" lon="-1.379404"><ele>23.9</ele><time>2025-10-22T06:58:09Z</time></trkpt>
<trkpt lat="43.692932" lon="-1.379466"><ele>25.6</ele><time>2025-10-22T06:58:14Z</time></trkpt>
<trkpt lat="43.692963" lon="-1.379514"><ele>25.5</ele><time>2025-10-22T06:58:18Z</time></trkpt>
<trkpt lat="43.692987" lon="-1.379570"><ele>24.9</ele><time>2025-10-22T06:58:22Z</time></trkpt>
<trkpt lat="43.692987" lon="-1.379638"><ele>25.7</ele><time>2025-10-22T06:58:26Z</time></trkpt>
<trkpt lat="43.692994" lon="-1.379710"><ele>26.0</ele><time>2025-10-22T06:58:31Z</time></trkpt>
<trkpt lat="43.692963" lon="-1.379768"><ele>25.6</ele><time>2025-10-22T06:58:36Z</time></trkpt>
<trkpt lat="43.692910" lon="-1.379776"><ele>24.6</ele><time>2025-10-22T06:58:40Z</time></trkpt>
<trkpt lat="43.692863" lon="-1.379788"><ele>25.6</ele><time>2025-10-22T06:58:45Z</time></trkpt>
<trkpt lat="43.692823" lon="-1.379826"><ele>28.2</ele><time>2025-10-22T06:58:50Z</time></trkpt>
<trkpt lat="43.692801" lon="-1.379881"><ele>28.1</ele><time>2025-10-22T06:58:55Z</time></trkpt>
<trkpt lat="43.692776" lon="-1.379949"><ele>27.8</ele><time>2025-10-22T06:59:00Z</time></trkpt>
<trkpt lat="43.692760" lon="-1.380011"><ele>26.3</ele><time>2025-10-22T06:59:06Z</time></trkpt>
<trkpt lat="43.692726" lon="-1.380062"><ele>27.8</ele><time>2025-10-22T06:59:24Z</time></trkpt>
<trkpt lat="43.692698" lon="-1.380127"><ele>26.6</ele><time>2025-10-22T06:59:29Z</time></trkpt>
<trkpt lat="43.692689" lon="-1.380188"><ele>28.5</ele><time>2025-10-22T06:59:34Z</time></trkpt>
<trkpt lat="43.692680" lon="-1.380253"><ele>28.4</ele><time>2025-10-22T06:59:38Z</time></trkpt>
<trkpt lat="43.692680" lon="-1.380318"><ele>28.1</ele><time>2025-10-22T06:59:42Z</time></trkpt>
<trkpt lat="43.692681" lon="-1.380386"><ele>28.1</ele><time>2025-10-22T06:59:47Z</time></trkpt>
<trkpt lat="43.692675" lon="-1.380456"><ele>27.7</ele><time>2025-10-22T06:59:52Z</time></trkpt>
<trkpt lat="43.692672" lon="-1.380525"><ele>27.8</ele><time>2025-10-22T06:59:57Z</time></trkpt>
<trkpt lat="43.692675" lon="-1.380595"><ele>30.0</ele><time>2025-10-22T07:00:02Z</time></trkpt>
<trkpt lat="43.692672" lon="-1.380662"><ele>29.0</ele><time>2025-10-22T07:00:08Z</time></trkpt>
<trkpt lat="43.692676" lon="-1.380729"><ele>29.0</ele><time>2025-10-22T07:00:14Z</time></trkpt>
<trkpt lat="43.692685" lon="-1.380801"><ele>28.7</ele><time>2025-10-22T07:00:20Z</time></trkpt>
<trkpt lat="43.692677" lon="-1.380867"><ele>31.4</ele><time>2025-10-22T07:00:25Z</time></trkpt>
<trkpt lat="43.692652" lon="-1.380930"><ele>34.7</ele><time>2025-10-22T07:00:32Z</time></trkpt>
<trkpt lat="43.692628" lon="-1.380993"><ele>34.1</ele><time>2025-10-22T07:00:38Z</time></trkpt>
<trkpt lat="43.692591" lon="-1.381042"><ele>36.2</ele><time>2025-10-22T07:00:45Z</time></trkpt>
<trkpt lat="43.692553" lon="-1.381087"><ele>36.2</ele><time>2025-10-22T07:00:50Z</time></trkpt>
<trkpt lat="43.692520" lon="-1.381134"><ele>36.4</ele><time>2025-10-22T07:00:55Z</time></trkpt>
<trkpt lat="43.692488" lon="-1.381179"><ele>37.6</ele><time>2025-10-22T07:01:01Z</time></trkpt>
<trkpt lat="43.692445" lon="-1.381225"><ele>36.8</ele><time>2025-10-22T07:01:06Z</time></trkpt>
<trkpt lat="43.692400" lon="-1.381257"><ele>39.7</ele><time>2025-10-22T07:01:13Z</time></trkpt>
<trkpt lat="43.692355" lon="-1.381287"><ele>40.5</ele><time>2025-10-22T07:01:18Z</time></trkpt>
<trkpt lat="43.692305" lon="-1.381315"><ele>39.0</ele><time>2025-10-22T07:01:23Z</time></trkpt>
<trkpt lat="43.692258" lon="-1.381341"><ele>38.6</ele><time>2025-10-22T07:01:27Z</time></trkpt>
<trkpt lat="43.692206" lon="-1.381346"><ele>39.1</ele><time>2025-10-22T07:01:32Z</time></trkpt>
<trkpt lat="43.692155" lon="-1.381359"><ele>41.7</ele><time>2025-10-22T07:01:38Z</time></trkpt>
<trkpt lat="43.692108" lon="-1.381372"><ele>40.7</ele><time>2025-10-22T07:01:42Z</time></trkpt>
<trkpt lat="43.692063" lon="-1.381388"><ele>40.0</ele><time>2025-10-22T07:01:46Z</time></trkpt>
<trkpt lat="43.692016" lon="-1.381395"><ele>42.2</ele><time>2025-10-22T07:01:51Z</time></trkpt>
<trkpt lat="43.691967" lon="-1.381407"><ele>42.6</ele><time>2025-10-22T07:01:55Z</time></trkpt>
<trkpt lat="43.691914" lon="-1.381436"><ele>40.8</ele><time>2025-10-22T07:01:59Z</time></trkpt>
<trkpt lat="43.691866" lon="-1.381449"><ele>40.9</ele><time>2025-10-22T07:02:02Z</time></trkpt>
<trkpt lat="43.691811" lon="-1.381466"><ele>39.4</ele><time>2025-10-22T07:02:06Z</time></trkpt>
<trkpt lat="43.691769" lon="-1.381494"><ele>37.8</ele><time>2025-10-22T07:02:10Z</time></trkpt>
<trkpt lat="43.691725" lon="-1.381540"><ele>38.2</ele><time>2025-10-22T07:02:14Z</time></trkpt>
<trkpt lat="43.691680" lon="-1.381567"><ele>37.9</ele><time>2025-10-22T07:02:18Z</time></trkpt>
<trkpt lat="43.691631" lon="-1.381597"><ele>35.6</ele><time>2025-10-22T07:02:23Z</time></trkpt>
<trkpt lat="43.691600" lon="-1.381646"><ele>39.8</ele><time>2025-10-22T07:02:27Z</time></trkpt>
<trkpt lat="43.691565" lon="-1.381691"><ele>38.8</ele><time>2025-10-22T07:02:32Z</time></trkpt>
<trkpt lat="43.691534" lon="-1.381739"><ele>40.5</ele><time>2025-10-22T07:02:36Z</time></trkpt>
<trkpt lat="43.691499" lon="-1.381792"><ele>41.0</ele><time>2025-10-22T07:02:41Z</time></trkpt>
<trkpt lat="43.691465" lon="-1.381839"><ele>42.4</ele><time>2025-10-22T07:02:46Z</time></trkpt>
<trkpt lat="43.691427" lon="-1.381886"><ele>42.0</ele><time>2025-10-22T07:02:51Z</time></trkpt>
<trkpt lat="43.691396" lon="-1.381937"><ele>41.1</ele><time>2025-10-22T07:02:55Z</time></trkpt>
<trkpt lat="43.691370" lon="-1.381999"><ele>42.7</ele><time>2025-10-22T07:02:59Z</time></trkpt>
<trkpt lat="43.691347" lon="-1.382055"><ele>42.7</ele><time>2025-10-22T07:03:04Z</time></trkpt>
<trkpt lat="43.691321" lon="-1.382118"><ele>43.7</ele><time>2025-10-22T07:03:09Z</time></trkpt>
<trkpt lat="43.691278" lon="-1.382159"><ele>45.5</ele><time>2025-10-22T07:03:13Z</time></trkpt>
<trkpt lat="43.691242" lon="-1.382206"><ele>45.6</ele><time>2025-10-22T07:03:17Z</time></trkpt>
<trkpt lat="43.691193" lon="-1.382242"><ele>47.4</ele><time>2025-10-22T07:03:23Z</time></trkpt>
<trkpt lat="43.691149" lon="-1.382264"><ele>46.5</ele><time>2025-10-22T07:03:27Z</time></trkpt>
<trkpt lat="43.691107" lon="-1.382292"><ele>47.8</ele><time>2025-10-22T07:03:32Z</time></trkpt>
<trkpt lat="43.691055" lon="-1.382285"><ele>48.5</ele><time>2025-10-22T07:03:36Z</time></trkpt>
<trkpt lat="43.691004" lon="-1.382283"><ele>47.3</ele><time>2025-10-22T07:03:40Z</time></trkpt>
<trkpt lat="43.690953" lon="-1.382303"><ele>46.4</ele><time>2025-10-22T07:03:44Z</time></trkpt>
<trkpt lat="43.690904" lon="-1.382323"><ele>47.7</ele><time>2025-10-22T07:03:49Z</time></trkpt>
<trkpt lat="43.690868" lon="-1.382368"><ele>49.2</ele><time>2025-10-22T07:03:53Z</time></trkpt>
<trkpt lat="43.690825" lon="-1.382415"><ele>46.9</ele><time>2025-10-22T07:03:58Z</time></trkpt>
<trkpt lat="43.690778" lon="-1.382454"><ele>49.2</ele><time>2025-10-22T07:04:04Z</time></trkpt>
<trkpt lat="43.690741" lon="-1.382495"><ele>49.9</ele><time>2025-10-22T07:04:10Z</time></trkpt>
<trkpt lat="43.690721" lon="-1.382556"><ele>48.2</ele><time>2025-10-22T07:04:15Z</time></trkpt>
<trkpt lat="43.690703" lon="-1.382618"><ele>49.3</ele><time>2025-10-22T07:04:20Z</time></trkpt>
<trkpt lat="43.690685" lon="-1.382681"><ele>50.3</ele><time>2025-10-22T07:04:25Z</time></trkpt>
<trkpt lat="43.690662" lon="-1.382736"><ele>48.4</ele><time>2025-10-22T07:04:29Z</time></trkpt>
<trkpt lat="43.690656" lon="-1.382802"><ele>47.5</ele><time>2025-10-22T07:04:34Z</time></trkpt>
<trkpt lat="43.690641" lon="-1.382870"><ele>47.7</ele><time>2025-10-22T07:04:39Z</time></trkpt>
<trkpt lat="43.690640" lon="-1.382935"><ele>49.9</ele><time>2025-10-22T07:04:43Z</time></trkpt>
<trkpt lat="43.690646" lon="-1.382999"><ele>51.8</ele><time>2025-10-22T07:04:47Z</time></trkpt>
<trkpt lat="43.690630" lon="-1.383068"><ele>51.0</ele><time>2025-10-22T07:04:52Z</time></trkpt>
<trkpt lat="43.690611" lon="-1.383132"><ele>50.4</ele><time>2025-10-22T07:04:58Z</time></trkpt>
<trkpt lat="43.690619" lon="-1.383199"><ele>50.1</ele><time>2025-10-22T07:05:02Z</time></trkpt>
<trkpt lat="43.690627" lon="-1.383271"><ele>51.1</ele><time>2025-10-22T07:05:06Z</time></trkpt>
<trkpt lat="43.690624" lon="-1.383336"><ele>53.3</ele><time>2025-10-22T07:05:10Z</time></trkpt>
<trkpt lat="43.690625" lon="-1.383413"><ele>53.7</ele><time>2025-10-22T07:05:15Z</time></trkpt>
<trkpt lat="43.690634" lon="-1.383477"><ele>51.3</ele><time>2025-10-22T07:05:19Z</time></trkpt>
<trkpt lat="43.690633" lon="-1.383547"><ele>51.7</ele><time>2025-10-22T07:05:23Z</time></trkpt>
<trkpt lat="43.690629" lon="-1.383624"><ele>52.7</ele><time>2025-10-22T07:05:28Z</time></trkpt>
<trkpt lat="43.690630" lon="-1.383686"><ele>53.9</ele><time>2025-10-22T07:05:32Z</time></trkpt>
<trkpt lat="43.690641" lon="-1.383762"><ele>54.3</ele><time>2025-10-22T07:05:37Z</time></trkpt>
<trkpt lat="43.690646" lon="-1.383836"><ele>55.4</ele><time>2025-10-22T07:05:41Z</time></trkpt>
<trkpt lat="43.690643" lon="-1.383910"><ele>56.0</ele><time>2025-10-22T07:05:46Z</time></trkpt>
<trkpt lat="43.690652" lon="-1.383983"><ele>53.2</ele><time>2025-10-22T07:05:51Z</time></trkpt>
<trkpt lat="43.690666" lon="-1.384047"><ele>51.8</ele><time>2025-10-22T07:05:55Z</time></trkpt>
<trkpt lat="43.690683" lon="-1.384119"><ele>53.0</ele><time>2025-10-22T07:06:00Z</time></trkpt>
<trkpt lat="43.690698" lon="-1.384196"><ele>53.6</ele><time>2025-10-22T07:06:07Z</time></trkpt>
<trkpt lat="43.690706" lon="-1.384273"><ele>51.9</ele><time>2025-10-22T07:06:12Z</time></trkpt>
<trkpt lat="43.690707" lon="-1.384345"><ele>50.2</ele><time>2025-10-22T07:06:18Z</time></trkpt>
<trkpt lat="43.690714" lon="-1.384418"><ele>53.5</ele><time>2025-10-22T07:06:23Z</time></trkpt>
<trkpt lat="43.690731" lon="-1.384476"><ele>51.9</ele><time>2025-10-22T07:06:27Z</time></trkpt>
<trkpt lat="43.690740" lon="-1.384545"><ele>50.2</ele><time>2025-10-22T07:06:32Z</time></trkpt>
<trkpt lat="43.690739" lon="-1.384620"><ele>50.2</ele><time>2025-10-22T07:06:37Z</time></trkpt>
<trkpt lat="43.690737" lon="-1.384693"><ele>50.6</ele><time>2025-10-22T07:06:42Z</time></trkpt>
<trkpt lat="43.690734" lon="-1.384769"><ele>49.9</ele><time>2025-10-22T07:06:47Z</time></trkpt>
<trkpt lat="43.690750" lon="-1.384838"><ele>47.8</ele><time>2025-10-22T07:06:52Z</time></trkpt>
<trkpt lat="43.690775" lon="-1.384905"><ele>46.7</ele><time>2025-10-22T07:06:57Z</time></trkpt>
<trkpt lat="43.690782" lon="-1.384967"><ele>44.9</ele><time>2025-10-22T07:07:02Z</time></trkpt>
<trkpt lat="43.690801" lon="-1.385038"><ele>45.5</ele><time>2025-10-22T07:07:08Z</time></trkpt>
<trkpt lat="43.690812" lon="-1.385104"><ele>48.6</ele><time>2025-10-22T07:07:12Z</time></trkpt>
<trkpt lat="43.690812" lon="-1.385170"><ele>49.1</ele><time>2025-10-22T07:07:16Z</time></trkpt>
<trkpt lat="43.690810" lon="-1.385239"><ele>49.3</ele><time>2025-10-22T07:07:21Z</time></trkpt>
<trkpt lat="43.690814" lon="-1.385311"><ele>51.2</ele><time>2025-10-22T07:07:26Z</time></trkpt>
<trkpt lat="43.690805" lon="-1.385384"><ele>47.9</ele><time>2025-10-22T07:07:31Z</time></trkpt>
<trkpt lat="43.690802" lon="-1.385447"><ele>49.2</ele><time>2025-10-22T07:07:37Z</time></trkpt>
<trkpt lat="43.690795" lon="-1.385511"><ele>49.7</ele><time>2025-10-22T07:07:43Z</time></trkpt>
<trkpt lat="43.690792" lon="-1.385580"><ele>49.0</ele><time>2025-10-22T07:07:48Z</time></trkpt>
<trkpt lat="43.690808" lon="-1.385647"><ele>49.0</ele><time>2025-10-22T07:07:53Z</time></trkpt>
<trkpt lat="43.690824" lon="-1.385721"><ele>49.4</ele><time>2025-10-22T07:07:58Z</time></trkpt>
<trkpt lat="43.690823" lon="-1.385786"><ele>49.0</ele><time>2025-10-22T07:08:03Z</time></trkpt>
<trkpt lat="43.690818" lon="-1.385859"><ele>50.0</ele><time>2025-10-22T07:08:08Z</time></trkpt>
<trkpt lat="43.690832" lon="-1.385933"><ele>49.7</ele><time>2025-10-22T07:08:13Z</time></trkpt>
<trkpt lat="43.690834" lon="-1.386003"><ele>51.2</ele><time>2025-10-22T07:08:18Z</time></trkpt>
<trkpt lat="43.690841" lon="-1.386078"><ele>50.4</ele><time>2025-10-22T07:08:23Z</time></trkpt>
<trkpt lat="43.690847" lon="-1.386140"><ele>51.2</ele><time>2025-10-22T07:08:27Z</time></trkpt>
<trkpt lat="43.690861" lon="-1.386214"><ele>51.2</ele><time>2025-10-22T07:08:32Z</time></trkpt>
<trkpt lat="43.690880" lon="-1.386271"><ele>48.7</ele><time>2025-10-22T07:08:35Z</time></trkpt>
<trkpt lat="43.690898" lon="-1.386329"><ele>47.7</ele><time>2025-10-22T07:08:38Z</time></trkpt>
<trkpt lat="43.690921" lon="-1.386395"><ele>48.3</ele><time>2025-10-22T07:08:42Z</time></trkpt>
<trkpt lat="43.690938" lon="-1.386459"><ele>48.2</ele><time>2025-10-22T07:08:46Z</time></trkpt>
<trkpt lat="43.690955" lon="-1.386527"><ele>48.7</ele><time>2025-10-22T07:08:50Z</time></trkpt>
<trkpt lat="43.690978" lon="-1.386584"><ele>48.6</ele><time>2025-10-22T07:08:54Z</time></trkpt>
<trkpt lat="43.691006" lon="-1.386648"><ele>48.4</ele><time>2025-10-22T07:08:59Z</time></trkpt>
<trkpt lat="43.691034" lon="-1.386703"><ele>48.9</ele><time>2025-10-22T07:09:03Z</time></trkpt>
<trkpt lat="43.691055" lon="-1.386762"><ele>50.1</ele><time>2025-10-22T07:09:07Z</time></trkpt>
<trkpt lat="43.691073" lon="-1.386822"><ele>49.1</ele><time>2025-10-22T07:09:11Z</time></trkpt>
<trkpt lat="43.691093" lon="-1.386880"><ele>48.1</ele><time>2025-10-22T07:09:15Z</time></trkpt>
<trkpt lat="43.691106" lon="-1.386945"><ele>46.3</ele><time>2025-10-22T07:09:19Z</time></trkpt>
<trkpt lat="43.691119" lon="-1.387010"><ele>46.7</ele><time>2025-10-22T07:09:23Z</time></trkpt>
<trkpt lat="43.691128" lon="-1.387073"><ele>47.2</ele><time>2025-10-22T07:09:27Z</time></trkpt>
<trkpt lat="43.691141" lon="-1.387133"><ele>46.8</ele><time>2025-10-22T07:09:31Z</time></trkpt>
<trkpt lat="43.691152" lon="-1.387195"><ele>47.6</ele><time>2025-10-22T07:09:35Z</time></trkpt>
<trkpt lat="43.691173" lon="-1.387267"><ele>46.6</ele><time>2025-10-22T07:09:40Z</time></trkpt>
<trkpt lat="43.691191" lon="-1.387331"><ele>46.3</ele><time>2025-10-22T07:09:44Z</time></trkpt>
<trkpt lat="43.691203" lon="-1.387407"><ele>46.5</ele><time>2025-10-22T07:09:49Z</time></trkpt>
<trkpt lat="43.691221" lon="-1.387465"><ele>46.6</ele><time>2025-10-22T07:09:53Z</time></trkpt>
<trkpt lat="43.691247" lon="-1.387537"><ele>47.6</ele><time>2025-10-22T07:09:57Z</time></trkpt>
<trkpt lat="43.691265" lon="-1.387605"><ele>47.0</ele><time>2025-10-22T07:10:01Z</time></trkpt>
<trkpt lat="43.691282" lon="-1.387673"><ele>47.0</ele><time>2025-10-22T07:10:05Z</time></trkpt>
<trkpt lat="43.691297" lon="-1.387739"><ele>46.3</ele><time>2025-10-22T07:10:09Z</time></trkpt>
<trkpt lat="43.691291" lon="-1.387808"><ele>45.9</ele><time>2025-10-22T07:10:14Z</time></trkpt>
<trkpt lat="43.691290" lon="-1.387884"><ele>44.5</ele><time>2025-10-22T07:10:19Z</time></trkpt>
<trkpt lat="43.691309" lon="-1.387950"><ele>45.0</ele><time>2025-10-22T07:10:23Z</time></trkpt>
<trkpt lat="43.691317" lon="-1.388018"><ele>46.4</ele><time>2025-10-22T07:10:27Z</time></trkpt>
<trkpt lat="43.691323" lon="-1.388087"><ele>45.3</ele><time>2025-10-22T07:10:31Z</time></trkpt>
<trkpt lat="43.691338" lon="-1.388150"><ele>47.5</ele><time>2025-10-22T07:10:36Z</time></trkpt>
<trkpt lat="43.691334" lon="-1.388215"><ele>48.9</ele><time>2025-10-22T07:10:41Z</time></trkpt>
<trkpt lat="43.691345" lon="-1.388285"><ele>46.9</ele><time>2025-10-22T07:10:46Z</time></trkpt>
<trkpt lat="43.691363" lon="-1.388349"><ele>45.6</ele><time>2025-10-22T07:10:50Z</time></trkpt>
<trkpt lat="43.691381" lon="-1.388422"><ele>43.7</ele><time>2025-10-22T07:10:54Z</time></trkpt>
<trkpt lat="43.691401" lon="-1.388495"><ele>42.3</ele><time>2025-10-22T07:10:58Z</time></trkpt>
<trkpt lat="43.691421" lon="-1.388554"><ele>43.3</ele><time>2025-10-22T07:11:01Z</time></trkpt>
<trkpt lat="43.691439" lon="-1.388625"><ele>44.8</ele><time>2025-10-22T07:11:05Z</time></trkpt>
<trkpt lat="43.691459" lon="-1.388682"><ele>43.8</ele><time>2025-10-22T07:11:09Z</time></trkpt>
<trkpt lat="43.691470" lon="-1.388746"><ele>43.5</ele><time>2025-10-22T07:11:14Z</time></trkpt>
<trkpt lat="43.691478" lon="-1.388824"><ele>43.2</ele><time>2025-10-22T07:11:18Z</time></trkpt>
<trkpt lat="43.691476" lon="-1.388901"><ele>43.7</ele><time>2025-10-22T07:11:22Z</time></trkpt>
<trkpt lat="43.691485" lon="-1.388967"><ele>44.5</ele><time>2025-10-22T07:11:26Z</time></trkpt>
<trkpt lat="43.691486" lon="-1.389049"><ele>42.4</ele><time>2025-10-22T07:11:31Z</time></trkpt>
<trkpt lat="43.691488" lon="-1.389113"><ele>42.1</ele><time>2025-10-22T07:11:34Z</time></trkpt>
<trkpt lat="43.691490" lon="-1.389193"><ele>41.2</ele><time>2025-10-22T07:11:38Z</time></trkpt>
<trkpt lat="43.691498" lon="-1.389269"><ele>40.7</ele><time>2025-10-22T07:11:43Z</time></trkpt>
<trkpt lat="43.691489" lon="-1.389338"><ele>39.6</ele><time>2025-10-22T07:11:47Z</time></trkpt>
<trkpt lat="43.691489" lon="-1.389419"><ele>40.9</ele><time>2025-10-22T07:11:52Z</time></trkpt>
<trkpt lat="43.691487" lon="-1.389481"><ele>40.8</ele><time>2025-10-22T07:11:56Z</time></trkpt>
<trkpt lat="43.691489" lon="-1.389560"><ele>39.2</ele><time>2025-10-22T07:12:01Z</time></trkpt>
<trkpt lat="43.691493" lon="-1.389637"><ele>39.8</ele><time>2025-10-22T07:12:05Z</time></trkpt>
<trkpt lat="43.691492" lon="-1.389711"><ele>41.0</ele><time>2025-10-22T07:12:09Z</time></trkpt>
<trkpt lat="43.691484" lon="-1.389785"><ele>41.4</ele><time>2025-10-22T07:12:13Z</time></trkpt>
<trkpt lat="43.691494" lon="-1.389851"><ele>39.6</ele><time>2025-10-22T07:12:17Z</time></trkpt>
<trkpt lat="43.691507" lon="-1.389915"><ele>37.6</ele><time>2025-10-22T07:12:21Z</time></trkpt>
<trkpt lat="43.691511" lon="-1.389985"><ele>37.6</ele><time>2025-10-22T07:12:25Z</time></trkpt>
<trkpt lat="43.691525" lon="-1.390057"><ele>38.6</ele><time>2025-10-22T07:12:30Z</time></trkpt>
<trkpt lat="43.691531" lon="-1.390128"><ele>38.5</ele><time>2025-10-22T07:12:34Z</time></trkpt>
<trkpt lat="43.691534" lon="-1.390199"><ele>38.0</ele><time>2025-10-22T07:12:38Z</time></trkpt>
<trkpt lat="43.691535" lon="-1.390262"><ele>40.1</ele><time>2025-10-22T07:12:42Z</time></trkpt>
<trkpt lat="43.691542" lon="-1.390331"><ele>40.5</ele><time>2025-10-22T07:12:46Z</time></trkpt>
<trkpt lat="43.691533" lon="-1.390393"><ele>42.3</ele><time>2025-10-22T07:12:50Z</time></trkpt>
<trkpt lat="43.691527" lon="-1.390462"><ele>42.6</ele><time>2025-10-22T07:12:56Z</time></trkpt>
<trkpt lat="43.691526" lon="-1.390539"><ele>45.4</ele><time>2025-10-22T07:13:02Z</time></trkpt>
<trkpt lat="43.691521" lon="-1.390602"><ele>46.0</ele><time>2025-10-22T07:13:06Z</time></trkpt>
<trkpt lat="43.691500" lon="-1.390669"><ele>44.8</ele><time>2025-10-22T07:13:10Z</time></trkpt>
<trkpt lat="43.691493" lon="-1.390732"><ele>45.8</ele><time>2025-10-22T07:13:14Z</time></trkpt>
<trkpt lat="43.691493" lon="-1.390806"><ele>41.7</ele><time>2025-10-22T07:13:19Z</time></trkpt>
<trkpt lat="43.691497" lon="-1.390871"><ele>42.4</ele><time>2025-10-22T07:13:23Z</time></trkpt>
<trkpt lat="43.691533" lon="-1.390926"><ele>39.5</ele><time>2025-10-22T07:13:27Z</time></trkpt>
<trkpt lat="43.691542" lon="-1.390995"><ele>38.4</ele><time>2025-10-22T07:13:31Z</time></trkpt>
<trkpt lat="43.691568" lon="-1.391072"><ele>36.2</ele><time>2025-10-22T07:13:35Z</time></trkpt>
<trkpt lat="43.691590" lon="-1.391132"><ele>35.7</ele><time>2025-10-22T07:13:38Z</time></trkpt>
<trkpt lat="43.691613" lon="-1.391203"><ele>36.0</ele><time>2025-10-22T07:13:42Z</time></trkpt>
<trkpt lat="43.691627" lon="-1.391264"><ele>36.9</ele><time>2025-10-22T07:13:46Z</time></trkpt>
<trkpt lat="43.691638" lon="-1.391329"><ele>38.1</ele><time>2025-10-22T07:13:50Z</time></trkpt>
<trkpt lat="43.691655" lon="-1.391390"><ele>38.8</ele><time>2025-10-22T07:13:54Z</time></trkpt>
<trkpt lat="43.691654" lon="-1.391459"><ele>38.0</ele><time>2025-10-22T07:13:58Z</time></trkpt>
<trkpt lat="43.691661" lon="-1.391534"><ele>39.2</ele><time>2025-10-22T07:14:02Z</time></trkpt>
<trkpt lat="43.691668" lon="-1.391606"><ele>39.2</ele><time>2025-10-22T07:14:06Z</time></trkpt>
<trkpt lat="43.691683" lon="-1.391673"><ele>40.1</ele><time>2025-10-22T07:14:10Z</time></trkpt>
<trkpt lat="43.691685" lon="-1.391747"><ele>40.4</ele><time>2025-10-22T07:14:15Z</time></trkpt>
<trkpt lat="43.691681" lon="-1.391809"><ele>41.9</ele><time>2025-10-22T07:14:19Z</time></trkpt>
<trkpt lat="43.691695" lon="-1.391872"><ele>41.1</ele><time>2025-10-22T07:14:23Z</time></trkpt>
<trkpt lat="43.691705" lon="-1.391944"><ele>40.2</ele><time>2025-10-22T07:14:28Z</time></trkpt>
<trkpt lat="43.691711" lon="-1.392008"><ele>40.5</ele><time>2025-10-22T07:14:32Z</time></trkpt>
<trkpt lat="43.691727" lon="-1.392079"><ele>39.3</ele><time>2025-10-22T07:14:36Z</time></trkpt>
<trkpt lat="43.691728" lon="-1.392152"><ele>38.9</ele><time>2025-10-22T07:14:40Z</time></trkpt>
<trkpt lat="43.691721" lon="-1.392214"><ele>37.1</ele><time>2025-10-22T07:14:44Z</time></trkpt>
<trkpt lat="43.691727" lon="-1.392283"><ele>35.3</ele><time>2025-10-22T07:14:48Z</time></trkpt>
<trkpt lat="43.691731" lon="-1.392357"><ele>36.1</ele><time>2025-10-22T07:14:52Z</time></trkpt>
<trkpt lat="43.691736" lon="-1.392434"><ele>35.6</ele><time>2025-10-22T07:14:56Z</time></trkpt>
<trkpt lat="43.691745" lon="-1.392499"><ele>34.6</ele><time>2025-10-22T07:15:00Z</time></trkpt>
<trkpt lat="43.691741" lon="-1.392561"><ele>33.2</ele><time>2025-10-22T07:15:04Z</time></trkpt>
<trkpt lat="43.691736" lon="-1.392637"><ele>31.2</ele><time>2025-10-22T07:15:08Z</time></trkpt>
<trkpt lat="43.691737" lon="-1.392711"><ele>30.7</ele><time>2025-10-22T07:15:12Z</time></trkpt>
<trkpt lat="43.691721" lon="-1.392769"><ele>29.3</ele><time>2025-10-22T07:15:48Z</time></trkpt>
<trkpt lat="43.691712" lon="-1.392831"><ele>29.4</ele><time>2025-10-22T07:15:52Z</time></trkpt>
<trkpt lat="43.691712" lon="-1.392897"><ele>28.2</ele><time>2025-10-22T07:15:56Z</time></trkpt>
<trkpt lat="43.691709" lon="-1.392974"><ele>28.3</ele><time>2025-10-22T07:16:00Z</time></trkpt>
<trkpt lat="43.691715" lon="-1.393056"><ele>28.7</ele><time>2025-10-22T07:16:04Z</time></trkpt>
<trkpt lat="43.691724" lon="-1.393118"><ele>30.1</ele><time>2025-10-22T07:16:07Z</time></trkpt>
<trkpt lat="43.691733" lon="-1.393186"><ele>34.7</ele><time>2025-10-22T07:16:14Z</time></trkpt>
<trkpt lat="43.691735" lon="-1.393254"><ele>31.6</ele><time>2025-10-22T07:16:18Z</time></trkpt>
<trkpt lat="43.691748" lon="-1.393327"><ele>30.7</ele><time>2025-10-22T07:16:22Z</time></trkpt>
<trkpt lat="43.691770" lon="-1.393389"><ele>33.2</ele><time>2025-10-22T07:16:25Z</time></trkpt>
<trkpt lat="43.691795" lon="-1.393444"><ele>35.9</ele><time>2025-10-22T07:16:28Z</time></trkpt>
<trkpt lat="43.691824" lon="-1.393510"><ele>37.2</ele><time>2025-10-22T07:16:32Z</time></trkpt>
<trkpt lat="43.691858" lon="-1.393570"><ele>37.9</ele><time>2025-10-22T07:16:36Z</time></trkpt>
<trkpt lat="43.691877" lon="-1.393641"><ele>39.8</ele><time>2025-10-22T07:16:40Z</time></trkpt>
<trkpt lat="43.691902" lon="-1.393712"><ele>40.6</ele><time>2025-10-22T07:16:44Z</time></trkpt>
<trkpt lat="43.691929" lon="-1.393767"><ele>40.3</ele><time>2025-10-22T07:16:48Z</time></trkpt>
<trkpt lat="43.691966" lon="-1.393809"><ele>39.9</ele><time>2025-10-22T07:16:52Z</time></trkpt>
<trkpt lat="43.691997" lon="-1.393872"><ele>39.1</ele><time>2025-10-22T07:16:56Z</time></trkpt>
<trkpt lat="43.692030" lon="-1.393928"><ele>39.4</ele><time>2025-10-22T07:16:59Z</time></trkpt>
<trkpt lat="43.692051" lon="-1.393996"><ele>40.1</ele><time>2025-10-22T07:17:03Z</time></trkpt>
<trkpt lat="43.692063" lon="-1.394070"><ele>39.1</ele><time>2025-10-22T07:17:07Z</time></trkpt>
<trkpt lat="43.692083" lon="-1.394144"><ele>37.6</ele><time>2025-10-22T07:17:11Z</time></trkpt>
<trkpt lat="43.692095" lon="-1.394213"><ele>38.8</ele><time>2025-10-22T07:17:14Z</time></trkpt>
<trkpt lat="43.692111" lon="-1.394275"><ele>39.4</ele><time>2025-10-22T07:17:17Z</time></trkpt>
<trkpt lat="43.692127" lon="-1.394350"><ele>39.0</ele><time>2025-10-22T07:17:21Z</time></trkpt>
<trkpt lat="43.692137" lon="-1.394431"><ele>40.0</ele><time>2025-10-22T07:17:25Z</time></trkpt>
<trkpt lat="43.692147" lon="-1.394510"><ele>41.9</ele><time>2025-10-22T07:17:29Z</time></trkpt>
<trkpt lat="43.692165" lon="-1.394580"><ele>44.7</ele><time>2025-10-22T07:17:33Z</time></trkpt>
<trkpt lat="43.692184" lon="-1.394646"><ele>44.1</ele><time>2025-10-22T07:17:37Z</time></trkpt>
<trkpt lat="43.692203" lon="-1.394710"><ele>44.2</ele><time>2025-10-22T07:17:41Z</time></trkpt>
<trkpt lat="43.692212" lon="-1.394773"><ele>45.0</ele><time>2025-10-22T07:17:44Z</time></trkpt>
<trkpt lat="43.692225" lon="-1.394849"><ele>46.2</ele><time>2025-10-22T07:17:48Z</time></trkpt>
<trkpt lat="43.692225" lon="-1.394926"><ele>48.1</ele><time>2025-10-22T07:17:52Z</time></trkpt>
<trkpt lat="43.692236" lon="-1.394997"><ele>48.6</ele><time>2025-10-22T07:17:56Z</time></trkpt>
<trkpt lat="43.692239" lon="-1.395072"><ele>46.9</ele><time>2025-10-22T07:18:00Z</time></trkpt>
<trkpt lat="43.692227" lon="-1.395132"><ele>47.0</ele><time>2025-10-22T07:18:03Z</time></trkpt>
<trkpt lat="43.692222" lon="-1.395216"><ele>45.4</ele><time>2025-10-22T07:18:07Z</time></trkpt>
<trkpt lat="43.692220" lon="-1.395290"><ele>44.9</ele><time>2025-10-22T07:18:11Z</time></trkpt>
<trkpt lat="43.692234" lon="-1.395363"><ele>43.8</ele><time>2025-10-22T07:18:15Z</time></trkpt>
<trkpt lat="43.692241" lon="-1.395428"><ele>43.4</ele><time>2025-10-22T07:18:19Z</time></trkpt>
<trkpt lat="43.692243" lon="-1.395491"><ele>41.6</ele><time>2025-10-22T07:18:23Z</time></trkpt>
<trkpt lat="43.692252" lon="-1.395559"><ele>41.0</ele><time>2025-10-22T07:18:28Z</time></trkpt>
<trkpt lat="43.692252" lon="-1.395627"><ele>41.6</ele><time>2025-10-22T07:18:32Z</time></trkpt>
<trkpt lat="43.692231" lon="-1.395693"><ele>40.8</ele><time>2025-10-22T07:18:36Z</time></trkpt>
<trkpt lat="43.692205" lon="-1.395762"><ele>38.0</ele><time>2025-10-22T07:18:41Z</time></trkpt>
<trkpt lat="43.692186" lon="-1.395823"><ele>37.5</ele><time>2025-10-22T07:18:46Z</time></trkpt>
<trkpt lat="43.692163" lon="-1.395898"><ele>37.4</ele><time>2025-10-22T07:18:52Z</time></trkpt>
<trkpt lat="43.692145" lon="-1.395960"><ele>38.5</ele><time>2025-10-22T07:18:56Z</time></trkpt>
<trkpt lat="43.692159" lon="-1.396027"><ele>37.7</ele><time>2025-10-22T07:19:01Z</time></trkpt>
<trkpt lat="43.692156" lon="-1.396094"><ele>37.3</ele><time>2025-10-22T07:19:05Z</time></trkpt>
<trkpt lat="43.692149" lon="-1.396158"><ele>37.2</ele><time>2025-10-22T07:19:09Z</time></trkpt>
<trkpt lat="43.692141" lon="-1.396229"><ele>38.4</ele><time>2025-10-22T07:19:13Z</time></trkpt>
<trkpt lat="43.692130" lon="-1.396295"><ele>39.6</ele><time>2025-10-22T07:19:17Z</time></trkpt>
<trkpt lat="43.692119" lon="-1.396366"><ele>40.0</ele><time>2025-10-22T07:19:21Z</time></trkpt>
<trkpt lat="43.692111" lon="-1.396439"><ele>40.0</ele><time>2025-10-22T07:19:25Z</time></trkpt>
<trkpt lat="43.692112" lon="-1.396509"><ele>42.1</ele><time>2025-10-22T07:19:29Z</time></trkpt>
<trkpt lat="43.692109" lon="-1.396575"><ele>44.0</ele><time>2025-10-22T07:19:33Z</time></trkpt>
<trkpt lat="43.692107" lon="-1.396646"><ele>43.5</ele><time>2025-10-22T07:19:37Z</time></trkpt>
<trkpt lat="43.692101" lon="-1.396713"><ele>42.3</ele><time>2025-10-22T07:19:41Z</time></trkpt>
<trkpt lat="43.692107" lon="-1.396782"><ele>44.7</ele><time>2025-10-22T07:19:45Z</time></trkpt>
<trkpt lat="43.692106" lon="-1.396847"><ele>43.1</ele><time>2025-10-22T07:19:49Z</time></trkpt>
<trkpt lat="43.692107" lon="-1.396911"><ele>43.7</ele><time>2025-10-22T07:19:53Z</time></trkpt>
<trkpt lat="43.692114" lon="-1.396981"><ele>41.9</ele><time>2025-10-22T07:19:57Z</time></trkpt>
<trkpt lat="43.692119" lon="-1.397052"><ele>41.6</ele><time>2025-10-22T07:20:01Z</time></trkpt>
<trkpt lat="43.692114" lon="-1.397119"><ele>40.7</ele><time>2025-10-22T07:20:05Z</time></trkpt>
<trkpt lat="43.692111" lon="-1.397184"><ele>39.8</ele><time>2025-10-22T07:20:09Z</time></trkpt>
<trkpt lat="43.692105" lon="-1.397254"><ele>38.5</ele><time>2025-10-22T07:20:13Z</time></trkpt>
<trkpt lat="43.692099" lon="-1.397318"><ele>37.7</ele><time>2025-10-22T07:20:17Z</time></trkpt>
<trkpt lat="43.692090" lon="-1.397387"><ele>36.6</ele><time>2025-10-22T07:20:22Z</time></trkpt>
<trkpt lat="43.692091" lon="-1.397454"><ele>35.5</ele><time>2025-10-22T07:20:27Z</time></trkpt>
<trkpt lat="43.692083" lon="-1.397524"><ele>34.0</ele><time>2025-10-22T07:20:32Z</time></trkpt>
<trkpt lat="43.692090" lon="-1.397600"><ele>32.4</ele><time>2025-10-22T07:20:37Z</time></trkpt>
<trkpt lat="43.692083" lon="-1.397672"><ele>30.3</ele><time>2025-10-22T07:20:41Z</time></trkpt>
<trkpt lat="43.692086" lon="-1.397737"><ele>29.2</ele><time>2025-10-22T07:20:45Z</time></trkpt>
<trkpt lat="43.692093" lon="-1.397803"><ele>27.0</ele><time>2025-10-22T07:20:49Z</time></trkpt>
<trkpt lat="43.692095" lon="-1.397866"><ele>25.5</ele><time>2025-10-22T07:20:53Z</time></trkpt>
<trkpt lat="43.692096" lon="-1.397939"><ele>24.5</ele><time>2025-10-22T07:20:58Z</time></trkpt>
<trkpt lat="43.692110" lon="-1.398011"><ele>24.2</ele><time>2025-10-22T07:21:03Z</time></trkpt>
<trkpt lat="43.692139" lon="-1.398075"><ele>26.4</ele><time>2025-10-22T07:21:08Z</time></trkpt>
<trkpt lat="43.692167" lon="-1.398130"><ele>26.3</ele><time>2025-10-22T07:21:12Z</time></trkpt>
<trkpt lat="43.692195" lon="-1.398197"><ele>26.6</ele><time>2025-10-22T07:21:17Z</time></trkpt>
<trkpt lat="43.692222" lon="-1.398254"><ele>26.2</ele><time>2025-10-22T07:21:21Z</time></trkpt>
<trkpt lat="43.692252" lon="-1.398313"><ele>26.9</ele><time>2025-10-22T07:21:25Z</time></trkpt>
<trkpt lat="43.692276" lon="-1.398377"><ele>27.6</ele><time>2025-10-22T07:21:29Z</time></trkpt>
<trkpt lat="43.692304" lon="-1.398443"><ele>25.4</ele><time>2025-10-22T07:21:34Z</time></trkpt>
<trkpt lat="43.692329" lon="-1.398495"><ele>25.4</ele><time>2025-10-22T07:21:38Z</time></trkpt>
<trkpt lat="43.692347" lon="-1.398561"><ele>25.0</ele><time>2025-10-22T07:21:43Z</time></trkpt>
<trkpt lat="43.692375" lon="-1.398629"><ele>27.5</ele><time>2025-10-22T07:21:48Z</time></trkpt>
<trkpt lat="43.692395" lon="-1.398699"><ele>28.6</ele><time>2025-10-22T07:21:52Z</time></trkpt>
<trkpt lat="43.692409" lon="-1.398774"><ele>26.6</ele><time>2025-10-22T07:21:56Z</time></trkpt>
<trkpt lat="43.692417" lon="-1.398844"><ele>26.5</ele><time>2025-10-22T07:22:00Z</time></trkpt>
<trkpt lat="43.692417" lon="-1.398912"><ele>24.9</ele><time>2025-10-22T07:22:04Z</time></trkpt>
<trkpt lat="43.692415" lon="-1.398977"><ele>24.1</ele><time>2025-10-22T07:22:07Z</time></trkpt>
<trkpt lat="43.692418" lon="-1.399047"><ele>25.8</ele><time>2025-10-22T07:22:12Z</time></trkpt>
<trkpt lat="43.692425" lon="-1.399120"><ele>27.3</ele><time>2025-10-22T07:22:17Z</time></trkpt>
<trkpt lat="43.692425" lon="-1.399183"><ele>25.8</ele><time>2025-10-22T07:22:21Z</time></trkpt>
<trkpt lat="43.692419" lon="-1.399248"><ele>24.5</ele><time>2025-10-22T07:22:25Z</time></trkpt>
<trkpt lat="43.692417" lon="-1.399313"><ele>24.7</ele><time>2025-10-22T07:22:29Z</time></trkpt>
<trkpt lat="43.692413" lon="-1.399389"><ele>24.0</ele><time>2025-10-22T07:22:34Z</time></trkpt>
<trkpt lat="43.692417" lon="-1.399465"><ele>24.7</ele><time>2025-10-22T07:22:39Z</time></trkpt>
<trkpt lat="43.692414" lon="-1.399530"><ele>25.2</ele><time>2025-10-22T07:22:44Z</time></trkpt>
<trkpt lat="43.692431" lon="-1.399592"><ele>27.0</ele><time>2025-10-22T07:22:49Z</time></trkpt>
<trkpt lat="43.692428" lon="-1.399660"><ele>28.6</ele><time>2025-10-22T07:22:54Z</time></trkpt>
<trkpt lat="43.692439" lon="-1.399732"><ele>29.3</ele><time>2025-10-22T07:22:59Z</time></trkpt>
<trkpt lat="43.692440" lon="-1.399800"><ele>27.8</ele><time>2025-10-22T07:23:03Z</time></trkpt>
<trkpt lat="43.692454" lon="-1.399872"><ele>27.8</ele><time>2025-10-22T07:23:07Z</time></trkpt>
<trkpt lat="43.692463" lon="-1.399946"><ele>29.2</ele><time>2025-10-22T07:23:11Z</time></trkpt>
<trkpt lat="43.692461" lon="-1.400009"><ele>29.7</ele><time>2025-10-22T07:23:15Z</time></trkpt>
<trkpt lat="43.692466" lon="-1.400078"><ele>28.8</ele><time>2025-10-22T07:23:19Z</time></trkpt>
<trkpt lat="43.692487" lon="-1.400147"><ele>26.7</ele><time>2025-10-22T07:23:23Z</time></trkpt>
<trkpt lat="43.692507" lon="-1.400212"><ele>26.8</ele><time>2025-10-22T07:23:27Z</time></trkpt>
<trkpt lat="43.692526" lon="-1.400273"><ele>26.2</ele><time>2025-10-22T07:23:31Z</time></trkpt>
<trkpt lat="43.692537" lon="-1.400339"><ele>25.2</ele><time>2025-10-22T07:23:35Z</time></trkpt>
<trkpt lat="43.692537" lon="-1.400412"><ele>24.3</ele><time>2025-10-22T07:23:40Z</time></trkpt>
<trkpt lat="43.692549" lon="-1.400487"><ele>23.1</ele><time>2025-10-22T07:23:44Z</time></trkpt>
<trkpt lat="43.692562" lon="-1.400556"><ele>23.9</ele><time>2025-10-22T07:23:48Z</time></trkpt>
<trkpt lat="43.692580" lon="-1.400617"><ele>25.9</ele><time>2025-10-22T07:23:52Z</time></trkpt>
<trkpt lat="43.692601" lon="-1.400682"><ele>25.5</ele><time>2025-10-22T07:23:57Z</time></trkpt>
<trkpt lat="43.692634" lon="-1.400744"><ele>24.3</ele><time>2025-10-22T07:24:02Z</time></trkpt>
<trkpt lat="43.692657" lon="-1.400800"><ele>23.8</ele><time>2025-10-22T07:24:05Z</time></trkpt>
<trkpt lat="43.692675" lon="-1.400865"><ele>22.9</ele><time>2025-10-22T07:24:09Z</time></trkpt>
<trkpt lat="43.692698" lon="-1.400924"><ele>21.2</ele><time>2025-10-22T07:24:13Z</time></trkpt>
<trkpt lat="43.692718" lon="-1.400983"><ele>23.3</ele><time>2025-10-22T07:24:18Z</time></trkpt>
<trkpt lat="43.692733" lon="-1.401057"><ele>22.1</ele><time>2025-10-22T07:24:23Z</time></trkpt>
<trkpt lat="43.692753" lon="-1.401120"><ele>22.3</ele><time>2025-10-22T07:24:27Z</time></trkpt>
<trkpt lat="43.692785" lon="-1.401171"><ele>21.5</ele><time>2025-10-22T07:24:31Z</time></trkpt>
<trkpt lat="43.692821" lon="-1.401210"><ele>21.2</ele><time>2025-10-22T07:24:51Z</time></trkpt>
<trkpt lat="43.692843" lon="-1.401279"><ele>20.0</ele><time>2025-10-22T07:25:01Z</time></trkpt>
<trkpt lat="43.692867" lon="-1.401339"><ele>22.9</ele><time>2025-10-22T07:25:05Z</time></trkpt>
<trkpt lat="43.692888" lon="-1.401403"><ele>24.8</ele><time>2025-10-22T07:25:11Z</time></trkpt>
<trkpt lat="43.692923" lon="-1.401445"><ele>25.4</ele><time>2025-10-22T07:25:15Z</time></trkpt>
<trkpt lat="43.692964" lon="-1.401491"><ele>26.3</ele><time>2025-10-22T07:25:20Z</time></trkpt>
<trkpt lat="43.693007" lon="-1.401540"><ele>24.7</ele><time>2025-10-22T07:25:25Z</time></trkpt>
<trkpt lat="43.693048" lon="-1.401578"><ele>26.5</ele><time>2025-10-22T07:25:29Z</time></trkpt>
<trkpt lat="43.693096" lon="-1.401618"><ele>26.6</ele><time>2025-10-22T07:25:33Z</time></trkpt>
<trkpt lat="43.693131" lon="-1.401658"><ele>26.4</ele><time>2025-10-22T07:25:37Z</time></trkpt>
<trkpt lat="43.693170" lon="-1.401691"><ele>27.5</ele><time>2025-10-22T07:25:41Z</time></trkpt>
<trkpt lat="43.693218" lon="-1.401738"><ele>25.7</ele><time>2025-10-22T07:25:45Z</time></trkpt>
<trkpt lat="43.693258" lon="-1.401803"><ele>25.4</ele><time>2025-10-22T07:25:49Z</time></trkpt>
<trkpt lat="43.693291" lon="-1.401866"><ele>25.9</ele><time>2025-10-22T07:25:53Z</time></trkpt>
<trkpt lat="43.693325" lon="-1.401936"><ele>22.9</ele><time>2025-10-22T07:25:57Z</time></trkpt>
<trkpt lat="43.693350" lon="-1.401995"><ele>22.3</ele><time>2025-10-22T07:26:00Z</time></trkpt>
<trkpt lat="43.693377" lon="-1.402047"><ele>21.3</ele><time>2025-10-22T07:26:04Z</time></trkpt>
<trkpt lat="43.693395" lon="-1.402116"><ele>21.6</ele><time>2025-10-22T07:26:09Z</time></trkpt>
<trkpt lat="43.693425" lon="-1.402164"><ele>19.8</ele><time>2025-10-22T07:26:12Z</time></trkpt>
<trkpt lat="43.693465" lon="-1.402199"><ele>20.9</ele><time>2025-10-22T07:26:16Z</time></trkpt>
<trkpt lat="43.693512" lon="-1.402215"><ele>22.4</ele><time>2025-10-22T07:26:19Z</time></trkpt>
<trkpt lat="43.693552" lon="-1.402246"><ele>24.6</ele><time>2025-10-22T07:26:23Z</time></trkpt>
<trkpt lat="43.693600" lon="-1.402288"><ele>25.8</ele><time>2025-10-22T07:26:27Z</time></trkpt>
<trkpt lat="43.693644" lon="-1.402307"><ele>27.6</ele><time>2025-10-22T07:26:30Z</time></trkpt>
<trkpt lat="43.693694" lon="-1.402339"><ele>28.2</ele><time>2025-10-22T07:26:34Z</time></trkpt>
<trkpt lat="43.693744" lon="-1.402374"><ele>27.7</ele><time>2025-10-22T07:26:38Z</time></trkpt>
<trkpt lat="43.693793" lon="-1.402377"><ele>27.9</ele><time>2025-10-22T07:26:42Z</time></trkpt>
<trkpt lat="43.693840" lon="-1.402376"><ele>29.2</ele><time>2025-10-22T07:26:47Z</time></trkpt>
<trkpt lat="43.693888" lon="-1.402367"><ele>29.8</ele><time>2025-10-22T07:26:52Z</time></trkpt>
<trkpt lat="43.693935" lon="-1.402363"><ele>30.0</ele><time>2025-10-22T07:26:56Z</time></trkpt>
<trkpt lat="43.693986" lon="-1.402365"><ele>31.1</ele><time>2025-10-22T07:27:00Z</time></trkpt>
<trkpt lat="43.694038" lon="-1.402375"><ele>31.0</ele><time>2025-10-22T07:27:04Z</time></trkpt>
<trkpt lat="43.694086" lon="-1.402377"><ele>32.9</ele><time>2025-10-22T07:27:08Z</time></trkpt>
<trkpt lat="43.694134" lon="-1.402398"><ele>31.9</ele><time>2025-10-22T07:27:12Z</time></trkpt>
<trkpt lat="43.694178" lon="-1.402438"><ele>30.2</ele><time>2025-10-22T07:27:16Z</time></trkpt>
<trkpt lat="43.694224" lon="-1.402475"><ele>29.5</ele><time>2025-10-22T07:27:20Z</time></trkpt>
<trkpt lat="43.694267" lon="-1.402511"><ele>28.8</ele><time>2025-10-22T07:27:23Z</time></trkpt>
<trkpt lat="43.694311" lon="-1.402547"><ele>28.1</ele><time>2025-10-22T07:27:27Z</time></trkpt>
<trkpt lat="43.694358" lon="-1.402564"><ele>28.0</ele><time>2025-10-22T07:27:31Z</time></trkpt>
<trkpt lat="43.694400" lon="-1.402601"><ele>25.2</ele><time>2025-10-22T07:27:41Z</time></trkpt>
<trkpt lat="43.694443" lon="-1.402625"><ele>26.8</ele><time>2025-10-22T07:27:44Z</time></trkpt>
<trkpt lat="43.694488" lon="-1.402634"><ele>26.9</ele><time>2025-10-22T07:27:47Z</time></trkpt>
<trkpt lat="43.694538" lon="-1.402666"><ele>26.6</ele><time>2025-10-22T07:27:51Z</time></trkpt>
<trkpt lat="43.694575" lon="-1.402705"><ele>25.7</ele><time>2025-10-22T07:27:55Z</time></trkpt>
<trkpt lat="43.694622" lon="-1.402741"><ele>26.6</ele><time>2025-10-22T07:27:59Z</time></trkpt>
<trkpt lat="43.694661" lon="-1.402784"><ele>26.4</ele><time>2025-10-22T07:28:03Z</time></trkpt>
<trkpt lat="43.694692" lon="-1.402843"><ele>25.2</ele><time>2025-10-22T07:28:08Z</time></trkpt>
<trkpt lat="43.694713" lon="-1.402901"><ele>23.2</ele><time>2025-10-22T07:28:12Z</time></trkpt>
<trkpt lat="43.694752" lon="-1.402956"><ele>22.4</ele><time>2025-10-22T07:28:17Z</time></trkpt>
<trkpt lat="43.694794" lon="-1.403005"><ele>22.7</ele><time>2025-10-22T07:28:21Z</time></trkpt>
<trkpt lat="43.694836" lon="-1.403047"><ele>22.6</ele><time>2025-10-22T07:28:24Z</time></trkpt>
<trkpt lat="43.694875" lon="-1.403105"><ele>24.4</ele><time>2025-10-22T07:28:28Z</time></trkpt>
<trkpt lat="43.694912" lon="-1.403158"><ele>25.0</ele><time>2025-10-22T07:28:32Z</time></trkpt>
<trkpt lat="43.694947" lon="-1.403210"><ele>25.4</ele><time>2025-10-22T07:28:36Z</time></trkpt>
<trkpt lat="43.694970" lon="-1.403270"><ele>23.7</ele><time>2025-10-22T07:28:42Z</time></trkpt>
<trkpt lat="43.695002" lon="-1.403331"><ele>22.4</ele><time>2025-10-22T07:28:46Z</time></trkpt>
<trkpt lat="43.695028" lon="-1.403389"><ele>23.2</ele><time>2025-10-22T07:28:49Z</time></trkpt>
<trkpt lat="43.695050" lon="-1.403451"><ele>22.1</ele><time>2025-10-22T07:28:53Z</time></trkpt>
<trkpt lat="43.695085" lon="-1.403516"><ele>24.5</ele><time>2025-10-22T07:28:57Z</time></trkpt>
<trkpt lat="43.695119" lon="-1.403581"><ele>24.6</ele><time>2025-10-22T07:29:01Z</time></trkpt>
<trkpt lat="43.695129" lon="-1.403649"><ele>21.5</ele><time>2025-10-22T07:29:05Z</time></trkpt>
<trkpt lat="43.695155" lon="-1.403718"><ele>22.0</ele><time>2025-10-22T07:29:09Z</time></trkpt>
<trkpt lat="43.695187" lon="-1.403766"><ele>22.3</ele><time>2025-10-22T07:29:12Z</time></trkpt>
<trkpt lat="43.695223" lon="-1.403821"><ele>22.0</ele><time>2025-10-22T07:29:16Z</time></trkpt>
<trkpt lat="43.695259" lon="-1.403881"><ele>21.0</ele><time>2025-10-22T07:29:20Z</time></trkpt>
<trkpt lat="43.695301" lon="-1.403926"><ele>22.4</ele><time>2025-10-22T07:29:24Z</time></trkpt>
<trkpt lat="43.695345" lon="-1.403970"><ele>24.3</ele><time>2025-10-22T07:29:28Z</time></trkpt>
<trkpt lat="43.695389" lon="-1.403993"><ele>23.4</ele><time>2025-10-22T07:29:33Z</time></trkpt>
<trkpt lat="43.695437" lon="-1.404036"><ele>23.6</ele><time>2025-10-22T07:29:37Z</time></trkpt>
<trkpt lat="43.695478" lon="-1.404085"><ele>21.9</ele><time>2025-10-22T07:29:40Z</time></trkpt>
<trkpt lat="43.695517" lon="-1.404136"><ele>21.4</ele><time>2025-10-22T07:29:44Z</time></trkpt>
<trkpt lat="43.695552" lon="-1.404186"><ele>21.6</ele><time>2025-10-22T07:29:48Z</time></trkpt>
<trkpt lat="43.695588" lon="-1.404232"><ele>22.1</ele><time>2025-10-22T07:29:52Z</time></trkpt>
<trkpt lat="43.695621" lon="-1.404280"><ele>20.9</ele><time>2025-10-22T07:29:56Z</time></trkpt>
<trkpt lat="43.695653" lon="-1.404324"><ele>19.2</ele><time>2025-10-22T07:30:00Z</time></trkpt>
<trkpt lat="43.695682" lon="-1.404377"><ele>18.0</ele><time>2025-10-22T07:30:03Z</time></trkpt>
<trkpt lat="43.695710" lon="-1.404427"><ele>17.7</ele><time>2025-10-22T07:30:07Z</time></trkpt>
<trkpt lat="43.695751" lon="-1.404464"><ele>19.5</ele><time>2025-10-22T07:30:11Z</time></trkpt>
<trkpt lat="43.695797" lon="-1.404506"><ele>19.9</ele><time>2025-10-22T07:30:15Z</time></trkpt>
<trkpt lat="43.695842" lon="-1.404543"><ele>19.7</ele><time>2025-10-22T07:30:19Z</time></trkpt>
<trkpt lat="43.695882" lon="-1.404579"><ele>21.6</ele><time>2025-10-22T07:30:23Z</time></trkpt>
<trkpt lat="43.695927" lon="-1.404606"><ele>21.2</ele><time>2025-10-22T07:30:28Z</time></trkpt>
<trkpt lat="43.695970" lon="-1.404642"><ele>22.0</ele><time>2025-10-22T07:30:32Z</time></trkpt>
<trkpt lat="43.696020" lon="-1.404667"><ele>21.8</ele><time>2025-10-22T07:30:36Z</time></trkpt>
<trkpt lat="43.696074" lon="-1.404682"><ele>23.0</ele><time>2025-10-22T07:30:40Z</time></trkpt>
<trkpt lat="43.696127" lon="-1.404690"><ele>23.4</ele><time>2025-10-22T07:30:44Z</time></trkpt>
<trkpt lat="43.696175" lon="-1.404692"><ele>23.1</ele><time>2025-10-22T07:30:48Z</time></trkpt>
<trkpt lat="43.696224" lon="-1.404720"><ele>21.8</ele><time>2025-10-22T07:30:53Z</time></trkpt>
<trkpt lat="43.696271" lon="-1.404726"><ele>22.2</ele><time>2025-10-22T07:30:57Z</time></trkpt>
<trkpt lat="43.696327" lon="-1.404723"><ele>24.2</ele><time>2025-10-22T07:31:02Z</time></trkpt>
<trkpt lat="43.696375" lon="-1.404716"><ele>24.1</ele><time>2025-10-22T07:31:06Z</time></trkpt>
<trkpt lat="43.696420" lon="-1.404714"><ele>24.7</ele><time>2025-10-22T07:31:10Z</time></trkpt>
<trkpt lat="43.696467" lon="-1.404703"><ele>23.7</ele><time>2025-10-22T07:31:14Z</time></trkpt>
<trkpt lat="43.696521" lon="-1.404701"><ele>24.9</ele><time>2025-10-22T07:31:19Z</time></trkpt>
<trkpt lat="43.696568" lon="-1.404720"><ele>21.9</ele><time>2025-10-22T07:31:23Z</time></trkpt>
<trkpt lat="43.696619" lon="-1.404723"><ele>21.9</ele><time>2025-10-22T07:31:27Z</time></trkpt>
<trkpt lat="43.696673" lon="-1.404712"><ele>20.6</ele><time>2025-10-22T07:31:31Z</time></trkpt>
<trkpt lat="43.696728" lon="-1.404718"><ele>21.5</ele><time>2025-10-22T07:31:35Z</time></trkpt>
<trkpt lat="43.696776" lon="-1.404722"><ele>22.3</ele><time>2025-10-22T07:31:39Z</time></trkpt>
<trkpt lat="43.696822" lon="-1.404733"><ele>19.6</ele><time>2025-10-22T07:31:43Z</time></trkpt>
<trkpt lat="43.696872" lon="-1.404738"><ele>18.3</ele><time>2025-10-22T07:31:47Z</time></trkpt>
<trkpt lat="43.696922" lon="-1.404728"><ele>21.8</ele><time>2025-10-22T07:31:51Z</time></trkpt>
<trkpt lat="43.696971" lon="-1.404718"><ele>21.3</ele><time>2025-10-22T07:31:55Z</time></trkpt>
<trkpt lat="43.697026" lon="-1.404722"><ele>22.2</ele><time>2025-10-22T07:32:00Z</time></trkpt>
<trkpt lat="43.697074" lon="-1.404720"><ele>23.0</ele><time>2025-10-22T07:32:05Z</time></trkpt>
<trkpt lat="43.697126" lon="-1.404719"><ele>25.1</ele><time>2025-10-22T07:32:11Z</time></trkpt>
<trkpt lat="43.697180" lon="-1.404696"><ele>26.4</ele><time>2025-10-22T07:32:16Z</time></trkpt>
<trkpt lat="43.697224" lon="-1.404677"><ele>28.9</ele><time>2025-10-22T07:32:22Z</time></trkpt>
<trkpt lat="43.697269" lon="-1.404671"><ele>26.6</ele><time>2025-10-22T07:32:27Z</time></trkpt>
<trkpt lat="43.697326" lon="-1.404689"><ele>25.6</ele><time>2025-10-22T07:32:31Z</time></trkpt>
<trkpt lat="43.697371" lon="-1.404715"><ele>24.2</ele><time>2025-10-22T07:32:34Z</time></trkpt>
<trkpt lat="43.697416" lon="-1.404721"><ele>22.9</ele><time>2025-10-22T07:32:38Z</time></trkpt>
<trkpt lat="43.697467" lon="-1.404722"><ele>25.0</ele><time>2025-10-22T07:32:43Z</time></trkpt>
<trkpt lat="43.697514" lon="-1.404715"><ele>27.0</ele><time>2025-10-22T07:32:49Z</time></trkpt>
<trkpt lat="43.697561" lon="-1.404691"><ele>26.6</ele><time>2025-10-22T07:32:54Z</time></trkpt>
<trkpt lat="43.697605" lon="-1.404652"><ele>27.6</ele><time>2025-10-22T07:32:59Z</time></trkpt>
<trkpt lat="43.697644" lon="-1.404613"><ele>27.6</ele><time>2025-10-22T07:33:04Z</time></trkpt>
<trkpt lat="43.697687" lon="-1.404584"><ele>25.2</ele><time>2025-10-22T07:33:10Z</time></trkpt>
<trkpt lat="43.697720" lon="-1.404535"><ele>22.2</ele><time>2025-10-22T07:33:15Z</time></trkpt>
<trkpt lat="43.697746" lon="-1.404473"><ele>20.8</ele><time>2025-10-22T07:33:20Z</time></trkpt>
<trkpt lat="43.697762" lon="-1.404401"><ele>25.2</ele><time>2025-10-22T07:33:25Z</time></trkpt>
<trkpt lat="43.697765" lon="-1.404326"><ele>27.2</ele><time>2025-10-22T07:33:30Z</time></trkpt>
<trkpt lat="43.697758" lon="-1.404259"><ele>28.0</ele><time>2025-10-22T07:33:36Z</time></trkpt>
<trkpt lat="43.697754" lon="-1.404182"><ele>25.5</ele><time>2025-10-22T07:33:41Z</time></trkpt>
<trkpt lat="43.697748" lon="-1.404108"><ele>23.0</ele><time>2025-10-22T07:33:46Z</time></trkpt>
<trkpt lat="43.697752" lon="-1.404045"><ele>20.6</ele><time>2025-10-22T07:33:50Z</time></trkpt>
<trkpt lat="43.697764" lon="-1.403975"><ele>20.8</ele><time>2025-10-22T07:33:55Z</time></trkpt>
<trkpt lat="43.697776" lon="-1.403902"><ele>21.1</ele><time>2025-10-22T07:34:00Z</time></trkpt>
<trkpt lat="43.697792" lon="-1.403843"><ele>21.4</ele><time>2025-10-22T07:34:04Z</time></trkpt>
<trkpt lat="43.697814" lon="-1.403783"><ele>21.5</ele><time>2025-10-22T07:34:08Z</time></trkpt>
<trkpt lat="43.697829" lon="-1.403720"><ele>21.6</ele><time>2025-10-22T07:34:12Z</time></trkpt>
<trkpt lat="43.697838" lon="-1.403655"><ele>21.7</ele><time>2025-10-22T07:34:16Z</time></trkpt>
<trkpt lat="43.697845" lon="-1.403588"><ele>22.1</ele><time>2025-10-22T07:34:20Z</time></trkpt>
<trkpt lat="43.697855" lon="-1.403522"><ele>22.1</ele><time>2025-10-22T07:34:24Z</time></trkpt>
<trkpt lat="43.697880" lon="-1.403464"><ele>18.2</ele><time>2025-10-22T07:34:28Z</time></trkpt>
<trkpt lat="43.697908" lon="-1.403407"><ele>15.3</ele><time>2025-10-22T07:34:32Z</time></trkpt>
<trkpt lat="43.697951" lon="-1.403356"><ele>13.4</ele><time>2025-10-22T07:34:36Z</time></trkpt>
<trkpt lat="43.698006" lon="-1.403332"><ele>13.4</ele><time>2025-10-22T07:34:40Z</time></trkpt>
<trkpt lat="43.698063" lon="-1.403332"><ele>12.2</ele><time>2025-10-22T07:34:44Z</time></trkpt>
<trkpt lat="43.698117" lon="-1.403345"><ele>11.1</ele><time>2025-10-22T07:34:48Z</time></trkpt>
<trkpt lat="43.698169" lon="-1.403352"><ele>10.6</ele><time>2025-10-22T07:34:52Z</time></trkpt>
<trkpt lat="43.698217" lon="-1.403364"><ele>10.3</ele><time>2025-10-22T07:34:56Z</time></trkpt>
<trkpt lat="43.698265" lon="-1.403377"><ele>9.7</ele><time>2025-10-22T07:35:00Z</time></trkpt>
<trkpt lat="43.698310" lon="-1.403403"><ele>9.1</ele><time>2025-10-22T07:35:04Z</time></trkpt>
<trkpt lat="43.698356" lon="-1.403404"><ele>9.2</ele><time>2025-10-22T07:35:08Z</time></trkpt>
<trkpt lat="43.698402" lon="-1.403417"><ele>9.7</ele><time>2025-10-22T07:35:12Z</time></trkpt>
<trkpt lat="43.698443" lon="-1.403446"><ele>10.0</ele><time>2025-10-22T07:35:16Z</time></trkpt>
<trkpt lat="43.698488" lon="-1.403490"><ele>10.1</ele><time>2025-10-22T07:35:21Z</time></trkpt>
<trkpt lat="43.698523" lon="-1.403534"><ele>10.1</ele><time>2025-10-22T07:35:25Z</time></trkpt>
<trkpt lat="43.698558" lon="-1.403581"><ele>10.4</ele><time>2025-10-22T07:35:29Z</time></trkpt>
<trkpt lat="43.698598" lon="-1.403621"><ele>11.7</ele><time>2025-10-22T07:35:33Z</time></trkpt>
<trkpt lat="43.698634" lon="-1.403672"><ele>10.6</ele><time>2025-10-22T07:35:39Z</time></trkpt>
<trkpt lat="43.698673" lon="-1.403713"><ele>13.2</ele><time>2025-10-22T07:35:45Z</time></trkpt>
<trkpt lat="43.698721" lon="-1.403754"><ele>18.0</ele><time>2025-10-22T07:35:52Z</time></trkpt>
<trkpt lat="43.698768" lon="-1.403793"><ele>19.0</ele><time>2025-10-22T07:35:58Z</time></trkpt>
<trkpt lat="43.698807" lon="-1.403843"><ele>20.1</ele><time>2025-10-22T07:36:03Z</time></trkpt>
<trkpt lat="43.698840" lon="-1.403903"><ele>20.9</ele><time>2025-10-22T07:36:07Z</time></trkpt>
<trkpt lat="43.698866" lon="-1.403958"><ele>19.6</ele><time>2025-10-22T07:36:11Z</time></trkpt>
<trkpt lat="43.698906" lon="-1.404011"><ele>19.1</ele><time>2025-10-22T07:36:16Z</time></trkpt>
<trkpt lat="43.698943" lon="-1.404048"><ele>20.2</ele><time>2025-10-22T07:36:19Z</time></trkpt>
<trkpt lat="43.698978" lon="-1.404111"><ele>20.8</ele><time>2025-10-22T07:36:23Z</time></trkpt>
<trkpt lat="43.699014" lon="-1.404160"><ele>22.9</ele><time>2025-10-22T07:36:27Z</time></trkpt>
<trkpt lat="43.699046" lon="-1.404205"><ele>23.4</ele><time>2025-10-22T07:36:31Z</time></trkpt>
<trkpt lat="43.699085" lon="-1.404258"><ele>22.8</ele><time>2025-10-22T07:36:35Z</time></trkpt>
<trkpt lat="43.699124" lon="-1.404306"><ele>22.4</ele><time>2025-10-22T07:36:39Z</time></trkpt>
<trkpt lat="43.699164" lon="-1.404355"><ele>22.9</ele><time>2025-10-22T07:36:43Z</time></trkpt>
<trkpt lat="43.699204" lon="-1.404391"><ele>19.9</ele><time>2025-10-22T07:36:47Z</time></trkpt>
<trkpt lat="43.699246" lon="-1.404414"><ele>20.3</ele><time>2025-10-22T07:36:51Z</time></trkpt>
<trkpt lat="43.699281" lon="-1.404472"><ele>21.6</ele><time>2025-10-22T07:36:56Z</time></trkpt>
<trkpt lat="43.699302" lon="-1.404537"><ele>21.9</ele><time>2025-10-22T07:37:01Z</time></trkpt>
<trkpt lat="43.699349" lon="-1.404557"><ele>23.1</ele><time>2025-10-22T07:37:07Z</time></trkpt>
<trkpt lat="43.699394" lon="-1.404582"><ele>26.7</ele><time>2025-10-22T07:37:28Z</time></trkpt>
<trkpt lat="43.699368" lon="-1.404635"><ele>20.1</ele><time>2025-10-22T07:38:11Z</time></trkpt>
<trkpt lat="43.699328" lon="-1.404603"><ele>21.5</ele><time>2025-10-22T07:39:37Z</time></trkpt>
<trkpt lat="43.699305" lon="-1.404548"><ele>27.9</ele><time>2025-10-22T07:42:37Z</time></trkpt>
<trkpt lat="43.699315" lon="-1.404613"><ele>29.4</ele><time>2025-10-22T07:42:50Z</time></trkpt>
<trkpt lat="43.699326" lon="-1.404680"><ele>28.9</ele><time>2025-10-22T07:42:59Z</time></trkpt>
<trkpt lat="43.699352" lon="-1.404732"><ele>28.3</ele><time>2025-10-22T07:43:06Z</time></trkpt>
<trkpt lat="43.699365" lon="-1.404792"><ele>32.2</ele><time>2025-10-22T07:43:20Z</time></trkpt>
<trkpt lat="43.699383" lon="-1.404858"><ele>32.3</ele><time>2025-10-22T07:43:27Z</time></trkpt>
<trkpt lat="43.699395" lon="-1.404923"><ele>32.6</ele><time>2025-10-22T07:43:32Z</time></trkpt>
<trkpt lat="43.699432" lon="-1.404974"><ele>27.8</ele><time>2025-10-22T07:43:37Z</time></trkpt>
<trkpt lat="43.699444" lon="-1.405034"><ele>24.9</ele><time>2025-10-22T07:43:43Z</time></trkpt>
<trkpt lat="43.699461" lon="-1.405102"><ele>27.8</ele><time>2025-10-22T07:43:49Z</time></trkpt>
<trkpt lat="43.699484" lon="-1.405156"><ele>26.2</ele><time>2025-10-22T07:43:54Z</time></trkpt>
<trkpt lat="43.699509" lon="-1.405210"><ele>29.5</ele><time>2025-10-22T07:44:00Z</time></trkpt>
<trkpt lat="43.699543" lon="-1.405260"><ele>25.7</ele><time>2025-10-22T07:44:06Z</time></trkpt>
<trkpt lat="43.699566" lon="-1.405318"><ele>26.2</ele><time>2025-10-22T07:44:13Z</time></trkpt>
<trkpt lat="43.699591" lon="-1.405379"><ele>26.6</ele><time>2025-10-22T07:44:20Z</time></trkpt>
<trkpt lat="43.699625" lon="-1.405424"><ele>26.9</ele><time>2025-10-22T07:44:25Z</time></trkpt>
<trkpt lat="43.699650" lon="-1.405479"><ele>26.8</ele><time>2025-10-22T07:44:31Z</time></trkpt>
<trkpt lat="43.699664" lon="-1.405541"><ele>29.7</ele><time>2025-10-22T07:44:37Z</time></trkpt>
<trkpt lat="43.699678" lon="-1.405615"><ele>31.1</ele><time>2025-10-22T07:44:44Z</time></trkpt>
<trkpt lat="43.699681" lon="-1.405694"><ele>28.0</ele><time>2025-10-22T07:44:49Z</time></trkpt>
<trkpt lat="43.699676" lon="-1.405765"><ele>28.9</ele><time>2025-10-22T07:44:53Z</time></trkpt>
<trkpt lat="43.699672" lon="-1.405834"><ele>31.6</ele><time>2025-10-22T07:44:59Z</time></trkpt>
<trkpt lat="43.699674" lon="-1.405900"><ele>30.8</ele><time>2025-10-22T07:45:04Z</time></trkpt>
<trkpt lat="43.699665" lon="-1.405961"><ele>32.6</ele><time>2025-10-22T07:45:09Z</time></trkpt>
<trkpt lat="43.699658" lon="-1.406029"><ele>32.9</ele><time>2025-10-22T07:45:14Z</time></trkpt>
<trkpt lat="43.699657" lon="-1.406100"><ele>32.4</ele><time>2025-10-22T07:45:20Z</time></trkpt>
<trkpt lat="43.699652" lon="-1.406170"><ele>33.6</ele><time>2025-10-22T07:45:26Z</time></trkpt>
<trkpt lat="43.699637" lon="-1.406240"><ele>34.6</ele><time>2025-10-22T07:45:32Z</time></trkpt>
<trkpt lat="43.699629" lon="-1.406310"><ele>36.1</ele><time>2025-10-22T07:45:38Z</time></trkpt>
<trkpt lat="43.699609" lon="-1.406372"><ele>36.7</ele><time>2025-10-22T07:45:43Z</time></trkpt>
<trkpt lat="43.699590" lon="-1.406435"><ele>38.0</ele><time>2025-10-22T07:45:48Z</time></trkpt>
<trkpt lat="43.699576" lon="-1.406496"><ele>37.1</ele><time>2025-10-22T07:45:53Z</time></trkpt>
<trkpt lat="43.699562" lon="-1.406560"><ele>36.8</ele><time>2025-10-22T07:45:58Z</time></trkpt>
<trkpt lat="43.699548" lon="-1.406629"><ele>37.1</ele><time>2025-10-22T07:46:04Z</time></trkpt>
<trkpt lat="43.699537" lon="-1.406701"><ele>36.0</ele><time>2025-10-22T07:46:10Z</time></trkpt>
<trkpt lat="43.699527" lon="-1.406761"><ele>36.3</ele><time>2025-10-22T07:46:15Z</time></trkpt>
<trkpt lat="43.699531" lon="-1.406824"><ele>35.3</ele><time>2025-10-22T07:46:20Z</time></trkpt>
<trkpt lat="43.699528" lon="-1.406889"><ele>38.4</ele><time>2025-10-22T07:46:26Z</time></trkpt>
<trkpt lat="43.699526" lon="-1.406960"><ele>39.9</ele><time>2025-10-22T07:46:33Z</time></trkpt>
<trkpt lat="43.699528" lon="-1.407025"><ele>38.2</ele><time>2025-10-22T07:46:39Z</time></trkpt>
<trkpt lat="43.699532" lon="-1.407094"><ele>40.4</ele><time>2025-10-22T07:46:44Z</time></trkpt>
<trkpt lat="43.699544" lon="-1.407168"><ele>42.1</ele><time>2025-10-22T07:46:49Z</time></trkpt>
<trkpt lat="43.699564" lon="-1.407234"><ele>42.3</ele><time>2025-10-22T07:46:54Z</time></trkpt>
<trkpt lat="43.699572" lon="-1.407300"><ele>42.0</ele><time>2025-10-22T07:46:59Z</time></trkpt>
<trkpt lat="43.699590" lon="-1.407362"><ele>41.4</ele><time>2025-10-22T07:47:04Z</time></trkpt>
<trkpt lat="43.699589" lon="-1.407424"><ele>43.7</ele><time>2025-10-22T07:47:10Z</time></trkpt>
<trkpt lat="43.699608" lon="-1.407493"><ele>46.5</ele><time>2025-10-22T07:47:16Z</time></trkpt>
<trkpt lat="43.699628" lon="-1.407550"><ele>46.4</ele><time>2025-10-22T07:47:21Z</time></trkpt>
<trkpt lat="43.699638" lon="-1.407625"><ele>49.9</ele><time>2025-10-22T07:47:26Z</time></trkpt>
<trkpt lat="43.699656" lon="-1.407686"><ele>50.4</ele><time>2025-10-22T07:47:30Z</time></trkpt>
<trkpt lat="43.699674" lon="-1.407758"><ele>51.6</ele><time>2025-10-22T07:47:35Z</time></trkpt>
<trkpt lat="43.699693" lon="-1.407826"><ele>52.8</ele><time>2025-10-22T07:47:39Z</time></trkpt>
<trkpt lat="43.699715" lon="-1.407892"><ele>50.4</ele><time>2025-10-22T07:47:43Z</time></trkpt>
<trkpt lat="43.699738" lon="-1.407952"><ele>49.8</ele><time>2025-10-22T07:47:47Z</time></trkpt>
<trkpt lat="43.699764" lon="-1.408011"><ele>48.1</ele><time>2025-10-22T07:47:51Z</time></trkpt>
<trkpt lat="43.699783" lon="-1.408071"><ele>47.2</ele><time>2025-10-22T07:47:55Z</time></trkpt>
<trkpt lat="43.699806" lon="-1.408128"><ele>45.0</ele><time>2025-10-22T07:48:00Z</time></trkpt>
<trkpt lat="43.699834" lon="-1.408187"><ele>46.0</ele><time>2025-10-22T07:48:05Z</time></trkpt>
<trkpt lat="43.699857" lon="-1.408249"><ele>40.9</ele><time>2025-10-22T07:48:10Z</time></trkpt>
<trkpt lat="43.699879" lon="-1.408318"><ele>39.5</ele><time>2025-10-22T07:48:14Z</time></trkpt>
<trkpt lat="43.699895" lon="-1.408380"><ele>34.5</ele><time>2025-10-22T07:48:18Z</time></trkpt>
<trkpt lat="43.699911" lon="-1.408443"><ele>35.3</ele><time>2025-10-22T07:49:04Z</time></trkpt>
<trkpt lat="43.699914" lon="-1.408510"><ele>34.9</ele><time>2025-10-22T07:49:10Z</time></trkpt>
<trkpt lat="43.699926" lon="-1.408573"><ele>35.0</ele><time>2025-10-22T07:49:14Z</time></trkpt>
<trkpt lat="43.699939" lon="-1.408640"><ele>35.5</ele><time>2025-10-22T07:49:18Z</time></trkpt>
<trkpt lat="43.699960" lon="-1.408703"><ele>34.7</ele><time>2025-10-22T07:49:22Z</time></trkpt>
<trkpt lat="43.699977" lon="-1.408762"><ele>36.5</ele><time>2025-10-22T07:49:26Z</time></trkpt>
<trkpt lat="43.700000" lon="-1.408831"><ele>37.1</ele><time>2025-10-22T07:49:30Z</time></trkpt>
<trkpt lat="43.700021" lon="-1.408902"><ele>39.5</ele><time>2025-10-22T07:49:36Z</time></trkpt>
<trkpt lat="43.700049" lon="-1.408954"><ele>38.8</ele><time>2025-10-22T07:49:40Z</time></trkpt>
<trkpt lat="43.700072" lon="-1.409015"><ele>39.5</ele><time>2025-10-22T07:49:44Z</time></trkpt>
<trkpt lat="43.700090" lon="-1.409082"><ele>39.7</ele><time>2025-10-22T07:49:48Z</time></trkpt>
<trkpt lat="43.700115" lon="-1.409143"><ele>39.2</ele><time>2025-10-22T07:49:52Z</time></trkpt>
<trkpt lat="43.700134" lon="-1.409204"><ele>35.3</ele><time>2025-10-22T07:49:56Z</time></trkpt>
<trkpt lat="43.700167" lon="-1.409260"><ele>35.8</ele><time>2025-10-22T07:50:00Z</time></trkpt>
<trkpt lat="43.700206" lon="-1.409308"><ele>38.4</ele><time>2025-10-22T07:50:04Z</time></trkpt>
<trkpt lat="43.700235" lon="-1.409362"><ele>38.4</ele><time>2025-10-22T07:50:08Z</time></trkpt>
<trkpt lat="43.700271" lon="-1.409405"><ele>37.0</ele><time>2025-10-22T07:50:12Z</time></trkpt>
<trkpt lat="43.700283" lon="-1.409472"><ele>39.8</ele><time>2025-10-22T07:50:16Z</time></trkpt>
<trkpt lat="43.700301" lon="-1.409542"><ele>37.9</ele><time>2025-10-22T07:50:20Z</time></trkpt>
<trkpt lat="43.700326" lon="-1.409606"><ele>37.3</ele><time>2025-10-22T07:50:25Z</time></trkpt>
<trkpt lat="43.700354" lon="-1.409681"><ele>36.1</ele><time>2025-10-22T07:50:29Z</time></trkpt>
<trkpt lat="43.700357" lon="-1.409749"><ele>39.7</ele><time>2025-10-22T07:50:32Z</time></trkpt>
<trkpt lat="43.700364" lon="-1.409829"><ele>39.7</ele><time>2025-10-22T07:50:36Z</time></trkpt>
<trkpt lat="43.700360" lon="-1.409896"><ele>39.0</ele><time>2025-10-22T07:50:40Z</time></trkpt>
<trkpt lat="43.700370" lon="-1.409975"><ele>34.7</ele><time>2025-10-22T07:50:44Z</time></trkpt>
<trkpt lat="43.700370" lon="-1.410050"><ele>32.7</ele><time>2025-10-22T07:50:48Z</time></trkpt>
<trkpt lat="43.700371" lon="-1.410120"><ele>34.2</ele><time>2025-10-22T07:50:53Z</time></trkpt>
<trkpt lat="43.700387" lon="-1.410191"><ele>33.7</ele><time>2025-10-22T07:50:57Z</time></trkpt>
<trkpt lat="43.700400" lon="-1.410264"><ele>34.1</ele><time>2025-10-22T07:51:01Z</time></trkpt>
<trkpt lat="43.700412" lon="-1.410334"><ele>35.9</ele><time>2025-10-22T07:51:05Z</time></trkpt>
<trkpt lat="43.700422" lon="-1.410401"><ele>35.6</ele><time>2025-10-22T07:51:10Z</time></trkpt>
<trkpt lat="43.700431" lon="-1.410462"><ele>36.7</ele><time>2025-10-22T07:51:15Z</time></trkpt>
<trkpt lat="43.700464" lon="-1.410511"><ele>35.4</ele><time>2025-10-22T07:51:21Z</time></trkpt>
<trkpt lat="43.700500" lon="-1.410567"><ele>34.4</ele><time>2025-10-22T07:51:26Z</time></trkpt>
<trkpt lat="43.700511" lon="-1.410640"><ele>32.2</ele><time>2025-10-22T07:51:30Z</time></trkpt>
<trkpt lat="43.700534" lon="-1.410697"><ele>30.1</ele><time>2025-10-22T07:51:34Z</time></trkpt>
<trkpt lat="43.700559" lon="-1.410757"><ele>29.5</ele><time>2025-10-22T07:51:38Z</time></trkpt>
<trkpt lat="43.700588" lon="-1.410817"><ele>28.8</ele><time>2025-10-22T07:51:41Z</time></trkpt>
<trkpt lat="43.700611" lon="-1.410873"><ele>28.0</ele><time>2025-10-22T07:51:44Z</time></trkpt>
<trkpt lat="43.700644" lon="-1.410938"><ele>26.9</ele><time>2025-10-22T07:51:48Z</time></trkpt>
<trkpt lat="43.700675" lon="-1.411002"><ele>25.6</ele><time>2025-10-22T07:51:52Z</time></trkpt>
<trkpt lat="43.700701" lon="-1.411056"><ele>23.2</ele><time>2025-10-22T07:51:56Z</time></trkpt>
<trkpt lat="43.700730" lon="-1.411115"><ele>22.9</ele><time>2025-10-22T07:52:00Z</time></trkpt>
<trkpt lat="43.700758" lon="-1.411175"><ele>23.6</ele><time>2025-10-22T07:52:04Z</time></trkpt>
<trkpt lat="43.700788" lon="-1.411234"><ele>23.4</ele><time>2025-10-22T07:52:08Z</time></trkpt>
<trkpt lat="43.700816" lon="-1.411302"><ele>23.8</ele><time>2025-10-22T07:52:12Z</time></trkpt>
<trkpt lat="43.700844" lon="-1.411372"><ele>22.0</ele><time>2025-10-22T07:52:16Z</time></trkpt>
<trkpt lat="43.700859" lon="-1.411447"><ele>22.8</ele><time>2025-10-22T07:52:20Z</time></trkpt>
<trkpt lat="43.700875" lon="-1.411510"><ele>22.3</ele><time>2025-10-22T07:52:23Z</time></trkpt>
<trkpt lat="43.700901" lon="-1.411574"><ele>23.3</ele><time>2025-10-22T07:52:27Z</time></trkpt>
<trkpt lat="43.700922" lon="-1.411636"><ele>23.9</ele><time>2025-10-22T07:52:31Z</time></trkpt>
<trkpt lat="43.700942" lon="-1.411696"><ele>24.0</ele><time>2025-10-22T07:52:35Z</time></trkpt>
<trkpt lat="43.700968" lon="-1.411766"><ele>24.4</ele><time>2025-10-22T07:52:40Z</time></trkpt>
<trkpt lat="43.700984" lon="-1.411827"><ele>23.7</ele><time>2025-10-22T07:52:44Z</time></trkpt>
<trkpt lat="43.701014" lon="-1.411886"><ele>20.9</ele><time>2025-10-22T07:52:48Z</time></trkpt>
<trkpt lat="43.701045" lon="-1.411944"><ele>19.3</ele><time>2025-10-22T07:52:52Z</time></trkpt>
<trkpt lat="43.701082" lon="-1.411999"><ele>19.4</ele><time>2025-10-22T07:52:57Z</time></trkpt>
<trkpt lat="43.701116" lon="-1.412048"><ele>19.4</ele><time>2025-10-22T07:53:01Z</time></trkpt>
<trkpt lat="43.701150" lon="-1.412099"><ele>20.2</ele><time>2025-10-22T07:53:06Z</time></trkpt>
<trkpt lat="43.701190" lon="-1.412139"><ele>18.2</ele><time>2025-10-22T07:53:10Z</time></trkpt>
<trkpt lat="43.701225" lon="-1.412197"><ele>17.2</ele><time>2025-10-22T07:53:15Z</time></trkpt>
<trkpt lat="43.701251" lon="-1.412257"><ele>16.5</ele><time>2025-10-22T07:53:21Z</time></trkpt>
<trkpt lat="43.701272" lon="-1.412330"><ele>14.4</ele><time>2025-10-22T07:53:26Z</time></trkpt>
<trkpt lat="43.701288" lon="-1.412390"><ele>14.3</ele><time>2025-10-22T07:53:30Z</time></trkpt>
<trkpt lat="43.701324" lon="-1.412452"><ele>13.6</ele><time>2025-10-22T07:53:35Z</time></trkpt>
<trkpt lat="43.701344" lon="-1.412512"><ele>14.1</ele><time>2025-10-22T07:53:39Z</time></trkpt>
<trkpt lat="43.701360" lon="-1.412575"><ele>17.4</ele><time>2025-10-22T07:53:44Z</time></trkpt>
<trkpt lat="43.701386" lon="-1.412640"><ele>18.4</ele><time>2025-10-22T07:53:47Z</time></trkpt>
<trkpt lat="43.701415" lon="-1.412701"><ele>17.5</ele><time>2025-10-22T07:53:52Z</time></trkpt>
<trkpt lat="43.701450" lon="-1.412762"><ele>18.8</ele><time>2025-10-22T07:53:58Z</time></trkpt>
<trkpt lat="43.701473" lon="-1.412819"><ele>16.5</ele><time>2025-10-22T07:54:02Z</time></trkpt>
<trkpt lat="43.701494" lon="-1.412886"><ele>17.3</ele><time>2025-10-22T07:54:05Z</time></trkpt>
<trkpt lat="43.701508" lon="-1.412948"><ele>18.0</ele><time>2025-10-22T07:54:09Z</time></trkpt>
<trkpt lat="43.701528" lon="-1.413008"><ele>19.8</ele><time>2025-10-22T07:54:13Z</time></trkpt>
<trkpt lat="43.701539" lon="-1.413086"><ele>16.1</ele><time>2025-10-22T07:54:17Z</time></trkpt>
<trkpt lat="43.701558" lon="-1.413159"><ele>15.6</ele><time>2025-10-22T07:54:21Z</time></trkpt>
<trkpt lat="43.701580" lon="-1.413233"><ele>12.8</ele><time>2025-10-22T07:54:26Z</time></trkpt>
<trkpt lat="43.701599" lon="-1.413301"><ele>13.7</ele><time>2025-10-22T07:54:30Z</time></trkpt>
<trkpt lat="43.701628" lon="-1.413366"><ele>14.6</ele><time>2025-10-22T07:54:35Z</time></trkpt>
<trkpt lat="43.701647" lon="-1.413427"><ele>16.3</ele><time>2025-10-22T07:54:39Z</time></trkpt>
<trkpt lat="43.701665" lon="-1.413496"><ele>16.1</ele><time>2025-10-22T07:54:43Z</time></trkpt>
<trkpt lat="43.701680" lon="-1.413564"><ele>15.3</ele><time>2025-10-22T07:54:47Z</time></trkpt>
<trkpt lat="43.701689" lon="-1.413636"><ele>15.3</ele><time>2025-10-22T07:54:51Z</time></trkpt>
<trkpt lat="43.701696" lon="-1.413713"><ele>15.6</ele><time>2025-10-22T07:54:55Z</time></trkpt>
<trkpt lat="43.701702" lon="-1.413782"><ele>13.9</ele><time>2025-10-22T07:54:59Z</time></trkpt>
<trkpt lat="43.701699" lon="-1.413846"><ele>13.4</ele><time>2025-10-22T07:55:03Z</time></trkpt>
<trkpt lat="43.701696" lon="-1.413912"><ele>14.1</ele><time>2025-10-22T07:55:07Z</time></trkpt>
<trkpt lat="43.701690" lon="-1.413976"><ele>14.0</ele><time>2025-10-22T07:55:11Z</time></trkpt>
<trkpt lat="43.701684" lon="-1.414052"><ele>13.7</ele><time>2025-10-22T07:55:16Z</time></trkpt>
<trkpt lat="43.701674" lon="-1.414126"><ele>13.9</ele><time>2025-10-22T07:55:21Z</time></trkpt>
<trkpt lat="43.701672" lon="-1.414199"><ele>15.2</ele><time>2025-10-22T07:55:26Z</time></trkpt>
<trkpt lat="43.701664" lon="-1.414267"><ele>12.9</ele><time>2025-10-22T07:55:31Z</time></trkpt>
<trkpt lat="43.701661" lon="-1.414337"><ele>13.0</ele><time>2025-10-22T07:55:36Z</time></trkpt>
<trkpt lat="43.701656" lon="-1.414403"><ele>13.1</ele><time>2025-10-22T07:55:41Z</time></trkpt>
<trkpt lat="43.701662" lon="-1.414472"><ele>13.7</ele><time>2025-10-22T07:55:46Z</time></trkpt>
<trkpt lat="43.701658" lon="-1.414540"><ele>13.9</ele><time>2025-10-22T07:55:51Z</time></trkpt>
<trkpt lat="43.701655" lon="-1.414611"><ele>13.7</ele><time>2025-10-22T07:55:57Z</time></trkpt>
<trkpt lat="43.701663" lon="-1.414685"><ele>13.6</ele><time>2025-10-22T07:56:03Z</time></trkpt>
<trkpt lat="43.701658" lon="-1.414761"><ele>14.5</ele><time>2025-10-22T07:56:08Z</time></trkpt>
<trkpt lat="43.701654" lon="-1.414826"><ele>14.1</ele><time>2025-10-22T07:56:12Z</time></trkpt>
<trkpt lat="43.701649" lon="-1.414903"><ele>12.7</ele><time>2025-10-22T07:56:17Z</time></trkpt>
<trkpt lat="43.701646" lon="-1.414965"><ele>12.4</ele><time>2025-10-22T07:56:21Z</time></trkpt>
<trkpt lat="43.701643" lon="-1.415042"><ele>12.1</ele><time>2025-10-22T07:56:26Z</time></trkpt>
<trkpt lat="43.701641" lon="-1.415109"><ele>12.2</ele><time>2025-10-22T07:56:30Z</time></trkpt>
<trkpt lat="43.701641" lon="-1.415176"><ele>12.1</ele><time>2025-10-22T07:56:34Z</time></trkpt>
<trkpt lat="43.701641" lon="-1.415245"><ele>12.0</ele><time>2025-10-22T07:56:38Z</time></trkpt>
<trkpt lat="43.701628" lon="-1.415310"><ele>11.1</ele><time>2025-10-22T07:56:42Z</time></trkpt>
<trkpt lat="43.701621" lon="-1.415377"><ele>10.1</ele><time>2025-10-22T07:56:46Z</time></trkpt>
<trkpt lat="43.701620" lon="-1.415448"><ele>9.8</ele><time>2025-10-22T07:56:50Z</time></trkpt>
<trkpt lat="43.701617" lon="-1.415520"><ele>9.8</ele><time>2025-10-22T07:56:54Z</time></trkpt>
<trkpt lat="43.701619" lon="-1.415587"><ele>9.6</ele><time>2025-10-22T07:56:58Z</time></trkpt>
<trkpt lat="43.701634" lon="-1.415651"><ele>10.2</ele><time>2025-10-22T07:57:02Z</time></trkpt>
<trkpt lat="43.701657" lon="-1.415709"><ele>10.9</ele><time>2025-10-22T07:57:06Z</time></trkpt>
<trkpt lat="43.701691" lon="-1.415754"><ele>9.7</ele><time>2025-10-22T07:57:10Z</time></trkpt>
<trkpt lat="43.701728" lon="-1.415798"><ele>10.3</ele><time>2025-10-22T07:57:14Z</time></trkpt>
<trkpt lat="43.701767" lon="-1.415839"><ele>10.9</ele><time>2025-10-22T07:57:18Z</time></trkpt>
<trkpt lat="43.701813" lon="-1.415873"><ele>11.3</ele><time>2025-10-22T07:57:22Z</time></trkpt>
<trkpt lat="43.701854" lon="-1.415914"><ele>11.2</ele><time>2025-10-22T07:57:26Z</time></trkpt>
<trkpt lat="43.701891" lon="-1.415956"><ele>11.5</ele><time>2025-10-22T07:57:30Z</time></trkpt>
<trkpt lat="43.701926" lon="-1.416001"><ele>10.9</ele><time>2025-10-22T07:57:34Z</time></trkpt>
<trkpt lat="43.701962" lon="-1.416046"><ele>10.8</ele><time>2025-10-22T07:57:38Z</time></trkpt>
<trkpt lat="43.701994" lon="-1.416090"><ele>9.9</ele><time>2025-10-22T07:57:44Z</time></trkpt>
<trkpt lat="43.702027" lon="-1.416137"><ele>9.6</ele><time>2025-10-22T07:57:48Z</time></trkpt>
<trkpt lat="43.702059" lon="-1.416193"><ele>9.6</ele><time>2025-10-22T07:57:52Z</time></trkpt>
<trkpt lat="43.702092" lon="-1.416239"><ele>10.4</ele><time>2025-10-22T07:57:56Z</time></trkpt>
<trkpt lat="43.702122" lon="-1.416290"><ele>10.4</ele><time>2025-10-22T07:58:00Z</time></trkpt>
<trkpt lat="43.702151" lon="-1.416340"><ele>10.3</ele><time>2025-10-22T07:58:04Z</time></trkpt>
<trkpt lat="43.702185" lon="-1.416391"><ele>9.8</ele><time>2025-10-22T07:58:09Z</time></trkpt>
<trkpt lat="43.702216" lon="-1.416439"><ele>10.2</ele><time>2025-10-22T07:58:14Z</time></trkpt>
<trkpt lat="43.702251" lon="-1.416491"><ele>11.5</ele><time>2025-10-22T07:58:19Z</time></trkpt>
<trkpt lat="43.702284" lon="-1.416545"><ele>13.0</ele><time>2025-10-22T07:58:24Z</time></trkpt>
<trkpt lat="43.702315" lon="-1.416598"><ele>14.2</ele><time>2025-10-22T07:58:29Z</time></trkpt>
<trkpt lat="43.702343" lon="-1.416653"><ele>15.1</ele><time>2025-10-22T07:58:34Z</time></trkpt>
<trkpt lat="43.702378" lon="-1.416707"><ele>14.5</ele><time>2025-10-22T07:58:39Z</time></trkpt>
<trkpt lat="43.702415" lon="-1.416756"><ele>14.8</ele><time>2025-10-22T07:58:44Z</time></trkpt>
<trkpt lat="43.702450" lon="-1.416801"><ele>14.9</ele><time>2025-10-22T07:58:49Z</time></trkpt>
<trkpt lat="43.702489" lon="-1.416846"><ele>14.8</ele><time>2025-10-22T07:59:01Z</time></trkpt>
<trkpt lat="43.702523" lon="-1.416900"><ele>14.1</ele><time>2025-10-22T07:59:06Z</time></trkpt>
<trkpt lat="43.702559" lon="-1.416938"><ele>13.2</ele><time>2025-10-22T07:59:10Z</time></trkpt>
<trkpt lat="43.702597" lon="-1.416980"><ele>13.0</ele><time>2025-10-22T07:59:15Z</time></trkpt>
<trkpt lat="43.702635" lon="-1.417015"><ele>12.8</ele><time>2025-10-22T07:59:20Z</time></trkpt>
<trkpt lat="43.702626" lon="-1.416944"><ele>15.5</ele><time>2025-10-22T07:59:37Z</time></trkpt>
<trkpt lat="43.702649" lon="-1.416880"><ele>16.1</ele><time>2025-10-22T07:59:42Z</time></trkpt>
<trkpt lat="43.702661" lon="-1.416817"><ele>16.6</ele><time>2025-10-22T07:59:51Z</time></trkpt>
<trkpt lat="43.702667" lon="-1.416754"><ele>16.3</ele><time>2025-10-22T07:59:56Z</time></trkpt>
<trkpt lat="43.702679" lon="-1.416688"><ele>16.4</ele><time>2025-10-22T08:00:01Z</time></trkpt>
<trkpt lat="43.702674" lon="-1.416618"><ele>15.8</ele><time>2025-10-22T08:00:06Z</time></trkpt>
<trkpt lat="43.702686" lon="-1.416550"><ele>14.4</ele><time>2025-10-22T08:00:11Z</time></trkpt>
<trkpt lat="43.702704" lon="-1.416493"><ele>14.1</ele><time>2025-10-22T08:00:15Z</time></trkpt>
<trkpt lat="43.702718" lon="-1.416418"><ele>13.3</ele><time>2025-10-22T08:00:20Z</time></trkpt>
<trkpt lat="43.702721" lon="-1.416352"><ele>13.3</ele><time>2025-10-22T08:00:25Z</time></trkpt>
<trkpt lat="43.702723" lon="-1.416282"><ele>13.0</ele><time>2025-10-22T08:00:31Z</time></trkpt>
<trkpt lat="43.702746" lon="-1.416209"><ele>13.4</ele><time>2025-10-22T08:00:37Z</time></trkpt>
<trkpt lat="43.702760" lon="-1.416141"><ele>11.8</ele><time>2025-10-22T08:00:41Z</time></trkpt>
<trkpt lat="43.702784" lon="-1.416077"><ele>11.6</ele><time>2025-10-22T08:00:46Z</time></trkpt>
<trkpt lat="43.702817" lon="-1.416023"><ele>10.8</ele><time>2025-10-22T08:00:51Z</time></trkpt>
<trkpt lat="43.702844" lon="-1.415968"><ele>11.2</ele><time>2025-10-22T08:00:55Z</time></trkpt>
<trkpt lat="43.702857" lon="-1.415908"><ele>13.6</ele><time>2025-10-22T08:01:00Z</time></trkpt>
<trkpt lat="43.702873" lon="-1.415838"><ele>17.1</ele><time>2025-10-22T08:01:07Z</time></trkpt>
<trkpt lat="43.702890" lon="-1.415768"><ele>17.5</ele><time>2025-10-22T08:01:12Z</time></trkpt>
<trkpt lat="43.702910" lon="-1.415697"><ele>19.4</ele><time>2025-10-22T08:01:17Z</time></trkpt>
<trkpt lat="43.702916" lon="-1.415628"><ele>21.3</ele><time>2025-10-22T08:01:22Z</time></trkpt>
<trkpt lat="43.702943" lon="-1.415570"><ele>21.7</ele><time>2025-10-22T08:01:29Z</time></trkpt>
<trkpt lat="43.702956" lon="-1.415504"><ele>22.8</ele><time>2025-10-22T08:01:33Z</time></trkpt>
<trkpt lat="43.702981" lon="-1.415435"><ele>23.7</ele><time>2025-10-22T08:01:38Z</time></trkpt>
<trkpt lat="43.703011" lon="-1.415387"><ele>23.2</ele><time>2025-10-22T08:01:42Z</time></trkpt>
<trkpt lat="43.703040" lon="-1.415335"><ele>24.0</ele><time>2025-10-22T08:01:46Z</time></trkpt>
<trkpt lat="43.703069" lon="-1.415277"><ele>25.0</ele><time>2025-10-22T08:01:51Z</time></trkpt>
<trkpt lat="43.703091" lon="-1.415220"><ele>25.2</ele><time>2025-10-22T08:01:56Z</time></trkpt>
<trkpt lat="43.703104" lon="-1.415152"><ele>24.4</ele><time>2025-10-22T08:02:03Z</time></trkpt>
<trkpt lat="43.703143" lon="-1.415119"><ele>23.2</ele><time>2025-10-22T08:02:14Z</time></trkpt>
<trkpt lat="43.703159" lon="-1.415055"><ele>24.1</ele><time>2025-10-22T08:02:18Z</time></trkpt>
<trkpt lat="43.703189" lon="-1.415004"><ele>24.8</ele><time>2025-10-22T08:02:22Z</time></trkpt>
<trkpt lat="43.703223" lon="-1.414945"><ele>26.1</ele><time>2025-10-22T08:02:27Z</time></trkpt>
<trkpt lat="43.703255" lon="-1.414897"><ele>26.0</ele><time>2025-10-22T08:02:40Z</time></trkpt>
<trkpt lat="43.703269" lon="-1.414838"><ele>26.6</ele><time>2025-10-22T08:02:45Z</time></trkpt>
<trkpt lat="43.703295" lon="-1.414783"><ele>29.1</ele><time>2025-10-22T08:02:50Z</time></trkpt>
<trkpt lat="43.703293" lon="-1.414718"><ele>33.4</ele><time>2025-10-22T08:03:00Z</time></trkpt>
<trkpt lat="43.703334" lon="-1.414668"><ele>32.7</ele><time>2025-10-22T08:03:05Z</time></trkpt>
<trkpt lat="43.703381" lon="-1.414639"><ele>32.9</ele><time>2025-10-22T08:03:10Z</time></trkpt>
<trkpt lat="43.703423" lon="-1.414611"><ele>33.1</ele><time>2025-10-22T08:03:15Z</time></trkpt>
<trkpt lat="43.703467" lon="-1.414575"><ele>32.2</ele><time>2025-10-22T08:03:20Z</time></trkpt>
<trkpt lat="43.703507" lon="-1.414535"><ele>33.7</ele><time>2025-10-22T08:03:26Z</time></trkpt>
<trkpt lat="43.703539" lon="-1.414488"><ele>34.9</ele><time>2025-10-22T08:03:33Z</time></trkpt>
<trkpt lat="43.703555" lon="-1.414430"><ele>34.5</ele><time>2025-10-22T08:03:43Z</time></trkpt>
<trkpt lat="43.703586" lon="-1.414378"><ele>33.3</ele><time>2025-10-22T08:03:50Z</time></trkpt>
<trkpt lat="43.703613" lon="-1.414327"><ele>31.2</ele><time>2025-10-22T08:03:57Z</time></trkpt>
<trkpt lat="43.703646" lon="-1.414277"><ele>30.5</ele><time>2025-10-22T08:04:03Z</time></trkpt>
<trkpt lat="43.703683" lon="-1.414236"><ele>31.2</ele><time>2025-10-22T08:04:10Z</time></trkpt>
<trkpt lat="43.703670" lon="-1.414172"><ele>27.1</ele><time>2025-10-22T08:04:24Z</time></trkpt>
<trkpt lat="43.703698" lon="-1.414114"><ele>25.9</ele><time>2025-10-22T08:04:31Z</time></trkpt>
<trkpt lat="43.703742" lon="-1.414083"><ele>25.6</ele><time>2025-10-22T08:04:38Z</time></trkpt>
<trkpt lat="43.703771" lon="-1.414035"><ele>24.8</ele><time>2025-10-22T08:04:44Z</time></trkpt>
<trkpt lat="43.703803" lon="-1.413984"><ele>26.8</ele><time>2025-10-22T08:04:50Z</time></trkpt>
<trkpt lat="43.703842" lon="-1.413950"><ele>21.5</ele><time>2025-10-22T08:04:54Z</time></trkpt>
<trkpt lat="43.703889" lon="-1.413905"><ele>19.6</ele><time>2025-10-22T08:04:57Z</time></trkpt>
<trkpt lat="43.703937" lon="-1.413899"><ele>18.9</ele><time>2025-10-22T08:05:02Z</time></trkpt>
<trkpt lat="43.703993" lon="-1.413878"><ele>18.9</ele><time>2025-10-22T08:05:06Z</time></trkpt>
<trkpt lat="43.704043" lon="-1.413870"><ele>18.4</ele><time>2025-10-22T08:05:11Z</time></trkpt>
<trkpt lat="43.704076" lon="-1.413911"><ele>20.9</ele><time>2025-10-22T08:05:16Z</time></trkpt>
<trkpt lat="43.704119" lon="-1.413938"><ele>24.0</ele><time>2025-10-22T08:05:22Z</time></trkpt>
<trkpt lat="43.704157" lon="-1.413972"><ele>23.6</ele><time>2025-10-22T08:05:28Z</time></trkpt>
<trkpt lat="43.704201" lon="-1.413997"><ele>24.7</ele><time>2025-10-22T08:05:34Z</time></trkpt>
<trkpt lat="43.704240" lon="-1.414033"><ele>25.5</ele><time>2025-10-22T08:05:39Z</time></trkpt>
<trkpt lat="43.704287" lon="-1.414053"><ele>26.0</ele><time>2025-10-22T08:05:43Z</time></trkpt>
<trkpt lat="43.704338" lon="-1.414082"><ele>27.1</ele><time>2025-10-22T08:05:47Z</time></trkpt>
<trkpt lat="43.704374" lon="-1.414126"><ele>26.2</ele><time>2025-10-22T08:05:50Z</time></trkpt>
<trkpt lat="43.704421" lon="-1.414156"><ele>28.1</ele><time>2025-10-22T08:05:55Z</time></trkpt>
<trkpt lat="43.704464" lon="-1.414199"><ele>28.5</ele><time>2025-10-22T08:06:00Z</time></trkpt>
<trkpt lat="43.704509" lon="-1.414265"><ele>25.9</ele><time>2025-10-22T08:06:04Z</time></trkpt>
<trkpt lat="43.704557" lon="-1.414292"><ele>27.6</ele><time>2025-10-22T08:06:09Z</time></trkpt>
<trkpt lat="43.704593" lon="-1.414330"><ele>25.4</ele><time>2025-10-22T08:06:12Z</time></trkpt>
<trkpt lat="43.704636" lon="-1.414391"><ele>26.6</ele><time>2025-10-22T08:06:16Z</time></trkpt>
<trkpt lat="43.704684" lon="-1.414416"><ele>27.8</ele><time>2025-10-22T08:06:20Z</time></trkpt>
<trkpt lat="43.704729" lon="-1.414434"><ele>29.7</ele><time>2025-10-22T08:06:25Z</time></trkpt>
<trkpt lat="43.704780" lon="-1.414425"><ele>31.8</ele><time>2025-10-22T08:06:30Z</time></trkpt>
<trkpt lat="43.704833" lon="-1.414457"><ele>32.7</ele><time>2025-10-22T08:06:36Z</time></trkpt>
<trkpt lat="43.704879" lon="-1.414455"><ele>30.1</ele><time>2025-10-22T08:06:40Z</time></trkpt>
<trkpt lat="43.704933" lon="-1.414466"><ele>28.9</ele><time>2025-10-22T08:06:45Z</time></trkpt>
<trkpt lat="43.704981" lon="-1.414466"><ele>30.2</ele><time>2025-10-22T08:06:51Z</time></trkpt>
<trkpt lat="43.705016" lon="-1.414522"><ele>32.9</ele><time>2025-10-22T08:06:56Z</time></trkpt>
<trkpt lat="43.705061" lon="-1.414543"><ele>33.0</ele><time>2025-10-22T08:07:01Z</time></trkpt>
<trkpt lat="43.705108" lon="-1.414577"><ele>30.5</ele><time>2025-10-22T08:07:05Z</time></trkpt>
<trkpt lat="43.705159" lon="-1.414594"><ele>28.3</ele><time>2025-10-22T08:07:10Z</time></trkpt>
<trkpt lat="43.705207" lon="-1.414593"><ele>22.9</ele><time>2025-10-22T08:07:15Z</time></trkpt>
<trkpt lat="43.705251" lon="-1.414601"><ele>21.5</ele><time>2025-10-22T08:07:19Z</time></trkpt>
<trkpt lat="43.705298" lon="-1.414626"><ele>22.3</ele><time>2025-10-22T08:07:23Z</time></trkpt>
<trkpt lat="43.705351" lon="-1.414639"><ele>22.2</ele><time>2025-10-22T08:07:29Z</time></trkpt>
<trkpt lat="43.705396" lon="-1.414628"><ele>20.8</ele><time>2025-10-22T08:07:34Z</time></trkpt>
<trkpt lat="43.705442" lon="-1.414623"><ele>20.8</ele><time>2025-10-22T08:07:37Z</time></trkpt>
<trkpt lat="43.705496" lon="-1.414615"><ele>20.9</ele><time>2025-10-22T08:07:41Z</time></trkpt>
<trkpt lat="43.705542" lon="-1.414605"><ele>20.2</ele><time>2025-10-22T08:07:44Z</time></trkpt>
<trkpt lat="43.705601" lon="-1.414619"><ele>22.6</ele><time>2025-10-22T08:07:48Z</time></trkpt>
<trkpt lat="43.705641" lon="-1.414648"><ele>21.5</ele><time>2025-10-22T08:07:51Z</time></trkpt>
<trkpt lat="43.705689" lon="-1.414690"><ele>22.4</ele><time>2025-10-22T08:07:55Z</time></trkpt>
<trkpt lat="43.705745" lon="-1.414719"><ele>22.3</ele><time>2025-10-22T08:07:59Z</time></trkpt>
<trkpt lat="43.705796" lon="-1.414745"><ele>21.6</ele><time>2025-10-22T08:08:03Z</time></trkpt>
<trkpt lat="43.705840" lon="-1.414775"><ele>22.4</ele><time>2025-10-22T08:08:07Z</time></trkpt>
<trkpt lat="43.705885" lon="-1.414806"><ele>22.9</ele><time>2025-10-22T08:08:11Z</time></trkpt>
<trkpt lat="43.705930" lon="-1.414853"><ele>24.9</ele><time>2025-10-22T08:08:16Z</time></trkpt>
<trkpt lat="43.705967" lon="-1.414894"><ele>25.6</ele><time>2025-10-22T08:08:20Z</time></trkpt>
<trkpt lat="43.706010" lon="-1.414917"><ele>25.7</ele><time>2025-10-22T08:08:24Z</time></trkpt>
<trkpt lat="43.706055" lon="-1.414954"><ele>27.6</ele><time>2025-10-22T08:08:28Z</time></trkpt>
<trkpt lat="43.706102" lon="-1.414971"><ele>26.8</ele><time>2025-10-22T08:08:31Z</time></trkpt>
<trkpt lat="43.706156" lon="-1.414976"><ele>25.8</ele><time>2025-10-22T08:08:35Z</time></trkpt>
<trkpt lat="43.706206" lon="-1.415000"><ele>26.3</ele><time>2025-10-22T08:08:39Z</time></trkpt>
<trkpt lat="43.706251" lon="-1.415037"><ele>28.9</ele><time>2025-10-22T08:08:45Z</time></trkpt>
<trkpt lat="43.706290" lon="-1.415076"><ele>28.7</ele><time>2025-10-22T08:08:49Z</time></trkpt>
<trkpt lat="43.706328" lon="-1.415118"><ele>29.1</ele><time>2025-10-22T08:08:53Z</time></trkpt>
<trkpt lat="43.706370" lon="-1.415170"><ele>30.6</ele><time>2025-10-22T08:08:58Z</time></trkpt>
<trkpt lat="43.706418" lon="-1.415165"><ele>29.1</ele><time>2025-10-22T08:09:02Z</time></trkpt>
<trkpt lat="43.706462" lon="-1.415186"><ele>23.8</ele><time>2025-10-22T08:09:08Z</time></trkpt>
<trkpt lat="43.706495" lon="-1.415241"><ele>24.8</ele><time>2025-10-22T08:09:12Z</time></trkpt>
<trkpt lat="43.706535" lon="-1.415293"><ele>24.5</ele><time>2025-10-22T08:09:16Z</time></trkpt>
<trkpt lat="43.706575" lon="-1.415351"><ele>25.3</ele><time>2025-10-22T08:09:20Z</time></trkpt>
<trkpt lat="43.706607" lon="-1.415396"><ele>25.3</ele><time>2025-10-22T08:09:24Z</time></trkpt>
<trkpt lat="43.706648" lon="-1.415430"><ele>28.7</ele><time>2025-10-22T08:09:28Z</time></trkpt>
<trkpt lat="43.706697" lon="-1.415454"><ele>28.9</ele><time>2025-10-22T08:09:32Z</time></trkpt>
<trkpt lat="43.706732" lon="-1.415516"><ele>28.9</ele><time>2025-10-22T08:09:37Z</time></trkpt>
<trkpt lat="43.706760" lon="-1.415594"><ele>28.6</ele><time>2025-10-22T08:09:41Z</time></trkpt>
<trkpt lat="43.706785" lon="-1.415651"><ele>29.7</ele><time>2025-10-22T08:09:46Z</time></trkpt>
<trkpt lat="43.706831" lon="-1.415665"><ele>30.2</ele><time>2025-10-22T08:09:51Z</time></trkpt>
<trkpt lat="43.706851" lon="-1.415727"><ele>33.7</ele><time>2025-10-22T08:09:54Z</time></trkpt>
<trkpt lat="43.706885" lon="-1.415769"><ele>33.5</ele><time>2025-10-22T08:09:58Z</time></trkpt>
<trkpt lat="43.706931" lon="-1.415792"><ele>31.0</ele><time>2025-10-22T08:10:02Z</time></trkpt>
<trkpt lat="43.706977" lon="-1.415806"><ele>30.8</ele><time>2025-10-22T08:10:06Z</time></trkpt>
<trkpt lat="43.707022" lon="-1.415817"><ele>31.0</ele><time>2025-10-22T08:10:09Z</time></trkpt>
<trkpt lat="43.707072" lon="-1.415837"><ele>34.5</ele><time>2025-10-22T08:10:13Z</time></trkpt>
<trkpt lat="43.707122" lon="-1.415840"><ele>32.3</ele><time>2025-10-22T08:10:18Z</time></trkpt>
<trkpt lat="43.707169" lon="-1.415875"><ele>30.2</ele><time>2025-10-22T08:10:23Z</time></trkpt>
<trkpt lat="43.707215" lon="-1.415899"><ele>32.0</ele><time>2025-10-22T08:10:27Z</time></trkpt>
<trkpt lat="43.707272" lon="-1.415911"><ele>30.6</ele><time>2025-10-22T08:10:31Z</time></trkpt>
<trkpt lat="43.707324" lon="-1.415921"><ele>31.4</ele><time>2025-10-22T08:10:35Z</time></trkpt>
<trkpt lat="43.707372" lon="-1.415925"><ele>31.1</ele><time>2025-10-22T08:10:39Z</time></trkpt>
<trkpt lat="43.707421" lon="-1.415937"><ele>28.4</ele><time>2025-10-22T08:10:43Z</time></trkpt>
<trkpt lat="43.707468" lon="-1.415965"><ele>22.7</ele><time>2025-10-22T08:10:48Z</time></trkpt>
<trkpt lat="43.707522" lon="-1.415995"><ele>19.2</ele><time>2025-10-22T08:10:51Z</time></trkpt>
<trkpt lat="43.707561" lon="-1.416028"><ele>17.9</ele><time>2025-10-22T08:10:59Z</time></trkpt>
<trkpt lat="43.707586" lon="-1.416081"><ele>16.2</ele><time>2025-10-22T08:11:24Z</time></trkpt>
<trkpt lat="43.707623" lon="-1.416045"><ele>12.1</ele><time>2025-10-22T08:14:59Z</time></trkpt>
<trkpt lat="43.707664" lon="-1.416072"><ele>17.3</ele><time>2025-10-22T08:17:36Z</time></trkpt>
<trkpt lat="43.707710" lon="-1.416091"><ele>19.0</ele><time>2025-10-22T08:17:49Z</time></trkpt>
<trkpt lat="43.707755" lon="-1.416073"><ele>20.8</ele><time>2025-10-22T08:17:56Z</time></trkpt>
<trkpt lat="43.707727" lon="-1.416123"><ele>16.8</ele><time>2025-10-22T08:18:44Z</time></trkpt>
<trkpt lat="43.707773" lon="-1.416112"><ele>16.5</ele><time>2025-10-22T08:19:20Z</time></trkpt>
<trkpt lat="43.707806" lon="-1.416051"><ele>18.3</ele><time>2025-10-22T08:19:31Z</time></trkpt>
<trkpt lat="43.707837" lon="-1.416001"><ele>18.8</ele><time>2025-10-22T08:19:35Z</time></trkpt>
<trkpt lat="43.707867" lon="-1.415950"><ele>19.1</ele><time>2025-10-22T08:19:39Z</time></trkpt>
<trkpt lat="43.707898" lon="-1.415905"><ele>20.1</ele><time>2025-10-22T08:19:43Z</time></trkpt>
<trkpt lat="43.707933" lon="-1.415847"><ele>20.3</ele><time>2025-10-22T08:19:48Z</time></trkpt>
<trkpt lat="43.707973" lon="-1.415796"><ele>20.3</ele><time>2025-10-22T08:19:53Z</time></trkpt>
<trkpt lat="43.708005" lon="-1.415738"><ele>19.6</ele><time>2025-10-22T08:19:59Z</time></trkpt>
<trkpt lat="43.708035" lon="-1.415684"><ele>17.8</ele><time>2025-10-22T08:20:35Z</time></trkpt>
<trkpt lat="43.708075" lon="-1.415636"><ele>17.8</ele><time>2025-10-22T08:20:41Z</time></trkpt>
<trkpt lat="43.708108" lon="-1.415582"><ele>17.8</ele><time>2025-10-22T08:20:46Z</time></trkpt>
<trkpt lat="43.708142" lon="-1.415524"><ele>18.2</ele><time>2025-10-22T08:20:51Z</time></trkpt>
<trkpt lat="43.708170" lon="-1.415472"><ele>19.0</ele><time>2025-10-22T08:20:55Z</time></trkpt>
<trkpt lat="43.708191" lon="-1.415401"><ele>19.5</ele><time>2025-10-22T08:21:00Z</time></trkpt>
<trkpt lat="43.708217" lon="-1.415345"><ele>19.5</ele><time>2025-10-22T08:21:05Z</time></trkpt>
<trkpt lat="43.708259" lon="-1.415304"><ele>18.7</ele><time>2025-10-22T08:21:19Z</time></trkpt>
<trkpt lat="43.708289" lon="-1.415247"><ele>18.0</ele><time>2025-10-22T08:21:23Z</time></trkpt>
<trkpt lat="43.708317" lon="-1.415186"><ele>18.3</ele><time>2025-10-22T08:21:28Z</time></trkpt>
<trkpt lat="43.708346" lon="-1.415138"><ele>19.3</ele><time>2025-10-22T08:21:32Z</time></trkpt>
<trkpt lat="43.708379" lon="-1.415076"><ele>19.5</ele><time>2025-10-22T08:21:37Z</time></trkpt>
<trkpt lat="43.708412" lon="-1.415030"><ele>20.8</ele><time>2025-10-22T08:21:41Z</time></trkpt>
<trkpt lat="43.708441" lon="-1.414972"><ele>20.8</ele><time>2025-10-22T08:21:45Z</time></trkpt>
<trkpt lat="43.708475" lon="-1.414915"><ele>21.6</ele><time>2025-10-22T08:21:49Z</time></trkpt>
<trkpt lat="43.708515" lon="-1.414859"><ele>22.2</ele><time>2025-10-22T08:21:54Z</time></trkpt>
<trkpt lat="43.708554" lon="-1.414818"><ele>21.0</ele><time>2025-10-22T08:21:58Z</time></trkpt>
<trkpt lat="43.708595" lon="-1.414779"><ele>21.3</ele><time>2025-10-22T08:22:02Z</time></trkpt>
<trkpt lat="43.708637" lon="-1.414740"><ele>21.2</ele><time>2025-10-22T08:22:06Z</time></trkpt>
<trkpt lat="43.708681" lon="-1.414715"><ele>20.4</ele><time>2025-10-22T08:22:11Z</time></trkpt>
<trkpt lat="43.708727" lon="-1.414677"><ele>19.5</ele><time>2025-10-22T08:22:15Z</time></trkpt>
<trkpt lat="43.708768" lon="-1.414636"><ele>18.9</ele><time>2025-10-22T08:22:18Z</time></trkpt>
<trkpt lat="43.708806" lon="-1.414598"><ele>18.8</ele><time>2025-10-22T08:22:21Z</time></trkpt>
<trkpt lat="43.708853" lon="-1.414551"><ele>18.6</ele><time>2025-10-22T08:22:25Z</time></trkpt>
<trkpt lat="43.708899" lon="-1.414504"><ele>19.2</ele><time>2025-10-22T08:22:29Z</time></trkpt>
<trkpt lat="43.708937" lon="-1.414469"><ele>19.4</ele><time>2025-10-22T08:22:32Z</time></trkpt>
<trkpt lat="43.708974" lon="-1.414434"><ele>19.0</ele><time>2025-10-22T08:22:35Z</time></trkpt>
<trkpt lat="43.709023" lon="-1.414386"><ele>19.4</ele><time>2025-10-22T08:22:39Z</time></trkpt>
<trkpt lat="43.709070" lon="-1.414346"><ele>19.9</ele><time>2025-10-22T08:22:43Z</time></trkpt>
<trkpt lat="43.709124" lon="-1.414317"><ele>20.1</ele><time>2025-10-22T08:22:47Z</time></trkpt>
<trkpt lat="43.709176" lon="-1.414289"><ele>20.0</ele><time>2025-10-22T08:22:51Z</time></trkpt>
<trkpt lat="43.709220" lon="-1.414253"><ele>19.9</ele><time>2025-10-22T08:22:55Z</time></trkpt>
<trkpt lat="43.709255" lon="-1.414207"><ele>20.2</ele><time>2025-10-22T08:22:59Z</time></trkpt>
<trkpt lat="43.709280" lon="-1.414148"><ele>20.1</ele><time>2025-10-22T08:23:03Z</time></trkpt>
<trkpt lat="43.709306" lon="-1.414082"><ele>20.1</ele><time>2025-10-22T08:23:07Z</time></trkpt>
<trkpt lat="43.709338" lon="-1.414022"><ele>20.4</ele><time>2025-10-22T08:23:11Z</time></trkpt>
<trkpt lat="43.709378" lon="-1.413963"><ele>20.6</ele><time>2025-10-22T08:23:15Z</time></trkpt>
<trkpt lat="43.709416" lon="-1.413914"><ele>21.4</ele><time>2025-10-22T08:23:19Z</time></trkpt>
<trkpt lat="43.709457" lon="-1.413877"><ele>21.9</ele><time>2025-10-22T08:23:23Z</time></trkpt>
<trkpt lat="43.709503" lon="-1.413839"><ele>22.0</ele><time>2025-10-22T08:23:27Z</time></trkpt>
<trkpt lat="43.709548" lon="-1.413797"><ele>22.4</ele><time>2025-10-22T08:23:31Z</time></trkpt>
<trkpt lat="43.709594" lon="-1.413748"><ele>22.1</ele><time>2025-10-22T08:23:35Z</time></trkpt>
<trkpt lat="43.709636" lon="-1.413692"><ele>21.5</ele><time>2025-10-22T08:23:39Z</time></trkpt>
<trkpt lat="43.709670" lon="-1.413633"><ele>21.3</ele><time>2025-10-22T08:23:43Z</time></trkpt>
<trkpt lat="43.709701" lon="-1.413576"><ele>20.7</ele><time>2025-10-22T08:23:47Z</time></trkpt>
<trkpt lat="43.709734" lon="-1.413516"><ele>20.0</ele><time>2025-10-22T08:23:51Z</time></trkpt>
<trkpt lat="43.709763" lon="-1.413442"><ele>17.9</ele><time>2025-10-22T08:23:55Z</time></trkpt>
<trkpt lat="43.709784" lon="-1.413385"><ele>18.1</ele><time>2025-10-22T08:23:58Z</time></trkpt>
<trkpt lat="43.709810" lon="-1.413316"><ele>18.2</ele><time>2025-10-22T08:24:02Z</time></trkpt>
<trkpt lat="43.709834" lon="-1.413254"><ele>17.4</ele><time>2025-10-22T08:24:06Z</time></trkpt>
<trkpt lat="43.709858" lon="-1.413193"><ele>17.5</ele><time>2025-10-22T08:24:10Z</time></trkpt>
<trkpt lat="43.709889" lon="-1.413140"><ele>16.3</ele><time>2025-10-22T08:24:14Z</time></trkpt>
<trkpt lat="43.709917" lon="-1.413083"><ele>16.2</ele><time>2025-10-22T08:24:18Z</time></trkpt>
<trkpt lat="43.709945" lon="-1.413026"><ele>15.0</ele><time>2025-10-22T08:24:22Z</time></trkpt>
<trkpt lat="43.709971" lon="-1.412970"><ele>15.3</ele><time>2025-10-22T08:24:26Z</time></trkpt>
<trkpt lat="43.709992" lon="-1.412910"><ele>15.5</ele><time>2025-10-22T08:24:30Z</time></trkpt>
<trkpt lat="43.710011" lon="-1.412847"><ele>15.6</ele><time>2025-10-22T08:24:34Z</time></trkpt>
<trkpt lat="43.710038" lon="-1.412782"><ele>16.0</ele><time>2025-10-22T08:24:39Z</time></trkpt>
<trkpt lat="43.710049" lon="-1.412721"><ele>15.8</ele><time>2025-10-22T08:24:43Z</time></trkpt>
<trkpt lat="43.710052" lon="-1.412645"><ele>16.0</ele><time>2025-10-22T08:24:48Z</time></trkpt>
<trkpt lat="43.710050" lon="-1.412582"><ele>15.7</ele><time>2025-10-22T08:24:52Z</time></trkpt>
<trkpt lat="43.710051" lon="-1.412517"><ele>15.3</ele><time>2025-10-22T08:24:56Z</time></trkpt>
<trkpt lat="43.710053" lon="-1.412454"><ele>15.0</ele><time>2025-10-22T08:25:00Z</time></trkpt>
<trkpt lat="43.710061" lon="-1.412389"><ele>14.6</ele><time>2025-10-22T08:25:04Z</time></trkpt>
<trkpt lat="43.710065" lon="-1.412322"><ele>14.7</ele><time>2025-10-22T08:25:08Z</time></trkpt>
<trkpt lat="43.710072" lon="-1.412255"><ele>14.9</ele><time>2025-10-22T08:25:12Z</time></trkpt>
<trkpt lat="43.710081" lon="-1.412186"><ele>15.4</ele><time>2025-10-22T08:25:16Z</time></trkpt>
<trkpt lat="43.710091" lon="-1.412118"><ele>15.3</ele><time>2025-10-22T08:25:20Z</time></trkpt>
<trkpt lat="43.710102" lon="-1.412049"><ele>15.4</ele><time>2025-10-22T08:25:24Z</time></trkpt>
<trkpt lat="43.710111" lon="-1.411982"><ele>15.8</ele><time>2025-10-22T08:25:28Z</time></trkpt>
<trkpt lat="43.710119" lon="-1.411915"><ele>15.9</ele><time>2025-10-22T08:25:32Z</time></trkpt>
<trkpt lat="43.710123" lon="-1.411844"><ele>15.7</ele><time>2025-10-22T08:25:36Z</time></trkpt>
<trkpt lat="43.710122" lon="-1.411775"><ele>15.3</ele><time>2025-10-22T08:25:40Z</time></trkpt>
<trkpt lat="43.710114" lon="-1.411708"><ele>15.3</ele><time>2025-10-22T08:25:44Z</time></trkpt>
<trkpt lat="43.710112" lon="-1.411640"><ele>15.1</ele><time>2025-10-22T08:25:48Z</time></trkpt>
<trkpt lat="43.710111" lon="-1.411569"><ele>15.3</ele><time>2025-10-22T08:25:52Z</time></trkpt>
<trkpt lat="43.710110" lon="-1.411494"><ele>15.0</ele><time>2025-10-22T08:25:56Z</time></trkpt>
<trkpt lat="43.710111" lon="-1.411419"><ele>15.2</ele><time>2025-10-22T08:26:00Z</time></trkpt>
<trkpt lat="43.710116" lon="-1.411341"><ele>15.3</ele><time>2025-10-22T08:26:04Z</time></trkpt>
<trkpt lat="43.710121" lon="-1.411267"><ele>15.0</ele><time>2025-10-22T08:26:08Z</time></trkpt>
<trkpt lat="43.710126" lon="-1.411196"><ele>15.1</ele><time>2025-10-22T08:26:12Z</time></trkpt>
<trkpt lat="43.710131" lon="-1.411127"><ele>15.3</ele><time>2025-10-22T08:26:16Z</time></trkpt>
<trkpt lat="43.710138" lon="-1.411065"><ele>15.6</ele><time>2025-10-22T08:26:20Z</time></trkpt>
<trkpt lat="43.710144" lon="-1.411002"><ele>15.7</ele><time>2025-10-22T08:26:24Z</time></trkpt>
<trkpt lat="43.710155" lon="-1.410940"><ele>16.3</ele><time>2025-10-22T08:26:28Z</time></trkpt>
<trkpt lat="43.710168" lon="-1.410877"><ele>16.6</ele><time>2025-10-22T08:26:32Z</time></trkpt>
<trkpt lat="43.710176" lon="-1.410812"><ele>16.9</ele><time>2025-10-22T08:26:36Z</time></trkpt>
<trkpt lat="43.710180" lon="-1.410749"><ele>17.1</ele><time>2025-10-22T08:26:40Z</time></trkpt>
<trkpt lat="43.710184" lon="-1.410685"><ele>17.5</ele><time>2025-10-22T08:26:44Z</time></trkpt>
<trkpt lat="43.710187" lon="-1.410612"><ele>18.1</ele><time>2025-10-22T08:26:49Z</time></trkpt>
<trkpt lat="43.710192" lon="-1.410536"><ele>18.7</ele><time>2025-10-22T08:26:54Z</time></trkpt>
<trkpt lat="43.710184" lon="-1.410461"><ele>18.9</ele><time>2025-10-22T08:26:59Z</time></trkpt>
<trkpt lat="43.710183" lon="-1.410398"><ele>19.4</ele><time>2025-10-22T08:27:03Z</time></trkpt>
<trkpt lat="43.710179" lon="-1.410323"><ele>20.0</ele><time>2025-10-22T08:27:08Z</time></trkpt>
<trkpt lat="43.710181" lon="-1.410247"><ele>21.3</ele><time>2025-10-22T08:27:13Z</time></trkpt>
<trkpt lat="43.710183" lon="-1.410181"><ele>21.9</ele><time>2025-10-22T08:27:17Z</time></trkpt>
<trkpt lat="43.710190" lon="-1.410116"><ele>21.9</ele><time>2025-10-22T08:27:21Z</time></trkpt>
<trkpt lat="43.710200" lon="-1.410050"><ele>21.8</ele><time>2025-10-22T08:27:25Z</time></trkpt>
<trkpt lat="43.710215" lon="-1.409988"><ele>22.3</ele><time>2025-10-22T08:27:29Z</time></trkpt>
<trkpt lat="43.710233" lon="-1.409917"><ele>22.4</ele><time>2025-10-22T08:27:34Z</time></trkpt>
<trkpt lat="43.710253" lon="-1.409849"><ele>22.5</ele><time>2025-10-22T08:27:39Z</time></trkpt>
<trkpt lat="43.710274" lon="-1.409786"><ele>23.2</ele><time>2025-10-22T08:27:44Z</time></trkpt>
<trkpt lat="43.710286" lon="-1.409716"><ele>23.7</ele><time>2025-10-22T08:27:49Z</time></trkpt>
<trkpt lat="43.710298" lon="-1.409654"><ele>24.6</ele><time>2025-10-22T08:27:53Z</time></trkpt>
<trkpt lat="43.710308" lon="-1.409584"><ele>25.5</ele><time>2025-10-22T08:27:58Z</time></trkpt>
<trkpt lat="43.710310" lon="-1.409508"><ele>26.3</ele><time>2025-10-22T08:28:03Z</time></trkpt>
<trkpt lat="43.710310" lon="-1.409435"><ele>27.6</ele><time>2025-10-22T08:28:08Z</time></trkpt>
<trkpt lat="43.710296" lon="-1.409363"><ele>28.2</ele><time>2025-10-22T08:28:13Z</time></trkpt>
<trkpt lat="43.710290" lon="-1.409294"><ele>29.2</ele><time>2025-10-22T08:28:18Z</time></trkpt>
<trkpt lat="43.710285" lon="-1.409226"><ele>29.5</ele><time>2025-10-22T08:28:23Z</time></trkpt>
<trkpt lat="43.710279" lon="-1.409161"><ele>30.3</ele><time>2025-10-22T08:28:28Z</time></trkpt>
<trkpt lat="43.710281" lon="-1.409092"><ele>30.9</ele><time>2025-10-22T08:28:34Z</time></trkpt>
<trkpt lat="43.710290" lon="-1.409023"><ele>31.1</ele><time>2025-10-22T08:28:40Z</time></trkpt>
<trkpt lat="43.710289" lon="-1.408956"><ele>31.8</ele><time>2025-10-22T08:28:45Z</time></trkpt>
<trkpt lat="43.710283" lon="-1.408883"><ele>32.0</ele><time>2025-10-22T08:28:51Z</time></trkpt>
<trkpt lat="43.710278" lon="-1.408816"><ele>32.6</ele><time>2025-10-22T08:28:57Z</time></trkpt>
<trkpt lat="43.710275" lon="-1.408744"><ele>33.1</ele><time>2025-10-22T08:29:03Z</time></trkpt>
<trkpt lat="43.710280" lon="-1.408672"><ele>33.6</ele><time>2025-10-22T08:29:09Z</time></trkpt>
<trkpt lat="43.710285" lon="-1.408599"><ele>35.0</ele><time>2025-10-22T08:29:15Z</time></trkpt>
<trkpt lat="43.710289" lon="-1.408536"><ele>35.4</ele><time>2025-10-22T08:29:20Z</time></trkpt>
<trkpt lat="43.710292" lon="-1.408468"><ele>35.7</ele><time>2025-10-22T08:29:25Z</time></trkpt>
<trkpt lat="43.710293" lon="-1.408398"><ele>37.1</ele><time>2025-10-22T08:29:35Z</time></trkpt>
<trkpt lat="43.710338" lon="-1.408413"><ele>37.3</ele><time>2025-10-22T08:30:11Z</time></trkpt>
<trkpt lat="43.710376" lon="-1.408464"><ele>37.2</ele><time>2025-10-22T08:30:17Z</time></trkpt>
<trkpt lat="43.710408" lon="-1.408513"><ele>36.4</ele><time>2025-10-22T08:30:21Z</time></trkpt>
<trkpt lat="43.710448" lon="-1.408543"><ele>38.4</ele><time>2025-10-22T08:30:26Z</time></trkpt>
<trkpt lat="43.710495" lon="-1.408562"><ele>37.4</ele><time>2025-10-22T08:30:34Z</time></trkpt>
<trkpt lat="43.710536" lon="-1.408592"><ele>37.6</ele><time>2025-10-22T08:30:50Z</time></trkpt>
<trkpt lat="43.710573" lon="-1.408630"><ele>38.5</ele><time>2025-10-22T08:30:56Z</time></trkpt>
<trkpt lat="43.710618" lon="-1.408639"><ele>39.3</ele><time>2025-10-22T08:31:02Z</time></trkpt>
<trkpt lat="43.710663" lon="-1.408607"><ele>40.0</ele><time>2025-10-22T08:31:08Z</time></trkpt>
<trkpt lat="43.710709" lon="-1.408591"><ele>41.7</ele><time>2025-10-22T08:31:15Z</time></trkpt>
<trkpt lat="43.710753" lon="-1.408612"><ele>43.0</ele><time>2025-10-22T08:31:23Z</time></trkpt>
<trkpt lat="43.710794" lon="-1.408655"><ele>43.5</ele><time>2025-10-22T08:31:29Z</time></trkpt>
<trkpt lat="43.710845" lon="-1.408645"><ele>42.9</ele><time>2025-10-22T08:31:34Z</time></trkpt>
<trkpt lat="43.710892" lon="-1.408641"><ele>44.5</ele><time>2025-10-22T08:31:40Z</time></trkpt>
<trkpt lat="43.710941" lon="-1.408661"><ele>44.9</ele><time>2025-10-22T08:31:46Z</time></trkpt>
<trkpt lat="43.710983" lon="-1.408682"><ele>44.6</ele><time>2025-10-22T08:31:51Z</time></trkpt>
<trkpt lat="43.711006" lon="-1.408740"><ele>43.4</ele><time>2025-10-22T08:31:58Z</time></trkpt>
<trkpt lat="43.711015" lon="-1.408807"><ele>45.0</ele><time>2025-10-22T08:32:07Z</time></trkpt>
<trkpt lat="43.711021" lon="-1.408877"><ele>44.5</ele><time>2025-10-22T08:32:15Z</time></trkpt>
<trkpt lat="43.711055" lon="-1.408918"><ele>45.7</ele><time>2025-10-22T08:32:20Z</time></trkpt>
<trkpt lat="43.711092" lon="-1.408969"><ele>45.9</ele><time>2025-10-22T08:32:24Z</time></trkpt>
<trkpt lat="43.711121" lon="-1.409026"><ele>45.2</ele><time>2025-10-22T08:32:29Z</time></trkpt>
<trkpt lat="43.711121" lon="-1.409092"><ele>45.5</ele><time>2025-10-22T08:32:35Z</time></trkpt>
<trkpt lat="43.711149" lon="-1.409152"><ele>45.9</ele><time>2025-10-22T08:32:42Z</time></trkpt>
<trkpt lat="43.711148" lon="-1.409220"><ele>44.2</ele><time>2025-10-22T08:32:48Z</time></trkpt>
<trkpt lat="43.711168" lon="-1.409285"><ele>44.5</ele><time>2025-10-22T08:32:54Z</time></trkpt>
<trkpt lat="43.711188" lon="-1.409342"><ele>44.9</ele><time>2025-10-22T08:32:57Z</time></trkpt>
<trkpt lat="43.711219" lon="-1.409399"><ele>44.9</ele><time>2025-10-22T08:33:02Z</time></trkpt>
<trkpt lat="43.711253" lon="-1.409462"><ele>43.3</ele><time>2025-10-22T08:33:07Z</time></trkpt>
<trkpt lat="43.711276" lon="-1.409529"><ele>43.0</ele><time>2025-10-22T08:33:11Z</time></trkpt>
<trkpt lat="43.711294" lon="-1.409602"><ele>41.8</ele><time>2025-10-22T08:33:16Z</time></trkpt>
<trkpt lat="43.711303" lon="-1.409669"><ele>41.8</ele><time>2025-10-22T08:33:21Z</time></trkpt>
<trkpt lat="43.711325" lon="-1.409735"><ele>40.6</ele><time>2025-10-22T08:33:26Z</time></trkpt>
<trkpt lat="43.711344" lon="-1.409797"><ele>40.0</ele><time>2025-10-22T08:33:31Z</time></trkpt>
<trkpt lat="43.711364" lon="-1.409863"><ele>39.6</ele><time>2025-10-22T08:33:37Z</time></trkpt>
<trkpt lat="43.711386" lon="-1.409931"><ele>40.0</ele><time>2025-10-22T08:33:42Z</time></trkpt>
<trkpt lat="43.711408" lon="-1.410001"><ele>39.7</ele><time>2025-10-22T08:33:47Z</time></trkpt>
<trkpt lat="43.711425" lon="-1.410061"><ele>39.6</ele><time>2025-10-22T08:33:51Z</time></trkpt>
<trkpt lat="43.711443" lon="-1.410122"><ele>38.3</ele><time>2025-10-22T08:33:55Z</time></trkpt>
<trkpt lat="43.711463" lon="-1.410192"><ele>38.5</ele><time>2025-10-22T08:34:00Z</time></trkpt>
<trkpt lat="43.711483" lon="-1.410258"><ele>37.9</ele><time>2025-10-22T08:34:05Z</time></trkpt>
<trkpt lat="43.711497" lon="-1.410323"><ele>39.0</ele><time>2025-10-22T08:34:10Z</time></trkpt>
<trkpt lat="43.711513" lon="-1.410383"><ele>38.4</ele><time>2025-10-22T08:34:15Z</time></trkpt>
<trkpt lat="43.711533" lon="-1.410441"><ele>37.8</ele><time>2025-10-22T08:34:21Z</time></trkpt>
<trkpt lat="43.711550" lon="-1.410513"><ele>38.6</ele><time>2025-10-22T08:34:27Z</time></trkpt>
<trkpt lat="43.711566" lon="-1.410573"><ele>39.0</ele><time>2025-10-22T08:34:32Z</time></trkpt>
<trkpt lat="43.711591" lon="-1.410632"><ele>39.3</ele><time>2025-10-22T08:34:37Z</time></trkpt>
<trkpt lat="43.711606" lon="-1.410706"><ele>39.4</ele><time>2025-10-22T08:34:42Z</time></trkpt>
<trkpt lat="43.711615" lon="-1.410768"><ele>39.5</ele><time>2025-10-22T08:34:46Z</time></trkpt>
<trkpt lat="43.711616" lon="-1.410840"><ele>39.8</ele><time>2025-10-22T08:34:52Z</time></trkpt>
<trkpt lat="43.711624" lon="-1.410907"><ele>41.5</ele><time>2025-10-22T08:34:57Z</time></trkpt>
<trkpt lat="43.711625" lon="-1.410981"><ele>41.4</ele><time>2025-10-22T08:35:02Z</time></trkpt>
<trkpt lat="43.711627" lon="-1.411058"><ele>41.8</ele><time>2025-10-22T08:35:07Z</time></trkpt>
<trkpt lat="43.711638" lon="-1.411129"><ele>41.3</ele><time>2025-10-22T08:35:12Z</time></trkpt>
<trkpt lat="43.711642" lon="-1.411201"><ele>41.5</ele><time>2025-10-22T08:35:17Z</time></trkpt>
<trkpt lat="43.711655" lon="-1.411275"><ele>41.5</ele><time>2025-10-22T08:35:22Z</time></trkpt>
<trkpt lat="43.711663" lon="-1.411347"><ele>41.1</ele><time>2025-10-22T08:35:27Z</time></trkpt>
<trkpt lat="43.711668" lon="-1.411423"><ele>39.9</ele><time>2025-10-22T08:35:32Z</time></trkpt>
<trkpt lat="43.711675" lon="-1.411496"><ele>39.7</ele><time>2025-10-22T08:35:37Z</time></trkpt>
<trkpt lat="43.711679" lon="-1.411572"><ele>38.9</ele><time>2025-10-22T08:35:42Z</time></trkpt>
<trkpt lat="43.711689" lon="-1.411645"><ele>38.1</ele><time>2025-10-22T08:35:47Z</time></trkpt>
<trkpt lat="43.711700" lon="-1.411707"><ele>38.1</ele><time>2025-10-22T08:35:53Z</time></trkpt>
<trkpt lat="43.711722" lon="-1.411764"><ele>37.5</ele><time>2025-10-22T08:36:00Z</time></trkpt>
<trkpt lat="43.711743" lon="-1.411822"><ele>36.9</ele><time>2025-10-22T08:36:06Z</time></trkpt>
<trkpt lat="43.711772" lon="-1.411877"><ele>36.2</ele><time>2025-10-22T08:36:12Z</time></trkpt>
<trkpt lat="43.711796" lon="-1.411931"><ele>35.4</ele><time>2025-10-22T08:36:18Z</time></trkpt>
<trkpt lat="43.711832" lon="-1.411981"><ele>33.9</ele><time>2025-10-22T08:36:22Z</time></trkpt>
<trkpt lat="43.711866" lon="-1.412045"><ele>33.9</ele><time>2025-10-22T08:36:27Z</time></trkpt>
<trkpt lat="43.711898" lon="-1.412104"><ele>33.8</ele><time>2025-10-22T08:36:31Z</time></trkpt>
<trkpt lat="43.711930" lon="-1.412161"><ele>33.7</ele><time>2025-10-22T08:36:35Z</time></trkpt>
<trkpt lat="43.711956" lon="-1.412215"><ele>34.0</ele><time>2025-10-22T08:36:39Z</time></trkpt>
<trkpt lat="43.711988" lon="-1.412279"><ele>34.0</ele><time>2025-10-22T08:36:44Z</time></trkpt>
<trkpt lat="43.712017" lon="-1.412333"><ele>33.9</ele><time>2025-10-22T08:36:48Z</time></trkpt>
<trkpt lat="43.712045" lon="-1.412386"><ele>33.0</ele><time>2025-10-22T08:36:52Z</time></trkpt>
<trkpt lat="43.712072" lon="-1.412449"><ele>32.8</ele><time>2025-10-22T08:36:57Z</time></trkpt>
<trkpt lat="43.712091" lon="-1.412511"><ele>33.2</ele><time>2025-10-22T08:37:02Z</time></trkpt>
<trkpt lat="43.712119" lon="-1.412574"><ele>32.2</ele><time>2025-10-22T08:37:07Z</time></trkpt>
<trkpt lat="43.712148" lon="-1.412632"><ele>33.2</ele><time>2025-10-22T08:37:12Z</time></trkpt>
<trkpt lat="43.712175" lon="-1.412688"><ele>33.7</ele><time>2025-10-22T08:37:17Z</time></trkpt>
<trkpt lat="43.712202" lon="-1.412753"><ele>35.2</ele><time>2025-10-22T08:37:23Z</time></trkpt>
<trkpt lat="43.712223" lon="-1.412814"><ele>36.7</ele><time>2025-10-22T08:37:28Z</time></trkpt>
<trkpt lat="43.712257" lon="-1.412869"><ele>35.5</ele><time>2025-10-22T08:37:33Z</time></trkpt>
<trkpt lat="43.712282" lon="-1.412933"><ele>34.9</ele><time>2025-10-22T08:37:39Z</time></trkpt>
<trkpt lat="43.712304" lon="-1.413003"><ele>34.3</ele><time>2025-10-22T08:37:44Z</time></trkpt>
<trkpt lat="43.712326" lon="-1.413065"><ele>34.3</ele><time>2025-10-22T08:37:49Z</time></trkpt>
<trkpt lat="43.712336" lon="-1.413134"><ele>34.1</ele><time>2025-10-22T08:37:56Z</time></trkpt>
<trkpt lat="43.712374" lon="-1.413186"><ele>33.7</ele><time>2025-10-22T08:38:20Z</time></trkpt>
<trkpt lat="43.712407" lon="-1.413245"><ele>33.9</ele><time>2025-10-22T08:38:26Z</time></trkpt>
<trkpt lat="43.712436" lon="-1.413302"><ele>33.2</ele><time>2025-10-22T08:38:32Z</time></trkpt>
<trkpt lat="43.712458" lon="-1.413373"><ele>32.8</ele><time>2025-10-22T08:38:38Z</time></trkpt>
<trkpt lat="43.712468" lon="-1.413447"><ele>34.3</ele><time>2025-10-22T08:38:42Z</time></trkpt>
<trkpt lat="43.712486" lon="-1.413515"><ele>34.2</ele><time>2025-10-22T08:38:46Z</time></trkpt>
<trkpt lat="43.712501" lon="-1.413577"><ele>34.4</ele><time>2025-10-22T08:38:50Z</time></trkpt>
<trkpt lat="43.712521" lon="-1.413647"><ele>34.5</ele><time>2025-10-22T08:38:54Z</time></trkpt>
<trkpt lat="43.712534" lon="-1.413713"><ele>33.9</ele><time>2025-10-22T08:38:58Z</time></trkpt>
<trkpt lat="43.712544" lon="-1.413776"><ele>36.0</ele><time>2025-10-22T08:39:03Z</time></trkpt>
<trkpt lat="43.712564" lon="-1.413843"><ele>36.6</ele><time>2025-10-22T08:39:10Z</time></trkpt>
<trkpt lat="43.712579" lon="-1.413908"><ele>35.5</ele><time>2025-10-22T08:39:15Z</time></trkpt>
<trkpt lat="43.712596" lon="-1.413970"><ele>35.8</ele><time>2025-10-22T08:39:20Z</time></trkpt>
<trkpt lat="43.712609" lon="-1.414036"><ele>34.9</ele><time>2025-10-22T08:39:25Z</time></trkpt>
<trkpt lat="43.712621" lon="-1.414096"><ele>35.0</ele><time>2025-10-22T08:39:29Z</time></trkpt>
<trkpt lat="43.712633" lon="-1.414163"><ele>36.2</ele><time>2025-10-22T08:39:36Z</time></trkpt>
<trkpt lat="43.712655" lon="-1.414219"><ele>33.0</ele><time>2025-10-22T08:39:42Z</time></trkpt>
<trkpt lat="43.712669" lon="-1.414292"><ele>31.0</ele><time>2025-10-22T08:39:48Z</time></trkpt>
<trkpt lat="43.712680" lon="-1.414362"><ele>32.0</ele><time>2025-10-22T08:39:53Z</time></trkpt>
<trkpt lat="43.712693" lon="-1.414432"><ele>30.1</ele><time>2025-10-22T08:39:59Z</time></trkpt>
<trkpt lat="43.712710" lon="-1.414494"><ele>29.5</ele><time>2025-10-22T08:40:04Z</time></trkpt>
<trkpt lat="43.712720" lon="-1.414555"><ele>30.1</ele><time>2025-10-22T08:40:09Z</time></trkpt>
<trkpt lat="43.712744" lon="-1.414617"><ele>31.2</ele><time>2025-10-22T08:40:14Z</time></trkpt>
<trkpt lat="43.712754" lon="-1.414681"><ele>32.5</ele><time>2025-10-22T08:40:18Z</time></trkpt>
<trkpt lat="43.712762" lon="-1.414743"><ele>32.6</ele><time>2025-10-22T08:40:22Z</time></trkpt>
<trkpt lat="43.712776" lon="-1.414822"><ele>31.8</ele><time>2025-10-22T08:40:27Z</time></trkpt>
<trkpt lat="43.712784" lon="-1.414895"><ele>32.0</ele><time>2025-10-22T08:40:32Z</time></trkpt>
<trkpt lat="43.712804" lon="-1.414960"><ele>33.2</ele><time>2025-10-22T08:40:37Z</time></trkpt>
<trkpt lat="43.712807" lon="-1.415029"><ele>34.2</ele><time>2025-10-22T08:40:42Z</time></trkpt>
<trkpt lat="43.712811" lon="-1.415106"><ele>34.0</ele><time>2025-10-22T08:40:47Z</time></trkpt>
<trkpt lat="43.712829" lon="-1.415172"><ele>33.3</ele><time>2025-10-22T08:40:51Z</time></trkpt>
<trkpt lat="43.712845" lon="-1.415246"><ele>33.8</ele><time>2025-10-22T08:40:56Z</time></trkpt>
<trkpt lat="43.712866" lon="-1.415310"><ele>34.2</ele><time>2025-10-22T08:41:01Z</time></trkpt>
<trkpt lat="43.712888" lon="-1.415373"><ele>32.5</ele><time>2025-10-22T08:41:07Z</time></trkpt>
<trkpt lat="43.712915" lon="-1.415438"><ele>31.3</ele><time>2025-10-22T08:41:13Z</time></trkpt>
<trkpt lat="43.712942" lon="-1.415492"><ele>31.7</ele><time>2025-10-22T08:41:19Z</time></trkpt>
<trkpt lat="43.712976" lon="-1.415545"><ele>31.4</ele><time>2025-10-22T08:41:24Z</time></trkpt>
<trkpt lat="43.713000" lon="-1.415610"><ele>30.7</ele><time>2025-10-22T08:41:29Z</time></trkpt>
<trkpt lat="43.713036" lon="-1.415670"><ele>31.7</ele><time>2025-10-22T08:41:34Z</time></trkpt>
<trkpt lat="43.713046" lon="-1.415741"><ele>30.8</ele><time>2025-10-22T08:41:38Z</time></trkpt>
<trkpt lat="43.713076" lon="-1.415801"><ele>30.7</ele><time>2025-10-22T08:41:42Z</time></trkpt>
<trkpt lat="43.713094" lon="-1.415866"><ele>29.7</ele><time>2025-10-22T08:41:47Z</time></trkpt>
<trkpt lat="43.713107" lon="-1.415929"><ele>30.4</ele><time>2025-10-22T08:41:52Z</time></trkpt>
<trkpt lat="43.713132" lon="-1.415996"><ele>33.5</ele><time>2025-10-22T08:41:56Z</time></trkpt>
<trkpt lat="43.713151" lon="-1.416057"><ele>34.3</ele><time>2025-10-22T08:42:00Z</time></trkpt>
<trkpt lat="43.713170" lon="-1.416121"><ele>34.5</ele><time>2025-10-22T08:42:05Z</time></trkpt>
<trkpt lat="43.713210" lon="-1.416170"><ele>34.7</ele><time>2025-10-22T08:42:12Z</time></trkpt>
<trkpt lat="43.713257" lon="-1.416208"><ele>35.5</ele><time>2025-10-22T08:42:17Z</time></trkpt>
<trkpt lat="43.713302" lon="-1.416233"><ele>34.1</ele><time>2025-10-22T08:42:21Z</time></trkpt>
<trkpt lat="43.713353" lon="-1.416217"><ele>34.5</ele><time>2025-10-22T08:42:27Z</time></trkpt>
<trkpt lat="43.713385" lon="-1.416170"><ele>33.1</ele><time>2025-10-22T08:42:34Z</time></trkpt>
<trkpt lat="43.713418" lon="-1.416116"><ele>32.6</ele><time>2025-10-22T08:42:39Z</time></trkpt>
<trkpt lat="43.713456" lon="-1.416072"><ele>33.1</ele><time>2025-10-22T08:42:46Z</time></trkpt>
<trkpt lat="43.713494" lon="-1.416015"><ele>33.1</ele><time>2025-10-22T08:42:52Z</time></trkpt>
<trkpt lat="43.713520" lon="-1.415955"><ele>32.2</ele><time>2025-10-22T08:42:56Z</time></trkpt>
<trkpt lat="43.713539" lon="-1.415897"><ele>30.7</ele><time>2025-10-22T08:43:00Z</time></trkpt>
<trkpt lat="43.713580" lon="-1.415852"><ele>31.2</ele><time>2025-10-22T08:43:06Z</time></trkpt>
<trkpt lat="43.713621" lon="-1.415810"><ele>31.9</ele><time>2025-10-22T08:43:12Z</time></trkpt>
<trkpt lat="43.713664" lon="-1.415792"><ele>31.5</ele><time>2025-10-22T08:43:22Z</time></trkpt>
<trkpt lat="43.713686" lon="-1.415848"><ele>31.0</ele><time>2025-10-22T08:43:28Z</time></trkpt>
<trkpt lat="43.713718" lon="-1.415901"><ele>32.9</ele><time>2025-10-22T08:43:36Z</time></trkpt>
<trkpt lat="43.713752" lon="-1.415951"><ele>33.8</ele><time>2025-10-22T08:43:44Z</time></trkpt>
<trkpt lat="43.713787" lon="-1.416003"><ele>33.6</ele><time>2025-10-22T08:43:52Z</time></trkpt>
<trkpt lat="43.713803" lon="-1.416061"><ele>33.0</ele><time>2025-10-22T08:43:57Z</time></trkpt>
<trkpt lat="43.713833" lon="-1.416108"><ele>32.2</ele><time>2025-10-22T08:44:01Z</time></trkpt>
<trkpt lat="43.713866" lon="-1.416152"><ele>32.4</ele><time>2025-10-22T08:44:06Z</time></trkpt>
<trkpt lat="43.713894" lon="-1.416211"><ele>32.8</ele><time>2025-10-22T08:44:11Z</time></trkpt>
<trkpt lat="43.713932" lon="-1.416252"><ele>33.5</ele><time>2025-10-22T08:44:18Z</time></trkpt>
<trkpt lat="43.713978" lon="-1.416285"><ele>31.4</ele><time>2025-10-22T08:44:23Z</time></trkpt>
<trkpt lat="43.714023" lon="-1.416314"><ele>29.3</ele><time>2025-10-22T08:44:29Z</time></trkpt>
<trkpt lat="43.714062" lon="-1.416276"><ele>28.2</ele><time>2025-10-22T08:44:39Z</time></trkpt>
<trkpt lat="43.714064" lon="-1.416207"><ele>26.7</ele><time>2025-10-22T08:44:47Z</time></trkpt>
<trkpt lat="43.714067" lon="-1.416142"><ele>25.4</ele><time>2025-10-22T08:44:55Z</time></trkpt>
<trkpt lat="43.714075" lon="-1.416076"><ele>24.6</ele><time>2025-10-22T08:45:00Z</time></trkpt>
<trkpt lat="43.714062" lon="-1.416011"><ele>23.5</ele><time>2025-10-22T08:45:05Z</time></trkpt>
<trkpt lat="43.714065" lon="-1.415943"><ele>23.4</ele><time>2025-10-22T08:45:10Z</time></trkpt>
<trkpt lat="43.714074" lon="-1.415872"><ele>23.6</ele><time>2025-10-22T08:45:18Z</time></trkpt>
<trkpt lat="43.714070" lon="-1.415810"><ele>22.5</ele><time>2025-10-22T08:45:22Z</time></trkpt>
<trkpt lat="43.714077" lon="-1.415739"><ele>23.1</ele><time>2025-10-22T08:45:26Z</time></trkpt>
<trkpt lat="43.714102" lon="-1.415676"><ele>25.8</ele><time>2025-10-22T08:45:30Z</time></trkpt>
<trkpt lat="43.714095" lon="-1.415611"><ele>25.8</ele><time>2025-10-22T08:45:35Z</time></trkpt>
<trkpt lat="43.714073" lon="-1.415542"><ele>26.5</ele><time>2025-10-22T08:45:39Z</time></trkpt>
<trkpt lat="43.714067" lon="-1.415476"><ele>25.2</ele><time>2025-10-22T08:45:43Z</time></trkpt>
<trkpt lat="43.714056" lon="-1.415410"><ele>25.8</ele><time>2025-10-22T08:45:47Z</time></trkpt>
<trkpt lat="43.714049" lon="-1.415340"><ele>23.9</ele><time>2025-10-22T08:45:52Z</time></trkpt>
<trkpt lat="43.714034" lon="-1.415279"><ele>21.9</ele><time>2025-10-22T08:45:57Z</time></trkpt>
<trkpt lat="43.714006" lon="-1.415223"><ele>21.9</ele><time>2025-10-22T08:46:01Z</time></trkpt>
<trkpt lat="43.713996" lon="-1.415159"><ele>22.7</ele><time>2025-10-22T08:46:05Z</time></trkpt>
<trkpt lat="43.714011" lon="-1.415087"><ele>25.8</ele><time>2025-10-22T08:46:10Z</time></trkpt>
<trkpt lat="43.713992" lon="-1.415017"><ele>24.3</ele><time>2025-10-22T08:46:15Z</time></trkpt>
<trkpt lat="43.713974" lon="-1.414948"><ele>24.4</ele><time>2025-10-22T08:46:20Z</time></trkpt>
<trkpt lat="43.713959" lon="-1.414878"><ele>22.0</ele><time>2025-10-22T08:46:24Z</time></trkpt>
<trkpt lat="43.713949" lon="-1.414807"><ele>20.8</ele><time>2025-10-22T08:46:28Z</time></trkpt>
<trkpt lat="43.713925" lon="-1.414746"><ele>22.2</ele><time>2025-10-22T08:46:32Z</time></trkpt>
<trkpt lat="43.713924" lon="-1.414681"><ele>23.2</ele><time>2025-10-22T08:46:36Z</time></trkpt>
<trkpt lat="43.713925" lon="-1.414609"><ele>23.7</ele><time>2025-10-22T08:46:40Z</time></trkpt>
<trkpt lat="43.713919" lon="-1.414533"><ele>20.5</ele><time>2025-10-22T08:46:44Z</time></trkpt>
<trkpt lat="43.713916" lon="-1.414464"><ele>18.6</ele><time>2025-10-22T08:46:48Z</time></trkpt>
<trkpt lat="43.713909" lon="-1.414400"><ele>18.2</ele><time>2025-10-22T08:46:52Z</time></trkpt>
<trkpt lat="43.713907" lon="-1.414337"><ele>18.7</ele><time>2025-10-22T08:46:58Z</time></trkpt>
<trkpt lat="43.713881" lon="-1.414276"><ele>17.8</ele><time>2025-10-22T08:47:29Z</time></trkpt>
<trkpt lat="43.713880" lon="-1.414205"><ele>18.9</ele><time>2025-10-22T08:47:35Z</time></trkpt>
<trkpt lat="43.713890" lon="-1.414141"><ele>22.1</ele><time>2025-10-22T08:47:42Z</time></trkpt>
<trkpt lat="43.713873" lon="-1.414076"><ele>20.5</ele><time>2025-10-22T08:47:47Z</time></trkpt>
<trkpt lat="43.713850" lon="-1.414008"><ele>22.5</ele><time>2025-10-22T08:47:53Z</time></trkpt>
<trkpt lat="43.713818" lon="-1.413949"><ele>22.0</ele><time>2025-10-22T08:47:57Z</time></trkpt>
<trkpt lat="43.713786" lon="-1.413888"><ele>22.8</ele><time>2025-10-22T08:48:01Z</time></trkpt>
<trkpt lat="43.713755" lon="-1.413829"><ele>25.3</ele><time>2025-10-22T08:48:05Z</time></trkpt>
<trkpt lat="43.713717" lon="-1.413776"><ele>27.5</ele><time>2025-10-22T08:48:09Z</time></trkpt>
<trkpt lat="43.713677" lon="-1.413737"><ele>28.3</ele><time>2025-10-22T08:48:14Z</time></trkpt>
<trkpt lat="43.713638" lon="-1.413688"><ele>32.1</ele><time>2025-10-22T08:48:19Z</time></trkpt>
<trkpt lat="43.713606" lon="-1.413635"><ele>31.2</ele><time>2025-10-22T08:48:23Z</time></trkpt>
<trkpt lat="43.713571" lon="-1.413574"><ele>32.8</ele><time>2025-10-22T08:48:28Z</time></trkpt>
<trkpt lat="43.713537" lon="-1.413518"><ele>33.3</ele><time>2025-10-22T08:48:32Z</time></trkpt>
<trkpt lat="43.713509" lon="-1.413448"><ele>33.0</ele><time>2025-10-22T08:48:36Z</time></trkpt>
<trkpt lat="43.713473" lon="-1.413410"><ele>36.0</ele><time>2025-10-22T08:48:39Z</time></trkpt>
<trkpt lat="43.713490" lon="-1.413334"><ele>34.0</ele><time>2025-10-22T08:48:43Z</time></trkpt>
<trkpt lat="43.713506" lon="-1.413264"><ele>30.0</ele><time>2025-10-22T08:48:48Z</time></trkpt>
<trkpt lat="43.713516" lon="-1.413200"><ele>25.0</ele><time>2025-10-22T08:49:04Z</time></trkpt>
<trkpt lat="43.713515" lon="-1.413137"><ele>28.2</ele><time>2025-10-22T08:49:10Z</time></trkpt>
<trkpt lat="43.713510" lon="-1.413065"><ele>29.5</ele><time>2025-10-22T08:49:17Z</time></trkpt>
<trkpt lat="43.713499" lon="-1.412997"><ele>28.9</ele><time>2025-10-22T08:49:21Z</time></trkpt>
<trkpt lat="43.713494" lon="-1.412930"><ele>27.6</ele><time>2025-10-22T08:49:24Z</time></trkpt>
<trkpt lat="43.713482" lon="-1.412865"><ele>27.2</ele><time>2025-10-22T08:49:28Z</time></trkpt>
<trkpt lat="43.713458" lon="-1.412805"><ele>28.5</ele><time>2025-10-22T08:49:33Z</time></trkpt>
<trkpt lat="43.713435" lon="-1.412743"><ele>30.3</ele><time>2025-10-22T08:49:37Z</time></trkpt>
<trkpt lat="43.713404" lon="-1.412694"><ele>31.4</ele><time>2025-10-22T08:49:41Z</time></trkpt>
<trkpt lat="43.713383" lon="-1.412630"><ele>29.4</ele><time>2025-10-22T08:49:45Z</time></trkpt>
<trkpt lat="43.713374" lon="-1.412565"><ele>29.1</ele><time>2025-10-22T08:49:50Z</time></trkpt>
<trkpt lat="43.713356" lon="-1.412499"><ele>31.5</ele><time>2025-10-22T08:50:00Z</time></trkpt>
<trkpt lat="43.713312" lon="-1.412454"><ele>33.4</ele><time>2025-10-22T08:50:04Z</time></trkpt>
<trkpt lat="43.713282" lon="-1.412386"><ele>33.4</ele><time>2025-10-22T08:50:09Z</time></trkpt>
<trkpt lat="43.713263" lon="-1.412327"><ele>31.0</ele><time>2025-10-22T08:50:12Z</time></trkpt>
<trkpt lat="43.713243" lon="-1.412264"><ele>31.3</ele><time>2025-10-22T08:50:15Z</time></trkpt>
<trkpt lat="43.713217" lon="-1.412211"><ele>31.0</ele><time>2025-10-22T08:50:18Z</time></trkpt>
<trkpt lat="43.713178" lon="-1.412153"><ele>30.0</ele><time>2025-10-22T08:50:22Z</time></trkpt>
<trkpt lat="43.713150" lon="-1.412101"><ele>30.3</ele><time>2025-10-22T08:50:26Z</time></trkpt>
<trkpt lat="43.713131" lon="-1.412033"><ele>31.2</ele><time>2025-10-22T08:50:31Z</time></trkpt>
<trkpt lat="43.713108" lon="-1.411965"><ele>28.7</ele><time>2025-10-22T08:50:37Z</time></trkpt>
<trkpt lat="43.713110" lon="-1.411899"><ele>25.1</ele><time>2025-10-22T08:50:41Z</time></trkpt>
<trkpt lat="43.713084" lon="-1.411826"><ele>24.6</ele><time>2025-10-22T08:50:45Z</time></trkpt>
<trkpt lat="43.713055" lon="-1.411776"><ele>24.0</ele><time>2025-10-22T08:50:48Z</time></trkpt>
<trkpt lat="43.713027" lon="-1.411725"><ele>24.0</ele><time>2025-10-22T08:50:51Z</time></trkpt>
<trkpt lat="43.712987" lon="-1.411676"><ele>24.9</ele><time>2025-10-22T08:50:55Z</time></trkpt>
<trkpt lat="43.712952" lon="-1.411635"><ele>24.5</ele><time>2025-10-22T08:51:02Z</time></trkpt>
<trkpt lat="43.712950" lon="-1.411567"><ele>22.6</ele><time>2025-10-22T08:51:06Z</time></trkpt>
<trkpt lat="43.712962" lon="-1.411507"><ele>22.9</ele><time>2025-10-22T08:51:10Z</time></trkpt>
<trkpt lat="43.712985" lon="-1.411444"><ele>22.6</ele><time>2025-10-22T08:51:21Z</time></trkpt>
<trkpt lat="43.713020" lon="-1.411392"><ele>22.5</ele><time>2025-10-22T08:51:27Z</time></trkpt>
<trkpt lat="43.713058" lon="-1.411345"><ele>24.5</ele><time>2025-10-22T08:51:34Z</time></trkpt>
<trkpt lat="43.713091" lon="-1.411296"><ele>24.8</ele><time>2025-10-22T08:51:39Z</time></trkpt>
<trkpt lat="43.713126" lon="-1.411246"><ele>25.1</ele><time>2025-10-22T08:51:44Z</time></trkpt>
<trkpt lat="43.713165" lon="-1.411192"><ele>23.9</ele><time>2025-10-22T08:51:49Z</time></trkpt>
<trkpt lat="43.713208" lon="-1.411161"><ele>22.5</ele><time>2025-10-22T08:51:54Z</time></trkpt>
<trkpt lat="43.713247" lon="-1.411113"><ele>23.9</ele><time>2025-10-22T08:52:02Z</time></trkpt>
<trkpt lat="43.713284" lon="-1.411059"><ele>23.8</ele><time>2025-10-22T08:52:07Z</time></trkpt>
<trkpt lat="43.713321" lon="-1.411003"><ele>23.1</ele><time>2025-10-22T08:52:11Z</time></trkpt>
<trkpt lat="43.713359" lon="-1.410959"><ele>21.7</ele><time>2025-10-22T08:52:16Z</time></trkpt>
<trkpt lat="43.713400" lon="-1.410905"><ele>22.9</ele><time>2025-10-22T08:52:27Z</time></trkpt>
<trkpt lat="43.713444" lon="-1.410855"><ele>23.4</ele><time>2025-10-22T08:52:31Z</time></trkpt>
<trkpt lat="43.713482" lon="-1.410800"><ele>25.2</ele><time>2025-10-22T08:52:35Z</time></trkpt>
<trkpt lat="43.713524" lon="-1.410752"><ele>25.0</ele><time>2025-10-22T08:52:39Z</time></trkpt>
<trkpt lat="43.713556" lon="-1.410701"><ele>24.1</ele><time>2025-10-22T08:52:42Z</time></trkpt>
<trkpt lat="43.713580" lon="-1.410640"><ele>22.8</ele><time>2025-10-22T08:52:45Z</time></trkpt>
<trkpt lat="43.713602" lon="-1.410584"><ele>22.9</ele><time>2025-10-22T08:52:48Z</time></trkpt>
<trkpt lat="43.713635" lon="-1.410521"><ele>23.0</ele><time>2025-10-22T08:52:52Z</time></trkpt>
<trkpt lat="43.713668" lon="-1.410460"><ele>23.0</ele><time>2025-10-22T08:52:57Z</time></trkpt>
<trkpt lat="43.713687" lon="-1.410392"><ele>23.1</ele><time>2025-10-22T08:53:01Z</time></trkpt>
<trkpt lat="43.713707" lon="-1.410335"><ele>20.0</ele><time>2025-10-22T08:53:06Z</time></trkpt>
<trkpt lat="43.713730" lon="-1.410281"><ele>19.9</ele><time>2025-10-22T08:53:10Z</time></trkpt>
<trkpt lat="43.713754" lon="-1.410224"><ele>19.2</ele><time>2025-10-22T08:53:14Z</time></trkpt>
<trkpt lat="43.713773" lon="-1.410166"><ele>19.2</ele><time>2025-10-22T08:53:18Z</time></trkpt>
<trkpt lat="43.713806" lon="-1.410105"><ele>19.4</ele><time>2025-10-22T08:53:23Z</time></trkpt>
<trkpt lat="43.713829" lon="-1.410034"><ele>21.5</ele><time>2025-10-22T08:53:31Z</time></trkpt>
<trkpt lat="43.713839" lon="-1.409973"><ele>20.7</ele><time>2025-10-22T08:53:36Z</time></trkpt>
<trkpt lat="43.713849" lon="-1.409908"><ele>21.2</ele><time>2025-10-22T08:53:43Z</time></trkpt>
<trkpt lat="43.713842" lon="-1.409839"><ele>21.0</ele><time>2025-10-22T08:53:48Z</time></trkpt>
<trkpt lat="43.713847" lon="-1.409757"><ele>18.1</ele><time>2025-10-22T08:53:52Z</time></trkpt>
<trkpt lat="43.713846" lon="-1.409683"><ele>16.1</ele><time>2025-10-22T08:53:56Z</time></trkpt>
<trkpt lat="43.713841" lon="-1.409607"><ele>18.4</ele><time>2025-10-22T08:54:01Z</time></trkpt>
<trkpt lat="43.713846" lon="-1.409541"><ele>18.4</ele><time>2025-10-22T08:54:05Z</time></trkpt>
<trkpt lat="43.713862" lon="-1.409480"><ele>19.6</ele><time>2025-10-22T08:54:09Z</time></trkpt>
<trkpt lat="43.713867" lon="-1.409409"><ele>17.7</ele><time>2025-10-22T08:54:13Z</time></trkpt>
<trkpt lat="43.713872" lon="-1.409347"><ele>18.1</ele><time>2025-10-22T08:54:16Z</time></trkpt>
<trkpt lat="43.713854" lon="-1.409272"><ele>16.3</ele><time>2025-10-22T08:54:20Z</time></trkpt>
<trkpt lat="43.713843" lon="-1.409204"><ele>16.0</ele><time>2025-10-22T08:54:24Z</time></trkpt>
<trkpt lat="43.713840" lon="-1.409131"><ele>17.5</ele><time>2025-10-22T08:54:28Z</time></trkpt>
<trkpt lat="43.713832" lon="-1.409056"><ele>17.8</ele><time>2025-10-22T08:54:32Z</time></trkpt>
<trkpt lat="43.713811" lon="-1.408984"><ele>15.7</ele><time>2025-10-22T08:54:36Z</time></trkpt>
<trkpt lat="43.713804" lon="-1.408910"><ele>15.7</ele><time>2025-10-22T08:54:40Z</time></trkpt>
<trkpt lat="43.713776" lon="-1.408846"><ele>15.1</ele><time>2025-10-22T08:54:44Z</time></trkpt>
<trkpt lat="43.713745" lon="-1.408783"><ele>13.8</ele><time>2025-10-22T08:54:48Z</time></trkpt>
<trkpt lat="43.713719" lon="-1.408723"><ele>12.6</ele><time>2025-10-22T08:54:52Z</time></trkpt>
<trkpt lat="43.713694" lon="-1.408666"><ele>12.5</ele><time>2025-10-22T08:54:56Z</time></trkpt>
<trkpt lat="43.713679" lon="-1.408603"><ele>12.5</ele><time>2025-10-22T08:55:00Z</time></trkpt>
<trkpt lat="43.713676" lon="-1.408534"><ele>13.4</ele><time>2025-10-22T08:55:04Z</time></trkpt>
<trkpt lat="43.713673" lon="-1.408463"><ele>13.5</ele><time>2025-10-22T08:55:08Z</time></trkpt>
<trkpt lat="43.713670" lon="-1.408392"><ele>13.5</ele><time>2025-10-22T08:55:12Z</time></trkpt>
<trkpt lat="43.713661" lon="-1.408329"><ele>14.2</ele><time>2025-10-22T08:55:16Z</time></trkpt>
<trkpt lat="43.713643" lon="-1.408268"><ele>14.5</ele><time>2025-10-22T08:55:20Z</time></trkpt>
<trkpt lat="43.713621" lon="-1.408211"><ele>15.3</ele><time>2025-10-22T08:55:24Z</time></trkpt>
<trkpt lat="43.713593" lon="-1.408154"><ele>14.3</ele><time>2025-10-22T08:55:29Z</time></trkpt>
<trkpt lat="43.713577" lon="-1.408093"><ele>16.9</ele><time>2025-10-22T08:55:36Z</time></trkpt>
<trkpt lat="43.713556" lon="-1.408031"><ele>19.2</ele><time>2025-10-22T08:55:42Z</time></trkpt>
<trkpt lat="43.713537" lon="-1.407974"><ele>20.6</ele><time>2025-10-22T08:55:47Z</time></trkpt>
<trkpt lat="43.713505" lon="-1.407915"><ele>22.1</ele><time>2025-10-22T08:55:52Z</time></trkpt>
<trkpt lat="43.713476" lon="-1.407856"><ele>23.6</ele><time>2025-10-22T08:55:57Z</time></trkpt>
<trkpt lat="43.713457" lon="-1.407785"><ele>21.7</ele><time>2025-10-22T08:56:02Z</time></trkpt>
<trkpt lat="43.713445" lon="-1.407723"><ele>19.7</ele><time>2025-10-22T08:56:06Z</time></trkpt>
<trkpt lat="43.713434" lon="-1.407660"><ele>23.6</ele><time>2025-10-22T08:56:11Z</time></trkpt>
<trkpt lat="43.713428" lon="-1.407584"><ele>22.7</ele><time>2025-10-22T08:56:16Z</time></trkpt>
<trkpt lat="43.713428" lon="-1.407511"><ele>22.6</ele><time>2025-10-22T08:56:21Z</time></trkpt>
<trkpt lat="43.713431" lon="-1.407443"><ele>25.5</ele><time>2025-10-22T08:56:26Z</time></trkpt>
<trkpt lat="43.713418" lon="-1.407383"><ele>26.3</ele><time>2025-10-22T08:56:31Z</time></trkpt>
<trkpt lat="43.713399" lon="-1.407324"><ele>25.7</ele><time>2025-10-22T08:56:36Z</time></trkpt>
<trkpt lat="43.713381" lon="-1.407265"><ele>27.0</ele><time>2025-10-22T08:56:41Z</time></trkpt>
<trkpt lat="43.713368" lon="-1.407195"><ele>26.6</ele><time>2025-10-22T08:56:46Z</time></trkpt>
<trkpt lat="43.713359" lon="-1.407123"><ele>26.9</ele><time>2025-10-22T08:56:51Z</time></trkpt>
<trkpt lat="43.713356" lon="-1.407052"><ele>27.3</ele><time>2025-10-22T08:56:56Z</time></trkpt>
<trkpt lat="43.713355" lon="-1.406980"><ele>24.9</ele><time>2025-10-22T08:57:01Z</time></trkpt>
<trkpt lat="43.713360" lon="-1.406918"><ele>25.6</ele><time>2025-10-22T08:57:05Z</time></trkpt>
<trkpt lat="43.713374" lon="-1.406852"><ele>25.0</ele><time>2025-10-22T08:57:10Z</time></trkpt>
<trkpt lat="43.713369" lon="-1.406788"><ele>26.0</ele><time>2025-10-22T08:57:15Z</time></trkpt>
<trkpt lat="43.713362" lon="-1.406717"><ele>26.8</ele><time>2025-10-22T08:57:20Z</time></trkpt>
<trkpt lat="43.713364" lon="-1.406645"><ele>25.4</ele><time>2025-10-22T08:57:25Z</time></trkpt>
<trkpt lat="43.713363" lon="-1.406580"><ele>23.7</ele><time>2025-10-22T08:57:29Z</time></trkpt>
<trkpt lat="43.713365" lon="-1.406516"><ele>24.5</ele><time>2025-10-22T08:57:33Z</time></trkpt>
<trkpt lat="43.713380" lon="-1.406444"><ele>25.1</ele><time>2025-10-22T08:57:38Z</time></trkpt>
<trkpt lat="43.713396" lon="-1.406383"><ele>25.8</ele><time>2025-10-22T08:57:42Z</time></trkpt>
<trkpt lat="43.713411" lon="-1.406324"><ele>26.2</ele><time>2025-10-22T08:57:46Z</time></trkpt>
<trkpt lat="43.713429" lon="-1.406257"><ele>26.2</ele><time>2025-10-22T08:57:51Z</time></trkpt>
<trkpt lat="43.713451" lon="-1.406190"><ele>27.0</ele><time>2025-10-22T08:57:56Z</time></trkpt>
<trkpt lat="43.713467" lon="-1.406119"><ele>27.1</ele><time>2025-10-22T08:58:01Z</time></trkpt>
<trkpt lat="43.713480" lon="-1.406057"><ele>27.3</ele><time>2025-10-22T08:58:05Z</time></trkpt>
<trkpt lat="43.713484" lon="-1.405987"><ele>27.7</ele><time>2025-10-22T08:58:10Z</time></trkpt>
<trkpt lat="43.713500" lon="-1.405923"><ele>27.9</ele><time>2025-10-22T08:58:15Z</time></trkpt>
<trkpt lat="43.713518" lon="-1.405860"><ele>27.9</ele><time>2025-10-22T08:58:20Z</time></trkpt>
<trkpt lat="43.713535" lon="-1.405798"><ele>28.3</ele><time>2025-10-22T08:58:25Z</time></trkpt>
<trkpt lat="43.713544" lon="-1.405733"><ele>27.5</ele><time>2025-10-22T08:58:30Z</time></trkpt>
<trkpt lat="43.713557" lon="-1.405668"><ele>27.5</ele><time>2025-10-22T08:58:35Z</time></trkpt>
<trkpt lat="43.713565" lon="-1.405601"><ele>27.7</ele><time>2025-10-22T08:58:40Z</time></trkpt>
<trkpt lat="43.713575" lon="-1.405537"><ele>27.5</ele><time>2025-10-22T08:58:45Z</time></trkpt>
<trkpt lat="43.713590" lon="-1.405478"><ele>27.8</ele><time>2025-10-22T08:58:50Z</time></trkpt>
<trkpt lat="43.713613" lon="-1.405419"><ele>28.6</ele><time>2025-10-22T08:58:55Z</time></trkpt>
<trkpt lat="43.713645" lon="-1.405365"><ele>29.3</ele><time>2025-10-22T08:59:00Z</time></trkpt>
<trkpt lat="43.713681" lon="-1.405316"><ele>29.9</ele><time>2025-10-22T08:59:05Z</time></trkpt>
<trkpt lat="43.713717" lon="-1.405269"><ele>29.4</ele><time>2025-10-22T08:59:10Z</time></trkpt>
<trkpt lat="43.713752" lon="-1.405230"><ele>30.6</ele><time>2025-10-22T08:59:15Z</time></trkpt>
<trkpt lat="43.713784" lon="-1.405179"><ele>31.8</ele><time>2025-10-22T08:59:21Z</time></trkpt>
<trkpt lat="43.713819" lon="-1.405134"><ele>33.3</ele><time>2025-10-22T08:59:27Z</time></trkpt>
<trkpt lat="43.713849" lon="-1.405073"><ele>31.8</ele><time>2025-10-22T08:59:33Z</time></trkpt>
<trkpt lat="43.713880" lon="-1.405015"><ele>29.9</ele><time>2025-10-22T08:59:39Z</time></trkpt>
<trkpt lat="43.713897" lon="-1.404954"><ele>29.9</ele><time>2025-10-22T08:59:44Z</time></trkpt>
<trkpt lat="43.713902" lon="-1.404884"><ele>30.2</ele><time>2025-10-22T08:59:49Z</time></trkpt>
<trkpt lat="43.713903" lon="-1.404812"><ele>30.7</ele><time>2025-10-22T08:59:54Z</time></trkpt>
<trkpt lat="43.713898" lon="-1.404748"><ele>30.2</ele><time>2025-10-22T08:59:59Z</time></trkpt>
<trkpt lat="43.713889" lon="-1.404687"><ele>31.3</ele><time>2025-10-22T09:00:04Z</time></trkpt>
<trkpt lat="43.713863" lon="-1.404622"><ele>31.1</ele><time>2025-10-22T09:00:10Z</time></trkpt>
<trkpt lat="43.713824" lon="-1.404569"><ele>31.3</ele><time>2025-10-22T09:00:16Z</time></trkpt>
<trkpt lat="43.713784" lon="-1.404523"><ele>32.3</ele><time>2025-10-22T09:00:22Z</time></trkpt>
<trkpt lat="43.713753" lon="-1.404470"><ele>32.7</ele><time>2025-10-22T09:00:29Z</time></trkpt>
<trkpt lat="43.713725" lon="-1.404420"><ele>34.4</ele><time>2025-10-22T09:00:35Z</time></trkpt>
<trkpt lat="43.713702" lon="-1.404360"><ele>36.0</ele><time>2025-10-22T09:00:42Z</time></trkpt>
<trkpt lat="43.713695" lon="-1.404293"><ele>36.5</ele><time>2025-10-22T09:00:48Z</time></trkpt>
<trkpt lat="43.713686" lon="-1.404218"><ele>37.8</ele><time>2025-10-22T09:00:54Z</time></trkpt>
<trkpt lat="43.713680" lon="-1.404145"><ele>37.4</ele><time>2025-10-22T09:00:59Z</time></trkpt>
<trkpt lat="43.713669" lon="-1.404081"><ele>37.6</ele><time>2025-10-22T09:01:04Z</time></trkpt>
<trkpt lat="43.713649" lon="-1.404018"><ele>38.2</ele><time>2025-10-22T09:01:10Z</time></trkpt>
<trkpt lat="43.713629" lon="-1.403953"><ele>39.3</ele><time>2025-10-22T09:01:17Z</time></trkpt>
<trkpt lat="43.713601" lon="-1.403899"><ele>40.4</ele><time>2025-10-22T09:01:23Z</time></trkpt>
<trkpt lat="43.713578" lon="-1.403839"><ele>40.6</ele><time>2025-10-22T09:01:29Z</time></trkpt>
<trkpt lat="43.713548" lon="-1.403792"><ele>40.9</ele><time>2025-10-22T09:01:34Z</time></trkpt>
<trkpt lat="43.713506" lon="-1.403747"><ele>40.0</ele><time>2025-10-22T09:01:40Z</time></trkpt>
<trkpt lat="43.713465" lon="-1.403707"><ele>40.1</ele><time>2025-10-22T09:01:46Z</time></trkpt>
<trkpt lat="43.713437" lon="-1.403656"><ele>40.2</ele><time>2025-10-22T09:01:50Z</time></trkpt>
<trkpt lat="43.713411" lon="-1.403595"><ele>39.9</ele><time>2025-10-22T09:01:55Z</time></trkpt>
<trkpt lat="43.713389" lon="-1.403539"><ele>40.7</ele><time>2025-10-22T09:02:00Z</time></trkpt>
<trkpt lat="43.713364" lon="-1.403479"><ele>41.0</ele><time>2025-10-22T09:02:05Z</time></trkpt>
<trkpt lat="43.713333" lon="-1.403427"><ele>40.2</ele><time>2025-10-22T09:02:11Z</time></trkpt>
<trkpt lat="43.713313" lon="-1.403362"><ele>43.5</ele><time>2025-10-22T09:02:18Z</time></trkpt>
<trkpt lat="43.713287" lon="-1.403298"><ele>44.3</ele><time>2025-10-22T09:02:24Z</time></trkpt>
<trkpt lat="43.713261" lon="-1.403235"><ele>44.8</ele><time>2025-10-22T09:02:29Z</time></trkpt>
<trkpt lat="43.713241" lon="-1.403171"><ele>45.1</ele><time>2025-10-22T09:02:34Z</time></trkpt>
<trkpt lat="43.713213" lon="-1.403118"><ele>44.5</ele><time>2025-10-22T09:02:39Z</time></trkpt>
<trkpt lat="43.713187" lon="-1.403054"><ele>41.3</ele><time>2025-10-22T09:02:45Z</time></trkpt>
<trkpt lat="43.713161" lon="-1.403000"><ele>41.9</ele><time>2025-10-22T09:02:50Z</time></trkpt>
<trkpt lat="43.713140" lon="-1.402943"><ele>41.3</ele><time>2025-10-22T09:02:56Z</time></trkpt>
<trkpt lat="43.713131" lon="-1.402874"><ele>41.6</ele><time>2025-10-22T09:03:02Z</time></trkpt>
<trkpt lat="43.713178" lon="-1.402843"><ele>41.5</ele><time>2025-10-22T09:04:55Z</time></trkpt>
<trkpt lat="43.713227" lon="-1.402839"><ele>41.7</ele><time>2025-10-22T09:04:59Z</time></trkpt>
<trkpt lat="43.713275" lon="-1.402821"><ele>40.5</ele><time>2025-10-22T09:05:04Z</time></trkpt>
<trkpt lat="43.713330" lon="-1.402810"><ele>43.2</ele><time>2025-10-22T09:05:10Z</time></trkpt>
<trkpt lat="43.713376" lon="-1.402805"><ele>42.8</ele><time>2025-10-22T09:05:15Z</time></trkpt>
<trkpt lat="43.713428" lon="-1.402814"><ele>43.9</ele><time>2025-10-22T09:05:21Z</time></trkpt>
<trkpt lat="43.713484" lon="-1.402819"><ele>45.7</ele><time>2025-10-22T09:05:27Z</time></trkpt>
<trkpt lat="43.713529" lon="-1.402844"><ele>44.7</ele><time>2025-10-22T09:05:31Z</time></trkpt>
<trkpt lat="43.713577" lon="-1.402875"><ele>43.5</ele><time>2025-10-22T09:05:35Z</time></trkpt>
<trkpt lat="43.713626" lon="-1.402898"><ele>42.7</ele><time>2025-10-22T09:05:39Z</time></trkpt>
<trkpt lat="43.713675" lon="-1.402922"><ele>43.5</ele><time>2025-10-22T09:05:43Z</time></trkpt>
<trkpt lat="43.713718" lon="-1.402952"><ele>42.5</ele><time>2025-10-22T09:05:47Z</time></trkpt>
<trkpt lat="43.713767" lon="-1.402981"><ele>42.5</ele><time>2025-10-22T09:05:51Z</time></trkpt>
<trkpt lat="43.713818" lon="-1.403011"><ele>42.3</ele><time>2025-10-22T09:05:55Z</time></trkpt>
<trkpt lat="43.713862" lon="-1.403040"><ele>41.5</ele><time>2025-10-22T09:05:59Z</time></trkpt>
<trkpt lat="43.713904" lon="-1.403074"><ele>41.7</ele><time>2025-10-22T09:06:03Z</time></trkpt>
<trkpt lat="43.713941" lon="-1.403120"><ele>42.6</ele><time>2025-10-22T09:06:08Z</time></trkpt>
<trkpt lat="43.713983" lon="-1.403170"><ele>42.4</ele><time>2025-10-22T09:06:13Z</time></trkpt>
<trkpt lat="43.714020" lon="-1.403212"><ele>43.2</ele><time>2025-10-22T09:06:17Z</time></trkpt>
<trkpt lat="43.714059" lon="-1.403266"><ele>42.5</ele><time>2025-10-22T09:06:21Z</time></trkpt>
<trkpt lat="43.714091" lon="-1.403322"><ele>42.9</ele><time>2025-10-22T09:06:25Z</time></trkpt>
<trkpt lat="43.714123" lon="-1.403375"><ele>42.8</ele><time>2025-10-22T09:06:29Z</time></trkpt>
<trkpt lat="43.714163" lon="-1.403430"><ele>42.5</ele><time>2025-10-22T09:06:33Z</time></trkpt>
<trkpt lat="43.714203" lon="-1.403481"><ele>42.8</ele><time>2025-10-22T09:06:37Z</time></trkpt>
<trkpt lat="43.714240" lon="-1.403531"><ele>42.7</ele><time>2025-10-22T09:06:41Z</time></trkpt>
<trkpt lat="43.714278" lon="-1.403577"><ele>43.8</ele><time>2025-10-22T09:06:45Z</time></trkpt>
<trkpt lat="43.714309" lon="-1.403625"><ele>43.5</ele><time>2025-10-22T09:06:50Z</time></trkpt>
<trkpt lat="43.714339" lon="-1.403681"><ele>42.1</ele><time>2025-10-22T09:06:54Z</time></trkpt>
<trkpt lat="43.714376" lon="-1.403735"><ele>41.3</ele><time>2025-10-22T09:06:58Z</time></trkpt>
<trkpt lat="43.714415" lon="-1.403784"><ele>42.4</ele><time>2025-10-22T09:07:02Z</time></trkpt>
<trkpt lat="43.714454" lon="-1.403829"><ele>42.8</ele><time>2025-10-22T09:07:06Z</time></trkpt>
<trkpt lat="43.714494" lon="-1.403871"><ele>41.7</ele><time>2025-10-22T09:07:10Z</time></trkpt>
<trkpt lat="43.714535" lon="-1.403911"><ele>42.6</ele><time>2025-10-22T09:07:15Z</time></trkpt>
<trkpt lat="43.714579" lon="-1.403946"><ele>40.0</ele><time>2025-10-22T09:07:20Z</time></trkpt>
<trkpt lat="43.714622" lon="-1.403991"><ele>38.8</ele><time>2025-10-22T09:07:25Z</time></trkpt>
<trkpt lat="43.714667" lon="-1.404033"><ele>39.6</ele><time>2025-10-22T09:07:30Z</time></trkpt>
<trkpt lat="43.714702" lon="-1.404076"><ele>41.5</ele><time>2025-10-22T09:07:34Z</time></trkpt>
<trkpt lat="43.714737" lon="-1.404119"><ele>40.6</ele><time>2025-10-22T09:07:38Z</time></trkpt>
<trkpt lat="43.714787" lon="-1.404154"><ele>40.5</ele><time>2025-10-22T09:07:43Z</time></trkpt>
<trkpt lat="43.714828" lon="-1.404190"><ele>41.7</ele><time>2025-10-22T09:08:22Z</time></trkpt>
<trkpt lat="43.714850" lon="-1.404248"><ele>42.1</ele><time>2025-10-22T09:08:26Z</time></trkpt>
<trkpt lat="43.714882" lon="-1.404314"><ele>41.8</ele><time>2025-10-22T09:08:31Z</time></trkpt>
<trkpt lat="43.714915" lon="-1.404367"><ele>42.0</ele><time>2025-10-22T09:08:35Z</time></trkpt>
<trkpt lat="43.714947" lon="-1.404423"><ele>43.5</ele><time>2025-10-22T09:08:39Z</time></trkpt>
<trkpt lat="43.714966" lon="-1.404491"><ele>42.9</ele><time>2025-10-22T09:08:43Z</time></trkpt>
<trkpt lat="43.714981" lon="-1.404560"><ele>42.0</ele><time>2025-10-22T09:08:47Z</time></trkpt>
<trkpt lat="43.714989" lon="-1.404634"><ele>39.8</ele><time>2025-10-22T09:08:51Z</time></trkpt>
<trkpt lat="43.714997" lon="-1.404710"><ele>38.9</ele><time>2025-10-22T09:08:55Z</time></trkpt>
<trkpt lat="43.714989" lon="-1.404784"><ele>38.6</ele><time>2025-10-22T09:08:59Z</time></trkpt>
<trkpt lat="43.714985" lon="-1.404848"><ele>38.8</ele><time>2025-10-22T09:09:03Z</time></trkpt>
<trkpt lat="43.714985" lon="-1.404916"><ele>38.4</ele><time>2025-10-22T09:09:07Z</time></trkpt>
<trkpt lat="43.714992" lon="-1.404990"><ele>40.5</ele><time>2025-10-22T09:09:11Z</time></trkpt>
<trkpt lat="43.714998" lon="-1.405056"><ele>41.4</ele><time>2025-10-22T09:09:15Z</time></trkpt>
<trkpt lat="43.715001" lon="-1.405121"><ele>41.7</ele><time>2025-10-22T09:09:20Z</time></trkpt>
<trkpt lat="43.714991" lon="-1.405193"><ele>41.8</ele><time>2025-10-22T09:09:26Z</time></trkpt>
<trkpt lat="43.714976" lon="-1.405260"><ele>42.3</ele><time>2025-10-22T09:09:32Z</time></trkpt>
<trkpt lat="43.714969" lon="-1.405334"><ele>42.7</ele><time>2025-10-22T09:09:38Z</time></trkpt>
<trkpt lat="43.714995" lon="-1.405400"><ele>48.5</ele><time>2025-10-22T09:09:44Z</time></trkpt>
<trkpt lat="43.715023" lon="-1.405457"><ele>47.9</ele><time>2025-10-22T09:09:49Z</time></trkpt>
<trkpt lat="43.715060" lon="-1.405493"><ele>47.0</ele><time>2025-10-22T09:09:54Z</time></trkpt>
<trkpt lat="43.715109" lon="-1.405521"><ele>47.8</ele><time>2025-10-22T09:10:00Z</time></trkpt>
<trkpt lat="43.715156" lon="-1.405521"><ele>47.0</ele><time>2025-10-22T09:10:05Z</time></trkpt>
<trkpt lat="43.715206" lon="-1.405517"><ele>46.3</ele><time>2025-10-22T09:10:10Z</time></trkpt>
<trkpt lat="43.715257" lon="-1.405542"><ele>44.4</ele><time>2025-10-22T09:10:16Z</time></trkpt>
<trkpt lat="43.715298" lon="-1.405595"><ele>43.5</ele><time>2025-10-22T09:10:21Z</time></trkpt>
<trkpt lat="43.715332" lon="-1.405656"><ele>42.6</ele><time>2025-10-22T09:10:26Z</time></trkpt>
<trkpt lat="43.715371" lon="-1.405719"><ele>43.3</ele><time>2025-10-22T09:10:30Z</time></trkpt>
<trkpt lat="43.715402" lon="-1.405770"><ele>40.9</ele><time>2025-10-22T09:10:33Z</time></trkpt>
<trkpt lat="43.715428" lon="-1.405829"><ele>40.6</ele><time>2025-10-22T09:10:37Z</time></trkpt>
<trkpt lat="43.715460" lon="-1.405874"><ele>41.2</ele><time>2025-10-22T09:10:40Z</time></trkpt>
<trkpt lat="43.715512" lon="-1.405907"><ele>41.0</ele><time>2025-10-22T09:10:44Z</time></trkpt>
<trkpt lat="43.715563" lon="-1.405918"><ele>39.9</ele><time>2025-10-22T09:10:48Z</time></trkpt>
<trkpt lat="43.715614" lon="-1.405908"><ele>40.3</ele><time>2025-10-22T09:10:52Z</time></trkpt>
<trkpt lat="43.715666" lon="-1.405900"><ele>39.0</ele><time>2025-10-22T09:10:56Z</time></trkpt>
<trkpt lat="43.715719" lon="-1.405887"><ele>37.0</ele><time>2025-10-22T09:11:00Z</time></trkpt>
<trkpt lat="43.715770" lon="-1.405854"><ele>36.7</ele><time>2025-10-22T09:11:04Z</time></trkpt>
<trkpt lat="43.715819" lon="-1.405824"><ele>36.3</ele><time>2025-10-22T09:11:08Z</time></trkpt>
<trkpt lat="43.715870" lon="-1.405808"><ele>35.6</ele><time>2025-10-22T09:11:13Z</time></trkpt>
<trkpt lat="43.715916" lon="-1.405784"><ele>35.3</ele><time>2025-10-22T09:11:18Z</time></trkpt>
<trkpt lat="43.715961" lon="-1.405759"><ele>36.3</ele><time>2025-10-22T09:11:23Z</time></trkpt>
<trkpt lat="43.716007" lon="-1.405746"><ele>36.6</ele><time>2025-10-22T09:11:28Z</time></trkpt>
<trkpt lat="43.716057" lon="-1.405726"><ele>36.9</ele><time>2025-10-22T09:11:34Z</time></trkpt>
<trkpt lat="43.716112" lon="-1.405707"><ele>38.3</ele><time>2025-10-22T09:11:39Z</time></trkpt>
<trkpt lat="43.716157" lon="-1.405695"><ele>38.8</ele><time>2025-10-22T09:11:43Z</time></trkpt>
<trkpt lat="43.716206" lon="-1.405696"><ele>40.1</ele><time>2025-10-22T09:11:47Z</time></trkpt>
<trkpt lat="43.716256" lon="-1.405720"><ele>40.1</ele><time>2025-10-22T09:11:51Z</time></trkpt>
<trkpt lat="43.716307" lon="-1.405745"><ele>40.4</ele><time>2025-10-22T09:11:55Z</time></trkpt>
<trkpt lat="43.716356" lon="-1.405767"><ele>40.9</ele><time>2025-10-22T09:11:59Z</time></trkpt>
<trkpt lat="43.716403" lon="-1.405794"><ele>40.6</ele><time>2025-10-22T09:12:03Z</time></trkpt>
<trkpt lat="43.716445" lon="-1.405822"><ele>40.3</ele><time>2025-10-22T09:12:07Z</time></trkpt>
<trkpt lat="43.716495" lon="-1.405858"><ele>41.3</ele><time>2025-10-22T09:12:12Z</time></trkpt>
<trkpt lat="43.716545" lon="-1.405881"><ele>43.3</ele><time>2025-10-22T09:12:17Z</time></trkpt>
<trkpt lat="43.716599" lon="-1.405888"><ele>43.5</ele><time>2025-10-22T09:12:22Z</time></trkpt>
<trkpt lat="43.716650" lon="-1.405896"><ele>43.6</ele><time>2025-10-22T09:12:27Z</time></trkpt>
<trkpt lat="43.716699" lon="-1.405875"><ele>43.3</ele><time>2025-10-22T09:12:32Z</time></trkpt>
<trkpt lat="43.716744" lon="-1.405852"><ele>42.8</ele><time>2025-10-22T09:12:37Z</time></trkpt>
<trkpt lat="43.716780" lon="-1.405811"><ele>45.4</ele><time>2025-10-22T09:12:49Z</time></trkpt>
<trkpt lat="43.716811" lon="-1.405766"><ele>42.7</ele><time>2025-10-22T09:13:30Z</time></trkpt>
<trkpt lat="43.716834" lon="-1.405694"><ele>42.8</ele><time>2025-10-22T09:13:35Z</time></trkpt>
<trkpt lat="43.716845" lon="-1.405625"><ele>43.6</ele><time>2025-10-22T09:13:40Z</time></trkpt>
<trkpt lat="43.716852" lon="-1.405549"><ele>44.3</ele><time>2025-10-22T09:13:45Z</time></trkpt>
<trkpt lat="43.716851" lon="-1.405480"><ele>46.2</ele><time>2025-10-22T09:13:50Z</time></trkpt>
<trkpt lat="43.716857" lon="-1.405408"><ele>46.4</ele><time>2025-10-22T09:13:55Z</time></trkpt>
<trkpt lat="43.716860" lon="-1.405336"><ele>46.2</ele><time>2025-10-22T09:14:00Z</time></trkpt>
<trkpt lat="43.716839" lon="-1.405273"><ele>49.1</ele><time>2025-10-22T09:14:05Z</time></trkpt>
<trkpt lat="43.716822" lon="-1.405204"><ele>48.8</ele><time>2025-10-22T09:14:10Z</time></trkpt>
<trkpt lat="43.716804" lon="-1.405147"><ele>48.8</ele><time>2025-10-22T09:14:14Z</time></trkpt>
<trkpt lat="43.716784" lon="-1.405073"><ele>47.8</ele><time>2025-10-22T09:14:19Z</time></trkpt>
<trkpt lat="43.716769" lon="-1.405002"><ele>45.0</ele><time>2025-10-22T09:14:23Z</time></trkpt>
<trkpt lat="43.716752" lon="-1.404940"><ele>45.1</ele><time>2025-10-22T09:14:27Z</time></trkpt>
<trkpt lat="43.716751" lon="-1.404876"><ele>44.2</ele><time>2025-10-22T09:14:31Z</time></trkpt>
<trkpt lat="43.716739" lon="-1.404813"><ele>41.2</ele><time>2025-10-22T09:14:35Z</time></trkpt>
<trkpt lat="43.716731" lon="-1.404749"><ele>42.8</ele><time>2025-10-22T09:14:39Z</time></trkpt>
<trkpt lat="43.716726" lon="-1.404685"><ele>44.3</ele><time>2025-10-22T09:14:43Z</time></trkpt>
<trkpt lat="43.716721" lon="-1.404623"><ele>45.8</ele><time>2025-10-22T09:14:47Z</time></trkpt>
<trkpt lat="43.716719" lon="-1.404556"><ele>45.9</ele><time>2025-10-22T09:14:52Z</time></trkpt>
<trkpt lat="43.716702" lon="-1.404484"><ele>46.5</ele><time>2025-10-22T09:14:57Z</time></trkpt>
<trkpt lat="43.716683" lon="-1.404417"><ele>48.2</ele><time>2025-10-22T09:15:02Z</time></trkpt>
<trkpt lat="43.716669" lon="-1.404345"><ele>47.0</ele><time>2025-10-22T09:15:07Z</time></trkpt>
<trkpt lat="43.716662" lon="-1.404281"><ele>47.6</ele><time>2025-10-22T09:15:12Z</time></trkpt>
<trkpt lat="43.716655" lon="-1.404219"><ele>48.1</ele><time>2025-10-22T09:15:17Z</time></trkpt>
<trkpt lat="43.716627" lon="-1.404159"><ele>51.1</ele><time>2025-10-22T09:15:22Z</time></trkpt>
<trkpt lat="43.716610" lon="-1.404091"><ele>49.5</ele><time>2025-10-22T09:15:27Z</time></trkpt>
<trkpt lat="43.716591" lon="-1.404033"><ele>47.4</ele><time>2025-10-22T09:15:32Z</time></trkpt>
<trkpt lat="43.716570" lon="-1.403963"><ele>48.4</ele><time>2025-10-22T09:15:37Z</time></trkpt>
<trkpt lat="43.716553" lon="-1.403902"><ele>49.6</ele><time>2025-10-22T09:15:42Z</time></trkpt>
<trkpt lat="43.716545" lon="-1.403835"><ele>49.8</ele><time>2025-10-22T09:15:47Z</time></trkpt>
<trkpt lat="43.716540" lon="-1.403758"><ele>49.0</ele><time>2025-10-22T09:15:51Z</time></trkpt>
<trkpt lat="43.716527" lon="-1.403695"><ele>47.8</ele><time>2025-10-22T09:15:55Z</time></trkpt>
<trkpt lat="43.716515" lon="-1.403627"><ele>50.1</ele><time>2025-10-22T09:16:00Z</time></trkpt>
<trkpt lat="43.716504" lon="-1.403553"><ele>50.4</ele><time>2025-10-22T09:16:05Z</time></trkpt>
<trkpt lat="43.716496" lon="-1.403491"><ele>52.0</ele><time>2025-10-22T09:16:09Z</time></trkpt>
<trkpt lat="43.716498" lon="-1.403426"><ele>50.4</ele><time>2025-10-22T09:16:14Z</time></trkpt>
<trkpt lat="43.716496" lon="-1.403355"><ele>47.8</ele><time>2025-10-22T09:16:19Z</time></trkpt>
<trkpt lat="43.716481" lon="-1.403285"><ele>46.7</ele><time>2025-10-22T09:16:23Z</time></trkpt>
<trkpt lat="43.716470" lon="-1.403218"><ele>45.2</ele><time>2025-10-22T09:16:28Z</time></trkpt>
<trkpt lat="43.716468" lon="-1.403145"><ele>49.1</ele><time>2025-10-22T09:16:34Z</time></trkpt>
<trkpt lat="43.716470" lon="-1.403070"><ele>48.4</ele><time>2025-10-22T09:16:39Z</time></trkpt>
<trkpt lat="43.716466" lon="-1.403006"><ele>47.1</ele><time>2025-10-22T09:16:43Z</time></trkpt>
<trkpt lat="43.716468" lon="-1.402929"><ele>46.9</ele><time>2025-10-22T09:16:48Z</time></trkpt>
<trkpt lat="43.716483" lon="-1.402863"><ele>44.7</ele><time>2025-10-22T09:16:53Z</time></trkpt>
<trkpt lat="43.716506" lon="-1.402808"><ele>46.7</ele><time>2025-10-22T09:16:58Z</time></trkpt>
<trkpt lat="43.716531" lon="-1.402736"><ele>46.8</ele><time>2025-10-22T09:17:03Z</time></trkpt>
<trkpt lat="43.716560" lon="-1.402679"><ele>49.6</ele><time>2025-10-22T09:17:08Z</time></trkpt>
<trkpt lat="43.716590" lon="-1.402615"><ele>49.0</ele><time>2025-10-22T09:17:12Z</time></trkpt>
<trkpt lat="43.716617" lon="-1.402547"><ele>47.6</ele><time>2025-10-22T09:17:16Z</time></trkpt>
<trkpt lat="43.716666" lon="-1.402502"><ele>42.3</ele><time>2025-10-22T09:17:20Z</time></trkpt>
<trkpt lat="43.716717" lon="-1.402461"><ele>40.8</ele><time>2025-10-22T09:17:24Z</time></trkpt>
<trkpt lat="43.716771" lon="-1.402429"><ele>40.1</ele><time>2025-10-22T09:17:28Z</time></trkpt>
<trkpt lat="43.716815" lon="-1.402393"><ele>40.0</ele><time>2025-10-22T09:17:32Z</time></trkpt>
<trkpt lat="43.716867" lon="-1.402357"><ele>38.9</ele><time>2025-10-22T09:17:37Z</time></trkpt>
<trkpt lat="43.716916" lon="-1.402324"><ele>39.1</ele><time>2025-10-22T09:17:41Z</time></trkpt>
<trkpt lat="43.716964" lon="-1.402289"><ele>38.9</ele><time>2025-10-22T09:17:46Z</time></trkpt>
<trkpt lat="43.717016" lon="-1.402256"><ele>38.9</ele><time>2025-10-22T09:17:50Z</time></trkpt>
<trkpt lat="43.717067" lon="-1.402235"><ele>38.5</ele><time>2025-10-22T09:17:54Z</time></trkpt>
<trkpt lat="43.717109" lon="-1.402208"><ele>38.2</ele><time>2025-10-22T09:17:58Z</time></trkpt>
<trkpt lat="43.717157" lon="-1.402174"><ele>37.8</ele><time>2025-10-22T09:18:03Z</time></trkpt>
<trkpt lat="43.717204" lon="-1.402163"><ele>40.0</ele><time>2025-10-22T09:18:06Z</time></trkpt>
<trkpt lat="43.717250" lon="-1.402140"><ele>40.1</ele><time>2025-10-22T09:18:10Z</time></trkpt>
<trkpt lat="43.717291" lon="-1.402105"><ele>43.2</ele><time>2025-10-22T09:18:15Z</time></trkpt>
<trkpt lat="43.717337" lon="-1.402054"><ele>43.1</ele><time>2025-10-22T09:18:20Z</time></trkpt>
<trkpt lat="43.717370" lon="-1.402010"><ele>43.6</ele><time>2025-10-22T09:18:24Z</time></trkpt>
<trkpt lat="43.717409" lon="-1.401963"><ele>43.5</ele><time>2025-10-22T09:18:29Z</time></trkpt>
<trkpt lat="43.717417" lon="-1.401899"><ele>43.0</ele><time>2025-10-22T09:18:35Z</time></trkpt>
<trkpt lat="43.717418" lon="-1.401837"><ele>40.2</ele><time>2025-10-22T09:18:39Z</time></trkpt>
<trkpt lat="43.717402" lon="-1.401776"><ele>39.8</ele><time>2025-10-22T09:18:43Z</time></trkpt>
<trkpt lat="43.717395" lon="-1.401709"><ele>40.8</ele><time>2025-10-22T09:18:48Z</time></trkpt>
<trkpt lat="43.717394" lon="-1.401639"><ele>37.6</ele><time>2025-10-22T09:18:54Z</time></trkpt>
<trkpt lat="43.717386" lon="-1.401567"><ele>38.6</ele><time>2025-10-22T09:18:59Z</time></trkpt>
<trkpt lat="43.717371" lon="-1.401505"><ele>38.3</ele><time>2025-10-22T09:19:03Z</time></trkpt>
<trkpt lat="43.717364" lon="-1.401438"><ele>38.0</ele><time>2025-10-22T09:19:07Z</time></trkpt>
<trkpt lat="43.717365" lon="-1.401373"><ele>38.3</ele><time>2025-10-22T09:19:11Z</time></trkpt>
<trkpt lat="43.717367" lon="-1.401308"><ele>36.0</ele><time>2025-10-22T09:19:15Z</time></trkpt>
<trkpt lat="43.717357" lon="-1.401237"><ele>34.8</ele><time>2025-10-22T09:19:20Z</time></trkpt>
<trkpt lat="43.717345" lon="-1.401167"><ele>33.3</ele><time>2025-10-22T09:19:25Z</time></trkpt>
<trkpt lat="43.717344" lon="-1.401092"><ele>32.6</ele><time>2025-10-22T09:19:29Z</time></trkpt>
<trkpt lat="43.717342" lon="-1.401019"><ele>33.7</ele><time>2025-10-22T09:19:33Z</time></trkpt>
<trkpt lat="43.717346" lon="-1.400946"><ele>29.4</ele><time>2025-10-22T09:19:37Z</time></trkpt>
<trkpt lat="43.717352" lon="-1.400874"><ele>28.2</ele><time>2025-10-22T09:19:41Z</time></trkpt>
<trkpt lat="43.717357" lon="-1.400808"><ele>26.2</ele><time>2025-10-22T09:19:45Z</time></trkpt>
<trkpt lat="43.717359" lon="-1.400732"><ele>24.2</ele><time>2025-10-22T09:19:50Z</time></trkpt>
<trkpt lat="43.717362" lon="-1.400655"><ele>25.7</ele><time>2025-10-22T09:19:54Z</time></trkpt>
<trkpt lat="43.717364" lon="-1.400583"><ele>25.9</ele><time>2025-10-22T09:19:58Z</time></trkpt>
<trkpt lat="43.717358" lon="-1.400515"><ele>24.9</ele><time>2025-10-22T09:20:02Z</time></trkpt>
<trkpt lat="43.717354" lon="-1.400446"><ele>24.0</ele><time>2025-10-22T09:20:06Z</time></trkpt>
<trkpt lat="43.717331" lon="-1.400380"><ele>25.8</ele><time>2025-10-22T09:20:11Z</time></trkpt>
<trkpt lat="43.717315" lon="-1.400316"><ele>26.5</ele><time>2025-10-22T09:20:15Z</time></trkpt>
<trkpt lat="43.717309" lon="-1.400250"><ele>25.4</ele><time>2025-10-22T09:20:19Z</time></trkpt>
<trkpt lat="43.717301" lon="-1.400177"><ele>25.5</ele><time>2025-10-22T09:20:23Z</time></trkpt>
<trkpt lat="43.717300" lon="-1.400106"><ele>24.1</ele><time>2025-10-22T09:20:27Z</time></trkpt>
<trkpt lat="43.717287" lon="-1.400046"><ele>25.4</ele><time>2025-10-22T09:20:31Z</time></trkpt>
<trkpt lat="43.717281" lon="-1.399983"><ele>25.1</ele><time>2025-10-22T09:20:35Z</time></trkpt>
<trkpt lat="43.717280" lon="-1.399918"><ele>25.0</ele><time>2025-10-22T09:20:39Z</time></trkpt>
<trkpt lat="43.717287" lon="-1.399855"><ele>24.5</ele><time>2025-10-22T09:20:43Z</time></trkpt>
<trkpt lat="43.717294" lon="-1.399784"><ele>22.8</ele><time>2025-10-22T09:20:47Z</time></trkpt>
<trkpt lat="43.717295" lon="-1.399714"><ele>22.0</ele><time>2025-10-22T09:20:51Z</time></trkpt>
<trkpt lat="43.717292" lon="-1.399647"><ele>22.1</ele><time>2025-10-22T09:20:55Z</time></trkpt>
<trkpt lat="43.717288" lon="-1.399578"><ele>22.3</ele><time>2025-10-22T09:20:59Z</time></trkpt>
<trkpt lat="43.717289" lon="-1.399508"><ele>21.1</ele><time>2025-10-22T09:21:03Z</time></trkpt>
<trkpt lat="43.717291" lon="-1.399440"><ele>20.1</ele><time>2025-10-22T09:21:07Z</time></trkpt>
<trkpt lat="43.717277" lon="-1.399366"><ele>21.3</ele><time>2025-10-22T09:21:11Z</time></trkpt>
<trkpt lat="43.717263" lon="-1.399299"><ele>22.7</ele><time>2025-10-22T09:21:15Z</time></trkpt>
<trkpt lat="43.717254" lon="-1.399233"><ele>21.9</ele><time>2025-10-22T09:21:19Z</time></trkpt>
<trkpt lat="43.717254" lon="-1.399160"><ele>20.5</ele><time>2025-10-22T09:21:24Z</time></trkpt>
<trkpt lat="43.717253" lon="-1.399090"><ele>17.9</ele><time>2025-10-22T09:21:28Z</time></trkpt>
<trkpt lat="43.717249" lon="-1.399020"><ele>17.2</ele><time>2025-10-22T09:21:32Z</time></trkpt>
<trkpt lat="43.717243" lon="-1.398956"><ele>17.0</ele><time>2025-10-22T09:21:36Z</time></trkpt>
<trkpt lat="43.717249" lon="-1.398890"><ele>16.4</ele><time>2025-10-22T09:21:40Z</time></trkpt>
<trkpt lat="43.717254" lon="-1.398810"><ele>14.7</ele><time>2025-10-22T09:21:44Z</time></trkpt>
<trkpt lat="43.717264" lon="-1.398739"><ele>13.5</ele><time>2025-10-22T09:21:48Z</time></trkpt>
<trkpt lat="43.717266" lon="-1.398669"><ele>14.7</ele><time>2025-10-22T09:21:53Z</time></trkpt>
<trkpt lat="43.717265" lon="-1.398605"><ele>14.1</ele><time>2025-10-22T09:21:57Z</time></trkpt>
<trkpt lat="43.717261" lon="-1.398527"><ele>14.0</ele><time>2025-10-22T09:22:01Z</time></trkpt>
<trkpt lat="43.717266" lon="-1.398456"><ele>12.3</ele><time>2025-10-22T09:22:05Z</time></trkpt>
<trkpt lat="43.717266" lon="-1.398385"><ele>12.8</ele><time>2025-10-22T09:22:09Z</time></trkpt>
<trkpt lat="43.717281" lon="-1.398311"><ele>13.0</ele><time>2025-10-22T09:22:13Z</time></trkpt>
<trkpt lat="43.717285" lon="-1.398231"><ele>12.6</ele><time>2025-10-22T09:22:17Z</time></trkpt>
<trkpt lat="43.717287" lon="-1.398156"><ele>11.9</ele><time>2025-10-22T09:22:21Z</time></trkpt>
<trkpt lat="43.717291" lon="-1.398079"><ele>10.7</ele><time>2025-10-22T09:22:25Z</time></trkpt>
<trkpt lat="43.717289" lon="-1.398002"><ele>10.8</ele><time>2025-10-22T09:22:29Z</time></trkpt>
<trkpt lat="43.717272" lon="-1.397938"><ele>10.2</ele><time>2025-10-22T09:22:33Z</time></trkpt>
<trkpt lat="43.717249" lon="-1.397877"><ele>10.6</ele><time>2025-10-22T09:22:37Z</time></trkpt>
<trkpt lat="43.717230" lon="-1.397820"><ele>10.8</ele><time>2025-10-22T09:22:41Z</time></trkpt>
<trkpt lat="43.717218" lon="-1.397754"><ele>10.7</ele><time>2025-10-22T09:22:45Z</time></trkpt>
<trkpt lat="43.717215" lon="-1.397686"><ele>10.9</ele><time>2025-10-22T09:22:49Z</time></trkpt>
<trkpt lat="43.717214" lon="-1.397618"><ele>10.9</ele><time>2025-10-22T09:22:53Z</time></trkpt>
<trkpt lat="43.717212" lon="-1.397542"><ele>11.4</ele><time>2025-10-22T09:22:58Z</time></trkpt>
<trkpt lat="43.717208" lon="-1.397478"><ele>11.2</ele><time>2025-10-22T09:23:02Z</time></trkpt>
<trkpt lat="43.717206" lon="-1.397414"><ele>9.6</ele><time>2025-10-22T09:23:06Z</time></trkpt>
<trkpt lat="43.717199" lon="-1.397349"><ele>9.6</ele><time>2025-10-22T09:23:10Z</time></trkpt>
<trkpt lat="43.717188" lon="-1.397282"><ele>9.6</ele><time>2025-10-22T09:23:14Z</time></trkpt>
<trkpt lat="43.717169" lon="-1.397212"><ele>10.2</ele><time>2025-10-22T09:23:19Z</time></trkpt>
<trkpt lat="43.717143" lon="-1.397156"><ele>10.4</ele><time>2025-10-22T09:23:23Z</time></trkpt>
<trkpt lat="43.717128" lon="-1.397097"><ele>10.6</ele><time>2025-10-22T09:23:27Z</time></trkpt>
<trkpt lat="43.717112" lon="-1.397034"><ele>10.4</ele><time>2025-10-22T09:23:31Z</time></trkpt>
<trkpt lat="43.717090" lon="-1.396973"><ele>10.5</ele><time>2025-10-22T09:23:35Z</time></trkpt>
<trkpt lat="43.717077" lon="-1.396903"><ele>11.3</ele><time>2025-10-22T09:23:39Z</time></trkpt>
<trkpt lat="43.717058" lon="-1.396846"><ele>10.4</ele><time>2025-10-22T09:23:43Z</time></trkpt>
<trkpt lat="43.717042" lon="-1.396782"><ele>10.6</ele><time>2025-10-22T09:23:47Z</time></trkpt>
<trkpt lat="43.717037" lon="-1.396707"><ele>10.6</ele><time>2025-10-22T09:23:51Z</time></trkpt>
<trkpt lat="43.717034" lon="-1.396630"><ele>10.6</ele><time>2025-10-22T09:23:55Z</time></trkpt>
<trkpt lat="43.717021" lon="-1.396557"><ele>11.9</ele><time>2025-10-22T09:23:59Z</time></trkpt>
<trkpt lat="43.717011" lon="-1.396482"><ele>12.4</ele><time>2025-10-22T09:24:03Z</time></trkpt>
<trkpt lat="43.717007" lon="-1.396408"><ele>12.5</ele><time>2025-10-22T09:24:07Z</time></trkpt>
<trkpt lat="43.717002" lon="-1.396344"><ele>12.1</ele><time>2025-10-22T09:24:11Z</time></trkpt>
<trkpt lat="43.716989" lon="-1.396269"><ele>12.8</ele><time>2025-10-22T09:24:16Z</time></trkpt>
<trkpt lat="43.716971" lon="-1.396203"><ele>13.1</ele><time>2025-10-22T09:24:20Z</time></trkpt>
<trkpt lat="43.716951" lon="-1.396134"><ele>13.5</ele><time>2025-10-22T09:24:24Z</time></trkpt>
<trkpt lat="43.716933" lon="-1.396067"><ele>14.0</ele><time>2025-10-22T09:24:28Z</time></trkpt>
<trkpt lat="43.716922" lon="-1.396002"><ele>14.4</ele><time>2025-10-22T09:24:32Z</time></trkpt>
<trkpt lat="43.716925" lon="-1.395932"><ele>14.9</ele><time>2025-10-22T09:24:37Z</time></trkpt>
<trkpt lat="43.716942" lon="-1.395870"><ele>14.7</ele><time>2025-10-22T09:24:41Z</time></trkpt>
<trkpt lat="43.716953" lon="-1.395800"><ele>13.9</ele><time>2025-10-22T09:24:48Z</time></trkpt>
<trkpt lat="43.716919" lon="-1.395738"><ele>16.5</ele><time>2025-10-22T09:25:26Z</time></trkpt>
<trkpt lat="43.716881" lon="-1.395696"><ele>16.7</ele><time>2025-10-22T09:25:32Z</time></trkpt>
<trkpt lat="43.716848" lon="-1.395742"><ele>15.2</ele><time>2025-10-22T09:25:38Z</time></trkpt>
<trkpt lat="43.716867" lon="-1.395680"><ele>14.6</ele><time>2025-10-22T09:25:51Z</time></trkpt>
<trkpt lat="43.716903" lon="-1.395631"><ele>14.7</ele><time>2025-10-22T09:25:55Z</time></trkpt>
<trkpt lat="43.716938" lon="-1.395578"><ele>15.2</ele><time>2025-10-22T09:25:59Z</time></trkpt>
<trkpt lat="43.716974" lon="-1.395521"><ele>15.5</ele><time>2025-10-22T09:26:03Z</time></trkpt>
<trkpt lat="43.717009" lon="-1.395470"><ele>15.2</ele><time>2025-10-22T09:26:07Z</time></trkpt>
<trkpt lat="43.717036" lon="-1.395405"><ele>14.9</ele><time>2025-10-22T09:26:11Z</time></trkpt>
<trkpt lat="43.717060" lon="-1.395337"><ele>14.4</ele><time>2025-10-22T09:26:15Z</time></trkpt>
<trkpt lat="43.717080" lon="-1.395264"><ele>14.2</ele><time>2025-10-22T09:26:19Z</time></trkpt>
<trkpt lat="43.717094" lon="-1.395187"><ele>14.5</ele><time>2025-10-22T09:26:23Z</time></trkpt>
<trkpt lat="43.717097" lon="-1.395120"><ele>14.5</ele><time>2025-10-22T09:26:27Z</time></trkpt>
<trkpt lat="43.717113" lon="-1.395059"><ele>15.2</ele><time>2025-10-22T09:26:31Z</time></trkpt>
<trkpt lat="43.717134" lon="-1.394998"><ele>14.5</ele><time>2025-10-22T09:26:35Z</time></trkpt>
<trkpt lat="43.717158" lon="-1.394941"><ele>15.0</ele><time>2025-10-22T09:26:39Z</time></trkpt>
<trkpt lat="43.717192" lon="-1.394883"><ele>14.2</ele><time>2025-10-22T09:26:44Z</time></trkpt>
<trkpt lat="43.717226" lon="-1.394838"><ele>14.0</ele><time>2025-10-22T09:26:49Z</time></trkpt>
<trkpt lat="43.717264" lon="-1.394798"><ele>15.3</ele><time>2025-10-22T09:26:55Z</time></trkpt>
<trkpt lat="43.717302" lon="-1.394761"><ele>15.6</ele><time>2025-10-22T09:27:00Z</time></trkpt>
<trkpt lat="43.717336" lon="-1.394713"><ele>16.0</ele><time>2025-10-22T09:27:05Z</time></trkpt>
<trkpt lat="43.717380" lon="-1.394682"><ele>16.3</ele><time>2025-10-22T09:27:10Z</time></trkpt>
<trkpt lat="43.717428" lon="-1.394643"><ele>17.2</ele><time>2025-10-22T09:27:15Z</time></trkpt>
<trkpt lat="43.717472" lon="-1.394622"><ele>17.1</ele><time>2025-10-22T09:27:19Z</time></trkpt>
<trkpt lat="43.717524" lon="-1.394595"><ele>17.5</ele><time>2025-10-22T09:27:24Z</time></trkpt>
<trkpt lat="43.717567" lon="-1.394575"><ele>17.6</ele><time>2025-10-22T09:27:28Z</time></trkpt>
<trkpt lat="43.717619" lon="-1.394547"><ele>17.6</ele><time>2025-10-22T09:27:33Z</time></trkpt>
<trkpt lat="43.717667" lon="-1.394511"><ele>17.5</ele><time>2025-10-22T09:27:38Z</time></trkpt>
<trkpt lat="43.717710" lon="-1.394483"><ele>16.7</ele><time>2025-10-22T09:27:42Z</time></trkpt>
<trkpt lat="43.717748" lon="-1.394444"><ele>16.1</ele><time>2025-10-22T09:27:46Z</time></trkpt>
<trkpt lat="43.717781" lon="-1.394396"><ele>15.9</ele><time>2025-10-22T09:27:50Z</time></trkpt>
<trkpt lat="43.717805" lon="-1.394338"><ele>16.7</ele><time>2025-10-22T09:27:54Z</time></trkpt>
<trkpt lat="43.717839" lon="-1.394292"><ele>17.0</ele><time>2025-10-22T09:27:58Z</time></trkpt>
<trkpt lat="43.717869" lon="-1.394245"><ele>17.2</ele><time>2025-10-22T09:28:02Z</time></trkpt>
<trkpt lat="43.717906" lon="-1.394191"><ele>17.9</ele><time>2025-10-22T09:28:07Z</time></trkpt>
<trkpt lat="43.717941" lon="-1.394145"><ele>18.3</ele><time>2025-10-22T09:28:12Z</time></trkpt>
<trkpt lat="43.717983" lon="-1.394105"><ele>18.6</ele><time>2025-10-22T09:28:17Z</time></trkpt>
<trkpt lat="43.718028" lon="-1.394065"><ele>19.1</ele><time>2025-10-22T09:28:22Z</time></trkpt>
<trkpt lat="43.718067" lon="-1.394028"><ele>18.8</ele><time>2025-10-22T09:28:26Z</time></trkpt>
<trkpt lat="43.718102" lon="-1.393982"><ele>18.9</ele><time>2025-10-22T09:28:30Z</time></trkpt>
<trkpt lat="43.718128" lon="-1.393924"><ele>19.4</ele><time>2025-10-22T09:28:34Z</time></trkpt>
<trkpt lat="43.718149" lon="-1.393863"><ele>19.5</ele><time>2025-10-22T09:28:38Z</time></trkpt>
<trkpt lat="43.718174" lon="-1.393805"><ele>19.5</ele><time>2025-10-22T09:28:42Z</time></trkpt>
<trkpt lat="43.718193" lon="-1.393742"><ele>20.0</ele><time>2025-10-22T09:28:46Z</time></trkpt>
<trkpt lat="43.718216" lon="-1.393679"><ele>20.4</ele><time>2025-10-22T09:28:50Z</time></trkpt>
<trkpt lat="43.718260" lon="-1.393628"><ele>20.1</ele><time>2025-10-22T09:28:55Z</time></trkpt>
<trkpt lat="43.718302" lon="-1.393586"><ele>19.5</ele><time>2025-10-22T09:28:59Z</time></trkpt>
<trkpt lat="43.718342" lon="-1.393544"><ele>19.6</ele><time>2025-10-22T09:29:03Z</time></trkpt>
<trkpt lat="43.718385" lon="-1.393507"><ele>19.7</ele><time>2025-10-22T09:29:07Z</time></trkpt>
<trkpt lat="43.718429" lon="-1.393467"><ele>19.7</ele><time>2025-10-22T09:29:11Z</time></trkpt>
<trkpt lat="43.718466" lon="-1.393426"><ele>20.3</ele><time>2025-10-22T09:29:15Z</time></trkpt>
<trkpt lat="43.718502" lon="-1.393385"><ele>20.7</ele><time>2025-10-22T09:29:19Z</time></trkpt>
<trkpt lat="43.718542" lon="-1.393331"><ele>21.4</ele><time>2025-10-22T09:29:24Z</time></trkpt>
<trkpt lat="43.718575" lon="-1.393286"><ele>20.9</ele><time>2025-10-22T09:29:28Z</time></trkpt>
<trkpt lat="43.718609" lon="-1.393243"><ele>20.8</ele><time>2025-10-22T09:29:32Z</time></trkpt>
<trkpt lat="43.718633" lon="-1.393185"><ele>21.0</ele><time>2025-10-22T09:29:36Z</time></trkpt>
<trkpt lat="43.718669" lon="-1.393142"><ele>20.4</ele><time>2025-10-22T09:29:40Z</time></trkpt>
<trkpt lat="43.718698" lon="-1.393093"><ele>20.7</ele><time>2025-10-22T09:29:44Z</time></trkpt>
<trkpt lat="43.718737" lon="-1.393057"><ele>19.7</ele><time>2025-10-22T09:29:48Z</time></trkpt>
<trkpt lat="43.718768" lon="-1.392991"><ele>20.0</ele><time>2025-10-22T09:29:53Z</time></trkpt>
<trkpt lat="43.718807" lon="-1.392950"><ele>19.9</ele><time>2025-10-22T09:29:57Z</time></trkpt>
<trkpt lat="43.718846" lon="-1.392892"><ele>19.8</ele><time>2025-10-22T09:30:02Z</time></trkpt>
<trkpt lat="43.718882" lon="-1.392846"><ele>19.9</ele><time>2025-10-22T09:30:06Z</time></trkpt>
<trkpt lat="43.718922" lon="-1.392805"><ele>19.6</ele><time>2025-10-22T09:30:10Z</time></trkpt>
<trkpt lat="43.718966" lon="-1.392770"><ele>19.3</ele><time>2025-10-22T09:30:14Z</time></trkpt>
<trkpt lat="43.718999" lon="-1.392723"><ele>20.4</ele><time>2025-10-22T09:30:18Z</time></trkpt>
<trkpt lat="43.719028" lon="-1.392673"><ele>19.9</ele><time>2025-10-22T09:30:22Z</time></trkpt>
<trkpt lat="43.719066" lon="-1.392621"><ele>22.1</ele><time>2025-10-22T09:30:28Z</time></trkpt>
<trkpt lat="43.719101" lon="-1.392579"><ele>20.8</ele><time>2025-10-22T09:30:32Z</time></trkpt>
<trkpt lat="43.719137" lon="-1.392534"><ele>20.9</ele><time>2025-10-22T09:30:36Z</time></trkpt>
<trkpt lat="43.719158" lon="-1.392470"><ele>23.6</ele><time>2025-10-22T09:30:41Z</time></trkpt>
<trkpt lat="43.719187" lon="-1.392421"><ele>23.2</ele><time>2025-10-22T09:30:45Z</time></trkpt>
<trkpt lat="43.719210" lon="-1.392352"><ele>26.5</ele><time>2025-10-22T09:30:50Z</time></trkpt>
<trkpt lat="43.719238" lon="-1.392291"><ele>29.4</ele><time>2025-10-22T09:30:55Z</time></trkpt>
<trkpt lat="43.719267" lon="-1.392232"><ele>30.9</ele><time>2025-10-22T09:31:00Z</time></trkpt>
<trkpt lat="43.719294" lon="-1.392176"><ele>31.2</ele><time>2025-10-22T09:31:04Z</time></trkpt>
<trkpt lat="43.719324" lon="-1.392117"><ele>31.8</ele><time>2025-10-22T09:31:08Z</time></trkpt>
<trkpt lat="43.719367" lon="-1.392072"><ele>32.8</ele><time>2025-10-22T09:31:13Z</time></trkpt>
<trkpt lat="43.719404" lon="-1.392020"><ele>32.4</ele><time>2025-10-22T09:31:18Z</time></trkpt>
<trkpt lat="43.719429" lon="-1.391969"><ele>31.8</ele><time>2025-10-22T09:31:24Z</time></trkpt>
<trkpt lat="43.719414" lon="-1.391907"><ele>28.9</ele><time>2025-10-22T09:31:53Z</time></trkpt>
<trkpt lat="43.719457" lon="-1.391937"><ele>28.8</ele><time>2025-10-22T09:32:30Z</time></trkpt>
<trkpt lat="43.719503" lon="-1.391912"><ele>27.7</ele><time>2025-10-22T09:32:34Z</time></trkpt>
<trkpt lat="43.719554" lon="-1.391898"><ele>28.5</ele><time>2025-10-22T09:32:38Z</time></trkpt>
<trkpt lat="43.719606" lon="-1.391865"><ele>29.2</ele><time>2025-10-22T09:32:43Z</time></trkpt>
<trkpt lat="43.719656" lon="-1.391837"><ele>27.4</ele><time>2025-10-22T09:32:48Z</time></trkpt>
<trkpt lat="43.719699" lon="-1.391806"><ele>27.0</ele><time>2025-10-22T09:32:53Z</time></trkpt>
<trkpt lat="43.719750" lon="-1.391774"><ele>28.7</ele><time>2025-10-22T09:32:57Z</time></trkpt>
<trkpt lat="43.719796" lon="-1.391746"><ele>28.8</ele><time>2025-10-22T09:33:01Z</time></trkpt>
<trkpt lat="43.719851" lon="-1.391726"><ele>28.2</ele><time>2025-10-22T09:33:05Z</time></trkpt>
<trkpt lat="43.719901" lon="-1.391700"><ele>29.7</ele><time>2025-10-22T09:33:09Z</time></trkpt>
<trkpt lat="43.719958" lon="-1.391696"><ele>29.6</ele><time>2025-10-22T09:33:13Z</time></trkpt>
<trkpt lat="43.720014" lon="-1.391688"><ele>30.0</ele><time>2025-10-22T09:33:17Z</time></trkpt>
<trkpt lat="43.720063" lon="-1.391680"><ele>29.1</ele><time>2025-10-22T09:33:21Z</time></trkpt>
<trkpt lat="43.720119" lon="-1.391675"><ele>27.9</ele><time>2025-10-22T09:33:25Z</time></trkpt>
<trkpt lat="43.720170" lon="-1.391670"><ele>27.4</ele><time>2025-10-22T09:33:29Z</time></trkpt>
<trkpt lat="43.720217" lon="-1.391667"><ele>27.3</ele><time>2025-10-22T09:33:33Z</time></trkpt>
<trkpt lat="43.720268" lon="-1.391651"><ele>27.5</ele><time>2025-10-22T09:33:37Z</time></trkpt>
<trkpt lat="43.720316" lon="-1.391639"><ele>28.0</ele><time>2025-10-22T09:33:41Z</time></trkpt>
<trkpt lat="43.720366" lon="-1.391621"><ele>27.6</ele><time>2025-10-22T09:33:45Z</time></trkpt>
<trkpt lat="43.720415" lon="-1.391598"><ele>26.1</ele><time>2025-10-22T09:33:49Z</time></trkpt>
<trkpt lat="43.720454" lon="-1.391553"><ele>26.8</ele><time>2025-10-22T09:33:53Z</time></trkpt>
<trkpt lat="43.720487" lon="-1.391496"><ele>26.8</ele><time>2025-10-22T09:33:57Z</time></trkpt>
<trkpt lat="43.720521" lon="-1.391443"><ele>27.0</ele><time>2025-10-22T09:34:01Z</time></trkpt>
<trkpt lat="43.720566" lon="-1.391416"><ele>27.7</ele><time>2025-10-22T09:34:05Z</time></trkpt>
<trkpt lat="43.720613" lon="-1.391372"><ele>29.2</ele><time>2025-10-22T09:34:10Z</time></trkpt>
<trkpt lat="43.720662" lon="-1.391352"><ele>31.0</ele><time>2025-10-22T09:34:15Z</time></trkpt>
<trkpt lat="43.720713" lon="-1.391352"><ele>30.4</ele><time>2025-10-22T09:34:19Z</time></trkpt>
<trkpt lat="43.720765" lon="-1.391366"><ele>29.6</ele><time>2025-10-22T09:34:23Z</time></trkpt>
<trkpt lat="43.720814" lon="-1.391375"><ele>27.8</ele><time>2025-10-22T09:34:27Z</time></trkpt>
<trkpt lat="43.720867" lon="-1.391379"><ele>27.6</ele><time>2025-10-22T09:34:31Z</time></trkpt>
<trkpt lat="43.720922" lon="-1.391378"><ele>27.7</ele><time>2025-10-22T09:34:35Z</time></trkpt>
<trkpt lat="43.720971" lon="-1.391377"><ele>27.2</ele><time>2025-10-22T09:34:39Z</time></trkpt>
<trkpt lat="43.721026" lon="-1.391374"><ele>27.4</ele><time>2025-10-22T09:34:44Z</time></trkpt>
<trkpt lat="43.721079" lon="-1.391348"><ele>27.8</ele><time>2025-10-22T09:34:49Z</time></trkpt>
<trkpt lat="43.721129" lon="-1.391341"><ele>26.8</ele><time>2025-10-22T09:34:53Z</time></trkpt>
<trkpt lat="43.721186" lon="-1.391334"><ele>29.0</ele><time>2025-10-22T09:34:57Z</time></trkpt>
<trkpt lat="43.721233" lon="-1.391334"><ele>30.3</ele><time>2025-10-22T09:35:01Z</time></trkpt>
<trkpt lat="43.721282" lon="-1.391332"><ele>30.3</ele><time>2025-10-22T09:35:05Z</time></trkpt>
<trkpt lat="43.721328" lon="-1.391347"><ele>30.3</ele><time>2025-10-22T09:35:09Z</time></trkpt>
<trkpt lat="43.721372" lon="-1.391372"><ele>31.1</ele><time>2025-10-22T09:35:13Z</time></trkpt>
<trkpt lat="43.721423" lon="-1.391411"><ele>30.1</ele><time>2025-10-22T09:35:18Z</time></trkpt>
<trkpt lat="43.721464" lon="-1.391452"><ele>29.7</ele><time>2025-10-22T09:35:22Z</time></trkpt>
<trkpt lat="43.721513" lon="-1.391486"><ele>30.1</ele><time>2025-10-22T09:35:26Z</time></trkpt>
<trkpt lat="43.721558" lon="-1.391509"><ele>30.2</ele><time>2025-10-22T09:35:29Z</time></trkpt>
<trkpt lat="43.721612" lon="-1.391534"><ele>29.2</ele><time>2025-10-22T09:35:33Z</time></trkpt>
<trkpt lat="43.721660" lon="-1.391536"><ele>29.2</ele><time>2025-10-22T09:35:37Z</time></trkpt>
<trkpt lat="43.721714" lon="-1.391529"><ele>31.4</ele><time>2025-10-22T09:35:41Z</time></trkpt>
<trkpt lat="43.721763" lon="-1.391502"><ele>29.5</ele><time>2025-10-22T09:35:45Z</time></trkpt>
<trkpt lat="43.721804" lon="-1.391474"><ele>26.5</ele><time>2025-10-22T09:35:49Z</time></trkpt>
<trkpt lat="43.721847" lon="-1.391448"><ele>25.1</ele><time>2025-10-22T09:35:53Z</time></trkpt>
<trkpt lat="43.721888" lon="-1.391418"><ele>24.1</ele><time>2025-10-22T09:35:57Z</time></trkpt>
<trkpt lat="43.721911" lon="-1.391363"><ele>23.9</ele><time>2025-10-22T09:36:01Z</time></trkpt>
<trkpt lat="43.721929" lon="-1.391300"><ele>25.7</ele><time>2025-10-22T09:36:05Z</time></trkpt>
<trkpt lat="43.721958" lon="-1.391253"><ele>25.8</ele><time>2025-10-22T09:36:09Z</time></trkpt>
<trkpt lat="43.721992" lon="-1.391191"><ele>25.8</ele><time>2025-10-22T09:36:14Z</time></trkpt>
<trkpt lat="43.722032" lon="-1.391135"><ele>24.0</ele><time>2025-10-22T09:36:18Z</time></trkpt>
<trkpt lat="43.722063" lon="-1.391077"><ele>22.6</ele><time>2025-10-22T09:36:22Z</time></trkpt>
<trkpt lat="43.722096" lon="-1.391029"><ele>21.6</ele><time>2025-10-22T09:36:26Z</time></trkpt>
<trkpt lat="43.722137" lon="-1.390997"><ele>22.5</ele><time>2025-10-22T09:36:30Z</time></trkpt>
<trkpt lat="43.722183" lon="-1.390961"><ele>20.4</ele><time>2025-10-22T09:36:34Z</time></trkpt>
<trkpt lat="43.722238" lon="-1.390954"><ele>21.6</ele><time>2025-10-22T09:36:38Z</time></trkpt>
<trkpt lat="43.722289" lon="-1.390964"><ele>20.4</ele><time>2025-10-22T09:36:42Z</time></trkpt>
<trkpt lat="43.722341" lon="-1.390979"><ele>23.1</ele><time>2025-10-22T09:36:47Z</time></trkpt>
<trkpt lat="43.722398" lon="-1.390976"><ele>26.2</ele><time>2025-10-22T09:36:52Z</time></trkpt>
<trkpt lat="43.722450" lon="-1.390976"><ele>27.4</ele><time>2025-10-22T09:36:56Z</time></trkpt>
<trkpt lat="43.722497" lon="-1.391011"><ele>26.2</ele><time>2025-10-22T09:37:01Z</time></trkpt>
<trkpt lat="43.722539" lon="-1.391049"><ele>21.7</ele><time>2025-10-22T09:37:05Z</time></trkpt>
<trkpt lat="43.722586" lon="-1.391054"><ele>17.8</ele><time>2025-10-22T09:37:09Z</time></trkpt>
<trkpt lat="43.722637" lon="-1.391034"><ele>17.5</ele><time>2025-10-22T09:37:13Z</time></trkpt>
<trkpt lat="43.722688" lon="-1.391016"><ele>15.1</ele><time>2025-10-22T09:37:17Z</time></trkpt>
<trkpt lat="43.722739" lon="-1.390992"><ele>16.1</ele><time>2025-10-22T09:37:21Z</time></trkpt>
<trkpt lat="43.722793" lon="-1.390985"><ele>20.7</ele><time>2025-10-22T09:37:26Z</time></trkpt>
<trkpt lat="43.722839" lon="-1.390959"><ele>19.8</ele><time>2025-10-22T09:37:30Z</time></trkpt>
<trkpt lat="43.722876" lon="-1.390910"><ele>21.4</ele><time>2025-10-22T09:37:35Z</time></trkpt>
<trkpt lat="43.722898" lon="-1.390852"><ele>23.8</ele><time>2025-10-22T09:37:39Z</time></trkpt>
<trkpt lat="43.722902" lon="-1.390789"><ele>22.9</ele><time>2025-10-22T09:37:43Z</time></trkpt>
<trkpt lat="43.722874" lon="-1.390733"><ele>22.4</ele><time>2025-10-22T09:37:50Z</time></trkpt>
<trkpt lat="43.722853" lon="-1.390671"><ele>22.5</ele><time>2025-10-22T09:37:55Z</time></trkpt>
<trkpt lat="43.722851" lon="-1.390606"><ele>22.3</ele><time>2025-10-22T09:37:59Z</time></trkpt>
<trkpt lat="43.722869" lon="-1.390541"><ele>23.0</ele><time>2025-10-22T09:38:03Z</time></trkpt>
<trkpt lat="43.722870" lon="-1.390468"><ele>26.1</ele><time>2025-10-22T09:38:07Z</time></trkpt>
<trkpt lat="43.722890" lon="-1.390395"><ele>25.2</ele><time>2025-10-22T09:38:11Z</time></trkpt>
<trkpt lat="43.722912" lon="-1.390337"><ele>25.2</ele><time>2025-10-22T09:38:15Z</time></trkpt>
<trkpt lat="43.722925" lon="-1.390269"><ele>23.6</ele><time>2025-10-22T09:38:20Z</time></trkpt>
<trkpt lat="43.722927" lon="-1.390194"><ele>23.3</ele><time>2025-10-22T09:38:25Z</time></trkpt>
<trkpt lat="43.722921" lon="-1.390130"><ele>22.0</ele><time>2025-10-22T09:38:29Z</time></trkpt>
<trkpt lat="43.722924" lon="-1.390065"><ele>20.1</ele><time>2025-10-22T09:38:33Z</time></trkpt>
<trkpt lat="43.722928" lon="-1.389992"><ele>18.9</ele><time>2025-10-22T09:38:37Z</time></trkpt>
<trkpt lat="43.722911" lon="-1.389928"><ele>20.3</ele><time>2025-10-22T09:38:41Z</time></trkpt>
<trkpt lat="43.722898" lon="-1.389853"><ele>21.4</ele><time>2025-10-22T09:38:46Z</time></trkpt>
<trkpt lat="43.722877" lon="-1.389786"><ele>24.2</ele><time>2025-10-22T09:38:51Z</time></trkpt>
<trkpt lat="43.722863" lon="-1.389711"><ele>25.4</ele><time>2025-10-22T09:38:57Z</time></trkpt>
<trkpt lat="43.722864" lon="-1.389643"><ele>24.7</ele><time>2025-10-22T09:39:01Z</time></trkpt>
<trkpt lat="43.722852" lon="-1.389565"><ele>22.3</ele><time>2025-10-22T09:39:06Z</time></trkpt>
<trkpt lat="43.722848" lon="-1.389491"><ele>22.2</ele><time>2025-10-22T09:39:10Z</time></trkpt>
<trkpt lat="43.722846" lon="-1.389416"><ele>21.9</ele><time>2025-10-22T09:39:14Z</time></trkpt>
<trkpt lat="43.722852" lon="-1.389337"><ele>21.1</ele><time>2025-10-22T09:39:18Z</time></trkpt>
<trkpt lat="43.722848" lon="-1.389263"><ele>22.3</ele><time>2025-10-22T09:39:22Z</time></trkpt>
<trkpt lat="43.722839" lon="-1.389200"><ele>21.7</ele><time>2025-10-22T09:39:26Z</time></trkpt>
<trkpt lat="43.722838" lon="-1.389126"><ele>20.9</ele><time>2025-10-22T09:39:30Z</time></trkpt>
<trkpt lat="43.722826" lon="-1.389062"><ele>20.8</ele><time>2025-10-22T09:39:33Z</time></trkpt>
<trkpt lat="43.722815" lon="-1.388988"><ele>21.8</ele><time>2025-10-22T09:39:37Z</time></trkpt>
<trkpt lat="43.722813" lon="-1.388925"><ele>18.6</ele><time>2025-10-22T09:39:41Z</time></trkpt>
<trkpt lat="43.722808" lon="-1.388858"><ele>17.7</ele><time>2025-10-22T09:39:45Z</time></trkpt>
<trkpt lat="43.722787" lon="-1.388796"><ele>20.3</ele><time>2025-10-22T09:39:49Z</time></trkpt>
<trkpt lat="43.722775" lon="-1.388732"><ele>21.7</ele><time>2025-10-22T09:39:53Z</time></trkpt>
<trkpt lat="43.722769" lon="-1.388656"><ele>21.7</ele><time>2025-10-22T09:39:57Z</time></trkpt>
<trkpt lat="43.722769" lon="-1.388578"><ele>23.5</ele><time>2025-10-22T09:40:01Z</time></trkpt>
<trkpt lat="43.722769" lon="-1.388499"><ele>23.1</ele><time>2025-10-22T09:40:05Z</time></trkpt>
<trkpt lat="43.722760" lon="-1.388436"><ele>24.8</ele><time>2025-10-22T09:40:10Z</time></trkpt>
<trkpt lat="43.722764" lon="-1.388372"><ele>26.0</ele><time>2025-10-22T09:40:14Z</time></trkpt>
<trkpt lat="43.722785" lon="-1.388306"><ele>27.5</ele><time>2025-10-22T09:40:18Z</time></trkpt>
<trkpt lat="43.722796" lon="-1.388233"><ele>26.6</ele><time>2025-10-22T09:40:22Z</time></trkpt>
<trkpt lat="43.722821" lon="-1.388177"><ele>23.9</ele><time>2025-10-22T09:40:25Z</time></trkpt>
<trkpt lat="43.722841" lon="-1.388119"><ele>21.6</ele><time>2025-10-22T09:40:28Z</time></trkpt>
<trkpt lat="43.722870" lon="-1.388064"><ele>21.2</ele><time>2025-10-22T09:40:31Z</time></trkpt>
<trkpt lat="43.722894" lon="-1.387998"><ele>21.6</ele><time>2025-10-22T09:40:35Z</time></trkpt>
<trkpt lat="43.722912" lon="-1.387938"><ele>20.7</ele><time>2025-10-22T09:40:39Z</time></trkpt>
<trkpt lat="43.722936" lon="-1.387884"><ele>20.6</ele><time>2025-10-22T09:40:43Z</time></trkpt>
<trkpt lat="43.722961" lon="-1.387821"><ele>19.8</ele><time>2025-10-22T09:40:48Z</time></trkpt>
<trkpt lat="43.722938" lon="-1.387757"><ele>21.5</ele><time>2025-10-22T09:40:52Z</time></trkpt>
<trkpt lat="43.722934" lon="-1.387677"><ele>23.5</ele><time>2025-10-22T09:40:56Z</time></trkpt>
<trkpt lat="43.722931" lon="-1.387597"><ele>24.8</ele><time>2025-10-22T09:41:00Z</time></trkpt>
<trkpt lat="43.722932" lon="-1.387533"><ele>28.8</ele><time>2025-10-22T09:41:06Z</time></trkpt>
<trkpt lat="43.722930" lon="-1.387461"><ele>32.5</ele><time>2025-10-22T09:41:11Z</time></trkpt>
<trkpt lat="43.722945" lon="-1.387394"><ele>33.9</ele><time>2025-10-22T09:41:15Z</time></trkpt>
<trkpt lat="43.722948" lon="-1.387330"><ele>33.0</ele><time>2025-10-22T09:41:19Z</time></trkpt>
<trkpt lat="43.722956" lon="-1.387256"><ele>31.9</ele><time>2025-10-22T09:41:23Z</time></trkpt>
<trkpt lat="43.722966" lon="-1.387191"><ele>32.5</ele><time>2025-10-22T09:41:26Z</time></trkpt>
<trkpt lat="43.722977" lon="-1.387131"><ele>32.7</ele><time>2025-10-22T09:41:29Z</time></trkpt>
<trkpt lat="43.723000" lon="-1.387063"><ele>33.8</ele><time>2025-10-22T09:41:33Z</time></trkpt>
<trkpt lat="43.723013" lon="-1.386989"><ele>32.9</ele><time>2025-10-22T09:41:38Z</time></trkpt>
<trkpt lat="43.723034" lon="-1.386924"><ele>36.7</ele><time>2025-10-22T09:41:42Z</time></trkpt>
<trkpt lat="43.723066" lon="-1.386853"><ele>35.8</ele><time>2025-10-22T09:41:46Z</time></trkpt>
<trkpt lat="43.723062" lon="-1.386789"><ele>34.6</ele><time>2025-10-22T09:41:50Z</time></trkpt>
<trkpt lat="43.723056" lon="-1.386726"><ele>36.3</ele><time>2025-10-22T09:41:54Z</time></trkpt>
<trkpt lat="43.723067" lon="-1.386664"><ele>34.8</ele><time>2025-10-22T09:41:57Z</time></trkpt>
<trkpt lat="43.723075" lon="-1.386601"><ele>34.2</ele><time>2025-10-22T09:42:00Z</time></trkpt>
<trkpt lat="43.723075" lon="-1.386534"><ele>33.5</ele><time>2025-10-22T09:42:03Z</time></trkpt>
<trkpt lat="43.723047" lon="-1.386465"><ele>34.4</ele><time>2025-10-22T09:42:07Z</time></trkpt>
<trkpt lat="43.723018" lon="-1.386404"><ele>33.3</ele><time>2025-10-22T09:42:11Z</time></trkpt>
<trkpt lat="43.722986" lon="-1.386354"><ele>33.0</ele><time>2025-10-22T09:42:15Z</time></trkpt>
<trkpt lat="43.722953" lon="-1.386306"><ele>32.4</ele><time>2025-10-22T09:42:19Z</time></trkpt>
<trkpt lat="43.722927" lon="-1.386246"><ele>30.9</ele><time>2025-10-22T09:42:23Z</time></trkpt>
<trkpt lat="43.722907" lon="-1.386182"><ele>30.1</ele><time>2025-10-22T09:42:27Z</time></trkpt>
<trkpt lat="43.722886" lon="-1.386120"><ele>30.9</ele><time>2025-10-22T09:42:31Z</time></trkpt>
<trkpt lat="43.722866" lon="-1.386053"><ele>31.1</ele><time>2025-10-22T09:42:35Z</time></trkpt>
<trkpt lat="43.722849" lon="-1.385987"><ele>29.5</ele><time>2025-10-22T09:42:39Z</time></trkpt>
<trkpt lat="43.722832" lon="-1.385921"><ele>29.5</ele><time>2025-10-22T09:42:43Z</time></trkpt>
<trkpt lat="43.722814" lon="-1.385856"><ele>29.7</ele><time>2025-10-22T09:42:47Z</time></trkpt>
<trkpt lat="43.722792" lon="-1.385783"><ele>29.7</ele><time>2025-10-22T09:42:51Z</time></trkpt>
<trkpt lat="43.722779" lon="-1.385715"><ele>27.6</ele><time>2025-10-22T09:42:55Z</time></trkpt>
<trkpt lat="43.722755" lon="-1.385656"><ele>28.1</ele><time>2025-10-22T09:42:59Z</time></trkpt>
<trkpt lat="43.722735" lon="-1.385590"><ele>26.7</ele><time>2025-10-22T09:43:04Z</time></trkpt>
<trkpt lat="43.722689" lon="-1.385565"><ele>22.4</ele><time>2025-10-22T09:43:16Z</time></trkpt>
<trkpt lat="43.722643" lon="-1.385587"><ele>20.4</ele><time>2025-10-22T09:43:24Z</time></trkpt>
<trkpt lat="43.722606" lon="-1.385627"><ele>20.9</ele><time>2025-10-22T09:43:30Z</time></trkpt>
<trkpt lat="43.722574" lon="-1.385672"><ele>23.2</ele><time>2025-10-22T09:43:36Z</time></trkpt>
<trkpt lat="43.722525" lon="-1.385682"><ele>22.5</ele><time>2025-10-22T09:43:45Z</time></trkpt>
<trkpt lat="43.722481" lon="-1.385712"><ele>21.9</ele><time>2025-10-22T09:43:51Z</time></trkpt>
<trkpt lat="43.722438" lon="-1.385738"><ele>20.8</ele><time>2025-10-22T09:43:59Z</time></trkpt>
<trkpt lat="43.722388" lon="-1.385756"><ele>21.0</ele><time>2025-10-22T09:44:07Z</time></trkpt>
<trkpt lat="43.722345" lon="-1.385731"><ele>18.9</ele><time>2025-10-22T09:44:22Z</time></trkpt>
<trkpt lat="43.722375" lon="-1.385680"><ele>18.6</ele><time>2025-10-22T09:45:29Z</time></trkpt>
<trkpt lat="43.722420" lon="-1.385646"><ele>17.9</ele><time>2025-10-22T09:45:35Z</time></trkpt>
<trkpt lat="43.722451" lon="-1.385594"><ele>17.9</ele><time>2025-10-22T09:45:41Z</time></trkpt>
<trkpt lat="43.722470" lon="-1.385535"><ele>18.7</ele><time>2025-10-22T09:45:47Z</time></trkpt>
<trkpt lat="43.722506" lon="-1.385490"><ele>22.1</ele><time>2025-10-22T09:45:57Z</time></trkpt>
<trkpt lat="43.722544" lon="-1.385454"><ele>22.8</ele><time>2025-10-22T09:46:04Z</time></trkpt>
<trkpt lat="43.722571" lon="-1.385401"><ele>20.5</ele><time>2025-10-22T09:46:10Z</time></trkpt>
<trkpt lat="43.722615" lon="-1.385353"><ele>20.8</ele><time>2025-10-22T09:46:16Z</time></trkpt>
<trkpt lat="43.722661" lon="-1.385309"><ele>20.8</ele><time>2025-10-22T09:46:21Z</time></trkpt>
<trkpt lat="43.722657" lon="-1.385243"><ele>23.8</ele><time>2025-10-22T09:47:09Z</time></trkpt>
<trkpt lat="43.722634" lon="-1.385187"><ele>25.2</ele><time>2025-10-22T09:47:15Z</time></trkpt>
<trkpt lat="43.722621" lon="-1.385113"><ele>23.6</ele><time>2025-10-22T09:47:21Z</time></trkpt>
<trkpt lat="43.722603" lon="-1.385049"><ele>23.3</ele><time>2025-10-22T09:47:26Z</time></trkpt>
<trkpt lat="43.722578" lon="-1.384992"><ele>22.9</ele><time>2025-10-22T09:47:32Z</time></trkpt>
<trkpt lat="43.722580" lon="-1.384925"><ele>21.3</ele><time>2025-10-22T09:47:36Z</time></trkpt>
<trkpt lat="43.722582" lon="-1.384852"><ele>21.3</ele><time>2025-10-22T09:47:40Z</time></trkpt>
<trkpt lat="43.722581" lon="-1.384784"><ele>21.5</ele><time>2025-10-22T09:47:44Z</time></trkpt>
<trkpt lat="43.722578" lon="-1.384715"><ele>20.1</ele><time>2025-10-22T09:47:49Z</time></trkpt>
<trkpt lat="43.722563" lon="-1.384644"><ele>21.0</ele><time>2025-10-22T09:47:54Z</time></trkpt>
<trkpt lat="43.722544" lon="-1.384570"><ele>22.9</ele><time>2025-10-22T09:47:59Z</time></trkpt>
<trkpt lat="43.722544" lon="-1.384496"><ele>24.2</ele><time>2025-10-22T09:48:03Z</time></trkpt>
<trkpt lat="43.722548" lon="-1.384426"><ele>23.4</ele><time>2025-10-22T09:48:08Z</time></trkpt>
<trkpt lat="43.722551" lon="-1.384360"><ele>22.7</ele><time>2025-10-22T09:48:13Z</time></trkpt>
<trkpt lat="43.722559" lon="-1.384293"><ele>21.4</ele><time>2025-10-22T09:48:18Z</time></trkpt>
<trkpt lat="43.722565" lon="-1.384221"><ele>22.7</ele><time>2025-10-22T09:48:22Z</time></trkpt>
<trkpt lat="43.722572" lon="-1.384145"><ele>22.5</ele><time>2025-10-22T09:48:26Z</time></trkpt>
<trkpt lat="43.722568" lon="-1.384072"><ele>24.1</ele><time>2025-10-22T09:48:31Z</time></trkpt>
<trkpt lat="43.722559" lon="-1.384008"><ele>23.0</ele><time>2025-10-22T09:48:36Z</time></trkpt>
<trkpt lat="43.722554" lon="-1.383939"><ele>23.5</ele><time>2025-10-22T09:48:41Z</time></trkpt>
<trkpt lat="43.722542" lon="-1.383869"><ele>23.1</ele><time>2025-10-22T09:48:46Z</time></trkpt>
<trkpt lat="43.722529" lon="-1.383792"><ele>23.4</ele><time>2025-10-22T09:48:51Z</time></trkpt>
<trkpt lat="43.722518" lon="-1.383730"><ele>22.7</ele><time>2025-10-22T09:48:55Z</time></trkpt>
<trkpt lat="43.722506" lon="-1.383654"><ele>22.2</ele><time>2025-10-22T09:49:00Z</time></trkpt>
<trkpt lat="43.722489" lon="-1.383596"><ele>21.5</ele><time>2025-10-22T09:49:04Z</time></trkpt>
<trkpt lat="43.722474" lon="-1.383533"><ele>19.4</ele><time>2025-10-22T09:49:08Z</time></trkpt>
<trkpt lat="43.722458" lon="-1.383474"><ele>21.7</ele><time>2025-10-22T09:49:12Z</time></trkpt>
<trkpt lat="43.722443" lon="-1.383408"><ele>22.5</ele><time>2025-10-22T09:49:16Z</time></trkpt>
<trkpt lat="43.722425" lon="-1.383349"><ele>23.1</ele><time>2025-10-22T09:49:20Z</time></trkpt>
<trkpt lat="43.722416" lon="-1.383274"><ele>22.4</ele><time>2025-10-22T09:49:25Z</time></trkpt>
<trkpt lat="43.722397" lon="-1.383208"><ele>22.3</ele><time>2025-10-22T09:49:29Z</time></trkpt>
<trkpt lat="43.722381" lon="-1.383146"><ele>20.8</ele><time>2025-10-22T09:49:33Z</time></trkpt>
<trkpt lat="43.722365" lon="-1.383086"><ele>20.3</ele><time>2025-10-22T09:49:37Z</time></trkpt>
<trkpt lat="43.722346" lon="-1.383019"><ele>23.5</ele><time>2025-10-22T09:49:41Z</time></trkpt>
<trkpt lat="43.722328" lon="-1.382948"><ele>24.4</ele><time>2025-10-22T09:49:45Z</time></trkpt>
<trkpt lat="43.722314" lon="-1.382885"><ele>22.4</ele><time>2025-10-22T09:49:49Z</time></trkpt>
<trkpt lat="43.722301" lon="-1.382811"><ele>20.6</ele><time>2025-10-22T09:49:53Z</time></trkpt>
<trkpt lat="43.722293" lon="-1.382747"><ele>20.4</ele><time>2025-10-22T09:49:57Z</time></trkpt>
<trkpt lat="43.722278" lon="-1.382683"><ele>20.9</ele><time>2025-10-22T09:50:01Z</time></trkpt>
<trkpt lat="43.722263" lon="-1.382615"><ele>22.3</ele><time>2025-10-22T09:50:06Z</time></trkpt>
<trkpt lat="43.722237" lon="-1.382559"><ele>22.8</ele><time>2025-10-22T09:50:11Z</time></trkpt>
<trkpt lat="43.722227" lon="-1.382493"><ele>21.8</ele><time>2025-10-22T09:50:15Z</time></trkpt>
<trkpt lat="43.722216" lon="-1.382429"><ele>21.6</ele><time>2025-10-22T09:50:19Z</time></trkpt>
<trkpt lat="43.722219" lon="-1.382351"><ele>21.8</ele><time>2025-10-22T09:50:23Z</time></trkpt>
<trkpt lat="43.722218" lon="-1.382273"><ele>21.6</ele><time>2025-10-22T09:50:27Z</time></trkpt>
<trkpt lat="43.722198" lon="-1.382205"><ele>22.2</ele><time>2025-10-22T09:50:30Z</time></trkpt>
<trkpt lat="43.722185" lon="-1.382136"><ele>21.4</ele><time>2025-10-22T09:50:34Z</time></trkpt>
<trkpt lat="43.722174" lon="-1.382067"><ele>22.6</ele><time>2025-10-22T09:50:38Z</time></trkpt>
<trkpt lat="43.722148" lon="-1.382001"><ele>24.2</ele><time>2025-10-22T09:50:42Z</time></trkpt>
<trkpt lat="43.722116" lon="-1.381941"><ele>25.4</ele><time>2025-10-22T09:50:46Z</time></trkpt>
<trkpt lat="43.722101" lon="-1.381881"><ele>24.7</ele><time>2025-10-22T09:50:49Z</time></trkpt>
<trkpt lat="43.722087" lon="-1.381808"><ele>22.8</ele><time>2025-10-22T09:50:53Z</time></trkpt>
<trkpt lat="43.722071" lon="-1.381740"><ele>23.8</ele><time>2025-10-22T09:50:57Z</time></trkpt>
<trkpt lat="43.722056" lon="-1.381670"><ele>23.5</ele><time>2025-10-22T09:51:01Z</time></trkpt>
<trkpt lat="43.722038" lon="-1.381608"><ele>23.8</ele><time>2025-10-22T09:51:05Z</time></trkpt>
<trkpt lat="43.722017" lon="-1.381549"><ele>22.9</ele><time>2025-10-22T09:51:09Z</time></trkpt>
<trkpt lat="43.721998" lon="-1.381491"><ele>24.4</ele><time>2025-10-22T09:51:13Z</time></trkpt>
<trkpt lat="43.721976" lon="-1.381420"><ele>24.2</ele><time>2025-10-22T09:51:18Z</time></trkpt>
<trkpt lat="43.721959" lon="-1.381353"><ele>23.6</ele><time>2025-10-22T09:51:22Z</time></trkpt>
<trkpt lat="43.721931" lon="-1.381288"><ele>24.3</ele><time>2025-10-22T09:51:26Z</time></trkpt>
<trkpt lat="43.721908" lon="-1.381227"><ele>24.1</ele><time>2025-10-22T09:51:30Z</time></trkpt>
<trkpt lat="43.721887" lon="-1.381159"><ele>23.1</ele><time>2025-10-22T09:51:34Z</time></trkpt>
<trkpt lat="43.721869" lon="-1.381094"><ele>22.9</ele><time>2025-10-22T09:51:38Z</time></trkpt>
<trkpt lat="43.721852" lon="-1.381029"><ele>23.1</ele><time>2025-10-22T09:51:42Z</time></trkpt>
<trkpt lat="43.721839" lon="-1.380968"><ele>22.6</ele><time>2025-10-22T09:51:46Z</time></trkpt>
<trkpt lat="43.721822" lon="-1.380906"><ele>23.4</ele><time>2025-10-22T09:51:50Z</time></trkpt>
<trkpt lat="43.721811" lon="-1.380842"><ele>20.6</ele><time>2025-10-22T09:51:54Z</time></trkpt>
<trkpt lat="43.721805" lon="-1.380773"><ele>20.3</ele><time>2025-10-22T09:51:59Z</time></trkpt>
<trkpt lat="43.721801" lon="-1.380702"><ele>20.0</ele><time>2025-10-22T09:52:03Z</time></trkpt>
<trkpt lat="43.721795" lon="-1.380637"><ele>20.2</ele><time>2025-10-22T09:52:07Z</time></trkpt>
<trkpt lat="43.721792" lon="-1.380564"><ele>19.1</ele><time>2025-10-22T09:52:11Z</time></trkpt>
<trkpt lat="43.721785" lon="-1.380493"><ele>18.4</ele><time>2025-10-22T09:52:15Z</time></trkpt>
<trkpt lat="43.721781" lon="-1.380421"><ele>17.9</ele><time>2025-10-22T09:52:19Z</time></trkpt>
<trkpt lat="43.721787" lon="-1.380348"><ele>16.8</ele><time>2025-10-22T09:52:23Z</time></trkpt>
<trkpt lat="43.721785" lon="-1.380276"><ele>16.5</ele><time>2025-10-22T09:52:27Z</time></trkpt>
<trkpt lat="43.721782" lon="-1.380200"><ele>14.7</ele><time>2025-10-22T09:52:31Z</time></trkpt>
<trkpt lat="43.721778" lon="-1.380123"><ele>13.8</ele><time>2025-10-22T09:52:35Z</time></trkpt>
<trkpt lat="43.721769" lon="-1.380051"><ele>13.2</ele><time>2025-10-22T09:52:39Z</time></trkpt>
<trkpt lat="43.721754" lon="-1.379982"><ele>12.6</ele><time>2025-10-22T09:52:43Z</time></trkpt>
<trkpt lat="43.721727" lon="-1.379917"><ele>12.4</ele><time>2025-10-22T09:52:47Z</time></trkpt>
<trkpt lat="43.721701" lon="-1.379856"><ele>12.9</ele><time>2025-10-22T09:52:51Z</time></trkpt>
<trkpt lat="43.721667" lon="-1.379811"><ele>13.1</ele><time>2025-10-22T09:52:55Z</time></trkpt>
<trkpt lat="43.721622" lon="-1.379768"><ele>12.5</ele><time>2025-10-22T09:53:00Z</time></trkpt>
<trkpt lat="43.721585" lon="-1.379727"><ele>12.7</ele><time>2025-10-22T09:53:04Z</time></trkpt>
<trkpt lat="43.721548" lon="-1.379684"><ele>12.3</ele><time>2025-10-22T09:53:08Z</time></trkpt>
<trkpt lat="43.721511" lon="-1.379637"><ele>12.4</ele><time>2025-10-22T09:53:12Z</time></trkpt>
<trkpt lat="43.721475" lon="-1.379587"><ele>12.6</ele><time>2025-10-22T09:53:16Z</time></trkpt>
<trkpt lat="43.721441" lon="-1.379535"><ele>13.3</ele><time>2025-10-22T09:53:20Z</time></trkpt>
<trkpt lat="43.721406" lon="-1.379483"><ele>13.0</ele><time>2025-10-22T09:53:24Z</time></trkpt>
<trkpt lat="43.721376" lon="-1.379422"><ele>13.0</ele><time>2025-10-22T09:53:28Z</time></trkpt>
<trkpt lat="43.721349" lon="-1.379367"><ele>13.1</ele><time>2025-10-22T09:53:32Z</time></trkpt>
<trkpt lat="43.721327" lon="-1.379303"><ele>13.4</ele><time>2025-10-22T09:53:36Z</time></trkpt>
<trkpt lat="43.721299" lon="-1.379239"><ele>13.2</ele><time>2025-10-22T09:53:40Z</time></trkpt>
<trkpt lat="43.721272" lon="-1.379181"><ele>13.9</ele><time>2025-10-22T09:53:44Z</time></trkpt>
<trkpt lat="43.721267" lon="-1.379111"><ele>14.0</ele><time>2025-10-22T09:53:48Z</time></trkpt>
<trkpt lat="43.721246" lon="-1.379042"><ele>14.1</ele><time>2025-10-22T09:53:52Z</time></trkpt>
<trkpt lat="43.721227" lon="-1.378976"><ele>14.2</ele><time>2025-10-22T09:53:56Z</time></trkpt>
<trkpt lat="43.721214" lon="-1.378910"><ele>13.9</ele><time>2025-10-22T09:54:00Z</time></trkpt>
<trkpt lat="43.721194" lon="-1.378847"><ele>13.6</ele><time>2025-10-22T09:54:04Z</time></trkpt>
<trkpt lat="43.721170" lon="-1.378785"><ele>13.4</ele><time>2025-10-22T09:54:08Z</time></trkpt>
<trkpt lat="43.721140" lon="-1.378723"><ele>14.0</ele><time>2025-10-22T09:54:12Z</time></trkpt>
<trkpt lat="43.721100" lon="-1.378674"><ele>15.0</ele><time>2025-10-22T09:54:16Z</time></trkpt>
<trkpt lat="43.721069" lon="-1.378615"><ele>13.8</ele><time>2025-10-22T09:54:20Z</time></trkpt>
<trkpt lat="43.721037" lon="-1.378560"><ele>14.0</ele><time>2025-10-22T09:54:24Z</time></trkpt>
<trkpt lat="43.721014" lon="-1.378494"><ele>14.0</ele><time>2025-10-22T09:54:28Z</time></trkpt>
<trkpt lat="43.720997" lon="-1.378419"><ele>13.4</ele><time>2025-10-22T09:54:32Z</time></trkpt>
<trkpt lat="43.720973" lon="-1.378359"><ele>14.0</ele><time>2025-10-22T09:54:36Z</time></trkpt>
<trkpt lat="43.720950" lon="-1.378302"><ele>14.0</ele><time>2025-10-22T09:54:40Z</time></trkpt>
<trkpt lat="43.720929" lon="-1.378238"><ele>13.9</ele><time>2025-10-22T09:54:44Z</time></trkpt>
<trkpt lat="43.720930" lon="-1.378166"><ele>12.0</ele><time>2025-10-22T09:54:48Z</time></trkpt>
<trkpt lat="43.720941" lon="-1.378092"><ele>11.8</ele><time>2025-10-22T09:54:52Z</time></trkpt>
<trkpt lat="43.720965" lon="-1.378028"><ele>11.0</ele><time>2025-10-22T09:54:56Z</time></trkpt>
<trkpt lat="43.720990" lon="-1.377966"><ele>10.0</ele><time>2025-10-22T09:55:00Z</time></trkpt>
<trkpt lat="43.721006" lon="-1.377896"><ele>10.2</ele><time>2025-10-22T09:55:04Z</time></trkpt>
<trkpt lat="43.721015" lon="-1.377833"><ele>11.1</ele><time>2025-10-22T09:55:08Z</time></trkpt>
<trkpt lat="43.721013" lon="-1.377767"><ele>11.9</ele><time>2025-10-22T09:55:12Z</time></trkpt>
<trkpt lat="43.721005" lon="-1.377701"><ele>13.0</ele><time>2025-10-22T09:55:16Z</time></trkpt>
<trkpt lat="43.720997" lon="-1.377628"><ele>14.9</ele><time>2025-10-22T09:55:21Z</time></trkpt>
<trkpt lat="43.720976" lon="-1.377562"><ele>16.7</ele><time>2025-10-22T09:55:26Z</time></trkpt>
<trkpt lat="43.720950" lon="-1.377510"><ele>18.4</ele><time>2025-10-22T09:55:30Z</time></trkpt>
<trkpt lat="43.720927" lon="-1.377450"><ele>18.9</ele><time>2025-10-22T09:55:34Z</time></trkpt>
<trkpt lat="43.720908" lon="-1.377381"><ele>19.0</ele><time>2025-10-22T09:55:38Z</time></trkpt>
<trkpt lat="43.720895" lon="-1.377311"><ele>19.5</ele><time>2025-10-22T09:55:42Z</time></trkpt>
<trkpt lat="43.720890" lon="-1.377241"><ele>18.4</ele><time>2025-10-22T09:55:46Z</time></trkpt>
<trkpt lat="43.720888" lon="-1.377173"><ele>18.6</ele><time>2025-10-22T09:55:50Z</time></trkpt>
<trkpt lat="43.720876" lon="-1.377109"><ele>19.7</ele><time>2025-10-22T09:55:54Z</time></trkpt>
<trkpt lat="43.720869" lon="-1.377038"><ele>20.4</ele><time>2025-10-22T09:55:58Z</time></trkpt>
<trkpt lat="43.720861" lon="-1.376970"><ele>20.1</ele><time>2025-10-22T09:56:02Z</time></trkpt>
<trkpt lat="43.720850" lon="-1.376895"><ele>20.9</ele><time>2025-10-22T09:56:07Z</time></trkpt>
<trkpt lat="43.720842" lon="-1.376815"><ele>21.6</ele><time>2025-10-22T09:56:12Z</time></trkpt>
<trkpt lat="43.720817" lon="-1.376757"><ele>24.5</ele><time>2025-10-22T09:56:18Z</time></trkpt>
<trkpt lat="43.720809" lon="-1.376688"><ele>25.2</ele><time>2025-10-22T09:56:23Z</time></trkpt>
<trkpt lat="43.720813" lon="-1.376621"><ele>24.8</ele><time>2025-10-22T09:56:27Z</time></trkpt>
<trkpt lat="43.720808" lon="-1.376552"><ele>24.0</ele><time>2025-10-22T09:56:30Z</time></trkpt>
<trkpt lat="43.720797" lon="-1.376476"><ele>25.3</ele><time>2025-10-22T09:56:34Z</time></trkpt>
<trkpt lat="43.720790" lon="-1.376408"><ele>25.1</ele><time>2025-10-22T09:56:38Z</time></trkpt>
<trkpt lat="43.720764" lon="-1.376341"><ele>25.9</ele><time>2025-10-22T09:56:43Z</time></trkpt>
<trkpt lat="43.720743" lon="-1.376269"><ele>25.2</ele><time>2025-10-22T09:56:48Z</time></trkpt>
<trkpt lat="43.720723" lon="-1.376205"><ele>24.4</ele><time>2025-10-22T09:56:52Z</time></trkpt>
<trkpt lat="43.720700" lon="-1.376143"><ele>24.5</ele><time>2025-10-22T09:56:57Z</time></trkpt>
<trkpt lat="43.720682" lon="-1.376079"><ele>25.0</ele><time>2025-10-22T09:57:01Z</time></trkpt>
<trkpt lat="43.720654" lon="-1.376018"><ele>26.9</ele><time>2025-10-22T09:57:05Z</time></trkpt>
<trkpt lat="43.720636" lon="-1.375952"><ele>26.3</ele><time>2025-10-22T09:57:09Z</time></trkpt>
<trkpt lat="43.720621" lon="-1.375883"><ele>25.1</ele><time>2025-10-22T09:57:13Z</time></trkpt>
<trkpt lat="43.720597" lon="-1.375823"><ele>26.3</ele><time>2025-10-22T09:57:17Z</time></trkpt>
<trkpt lat="43.720584" lon="-1.375750"><ele>26.6</ele><time>2025-10-22T09:57:21Z</time></trkpt>
<trkpt lat="43.720588" lon="-1.375668"><ele>26.1</ele><time>2025-10-22T09:57:25Z</time></trkpt>
<trkpt lat="43.720591" lon="-1.375590"><ele>24.7</ele><time>2025-10-22T09:57:29Z</time></trkpt>
<trkpt lat="43.720592" lon="-1.375518"><ele>24.5</ele><time>2025-10-22T09:57:33Z</time></trkpt>
<trkpt lat="43.720605" lon="-1.375450"><ele>23.1</ele><time>2025-10-22T09:57:37Z</time></trkpt>
<trkpt lat="43.720614" lon="-1.375377"><ele>22.4</ele><time>2025-10-22T09:57:41Z</time></trkpt>
<trkpt lat="43.720620" lon="-1.375300"><ele>21.6</ele><time>2025-10-22T09:57:45Z</time></trkpt>
<trkpt lat="43.720631" lon="-1.375229"><ele>20.8</ele><time>2025-10-22T09:57:49Z</time></trkpt>
<trkpt lat="43.720634" lon="-1.375157"><ele>23.4</ele><time>2025-10-22T09:57:54Z</time></trkpt>
<trkpt lat="43.720633" lon="-1.375093"><ele>23.8</ele><time>2025-10-22T09:57:58Z</time></trkpt>
<trkpt lat="43.720619" lon="-1.375021"><ele>22.5</ele><time>2025-10-22T09:58:02Z</time></trkpt>
<trkpt lat="43.720594" lon="-1.374956"><ele>23.7</ele><time>2025-10-22T09:58:07Z</time></trkpt>
<trkpt lat="43.720578" lon="-1.374884"><ele>21.5</ele><time>2025-10-22T09:58:11Z</time></trkpt>
<trkpt lat="43.720565" lon="-1.374816"><ele>21.3</ele><time>2025-10-22T09:58:15Z</time></trkpt>
<trkpt lat="43.720550" lon="-1.374750"><ele>20.6</ele><time>2025-10-22T09:58:20Z</time></trkpt>
<trkpt lat="43.720549" lon="-1.374680"><ele>20.3</ele><time>2025-10-22T09:58:24Z</time></trkpt>
<trkpt lat="43.720551" lon="-1.374607"><ele>20.0</ele><time>2025-10-22T09:58:29Z</time></trkpt>
<trkpt lat="43.720554" lon="-1.374542"><ele>20.4</ele><time>2025-10-22T09:58:33Z</time></trkpt>
<trkpt lat="43.720549" lon="-1.374467"><ele>21.9</ele><time>2025-10-22T09:58:38Z</time></trkpt>
<trkpt lat="43.720548" lon="-1.374401"><ele>22.7</ele><time>2025-10-22T09:58:42Z</time></trkpt>
<trkpt lat="43.720546" lon="-1.374333"><ele>23.6</ele><time>2025-10-22T09:58:46Z</time></trkpt>
<trkpt lat="43.720541" lon="-1.374264"><ele>23.5</ele><time>2025-10-22T09:58:50Z</time></trkpt>
<trkpt lat="43.720547" lon="-1.374190"><ele>23.3</ele><time>2025-10-22T09:58:54Z</time></trkpt>
<trkpt lat="43.720548" lon="-1.374125"><ele>23.4</ele><time>2025-10-22T09:58:58Z</time></trkpt>
<trkpt lat="43.720533" lon="-1.374066"><ele>24.6</ele><time>2025-10-22T09:59:03Z</time></trkpt>
<trkpt lat="43.720507" lon="-1.374002"><ele>25.8</ele><time>2025-10-22T09:59:09Z</time></trkpt>
<trkpt lat="43.720501" lon="-1.373924"><ele>25.2</ele><time>2025-10-22T09:59:15Z</time></trkpt>
<trkpt lat="43.720480" lon="-1.373859"><ele>25.8</ele><time>2025-10-22T09:59:20Z</time></trkpt>
<trkpt lat="43.720455" lon="-1.373801"><ele>25.9</ele><time>2025-10-22T09:59:24Z</time></trkpt>
<trkpt lat="43.720425" lon="-1.373739"><ele>27.9</ele><time>2025-10-22T09:59:29Z</time></trkpt>
<trkpt lat="43.720397" lon="-1.373685"><ele>27.6</ele><time>2025-10-22T09:59:34Z</time></trkpt>
<trkpt lat="43.720370" lon="-1.373634"><ele>28.1</ele><time>2025-10-22T09:59:38Z</time></trkpt>
<trkpt lat="43.720352" lon="-1.373577"><ele>28.3</ele><time>2025-10-22T09:59:42Z</time></trkpt>
<trkpt lat="43.720337" lon="-1.373518"><ele>27.4</ele><time>2025-10-22T09:59:46Z</time></trkpt>
<trkpt lat="43.720314" lon="-1.373455"><ele>27.7</ele><time>2025-10-22T09:59:51Z</time></trkpt>
<trkpt lat="43.720295" lon="-1.373383"><ele>27.6</ele><time>2025-10-22T09:59:56Z</time></trkpt>
<trkpt lat="43.720281" lon="-1.373319"><ele>28.7</ele><time>2025-10-22T10:00:00Z</time></trkpt>
<trkpt lat="43.720277" lon="-1.373244"><ele>28.5</ele><time>2025-10-22T10:00:05Z</time></trkpt>
<trkpt lat="43.720281" lon="-1.373170"><ele>27.2</ele><time>2025-10-22T10:00:09Z</time></trkpt>
<trkpt lat="43.720280" lon="-1.373099"><ele>27.0</ele><time>2025-10-22T10:00:13Z</time></trkpt>
<trkpt lat="43.720275" lon="-1.373032"><ele>27.9</ele><time>2025-10-22T10:00:17Z</time></trkpt>
<trkpt lat="43.720260" lon="-1.372964"><ele>28.5</ele><time>2025-10-22T10:00:22Z</time></trkpt>
<trkpt lat="43.720243" lon="-1.372904"><ele>28.9</ele><time>2025-10-22T10:00:27Z</time></trkpt>
<trkpt lat="43.720220" lon="-1.372845"><ele>30.3</ele><time>2025-10-22T10:00:32Z</time></trkpt>
<trkpt lat="43.720194" lon="-1.372781"><ele>33.8</ele><time>2025-10-22T10:00:37Z</time></trkpt>
<trkpt lat="43.720167" lon="-1.372715"><ele>36.2</ele><time>2025-10-22T10:00:42Z</time></trkpt>
<trkpt lat="43.720133" lon="-1.372662"><ele>39.3</ele><time>2025-10-22T10:00:47Z</time></trkpt>
<trkpt lat="43.720100" lon="-1.372603"><ele>40.4</ele><time>2025-10-22T10:00:52Z</time></trkpt>
<trkpt lat="43.720074" lon="-1.372536"><ele>41.0</ele><time>2025-10-22T10:00:57Z</time></trkpt>
<trkpt lat="43.720049" lon="-1.372471"><ele>41.1</ele><time>2025-10-22T10:01:02Z</time></trkpt>
<trkpt lat="43.720018" lon="-1.372416"><ele>39.3</ele><time>2025-10-22T10:01:08Z</time></trkpt>
<trkpt lat="43.720014" lon="-1.372340"><ele>36.5</ele><time>2025-10-22T10:01:46Z</time></trkpt>
<trkpt lat="43.719996" lon="-1.372269"><ele>37.9</ele><time>2025-10-22T10:01:52Z</time></trkpt>
<trkpt lat="43.719983" lon="-1.372207"><ele>38.1</ele><time>2025-10-22T10:01:57Z</time></trkpt>
<trkpt lat="43.719973" lon="-1.372142"><ele>38.0</ele><time>2025-10-22T10:02:02Z</time></trkpt>
<trkpt lat="43.719963" lon="-1.372074"><ele>37.6</ele><time>2025-10-22T10:02:07Z</time></trkpt>
<trkpt lat="43.719954" lon="-1.372009"><ele>36.3</ele><time>2025-10-22T10:02:12Z</time></trkpt>
<trkpt lat="43.719935" lon="-1.371952"><ele>36.3</ele><time>2025-10-22T10:02:16Z</time></trkpt>
<trkpt lat="43.719916" lon="-1.371893"><ele>35.7</ele><time>2025-10-22T10:02:20Z</time></trkpt>
<trkpt lat="43.719901" lon="-1.371828"><ele>36.4</ele><time>2025-10-22T10:02:25Z</time></trkpt>
<trkpt lat="43.719883" lon="-1.371767"><ele>36.5</ele><time>2025-10-22T10:02:30Z</time></trkpt>
<trkpt lat="43.719866" lon="-1.371701"><ele>36.9</ele><time>2025-10-22T10:02:35Z</time></trkpt>
<trkpt lat="43.719861" lon="-1.371629"><ele>35.3</ele><time>2025-10-22T10:02:39Z</time></trkpt>
<trkpt lat="43.719865" lon="-1.371561"><ele>33.6</ele><time>2025-10-22T10:02:43Z</time></trkpt>
<trkpt lat="43.719877" lon="-1.371498"><ele>31.6</ele><time>2025-10-22T10:02:47Z</time></trkpt>
<trkpt lat="43.719883" lon="-1.371430"><ele>31.9</ele><time>2025-10-22T10:02:51Z</time></trkpt>
<trkpt lat="43.719889" lon="-1.371361"><ele>31.2</ele><time>2025-10-22T10:02:55Z</time></trkpt>
<trkpt lat="43.719905" lon="-1.371296"><ele>30.5</ele><time>2025-10-22T10:02:59Z</time></trkpt>
<trkpt lat="43.719934" lon="-1.371237"><ele>26.4</ele><time>2025-10-22T10:03:03Z</time></trkpt>
<trkpt lat="43.719946" lon="-1.371161"><ele>24.5</ele><time>2025-10-22T10:03:08Z</time></trkpt>
<trkpt lat="43.719956" lon="-1.371099"><ele>24.6</ele><time>2025-10-22T10:03:12Z</time></trkpt>
<trkpt lat="43.719976" lon="-1.371033"><ele>24.0</ele><time>2025-10-22T10:03:16Z</time></trkpt>
<trkpt lat="43.719985" lon="-1.370961"><ele>22.9</ele><time>2025-10-22T10:03:20Z</time></trkpt>
<trkpt lat="43.719991" lon="-1.370893"><ele>24.1</ele><time>2025-10-22T10:03:24Z</time></trkpt>
<trkpt lat="43.719983" lon="-1.370816"><ele>26.0</ele><time>2025-10-22T10:03:29Z</time></trkpt>
<trkpt lat="43.719973" lon="-1.370748"><ele>26.6</ele><time>2025-10-22T10:03:33Z</time></trkpt>
<trkpt lat="43.719979" lon="-1.370679"><ele>26.6</ele><time>2025-10-22T10:03:37Z</time></trkpt>
<trkpt lat="43.719974" lon="-1.370607"><ele>27.9</ele><time>2025-10-22T10:03:42Z</time></trkpt>
<trkpt lat="43.719991" lon="-1.370539"><ele>26.7</ele><time>2025-10-22T10:03:47Z</time></trkpt>
<trkpt lat="43.720030" lon="-1.370481"><ele>24.5</ele><time>2025-10-22T10:03:51Z</time></trkpt>
<trkpt lat="43.720066" lon="-1.370427"><ele>23.3</ele><time>2025-10-22T10:03:55Z</time></trkpt>
<trkpt lat="43.720039" lon="-1.370376"><ele>24.3</ele><time>2025-10-22T10:03:59Z</time></trkpt>
<trkpt lat="43.719991" lon="-1.370364"><ele>23.5</ele><time>2025-10-22T10:04:03Z</time></trkpt>
<trkpt lat="43.719939" lon="-1.370359"><ele>23.3</ele><time>2025-10-22T10:04:08Z</time></trkpt>
<trkpt lat="43.719890" lon="-1.370335"><ele>24.0</ele><time>2025-10-22T10:04:13Z</time></trkpt>
<trkpt lat="43.719850" lon="-1.370304"><ele>23.8</ele><time>2025-10-22T10:04:17Z</time></trkpt>
<trkpt lat="43.719810" lon="-1.370270"><ele>22.7</ele><time>2025-10-22T10:04:21Z</time></trkpt>
<trkpt lat="43.719772" lon="-1.370229"><ele>21.3</ele><time>2025-10-22T10:04:25Z</time></trkpt>
<trkpt lat="43.719730" lon="-1.370204"><ele>19.8</ele><time>2025-10-22T10:04:29Z</time></trkpt>
<trkpt lat="43.719686" lon="-1.370167"><ele>18.0</ele><time>2025-10-22T10:04:33Z</time></trkpt>
<trkpt lat="43.719636" lon="-1.370134"><ele>18.8</ele><time>2025-10-22T10:04:38Z</time></trkpt>
<trkpt lat="43.719603" lon="-1.370090"><ele>18.0</ele><time>2025-10-22T10:04:42Z</time></trkpt>
<trkpt lat="43.719566" lon="-1.370045"><ele>16.8</ele><time>2025-10-22T10:04:46Z</time></trkpt>
<trkpt lat="43.719531" lon="-1.369998"><ele>16.1</ele><time>2025-10-22T10:04:50Z</time></trkpt>
<trkpt lat="43.719489" lon="-1.369970"><ele>16.0</ele><time>2025-10-22T10:04:54Z</time></trkpt>
<trkpt lat="43.719445" lon="-1.369940"><ele>16.0</ele><time>2025-10-22T10:04:58Z</time></trkpt>
<trkpt lat="43.719401" lon="-1.369907"><ele>14.8</ele><time>2025-10-22T10:05:02Z</time></trkpt>
<trkpt lat="43.719355" lon="-1.369873"><ele>15.7</ele><time>2025-10-22T10:05:06Z</time></trkpt>
<trkpt lat="43.719309" lon="-1.369838"><ele>15.6</ele><time>2025-10-22T10:05:10Z</time></trkpt>
<trkpt lat="43.719264" lon="-1.369813"><ele>17.6</ele><time>2025-10-22T10:05:14Z</time></trkpt>
<trkpt lat="43.719218" lon="-1.369782"><ele>18.1</ele><time>2025-10-22T10:05:18Z</time></trkpt>
<trkpt lat="43.719170" lon="-1.369765"><ele>19.9</ele><time>2025-10-22T10:05:22Z</time></trkpt>
<trkpt lat="43.719122" lon="-1.369739"><ele>18.6</ele><time>2025-10-22T10:05:27Z</time></trkpt>
<trkpt lat="43.719078" lon="-1.369718"><ele>17.8</ele><time>2025-10-22T10:05:32Z</time></trkpt>
<trkpt lat="43.719031" lon="-1.369695"><ele>18.7</ele><time>2025-10-22T10:05:37Z</time></trkpt>
<trkpt lat="43.718982" lon="-1.369681"><ele>18.9</ele><time>2025-10-22T10:05:42Z</time></trkpt>
<trkpt lat="43.718930" lon="-1.369681"><ele>17.6</ele><time>2025-10-22T10:05:48Z</time></trkpt>
<trkpt lat="43.718883" lon="-1.369682"><ele>16.4</ele><time>2025-10-22T10:05:54Z</time></trkpt>
<trkpt lat="43.718835" lon="-1.369694"><ele>17.5</ele><time>2025-10-22T10:05:59Z</time></trkpt>
<trkpt lat="43.718789" lon="-1.369723"><ele>16.7</ele><time>2025-10-22T10:06:04Z</time></trkpt>
<trkpt lat="43.718737" lon="-1.369743"><ele>16.9</ele><time>2025-10-22T10:06:09Z</time></trkpt>
<trkpt lat="43.718687" lon="-1.369748"><ele>16.8</ele><time>2025-10-22T10:06:14Z</time></trkpt>
<trkpt lat="43.718643" lon="-1.369791"><ele>17.7</ele><time>2025-10-22T10:06:19Z</time></trkpt>
<trkpt lat="43.718593" lon="-1.369822"><ele>16.2</ele><time>2025-10-22T10:06:24Z</time></trkpt>
<trkpt lat="43.718544" lon="-1.369846"><ele>15.3</ele><time>2025-10-22T10:06:28Z</time></trkpt>
<trkpt lat="43.718500" lon="-1.369873"><ele>15.7</ele><time>2025-10-22T10:06:32Z</time></trkpt>
<trkpt lat="43.718450" lon="-1.369889"><ele>15.5</ele><time>2025-10-22T10:06:36Z</time></trkpt>
<trkpt lat="43.718402" lon="-1.369906"><ele>16.9</ele><time>2025-10-22T10:06:41Z</time></trkpt>
<trkpt lat="43.718344" lon="-1.369894"><ele>16.9</ele><time>2025-10-22T10:06:45Z</time></trkpt>
<trkpt lat="43.718291" lon="-1.369860"><ele>16.3</ele><time>2025-10-22T10:06:49Z</time></trkpt>
<trkpt lat="43.718253" lon="-1.369801"><ele>14.7</ele><time>2025-10-22T10:06:53Z</time></trkpt>
<trkpt lat="43.718227" lon="-1.369738"><ele>13.8</ele><time>2025-10-22T10:06:57Z</time></trkpt>
<trkpt lat="43.718201" lon="-1.369675"><ele>13.9</ele><time>2025-10-22T10:07:01Z</time></trkpt>
<trkpt lat="43.718185" lon="-1.369605"><ele>13.6</ele><time>2025-10-22T10:07:05Z</time></trkpt>
<trkpt lat="43.718168" lon="-1.369535"><ele>13.1</ele><time>2025-10-22T10:07:09Z</time></trkpt>
<trkpt lat="43.718141" lon="-1.369470"><ele>13.2</ele><time>2025-10-22T10:07:14Z</time></trkpt>
<trkpt lat="43.718110" lon="-1.369415"><ele>14.7</ele><time>2025-10-22T10:07:19Z</time></trkpt>
<trkpt lat="43.718071" lon="-1.369377"><ele>18.9</ele><time>2025-10-22T10:07:23Z</time></trkpt>
<trkpt lat="43.718041" lon="-1.369317"><ele>19.8</ele><time>2025-10-22T10:07:28Z</time></trkpt>
<trkpt lat="43.718029" lon="-1.369256"><ele>20.8</ele><time>2025-10-22T10:07:32Z</time></trkpt>
<trkpt lat="43.718025" lon="-1.369184"><ele>18.6</ele><time>2025-10-22T10:07:36Z</time></trkpt>
<trkpt lat="43.718015" lon="-1.369108"><ele>17.5</ele><time>2025-10-22T10:07:40Z</time></trkpt>
<trkpt lat="43.718001" lon="-1.369037"><ele>17.7</ele><time>2025-10-22T10:07:44Z</time></trkpt>
<trkpt lat="43.717982" lon="-1.368976"><ele>19.2</ele><time>2025-10-22T10:07:48Z</time></trkpt>
<trkpt lat="43.717964" lon="-1.368913"><ele>19.0</ele><time>2025-10-22T10:07:52Z</time></trkpt>
<trkpt lat="43.717951" lon="-1.368853"><ele>18.9</ele><time>2025-10-22T10:07:56Z</time></trkpt>
<trkpt lat="43.717932" lon="-1.368796"><ele>19.0</ele><time>2025-10-22T10:08:00Z</time></trkpt>
<trkpt lat="43.717917" lon="-1.368731"><ele>20.0</ele><time>2025-10-22T10:08:04Z</time></trkpt>
<trkpt lat="43.717906" lon="-1.368662"><ele>20.5</ele><time>2025-10-22T10:08:08Z</time></trkpt>
<trkpt lat="43.717890" lon="-1.368593"><ele>20.3</ele><time>2025-10-22T10:08:12Z</time></trkpt>
<trkpt lat="43.717876" lon="-1.368527"><ele>19.2</ele><time>2025-10-22T10:08:16Z</time></trkpt>
<trkpt lat="43.717858" lon="-1.368459"><ele>19.2</ele><time>2025-10-22T10:08:21Z</time></trkpt>
<trkpt lat="43.717842" lon="-1.368390"><ele>19.3</ele><time>2025-10-22T10:08:26Z</time></trkpt>
<trkpt lat="43.717826" lon="-1.368324"><ele>20.2</ele><time>2025-10-22T10:08:30Z</time></trkpt>
<trkpt lat="43.717814" lon="-1.368263"><ele>20.0</ele><time>2025-10-22T10:08:34Z</time></trkpt>
<trkpt lat="43.717796" lon="-1.368192"><ele>19.3</ele><time>2025-10-22T10:08:39Z</time></trkpt>
<trkpt lat="43.717783" lon="-1.368130"><ele>18.6</ele><time>2025-10-22T10:08:43Z</time></trkpt>
<trkpt lat="43.717765" lon="-1.368066"><ele>18.3</ele><time>2025-10-22T10:08:47Z</time></trkpt>
<trkpt lat="43.717748" lon="-1.368006"><ele>18.5</ele><time>2025-10-22T10:08:53Z</time></trkpt>
<trkpt lat="43.717715" lon="-1.367953"><ele>19.5</ele><time>2025-10-22T10:09:16Z</time></trkpt>
<trkpt lat="43.717681" lon="-1.367893"><ele>19.1</ele><time>2025-10-22T10:09:22Z</time></trkpt>
<trkpt lat="43.717657" lon="-1.367840"><ele>18.3</ele><time>2025-10-22T10:09:27Z</time></trkpt>
<trkpt lat="43.717638" lon="-1.367776"><ele>18.6</ele><time>2025-10-22T10:09:32Z</time></trkpt>
<trkpt lat="43.717620" lon="-1.367702"><ele>18.2</ele><time>2025-10-22T10:09:37Z</time></trkpt>
<trkpt lat="43.717610" lon="-1.367635"><ele>18.4</ele><time>2025-10-22T10:09:41Z</time></trkpt>
<trkpt lat="43.717589" lon="-1.367562"><ele>19.5</ele><time>2025-10-22T10:09:46Z</time></trkpt>
<trkpt lat="43.717575" lon="-1.367491"><ele>20.0</ele><time>2025-10-22T10:09:50Z</time></trkpt>
<trkpt lat="43.717570" lon="-1.367425"><ele>20.4</ele><time>2025-10-22T10:09:54Z</time></trkpt>
<trkpt lat="43.717549" lon="-1.367369"><ele>21.2</ele><time>2025-10-22T10:09:58Z</time></trkpt>
<trkpt lat="43.717533" lon="-1.367299"><ele>20.8</ele><time>2025-10-22T10:10:03Z</time></trkpt>
<trkpt lat="43.717527" lon="-1.367229"><ele>20.7</ele><time>2025-10-22T10:10:07Z</time></trkpt>
<trkpt lat="43.717518" lon="-1.367164"><ele>21.3</ele><time>2025-10-22T10:10:11Z</time></trkpt>
<trkpt lat="43.717501" lon="-1.367092"><ele>22.3</ele><time>2025-10-22T10:10:16Z</time></trkpt>
<trkpt lat="43.717491" lon="-1.367026"><ele>22.2</ele><time>2025-10-22T10:10:20Z</time></trkpt>
<trkpt lat="43.717480" lon="-1.366954"><ele>21.4</ele><time>2025-10-22T10:10:25Z</time></trkpt>
<trkpt lat="43.717475" lon="-1.366885"><ele>21.3</ele><time>2025-10-22T10:10:29Z</time></trkpt>
<trkpt lat="43.717464" lon="-1.366822"><ele>19.9</ele><time>2025-10-22T10:10:33Z</time></trkpt>
<trkpt lat="43.717449" lon="-1.366756"><ele>19.8</ele><time>2025-10-22T10:10:37Z</time></trkpt>
<trkpt lat="43.717433" lon="-1.366691"><ele>18.5</ele><time>2025-10-22T10:10:41Z</time></trkpt>
<trkpt lat="43.717426" lon="-1.366624"><ele>18.6</ele><time>2025-10-22T10:10:45Z</time></trkpt>
<trkpt lat="43.717418" lon="-1.366549"><ele>19.1</ele><time>2025-10-22T10:10:50Z</time></trkpt>
<trkpt lat="43.717409" lon="-1.366486"><ele>18.0</ele><time>2025-10-22T10:10:54Z</time></trkpt>
<trkpt lat="43.717390" lon="-1.366423"><ele>20.9</ele><time>2025-10-22T10:10:59Z</time></trkpt>
<trkpt lat="43.717382" lon="-1.366353"><ele>21.7</ele><time>2025-10-22T10:11:03Z</time></trkpt>
<trkpt lat="43.717365" lon="-1.366293"><ele>22.1</ele><time>2025-10-22T10:11:07Z</time></trkpt>
<trkpt lat="43.717345" lon="-1.366225"><ele>23.5</ele><time>2025-10-22T10:11:11Z</time></trkpt>
<trkpt lat="43.717337" lon="-1.366157"><ele>23.4</ele><time>2025-10-22T10:11:15Z</time></trkpt>
<trkpt lat="43.717329" lon="-1.366094"><ele>23.2</ele><time>2025-10-22T10:11:19Z</time></trkpt>
<trkpt lat="43.717348" lon="-1.366023"><ele>20.5</ele><time>2025-10-22T10:11:25Z</time></trkpt>
<trkpt lat="43.717380" lon="-1.365968"><ele>19.5</ele><time>2025-10-22T10:11:30Z</time></trkpt>
<trkpt lat="43.717404" lon="-1.365915"><ele>19.7</ele><time>2025-10-22T10:11:35Z</time></trkpt>
<trkpt lat="43.717437" lon="-1.365864"><ele>18.5</ele><time>2025-10-22T10:11:42Z</time></trkpt>
<trkpt lat="43.717395" lon="-1.365894"><ele>16.8</ele><time>2025-10-22T10:13:44Z</time></trkpt>
<trkpt lat="43.717347" lon="-1.365890"><ele>17.8</ele><time>2025-10-22T10:13:51Z</time></trkpt>
<trkpt lat="43.717317" lon="-1.365834"><ele>18.7</ele><time>2025-10-22T10:13:57Z</time></trkpt>
<trkpt lat="43.717305" lon="-1.365766"><ele>18.1</ele><time>2025-10-22T10:14:03Z</time></trkpt>
<trkpt lat="43.717289" lon="-1.365695"><ele>19.7</ele><time>2025-10-22T10:14:09Z</time></trkpt>
<trkpt lat="43.717277" lon="-1.365632"><ele>20.4</ele><time>2025-10-22T10:14:13Z</time></trkpt>
<trkpt lat="43.717260" lon="-1.365572"><ele>19.9</ele><time>2025-10-22T10:14:17Z</time></trkpt>
<trkpt lat="43.717239" lon="-1.365505"><ele>21.0</ele><time>2025-10-22T10:14:22Z</time></trkpt>
<trkpt lat="43.717214" lon="-1.365447"><ele>22.4</ele><time>2025-10-22T10:14:27Z</time></trkpt>
<trkpt lat="43.717193" lon="-1.365390"><ele>22.8</ele><time>2025-10-22T10:14:33Z</time></trkpt>
<trkpt lat="43.717200" lon="-1.365327"><ele>21.2</ele><time>2025-10-22T10:14:52Z</time></trkpt>
<trkpt lat="43.717189" lon="-1.365266"><ele>22.0</ele><time>2025-10-22T10:14:56Z</time></trkpt>
<trkpt lat="43.717170" lon="-1.365205"><ele>21.9</ele><time>2025-10-22T10:15:00Z</time></trkpt>
<trkpt lat="43.717142" lon="-1.365152"><ele>22.4</ele><time>2025-10-22T10:15:04Z</time></trkpt>
<trkpt lat="43.717110" lon="-1.365092"><ele>23.0</ele><time>2025-10-22T10:15:08Z</time></trkpt>
<trkpt lat="43.717076" lon="-1.365040"><ele>26.0</ele><time>2025-10-22T10:15:12Z</time></trkpt>
<trkpt lat="43.717047" lon="-1.364984"><ele>26.0</ele><time>2025-10-22T10:15:16Z</time></trkpt>
<trkpt lat="43.717016" lon="-1.364920"><ele>24.6</ele><time>2025-10-22T10:15:21Z</time></trkpt>
<trkpt lat="43.716995" lon="-1.364864"><ele>22.3</ele><time>2025-10-22T10:15:25Z</time></trkpt>
<trkpt lat="43.716961" lon="-1.364803"><ele>22.1</ele><time>2025-10-22T10:15:30Z</time></trkpt>
<trkpt lat="43.716929" lon="-1.364753"><ele>24.2</ele><time>2025-10-22T10:15:34Z</time></trkpt>
<trkpt lat="43.716908" lon="-1.364682"><ele>23.6</ele><time>2025-10-22T10:15:38Z</time></trkpt>
<trkpt lat="43.716887" lon="-1.364622"><ele>25.7</ele><time>2025-10-22T10:15:42Z</time></trkpt>
<trkpt lat="43.716862" lon="-1.364569"><ele>28.0</ele><time>2025-10-22T10:15:46Z</time></trkpt>
<trkpt lat="43.716840" lon="-1.364502"><ele>26.6</ele><time>2025-10-22T10:15:50Z</time></trkpt>
<trkpt lat="43.716814" lon="-1.364435"><ele>27.4</ele><time>2025-10-22T10:15:54Z</time></trkpt>
<trkpt lat="43.716793" lon="-1.364368"><ele>26.4</ele><time>2025-10-22T10:15:58Z</time></trkpt>
<trkpt lat="43.716767" lon="-1.364300"><ele>26.9</ele><time>2025-10-22T10:16:02Z</time></trkpt>
<trkpt lat="43.716740" lon="-1.364235"><ele>28.1</ele><time>2025-10-22T10:16:06Z</time></trkpt>
<trkpt lat="43.716716" lon="-1.364161"><ele>26.7</ele><time>2025-10-22T10:16:11Z</time></trkpt>
<trkpt lat="43.716695" lon="-1.364085"><ele>26.9</ele><time>2025-10-22T10:16:15Z</time></trkpt>
<trkpt lat="43.716672" lon="-1.364018"><ele>26.9</ele><time>2025-10-22T10:16:19Z</time></trkpt>
<trkpt lat="43.716649" lon="-1.363948"><ele>27.4</ele><time>2025-10-22T10:16:23Z</time></trkpt>
<trkpt lat="43.716632" lon="-1.363876"><ele>28.0</ele><time>2025-10-22T10:16:27Z</time></trkpt>
<trkpt lat="43.716615" lon="-1.363804"><ele>27.2</ele><time>2025-10-22T10:16:31Z</time></trkpt>
<trkpt lat="43.716593" lon="-1.363742"><ele>28.4</ele><time>2025-10-22T10:16:35Z</time></trkpt>
<trkpt lat="43.716568" lon="-1.363684"><ele>29.3</ele><time>2025-10-22T10:16:39Z</time></trkpt>
<trkpt lat="43.716552" lon="-1.363624"><ele>28.1</ele><time>2025-10-22T10:16:43Z</time></trkpt>
<trkpt lat="43.716539" lon="-1.363563"><ele>27.4</ele><time>2025-10-22T10:16:47Z</time></trkpt>
<trkpt lat="43.716525" lon="-1.363497"><ele>26.8</ele><time>2025-10-22T10:16:51Z</time></trkpt>
<trkpt lat="43.716498" lon="-1.363439"><ele>27.7</ele><time>2025-10-22T10:16:55Z</time></trkpt>
<trkpt lat="43.716479" lon="-1.363377"><ele>28.5</ele><time>2025-10-22T10:16:59Z</time></trkpt>
<trkpt lat="43.716477" lon="-1.363310"><ele>26.4</ele><time>2025-10-22T10:17:03Z</time></trkpt>
<trkpt lat="43.716469" lon="-1.363236"><ele>25.7</ele><time>2025-10-22T10:17:07Z</time></trkpt>
<trkpt lat="43.716466" lon="-1.363160"><ele>23.0</ele><time>2025-10-22T10:17:11Z</time></trkpt>
<trkpt lat="43.716465" lon="-1.363095"><ele>21.8</ele><time>2025-10-22T10:17:15Z</time></trkpt>
<trkpt lat="43.716466" lon="-1.363021"><ele>20.1</ele><time>2025-10-22T10:17:20Z</time></trkpt>
<trkpt lat="43.716466" lon="-1.362954"><ele>19.4</ele><time>2025-10-22T10:17:25Z</time></trkpt>
<trkpt lat="43.716469" lon="-1.362885"><ele>19.2</ele><time>2025-10-22T10:17:30Z</time></trkpt>
<trkpt lat="43.716449" lon="-1.362822"><ele>18.3</ele><time>2025-10-22T10:17:36Z</time></trkpt>
<trkpt lat="43.716412" lon="-1.362783"><ele>17.9</ele><time>2025-10-22T10:17:41Z</time></trkpt>
<trkpt lat="43.716363" lon="-1.362764"><ele>19.0</ele><time>2025-10-22T10:17:47Z</time></trkpt>
<trkpt lat="43.716321" lon="-1.362739"><ele>18.3</ele><time>2025-10-22T10:17:52Z</time></trkpt>
<trkpt lat="43.716273" lon="-1.362711"><ele>17.0</ele><time>2025-10-22T10:17:58Z</time></trkpt>
<trkpt lat="43.716234" lon="-1.362675"><ele>16.0</ele><time>2025-10-22T10:18:03Z</time></trkpt>
<trkpt lat="43.716198" lon="-1.362637"><ele>14.6</ele><time>2025-10-22T10:18:09Z</time></trkpt>
<trkpt lat="43.716239" lon="-1.362665"><ele>14.3</ele><time>2025-10-22T10:18:18Z</time></trkpt>
<trkpt lat="43.716195" lon="-1.362687"><ele>14.0</ele><time>2025-10-22T10:18:27Z</time></trkpt>
<trkpt lat="43.716170" lon="-1.362630"><ele>13.0</ele><time>2025-10-22T10:18:34Z</time></trkpt>
<trkpt lat="43.716151" lon="-1.362564"><ele>13.8</ele><time>2025-10-22T10:18:45Z</time></trkpt>
<trkpt lat="43.716198" lon="-1.362545"><ele>15.1</ele><time>2025-10-22T10:19:08Z</time></trkpt>
<trkpt lat="43.716233" lon="-1.362500"><ele>13.1</ele><time>2025-10-22T10:19:13Z</time></trkpt>
<trkpt lat="43.716243" lon="-1.362437"><ele>14.6</ele><time>2025-10-22T10:19:18Z</time></trkpt>
<trkpt lat="43.716251" lon="-1.362373"><ele>15.1</ele><time>2025-10-22T10:19:23Z</time></trkpt>
<trkpt lat="43.716280" lon="-1.362317"><ele>15.3</ele><time>2025-10-22T10:19:28Z</time></trkpt>
<trkpt lat="43.716322" lon="-1.362283"><ele>15.3</ele><time>2025-10-22T10:19:32Z</time></trkpt>
<trkpt lat="43.716354" lon="-1.362236"><ele>14.4</ele><time>2025-10-22T10:19:37Z</time></trkpt>
<trkpt lat="43.716377" lon="-1.362176"><ele>14.3</ele><time>2025-10-22T10:20:01Z</time></trkpt>
<trkpt lat="43.716358" lon="-1.362114"><ele>14.3</ele><time>2025-10-22T10:20:06Z</time></trkpt>
<trkpt lat="43.716320" lon="-1.362074"><ele>14.7</ele><time>2025-10-22T10:20:11Z</time></trkpt>
<trkpt lat="43.716325" lon="-1.362007"><ele>14.9</ele><time>2025-10-22T10:20:16Z</time></trkpt>
<trkpt lat="43.716307" lon="-1.361943"><ele>16.0</ele><time>2025-10-22T10:20:22Z</time></trkpt>
<trkpt lat="43.716284" lon="-1.361879"><ele>16.6</ele><time>2025-10-22T10:20:28Z</time></trkpt>
<trkpt lat="43.716260" lon="-1.361823"><ele>17.3</ele><time>2025-10-22T10:20:35Z</time></trkpt>
<trkpt lat="43.716290" lon="-1.361772"><ele>16.0</ele><time>2025-10-22T10:21:04Z</time></trkpt>
<trkpt lat="43.716332" lon="-1.361747"><ele>14.9</ele><time>2025-10-22T10:21:12Z</time></trkpt>
<trkpt lat="43.716351" lon="-1.361689"><ele>14.7</ele><time>2025-10-22T10:21:23Z</time></trkpt>
<trkpt lat="43.716370" lon="-1.361750"><ele>14.1</ele><time>2025-10-22T10:21:34Z</time></trkpt>
<trkpt lat="43.716329" lon="-1.361776"><ele>14.5</ele><time>2025-10-22T10:22:08Z</time></trkpt>
<trkpt lat="43.716296" lon="-1.361731"><ele>12.3</ele><time>2025-10-22T10:41:08Z</time></trkpt>
<trkpt lat="43.716327" lon="-1.361782"><ele>13.4</ele><time>2025-10-22T10:50:14Z</time></trkpt>
<trkpt lat="43.716350" lon="-1.361837"><ele>12.5</ele><time>2025-10-22T10:50:19Z</time></trkpt>
<trkpt lat="43.716367" lon="-1.361899"><ele>13.7</ele><time>2025-10-22T10:50:25Z</time></trkpt>
<trkpt lat="43.716397" lon="-1.361953"><ele>13.9</ele><time>2025-10-22T10:50:30Z</time></trkpt>
<trkpt lat="43.716419" lon="-1.362018"><ele>14.2</ele><time>2025-10-22T10:50:38Z</time></trkpt>
<trkpt lat="43.716436" lon="-1.362086"><ele>12.5</ele><time>2025-10-22T10:50:55Z</time></trkpt>
<trkpt lat="43.716430" lon="-1.362154"><ele>12.1</ele><time>2025-10-22T10:51:00Z</time></trkpt>
<trkpt lat="43.716423" lon="-1.362226"><ele>12.0</ele><time>2025-10-22T10:51:05Z</time></trkpt>
<trkpt lat="43.716419" lon="-1.362291"><ele>11.8</ele><time>2025-10-22T10:51:10Z</time></trkpt>
<trkpt lat="43.716414" lon="-1.362359"><ele>12.2</ele><time>2025-10-22T10:51:15Z</time></trkpt>
<trkpt lat="43.716412" lon="-1.362434"><ele>12.2</ele><time>2025-10-22T10:51:20Z</time></trkpt>
<trkpt lat="43.716408" lon="-1.362506"><ele>13.2</ele><time>2025-10-22T10:51:25Z</time></trkpt>
<trkpt lat="43.716406" lon="-1.362577"><ele>14.3</ele><time>2025-10-22T10:51:30Z</time></trkpt>
<trkpt lat="43.716398" lon="-1.362644"><ele>15.5</ele><time>2025-10-22T10:51:35Z</time></trkpt>
<trkpt lat="43.716394" lon="-1.362709"><ele>15.3</ele><time>2025-10-22T10:51:40Z</time></trkpt>
<trkpt lat="43.716388" lon="-1.362773"><ele>15.9</ele><time>2025-10-22T10:51:45Z</time></trkpt>
<trkpt lat="43.716380" lon="-1.362840"><ele>16.1</ele><time>2025-10-22T10:51:50Z</time></trkpt>
<trkpt lat="43.716372" lon="-1.362906"><ele>16.2</ele><time>2025-10-22T10:51:55Z</time></trkpt>
<trkpt lat="43.716367" lon="-1.362979"><ele>17.4</ele><time>2025-10-22T10:52:01Z</time></trkpt>
<trkpt lat="43.716350" lon="-1.363047"><ele>16.5</ele><time>2025-10-22T10:52:08Z</time></trkpt>
<trkpt lat="43.716352" lon="-1.363116"><ele>16.9</ele><time>2025-10-22T10:52:15Z</time></trkpt>
<trkpt lat="43.716349" lon="-1.363191"><ele>18.1</ele><time>2025-10-22T10:52:21Z</time></trkpt>
<trkpt lat="43.716346" lon="-1.363263"><ele>19.1</ele><time>2025-10-22T10:52:26Z</time></trkpt>
<trkpt lat="43.716341" lon="-1.363331"><ele>20.5</ele><time>2025-10-22T10:52:31Z</time></trkpt>
<trkpt lat="43.716337" lon="-1.363402"><ele>20.9</ele><time>2025-10-22T10:52:36Z</time></trkpt>
<trkpt lat="43.716335" lon="-1.363476"><ele>20.6</ele><time>2025-10-22T10:52:41Z</time></trkpt>
<trkpt lat="43.716332" lon="-1.363547"><ele>21.1</ele><time>2025-10-22T10:52:46Z</time></trkpt>
<trkpt lat="43.716327" lon="-1.363616"><ele>21.8</ele><time>2025-10-22T10:52:51Z</time></trkpt>
<trkpt lat="43.716334" lon="-1.363680"><ele>23.4</ele><time>2025-10-22T10:52:55Z</time></trkpt>
<trkpt lat="43.716288" lon="-1.363703"><ele>19.2</ele><time>2025-10-22T10:53:13Z</time></trkpt>
<trkpt lat="43.716274" lon="-1.363769"><ele>19.9</ele><time>2025-10-22T10:53:41Z</time></trkpt>
<trkpt lat="43.716265" lon="-1.363840"><ele>19.9</ele><time>2025-10-22T10:53:46Z</time></trkpt>
<trkpt lat="43.716264" lon="-1.363907"><ele>20.6</ele><time>2025-10-22T10:53:51Z</time></trkpt>
<trkpt lat="43.716258" lon="-1.363968"><ele>21.1</ele><time>2025-10-22T10:53:56Z</time></trkpt>
<trkpt lat="43.716255" lon="-1.364037"><ele>21.4</ele><time>2025-10-22T10:54:02Z</time></trkpt>
<trkpt lat="43.716237" lon="-1.364108"><ele>22.9</ele><time>2025-10-22T10:54:08Z</time></trkpt>
<trkpt lat="43.716222" lon="-1.364176"><ele>25.7</ele><time>2025-10-22T10:54:13Z</time></trkpt>
<trkpt lat="43.716197" lon="-1.364232"><ele>26.7</ele><time>2025-10-22T10:54:17Z</time></trkpt>
<trkpt lat="43.716170" lon="-1.364296"><ele>29.9</ele><time>2025-10-22T10:54:22Z</time></trkpt>
<trkpt lat="43.716130" lon="-1.364345"><ele>32.4</ele><time>2025-10-22T10:54:27Z</time></trkpt>
<trkpt lat="43.716093" lon="-1.364384"><ele>33.1</ele><time>2025-10-22T10:54:31Z</time></trkpt>
<trkpt lat="43.716050" lon="-1.364426"><ele>32.0</ele><time>2025-10-22T10:54:35Z</time></trkpt>
<trkpt lat="43.716010" lon="-1.364473"><ele>32.8</ele><time>2025-10-22T10:54:39Z</time></trkpt>
<trkpt lat="43.715970" lon="-1.364516"><ele>32.6</ele><time>2025-10-22T10:54:43Z</time></trkpt>
<trkpt lat="43.715938" lon="-1.364564"><ele>33.3</ele><time>2025-10-22T10:54:47Z</time></trkpt>
<trkpt lat="43.715894" lon="-1.364606"><ele>33.4</ele><time>2025-10-22T10:54:51Z</time></trkpt>
<trkpt lat="43.715848" lon="-1.364641"><ele>34.0</ele><time>2025-10-22T10:54:55Z</time></trkpt>
<trkpt lat="43.715809" lon="-1.364681"><ele>32.4</ele><time>2025-10-22T10:54:59Z</time></trkpt>
<trkpt lat="43.715762" lon="-1.364725"><ele>31.8</ele><time>2025-10-22T10:55:04Z</time></trkpt>
<trkpt lat="43.715717" lon="-1.364760"><ele>31.7</ele><time>2025-10-22T10:55:08Z</time></trkpt>
<trkpt lat="43.715674" lon="-1.364787"><ele>31.6</ele><time>2025-10-22T10:55:12Z</time></trkpt>
<trkpt lat="43.715631" lon="-1.364825"><ele>33.5</ele><time>2025-10-22T10:55:17Z</time></trkpt>
<trkpt lat="43.715595" lon="-1.364862"><ele>30.8</ele><time>2025-10-22T10:55:27Z</time></trkpt>
<trkpt lat="43.715549" lon="-1.364896"><ele>31.9</ele><time>2025-10-22T10:55:32Z</time></trkpt>
<trkpt lat="43.715511" lon="-1.364938"><ele>30.7</ele><time>2025-10-22T10:55:37Z</time></trkpt>
<trkpt lat="43.715475" lon="-1.364982"><ele>29.4</ele><time>2025-10-22T10:55:42Z</time></trkpt>
<trkpt lat="43.715447" lon="-1.365035"><ele>26.5</ele><time>2025-10-22T10:55:47Z</time></trkpt>
<trkpt lat="43.715415" lon="-1.365090"><ele>25.1</ele><time>2025-10-22T10:55:51Z</time></trkpt>
<trkpt lat="43.715385" lon="-1.365138"><ele>25.8</ele><time>2025-10-22T10:55:55Z</time></trkpt>
<trkpt lat="43.715357" lon="-1.365188"><ele>25.2</ele><time>2025-10-22T10:55:59Z</time></trkpt>
<trkpt lat="43.715329" lon="-1.365246"><ele>24.8</ele><time>2025-10-22T10:56:03Z</time></trkpt>
<trkpt lat="43.715315" lon="-1.365312"><ele>23.8</ele><time>2025-10-22T10:56:07Z</time></trkpt>
<trkpt lat="43.715312" lon="-1.365378"><ele>24.4</ele><time>2025-10-22T10:56:11Z</time></trkpt>
<trkpt lat="43.715308" lon="-1.365448"><ele>23.8</ele><time>2025-10-22T10:56:15Z</time></trkpt>
<trkpt lat="43.715302" lon="-1.365515"><ele>23.6</ele><time>2025-10-22T10:56:19Z</time></trkpt>
<trkpt lat="43.715298" lon="-1.365581"><ele>23.0</ele><time>2025-10-22T10:56:23Z</time></trkpt>
<trkpt lat="43.715300" lon="-1.365644"><ele>22.2</ele><time>2025-10-22T10:56:27Z</time></trkpt>
<trkpt lat="43.715307" lon="-1.365717"><ele>23.8</ele><time>2025-10-22T10:56:32Z</time></trkpt>
<trkpt lat="43.715304" lon="-1.365780"><ele>22.9</ele><time>2025-10-22T10:56:36Z</time></trkpt>
<trkpt lat="43.715297" lon="-1.365844"><ele>22.9</ele><time>2025-10-22T10:56:40Z</time></trkpt>
<trkpt lat="43.715304" lon="-1.365909"><ele>22.1</ele><time>2025-10-22T10:56:44Z</time></trkpt>
<trkpt lat="43.715321" lon="-1.365974"><ele>22.2</ele><time>2025-10-22T10:56:48Z</time></trkpt>
<trkpt lat="43.715343" lon="-1.366033"><ele>22.8</ele><time>2025-10-22T10:56:52Z</time></trkpt>
<trkpt lat="43.715364" lon="-1.366095"><ele>22.8</ele><time>2025-10-22T10:56:56Z</time></trkpt>
<trkpt lat="43.715379" lon="-1.366156"><ele>23.0</ele><time>2025-10-22T10:57:00Z</time></trkpt>
<trkpt lat="43.715396" lon="-1.366223"><ele>23.9</ele><time>2025-10-22T10:57:06Z</time></trkpt>
<trkpt lat="43.715419" lon="-1.366295"><ele>24.1</ele><time>2025-10-22T10:57:11Z</time></trkpt>
<trkpt lat="43.715434" lon="-1.366361"><ele>24.9</ele><time>2025-10-22T10:57:15Z</time></trkpt>
<trkpt lat="43.715445" lon="-1.366432"><ele>26.2</ele><time>2025-10-22T10:57:19Z</time></trkpt>
<trkpt lat="43.715454" lon="-1.366493"><ele>27.2</ele><time>2025-10-22T10:57:22Z</time></trkpt>
<trkpt lat="43.715468" lon="-1.366570"><ele>27.7</ele><time>2025-10-22T10:57:26Z</time></trkpt>
<trkpt lat="43.715475" lon="-1.366639"><ele>27.2</ele><time>2025-10-22T10:57:30Z</time></trkpt>
<trkpt lat="43.715478" lon="-1.366709"><ele>26.2</ele><time>2025-10-22T10:57:34Z</time></trkpt>
<trkpt lat="43.715488" lon="-1.366772"><ele>25.8</ele><time>2025-10-22T10:57:38Z</time></trkpt>
<trkpt lat="43.715481" lon="-1.366841"><ele>25.6</ele><time>2025-10-22T10:57:43Z</time></trkpt>
<trkpt lat="43.715496" lon="-1.366913"><ele>26.2</ele><time>2025-10-22T10:57:48Z</time></trkpt>
<trkpt lat="43.715502" lon="-1.366991"><ele>25.0</ele><time>2025-10-22T10:57:52Z</time></trkpt>
<trkpt lat="43.715504" lon="-1.367068"><ele>25.0</ele><time>2025-10-22T10:57:56Z</time></trkpt>
<trkpt lat="43.715515" lon="-1.367139"><ele>24.3</ele><time>2025-10-22T10:58:01Z</time></trkpt>
<trkpt lat="43.715518" lon="-1.367211"><ele>22.2</ele><time>2025-10-22T10:58:06Z</time></trkpt>
<trkpt lat="43.715521" lon="-1.367275"><ele>22.8</ele><time>2025-10-22T10:58:10Z</time></trkpt>
<trkpt lat="43.715515" lon="-1.367336"><ele>22.9</ele><time>2025-10-22T10:58:14Z</time></trkpt>
<trkpt lat="43.715520" lon="-1.367408"><ele>23.2</ele><time>2025-10-22T10:58:18Z</time></trkpt>
<trkpt lat="43.715524" lon="-1.367482"><ele>23.5</ele><time>2025-10-22T10:58:22Z</time></trkpt>
<trkpt lat="43.715526" lon="-1.367548"><ele>23.5</ele><time>2025-10-22T10:58:26Z</time></trkpt>
<trkpt lat="43.715542" lon="-1.367621"><ele>23.5</ele><time>2025-10-22T10:58:31Z</time></trkpt>
<trkpt lat="43.715554" lon="-1.367683"><ele>19.8</ele><time>2025-10-22T10:58:35Z</time></trkpt>
<trkpt lat="43.715567" lon="-1.367742"><ele>21.3</ele><time>2025-10-22T10:58:39Z</time></trkpt>
<trkpt lat="43.715583" lon="-1.367805"><ele>23.6</ele><time>2025-10-22T10:58:44Z</time></trkpt>
<trkpt lat="43.715589" lon="-1.367882"><ele>24.9</ele><time>2025-10-22T10:58:49Z</time></trkpt>
<trkpt lat="43.715595" lon="-1.367943"><ele>22.2</ele><time>2025-10-22T10:58:52Z</time></trkpt>
<trkpt lat="43.715595" lon="-1.368013"><ele>21.3</ele><time>2025-10-22T10:58:56Z</time></trkpt>
<trkpt lat="43.715603" lon="-1.368088"><ele>23.0</ele><time>2025-10-22T10:59:00Z</time></trkpt>
<trkpt lat="43.715611" lon="-1.368155"><ele>22.2</ele><time>2025-10-22T10:59:04Z</time></trkpt>
<trkpt lat="43.715621" lon="-1.368228"><ele>22.7</ele><time>2025-10-22T10:59:08Z</time></trkpt>
<trkpt lat="43.715625" lon="-1.368292"><ele>24.1</ele><time>2025-10-22T10:59:12Z</time></trkpt>
<trkpt lat="43.715641" lon="-1.368367"><ele>25.1</ele><time>2025-10-22T10:59:17Z</time></trkpt>
<trkpt lat="43.715653" lon="-1.368438"><ele>25.4</ele><time>2025-10-22T10:59:21Z</time></trkpt>
<trkpt lat="43.715669" lon="-1.368513"><ele>23.7</ele><time>2025-10-22T10:59:25Z</time></trkpt>
<trkpt lat="43.715678" lon="-1.368580"><ele>24.4</ele><time>2025-10-22T10:59:29Z</time></trkpt>
<trkpt lat="43.715692" lon="-1.368650"><ele>27.3</ele><time>2025-10-22T10:59:34Z</time></trkpt>
<trkpt lat="43.715697" lon="-1.368720"><ele>26.7</ele><time>2025-10-22T10:59:38Z</time></trkpt>
<trkpt lat="43.715705" lon="-1.368785"><ele>27.4</ele><time>2025-10-22T10:59:42Z</time></trkpt>
<trkpt lat="43.715718" lon="-1.368855"><ele>26.9</ele><time>2025-10-22T10:59:47Z</time></trkpt>
<trkpt lat="43.715724" lon="-1.368921"><ele>28.2</ele><time>2025-10-22T10:59:51Z</time></trkpt>
<trkpt lat="43.715723" lon="-1.368997"><ele>27.1</ele><time>2025-10-22T10:59:56Z</time></trkpt>
<trkpt lat="43.715722" lon="-1.369069"><ele>26.3</ele><time>2025-10-22T11:00:00Z</time></trkpt>
<trkpt lat="43.715705" lon="-1.369137"><ele>25.7</ele><time>2025-10-22T11:00:04Z</time></trkpt>
<trkpt lat="43.715691" lon="-1.369213"><ele>26.0</ele><time>2025-10-22T11:00:09Z</time></trkpt>
<trkpt lat="43.715680" lon="-1.369275"><ele>27.9</ele><time>2025-10-22T11:00:13Z</time></trkpt>
<trkpt lat="43.715658" lon="-1.369335"><ele>27.3</ele><time>2025-10-22T11:00:17Z</time></trkpt>
<trkpt lat="43.715646" lon="-1.369408"><ele>26.7</ele><time>2025-10-22T11:00:21Z</time></trkpt>
<trkpt lat="43.715635" lon="-1.369472"><ele>25.9</ele><time>2025-10-22T11:00:25Z</time></trkpt>
<trkpt lat="43.715629" lon="-1.369537"><ele>24.2</ele><time>2025-10-22T11:00:29Z</time></trkpt>
<trkpt lat="43.715613" lon="-1.369604"><ele>23.6</ele><time>2025-10-22T11:00:33Z</time></trkpt>
<trkpt lat="43.715582" lon="-1.369654"><ele>21.9</ele><time>2025-10-22T11:00:36Z</time></trkpt>
<trkpt lat="43.715569" lon="-1.369717"><ele>22.9</ele><time>2025-10-22T11:00:40Z</time></trkpt>
<trkpt lat="43.715553" lon="-1.369788"><ele>22.8</ele><time>2025-10-22T11:00:45Z</time></trkpt>
<trkpt lat="43.715517" lon="-1.369833"><ele>22.1</ele><time>2025-10-22T11:00:49Z</time></trkpt>
<trkpt lat="43.715482" lon="-1.369880"><ele>23.2</ele><time>2025-10-22T11:00:54Z</time></trkpt>
<trkpt lat="43.715460" lon="-1.369950"><ele>21.2</ele><time>2025-10-22T11:00:59Z</time></trkpt>
<trkpt lat="43.715428" lon="-1.370005"><ele>18.9</ele><time>2025-10-22T11:01:03Z</time></trkpt>
<trkpt lat="43.715393" lon="-1.370067"><ele>20.2</ele><time>2025-10-22T11:01:07Z</time></trkpt>
<trkpt lat="43.715373" lon="-1.370138"><ele>20.2</ele><time>2025-10-22T11:01:11Z</time></trkpt>
<trkpt lat="43.715361" lon="-1.370204"><ele>21.3</ele><time>2025-10-22T11:01:15Z</time></trkpt>
<trkpt lat="43.715351" lon="-1.370273"><ele>22.6</ele><time>2025-10-22T11:01:19Z</time></trkpt>
<trkpt lat="43.715345" lon="-1.370340"><ele>23.0</ele><time>2025-10-22T11:01:23Z</time></trkpt>
<trkpt lat="43.715331" lon="-1.370409"><ele>24.1</ele><time>2025-10-22T11:01:28Z</time></trkpt>
<trkpt lat="43.715324" lon="-1.370472"><ele>25.1</ele><time>2025-10-22T11:01:32Z</time></trkpt>
<trkpt lat="43.715316" lon="-1.370546"><ele>25.2</ele><time>2025-10-22T11:01:37Z</time></trkpt>
<trkpt lat="43.715313" lon="-1.370618"><ele>25.9</ele><time>2025-10-22T11:01:42Z</time></trkpt>
<trkpt lat="43.715313" lon="-1.370682"><ele>25.9</ele><time>2025-10-22T11:01:46Z</time></trkpt>
<trkpt lat="43.715315" lon="-1.370744"><ele>26.1</ele><time>2025-10-22T11:01:50Z</time></trkpt>
<trkpt lat="43.715316" lon="-1.370815"><ele>26.9</ele><time>2025-10-22T11:01:55Z</time></trkpt>
<trkpt lat="43.715316" lon="-1.370890"><ele>26.2</ele><time>2025-10-22T11:02:00Z</time></trkpt>
<trkpt lat="43.715316" lon="-1.370964"><ele>26.0</ele><time>2025-10-22T11:02:05Z</time></trkpt>
<trkpt lat="43.715286" lon="-1.371013"><ele>24.8</ele><time>2025-10-22T11:02:13Z</time></trkpt>
<trkpt lat="43.715255" lon="-1.371062"><ele>20.6</ele><time>2025-10-22T11:03:07Z</time></trkpt>
<trkpt lat="43.715254" lon="-1.371136"><ele>20.9</ele><time>2025-10-22T11:03:12Z</time></trkpt>
<trkpt lat="43.715262" lon="-1.371208"><ele>22.2</ele><time>2025-10-22T11:03:17Z</time></trkpt>
<trkpt lat="43.715265" lon="-1.371272"><ele>21.9</ele><time>2025-10-22T11:03:21Z</time></trkpt>
<trkpt lat="43.715258" lon="-1.371343"><ele>22.1</ele><time>2025-10-22T11:03:25Z</time></trkpt>
<trkpt lat="43.715257" lon="-1.371420"><ele>21.8</ele><time>2025-10-22T11:03:29Z</time></trkpt>
<trkpt lat="43.715254" lon="-1.371491"><ele>21.8</ele><time>2025-10-22T11:03:33Z</time></trkpt>
<trkpt lat="43.715263" lon="-1.371566"><ele>20.9</ele><time>2025-10-22T11:03:37Z</time></trkpt>
<trkpt lat="43.715270" lon="-1.371634"><ele>20.2</ele><time>2025-10-22T11:03:40Z</time></trkpt>
<trkpt lat="43.715275" lon="-1.371702"><ele>21.1</ele><time>2025-10-22T11:03:43Z</time></trkpt>
<trkpt lat="43.715285" lon="-1.371767"><ele>21.7</ele><time>2025-10-22T11:03:46Z</time></trkpt>
<trkpt lat="43.715291" lon="-1.371831"><ele>23.3</ele><time>2025-10-22T11:03:49Z</time></trkpt>
<trkpt lat="43.715296" lon="-1.371907"><ele>23.8</ele><time>2025-10-22T11:03:53Z</time></trkpt>
<trkpt lat="43.715300" lon="-1.371979"><ele>24.4</ele><time>2025-10-22T11:03:57Z</time></trkpt>
<trkpt lat="43.715302" lon="-1.372053"><ele>23.3</ele><time>2025-10-22T11:04:01Z</time></trkpt>
<trkpt lat="43.715295" lon="-1.372124"><ele>22.0</ele><time>2025-10-22T11:04:05Z</time></trkpt>
<trkpt lat="43.715288" lon="-1.372197"><ele>22.2</ele><time>2025-10-22T11:04:09Z</time></trkpt>
<trkpt lat="43.715288" lon="-1.372266"><ele>22.1</ele><time>2025-10-22T11:04:13Z</time></trkpt>
<trkpt lat="43.715285" lon="-1.372339"><ele>22.3</ele><time>2025-10-22T11:04:17Z</time></trkpt>
<trkpt lat="43.715285" lon="-1.372409"><ele>22.2</ele><time>2025-10-22T11:04:21Z</time></trkpt>
<trkpt lat="43.715274" lon="-1.372476"><ele>21.7</ele><time>2025-10-22T11:04:25Z</time></trkpt>
<trkpt lat="43.715276" lon="-1.372544"><ele>23.1</ele><time>2025-10-22T11:04:29Z</time></trkpt>
<trkpt lat="43.715275" lon="-1.372621"><ele>22.1</ele><time>2025-10-22T11:04:33Z</time></trkpt>
<trkpt lat="43.715277" lon="-1.372700"><ele>22.3</ele><time>2025-10-22T11:04:37Z</time></trkpt>
<trkpt lat="43.715275" lon="-1.372777"><ele>21.8</ele><time>2025-10-22T11:04:41Z</time></trkpt>
<trkpt lat="43.715273" lon="-1.372855"><ele>21.4</ele><time>2025-10-22T11:04:45Z</time></trkpt>
<trkpt lat="43.715274" lon="-1.372929"><ele>21.7</ele><time>2025-10-22T11:04:49Z</time></trkpt>
<trkpt lat="43.715279" lon="-1.373004"><ele>21.6</ele><time>2025-10-22T11:04:53Z</time></trkpt>
<trkpt lat="43.715279" lon="-1.373081"><ele>21.9</ele><time>2025-10-22T11:04:57Z</time></trkpt>
<trkpt lat="43.715276" lon="-1.373156"><ele>21.6</ele><time>2025-10-22T11:05:01Z</time></trkpt>
<trkpt lat="43.715278" lon="-1.373222"><ele>22.0</ele><time>2025-10-22T11:05:05Z</time></trkpt>
<trkpt lat="43.715316" lon="-1.373276"><ele>22.5</ele><time>2025-10-22T11:05:10Z</time></trkpt>
<trkpt lat="43.715322" lon="-1.373345"><ele>22.8</ele><time>2025-10-22T11:05:14Z</time></trkpt>
<trkpt lat="43.715320" lon="-1.373420"><ele>22.2</ele><time>2025-10-22T11:05:18Z</time></trkpt>
<trkpt lat="43.715312" lon="-1.373494"><ele>22.5</ele><time>2025-10-22T11:05:22Z</time></trkpt>
<trkpt lat="43.715306" lon="-1.373567"><ele>22.7</ele><time>2025-10-22T11:05:26Z</time></trkpt>
<trkpt lat="43.715297" lon="-1.373641"><ele>23.2</ele><time>2025-10-22T11:05:30Z</time></trkpt>
<trkpt lat="43.715288" lon="-1.373708"><ele>23.4</ele><time>2025-10-22T11:05:34Z</time></trkpt>
<trkpt lat="43.715297" lon="-1.373778"><ele>23.0</ele><time>2025-10-22T11:05:38Z</time></trkpt>
<trkpt lat="43.715312" lon="-1.373845"><ele>22.3</ele><time>2025-10-22T11:05:42Z</time></trkpt>
<trkpt lat="43.715337" lon="-1.373906"><ele>21.1</ele><time>2025-10-22T11:05:46Z</time></trkpt>
<trkpt lat="43.715358" lon="-1.373977"><ele>20.6</ele><time>2025-10-22T11:05:51Z</time></trkpt>
<trkpt lat="43.715357" lon="-1.374048"><ele>20.9</ele><time>2025-10-22T11:05:56Z</time></trkpt>
<trkpt lat="43.715361" lon="-1.374111"><ele>20.5</ele><time>2025-10-22T11:06:00Z</time></trkpt>
<trkpt lat="43.715369" lon="-1.374177"><ele>20.3</ele><time>2025-10-22T11:06:04Z</time></trkpt>
<trkpt lat="43.715375" lon="-1.374242"><ele>20.5</ele><time>2025-10-22T11:06:08Z</time></trkpt>
<trkpt lat="43.715383" lon="-1.374305"><ele>20.8</ele><time>2025-10-22T11:06:12Z</time></trkpt>
<trkpt lat="43.715384" lon="-1.374368"><ele>21.9</ele><time>2025-10-22T11:06:16Z</time></trkpt>
<trkpt lat="43.715393" lon="-1.374444"><ele>22.2</ele><time>2025-10-22T11:06:21Z</time></trkpt>
<trkpt lat="43.715401" lon="-1.374509"><ele>22.5</ele><time>2025-10-22T11:06:25Z</time></trkpt>
<trkpt lat="43.715415" lon="-1.374575"><ele>22.6</ele><time>2025-10-22T11:06:29Z</time></trkpt>
<trkpt lat="43.715435" lon="-1.374635"><ele>23.3</ele><time>2025-10-22T11:06:33Z</time></trkpt>
<trkpt lat="43.715454" lon="-1.374694"><ele>23.8</ele><time>2025-10-22T11:06:37Z</time></trkpt>
<trkpt lat="43.715480" lon="-1.374748"><ele>24.0</ele><time>2025-10-22T11:06:41Z</time></trkpt>
<trkpt lat="43.715509" lon="-1.374809"><ele>23.6</ele><time>2025-10-22T11:06:46Z</time></trkpt>
<trkpt lat="43.715545" lon="-1.374863"><ele>22.1</ele><time>2025-10-22T11:06:51Z</time></trkpt>
<trkpt lat="43.715590" lon="-1.374906"><ele>21.5</ele><time>2025-10-22T11:06:56Z</time></trkpt>
<trkpt lat="43.715630" lon="-1.374935"><ele>21.4</ele><time>2025-10-22T11:07:00Z</time></trkpt>
<trkpt lat="43.715676" lon="-1.374965"><ele>21.4</ele><time>2025-10-22T11:07:05Z</time></trkpt>
<trkpt lat="43.715722" lon="-1.374991"><ele>22.2</ele><time>2025-10-22T11:07:10Z</time></trkpt>
<trkpt lat="43.715766" lon="-1.375020"><ele>22.7</ele><time>2025-10-22T11:07:15Z</time></trkpt>
<trkpt lat="43.715814" lon="-1.375040"><ele>24.2</ele><time>2025-10-22T11:07:20Z</time></trkpt>
<trkpt lat="43.715862" lon="-1.375057"><ele>25.6</ele><time>2025-10-22T11:07:25Z</time></trkpt>
<trkpt lat="43.715908" lon="-1.375083"><ele>26.7</ele><time>2025-10-22T11:07:30Z</time></trkpt>
<trkpt lat="43.715956" lon="-1.375114"><ele>27.4</ele><time>2025-10-22T11:07:35Z</time></trkpt>
<trkpt lat="43.715999" lon="-1.375160"><ele>27.5</ele><time>2025-10-22T11:07:40Z</time></trkpt>
<trkpt lat="43.716035" lon="-1.375213"><ele>28.4</ele><time>2025-10-22T11:07:45Z</time></trkpt>
<trkpt lat="43.716066" lon="-1.375267"><ele>29.8</ele><time>2025-10-22T11:07:50Z</time></trkpt>
<trkpt lat="43.716094" lon="-1.375323"><ele>30.5</ele><time>2025-10-22T11:07:55Z</time></trkpt>
<trkpt lat="43.716119" lon="-1.375382"><ele>31.2</ele><time>2025-10-22T11:08:00Z</time></trkpt>
<trkpt lat="43.716141" lon="-1.375448"><ele>31.0</ele><time>2025-10-22T11:08:05Z</time></trkpt>
<trkpt lat="43.716158" lon="-1.375518"><ele>32.1</ele><time>2025-10-22T11:08:10Z</time></trkpt>
<trkpt lat="43.716173" lon="-1.375589"><ele>33.3</ele><time>2025-10-22T11:08:15Z</time></trkpt>
<trkpt lat="43.716178" lon="-1.375662"><ele>33.6</ele><time>2025-10-22T11:08:20Z</time></trkpt>
<trkpt lat="43.716185" lon="-1.375732"><ele>33.5</ele><time>2025-10-22T11:08:25Z</time></trkpt>
<trkpt lat="43.716190" lon="-1.375806"><ele>34.1</ele><time>2025-10-22T11:08:30Z</time></trkpt>
<trkpt lat="43.716192" lon="-1.375884"><ele>34.0</ele><time>2025-10-22T11:08:35Z</time></trkpt>
<trkpt lat="43.716191" lon="-1.375947"><ele>34.0</ele><time>2025-10-22T11:08:39Z</time></trkpt>
<trkpt lat="43.716195" lon="-1.376024"><ele>35.4</ele><time>2025-10-22T11:08:44Z</time></trkpt>
<trkpt lat="43.716195" lon="-1.376098"><ele>36.1</ele><time>2025-10-22T11:08:49Z</time></trkpt>
<trkpt lat="43.716196" lon="-1.376171"><ele>36.4</ele><time>2025-10-22T11:08:54Z</time></trkpt>
<trkpt lat="43.716195" lon="-1.376246"><ele>36.0</ele><time>2025-10-22T11:08:59Z</time></trkpt>
<trkpt lat="43.716190" lon="-1.376320"><ele>35.9</ele><time>2025-10-22T11:09:04Z</time></trkpt>
<trkpt lat="43.716179" lon="-1.376393"><ele>35.4</ele><time>2025-10-22T11:09:09Z</time></trkpt>
<trkpt lat="43.716166" lon="-1.376463"><ele>35.1</ele><time>2025-10-22T11:09:14Z</time></trkpt>
<trkpt lat="43.716143" lon="-1.376532"><ele>33.9</ele><time>2025-10-22T11:09:19Z</time></trkpt>
<trkpt lat="43.716125" lon="-1.376603"><ele>33.7</ele><time>2025-10-22T11:09:24Z</time></trkpt>
<trkpt lat="43.716108" lon="-1.376677"><ele>33.9</ele><time>2025-10-22T11:09:29Z</time></trkpt>
<trkpt lat="43.716098" lon="-1.376752"><ele>34.2</ele><time>2025-10-22T11:09:34Z</time></trkpt>
<trkpt lat="43.716090" lon="-1.376814"><ele>34.3</ele><time>2025-10-22T11:09:38Z</time></trkpt>
<trkpt lat="43.716080" lon="-1.376878"><ele>34.4</ele><time>2025-10-22T11:09:42Z</time></trkpt>
<trkpt lat="43.716073" lon="-1.376942"><ele>34.7</ele><time>2025-10-22T11:09:46Z</time></trkpt>
<trkpt lat="43.716067" lon="-1.377005"><ele>34.5</ele><time>2025-10-22T11:09:50Z</time></trkpt>
<trkpt lat="43.716060" lon="-1.377081"><ele>34.4</ele><time>2025-10-22T11:09:55Z</time></trkpt>
<trkpt lat="43.716058" lon="-1.377145"><ele>33.9</ele><time>2025-10-22T11:09:59Z</time></trkpt>
<trkpt lat="43.716059" lon="-1.377219"><ele>34.0</ele><time>2025-10-22T11:10:04Z</time></trkpt>
<trkpt lat="43.716059" lon="-1.377290"><ele>33.0</ele><time>2025-10-22T11:10:09Z</time></trkpt>
<trkpt lat="43.716050" lon="-1.377362"><ele>33.0</ele><time>2025-10-22T11:10:14Z</time></trkpt>
<trkpt lat="43.716042" lon="-1.377433"><ele>33.1</ele><time>2025-10-22T11:10:19Z</time></trkpt>
<trkpt lat="43.716047" lon="-1.377496"><ele>32.6</ele><time>2025-10-22T11:10:23Z</time></trkpt>
<trkpt lat="43.716050" lon="-1.377570"><ele>33.2</ele><time>2025-10-22T11:10:28Z</time></trkpt>
<trkpt lat="43.716058" lon="-1.377645"><ele>32.4</ele><time>2025-10-22T11:10:33Z</time></trkpt>
<trkpt lat="43.716063" lon="-1.377710"><ele>31.9</ele><time>2025-10-22T11:10:37Z</time></trkpt>
<trkpt lat="43.716064" lon="-1.377776"><ele>31.7</ele><time>2025-10-22T11:10:41Z</time></trkpt>
<trkpt lat="43.716065" lon="-1.377840"><ele>32.1</ele><time>2025-10-22T11:10:45Z</time></trkpt>
<trkpt lat="43.716053" lon="-1.377906"><ele>31.1</ele><time>2025-10-22T11:10:50Z</time></trkpt>
<trkpt lat="43.716050" lon="-1.377975"><ele>30.6</ele><time>2025-10-22T11:10:55Z</time></trkpt>
<trkpt lat="43.716048" lon="-1.378043"><ele>34.1</ele><time>2025-10-22T11:11:01Z</time></trkpt>
<trkpt lat="43.716052" lon="-1.378118"><ele>36.5</ele><time>2025-10-22T11:11:06Z</time></trkpt>
<trkpt lat="43.716064" lon="-1.378189"><ele>36.7</ele><time>2025-10-22T11:11:11Z</time></trkpt>
<trkpt lat="43.716059" lon="-1.378252"><ele>35.5</ele><time>2025-10-22T11:11:15Z</time></trkpt>
<trkpt lat="43.716050" lon="-1.378320"><ele>35.5</ele><time>2025-10-22T11:11:20Z</time></trkpt>
<trkpt lat="43.716060" lon="-1.378391"><ele>35.3</ele><time>2025-10-22T11:11:24Z</time></trkpt>
<trkpt lat="43.716069" lon="-1.378464"><ele>36.2</ele><time>2025-10-22T11:11:28Z</time></trkpt>
<trkpt lat="43.716072" lon="-1.378539"><ele>37.3</ele><time>2025-10-22T11:11:33Z</time></trkpt>
<trkpt lat="43.716071" lon="-1.378606"><ele>35.8</ele><time>2025-10-22T11:11:37Z</time></trkpt>
<trkpt lat="43.716050" lon="-1.378663"><ele>31.7</ele><time>2025-10-22T11:12:12Z</time></trkpt>
<trkpt lat="43.716038" lon="-1.378739"><ele>31.4</ele><time>2025-10-22T11:12:43Z</time></trkpt>
<trkpt lat="43.716032" lon="-1.378814"><ele>31.9</ele><time>2025-10-22T11:12:48Z</time></trkpt>
<trkpt lat="43.716048" lon="-1.378879"><ele>32.5</ele><time>2025-10-22T11:12:52Z</time></trkpt>
<trkpt lat="43.716061" lon="-1.378939"><ele>32.9</ele><time>2025-10-22T11:13:16Z</time></trkpt>
<trkpt lat="43.716077" lon="-1.379009"><ele>33.8</ele><time>2025-10-22T11:13:22Z</time></trkpt>
<trkpt lat="43.716102" lon="-1.379062"><ele>32.5</ele><time>2025-10-22T11:13:27Z</time></trkpt>
<trkpt lat="43.716137" lon="-1.379119"><ele>32.1</ele><time>2025-10-22T11:13:32Z</time></trkpt>
<trkpt lat="43.716149" lon="-1.379186"><ele>33.5</ele><time>2025-10-22T11:13:36Z</time></trkpt>
<trkpt lat="43.716168" lon="-1.379258"><ele>32.6</ele><time>2025-10-22T11:13:40Z</time></trkpt>
<trkpt lat="43.716184" lon="-1.379317"><ele>32.3</ele><time>2025-10-22T11:13:43Z</time></trkpt>
<trkpt lat="43.716204" lon="-1.379389"><ele>31.7</ele><time>2025-10-22T11:13:47Z</time></trkpt>
<trkpt lat="43.716215" lon="-1.379468"><ele>31.7</ele><time>2025-10-22T11:13:51Z</time></trkpt>
<trkpt lat="43.716231" lon="-1.379534"><ele>32.6</ele><time>2025-10-22T11:13:55Z</time></trkpt>
<trkpt lat="43.716236" lon="-1.379603"><ele>32.5</ele><time>2025-10-22T11:13:59Z</time></trkpt>
<trkpt lat="43.716242" lon="-1.379669"><ele>33.1</ele><time>2025-10-22T11:14:03Z</time></trkpt>
<trkpt lat="43.716245" lon="-1.379749"><ele>33.4</ele><time>2025-10-22T11:14:08Z</time></trkpt>
<trkpt lat="43.716274" lon="-1.379797"><ele>32.4</ele><time>2025-10-22T11:14:11Z</time></trkpt>
<trkpt lat="43.716303" lon="-1.379853"><ele>30.5</ele><time>2025-10-22T11:14:14Z</time></trkpt>
<trkpt lat="43.716330" lon="-1.379927"><ele>28.6</ele><time>2025-10-22T11:14:18Z</time></trkpt>
<trkpt lat="43.716350" lon="-1.379998"><ele>28.4</ele><time>2025-10-22T11:14:22Z</time></trkpt>
<trkpt lat="43.716369" lon="-1.380062"><ele>31.3</ele><time>2025-10-22T11:14:26Z</time></trkpt>
<trkpt lat="43.716389" lon="-1.380129"><ele>32.7</ele><time>2025-10-22T11:14:30Z</time></trkpt>
<trkpt lat="43.716407" lon="-1.380191"><ele>32.8</ele><time>2025-10-22T11:14:34Z</time></trkpt>
<trkpt lat="43.716435" lon="-1.380246"><ele>31.6</ele><time>2025-10-22T11:14:38Z</time></trkpt>
<trkpt lat="43.716464" lon="-1.380307"><ele>32.0</ele><time>2025-10-22T11:14:42Z</time></trkpt>
<trkpt lat="43.716479" lon="-1.380370"><ele>32.9</ele><time>2025-10-22T11:14:46Z</time></trkpt>
<trkpt lat="43.716479" lon="-1.380434"><ele>33.6</ele><time>2025-10-22T11:14:50Z</time></trkpt>
<trkpt lat="43.716483" lon="-1.380496"><ele>34.3</ele><time>2025-10-22T11:14:54Z</time></trkpt>
<trkpt lat="43.716486" lon="-1.380564"><ele>34.5</ele><time>2025-10-22T11:14:59Z</time></trkpt>
<trkpt lat="43.716498" lon="-1.380624"><ele>33.6</ele><time>2025-10-22T11:15:05Z</time></trkpt>
<trkpt lat="43.716517" lon="-1.380686"><ele>31.8</ele><time>2025-10-22T11:15:12Z</time></trkpt>
<trkpt lat="43.716521" lon="-1.380755"><ele>33.7</ele><time>2025-10-22T11:15:16Z</time></trkpt>
<trkpt lat="43.716529" lon="-1.380816"><ele>33.7</ele><time>2025-10-22T11:15:20Z</time></trkpt>
<trkpt lat="43.716550" lon="-1.380881"><ele>32.0</ele><time>2025-10-22T11:15:24Z</time></trkpt>
<trkpt lat="43.716557" lon="-1.380948"><ele>30.5</ele><time>2025-10-22T11:15:28Z</time></trkpt>
<trkpt lat="43.716563" lon="-1.381010"><ele>30.3</ele><time>2025-10-22T11:15:32Z</time></trkpt>
<trkpt lat="43.716573" lon="-1.381079"><ele>32.3</ele><time>2025-10-22T11:15:37Z</time></trkpt>
<trkpt lat="43.716570" lon="-1.381151"><ele>33.0</ele><time>2025-10-22T11:15:42Z</time></trkpt>
<trkpt lat="43.716562" lon="-1.381226"><ele>35.7</ele><time>2025-10-22T11:15:48Z</time></trkpt>
<trkpt lat="43.716555" lon="-1.381294"><ele>34.9</ele><time>2025-10-22T11:15:53Z</time></trkpt>
<trkpt lat="43.716558" lon="-1.381366"><ele>34.3</ele><time>2025-10-22T11:15:59Z</time></trkpt>
<trkpt lat="43.716553" lon="-1.381446"><ele>35.5</ele><time>2025-10-22T11:16:04Z</time></trkpt>
<trkpt lat="43.716552" lon="-1.381523"><ele>34.4</ele><time>2025-10-22T11:16:08Z</time></trkpt>
<trkpt lat="43.716540" lon="-1.381596"><ele>34.6</ele><time>2025-10-22T11:16:13Z</time></trkpt>
<trkpt lat="43.716522" lon="-1.381667"><ele>37.1</ele><time>2025-10-22T11:16:18Z</time></trkpt>
<trkpt lat="43.716515" lon="-1.381728"><ele>38.0</ele><time>2025-10-22T11:16:22Z</time></trkpt>
<trkpt lat="43.716517" lon="-1.381792"><ele>37.8</ele><time>2025-10-22T11:16:25Z</time></trkpt>
<trkpt lat="43.716518" lon="-1.381855"><ele>39.0</ele><time>2025-10-22T11:16:28Z</time></trkpt>
<trkpt lat="43.716522" lon="-1.381921"><ele>38.6</ele><time>2025-10-22T11:16:31Z</time></trkpt>
<trkpt lat="43.716519" lon="-1.381991"><ele>39.6</ele><time>2025-10-22T11:16:35Z</time></trkpt>
<trkpt lat="43.716518" lon="-1.382071"><ele>41.0</ele><time>2025-10-22T11:16:40Z</time></trkpt>
<trkpt lat="43.716517" lon="-1.382148"><ele>40.0</ele><time>2025-10-22T11:16:44Z</time></trkpt>
<trkpt lat="43.716514" lon="-1.382228"><ele>39.6</ele><time>2025-10-22T11:16:48Z</time></trkpt>
<trkpt lat="43.716516" lon="-1.382298"><ele>38.0</ele><time>2025-10-22T11:16:52Z</time></trkpt>
<trkpt lat="43.716526" lon="-1.382371"><ele>38.9</ele><time>2025-10-22T11:16:56Z</time></trkpt>
<trkpt lat="43.716539" lon="-1.382443"><ele>38.6</ele><time>2025-10-22T11:17:00Z</time></trkpt>
<trkpt lat="43.716554" lon="-1.382507"><ele>38.5</ele><time>2025-10-22T11:17:04Z</time></trkpt>
<trkpt lat="43.716563" lon="-1.382569"><ele>38.8</ele><time>2025-10-22T11:17:08Z</time></trkpt>
<trkpt lat="43.716563" lon="-1.382632"><ele>39.1</ele><time>2025-10-22T11:17:12Z</time></trkpt>
<trkpt lat="43.716562" lon="-1.382700"><ele>39.6</ele><time>2025-10-22T11:17:16Z</time></trkpt>
<trkpt lat="43.716566" lon="-1.382778"><ele>38.9</ele><time>2025-10-22T11:17:20Z</time></trkpt>
<trkpt lat="43.716576" lon="-1.382842"><ele>39.3</ele><time>2025-10-22T11:17:24Z</time></trkpt>
<trkpt lat="43.716575" lon="-1.382912"><ele>40.9</ele><time>2025-10-22T11:17:28Z</time></trkpt>
<trkpt lat="43.716572" lon="-1.382986"><ele>40.8</ele><time>2025-10-22T11:17:32Z</time></trkpt>
<trkpt lat="43.716589" lon="-1.383061"><ele>39.9</ele><time>2025-10-22T11:17:36Z</time></trkpt>
<trkpt lat="43.716592" lon="-1.383124"><ele>39.4</ele><time>2025-10-22T11:17:39Z</time></trkpt>
<trkpt lat="43.716587" lon="-1.383203"><ele>40.4</ele><time>2025-10-22T11:17:43Z</time></trkpt>
<trkpt lat="43.716585" lon="-1.383275"><ele>41.9</ele><time>2025-10-22T11:17:47Z</time></trkpt>
<trkpt lat="43.716582" lon="-1.383348"><ele>43.0</ele><time>2025-10-22T11:17:51Z</time></trkpt>
<trkpt lat="43.716570" lon="-1.383411"><ele>43.7</ele><time>2025-10-22T11:17:55Z</time></trkpt>
<trkpt lat="43.716561" lon="-1.383480"><ele>42.1</ele><time>2025-10-22T11:17:59Z</time></trkpt>
<trkpt lat="43.716556" lon="-1.383543"><ele>41.4</ele><time>2025-10-22T11:18:03Z</time></trkpt>
<trkpt lat="43.716558" lon="-1.383606"><ele>41.6</ele><time>2025-10-22T11:18:06Z</time></trkpt>
<trkpt lat="43.716554" lon="-1.383678"><ele>43.7</ele><time>2025-10-22T11:18:10Z</time></trkpt>
<trkpt lat="43.716541" lon="-1.383750"><ele>44.2</ele><time>2025-10-22T11:18:14Z</time></trkpt>
<trkpt lat="43.716539" lon="-1.383813"><ele>44.2</ele><time>2025-10-22T11:18:18Z</time></trkpt>
<trkpt lat="43.716525" lon="-1.383886"><ele>40.5</ele><time>2025-10-22T11:18:22Z</time></trkpt>
<trkpt lat="43.716501" lon="-1.383953"><ele>41.2</ele><time>2025-10-22T11:18:26Z</time></trkpt>
<trkpt lat="43.716482" lon="-1.384020"><ele>42.0</ele><time>2025-10-22T11:18:30Z</time></trkpt>
<trkpt lat="43.716466" lon="-1.384099"><ele>42.3</ele><time>2025-10-22T11:18:35Z</time></trkpt>
<trkpt lat="43.716456" lon="-1.384180"><ele>45.3</ele><time>2025-10-22T11:18:39Z</time></trkpt>
<trkpt lat="43.716432" lon="-1.384253"><ele>43.9</ele><time>2025-10-22T11:18:43Z</time></trkpt>
<trkpt lat="43.716398" lon="-1.384315"><ele>44.2</ele><time>2025-10-22T11:18:47Z</time></trkpt>
<trkpt lat="43.716393" lon="-1.384398"><ele>43.9</ele><time>2025-10-22T11:18:51Z</time></trkpt>
<trkpt lat="43.716383" lon="-1.384474"><ele>43.7</ele><time>2025-10-22T11:18:55Z</time></trkpt>
<trkpt lat="43.716362" lon="-1.384538"><ele>43.8</ele><time>2025-10-22T11:18:59Z</time></trkpt>
<trkpt lat="43.716361" lon="-1.384618"><ele>43.5</ele><time>2025-10-22T11:19:03Z</time></trkpt>
<trkpt lat="43.716351" lon="-1.384695"><ele>41.4</ele><time>2025-10-22T11:19:07Z</time></trkpt>
<trkpt lat="43.716352" lon="-1.384771"><ele>40.1</ele><time>2025-10-22T11:19:11Z</time></trkpt>
<trkpt lat="43.716349" lon="-1.384836"><ele>38.1</ele><time>2025-10-22T11:19:14Z</time></trkpt>
<trkpt lat="43.716350" lon="-1.384912"><ele>38.3</ele><time>2025-10-22T11:19:18Z</time></trkpt>
<trkpt lat="43.716338" lon="-1.384973"><ele>37.4</ele><time>2025-10-22T11:19:22Z</time></trkpt>
<trkpt lat="43.716338" lon="-1.385047"><ele>36.9</ele><time>2025-10-22T11:19:26Z</time></trkpt>
<trkpt lat="43.716349" lon="-1.385121"><ele>36.3</ele><time>2025-10-22T11:19:30Z</time></trkpt>
<trkpt lat="43.716369" lon="-1.385196"><ele>36.9</ele><time>2025-10-22T11:19:34Z</time></trkpt>
<trkpt lat="43.716381" lon="-1.385269"><ele>38.4</ele><time>2025-10-22T11:19:38Z</time></trkpt>
<trkpt lat="43.716388" lon="-1.385342"><ele>38.2</ele><time>2025-10-22T11:19:42Z</time></trkpt>
<trkpt lat="43.716396" lon="-1.385411"><ele>38.3</ele><time>2025-10-22T11:19:46Z</time></trkpt>
<trkpt lat="43.716402" lon="-1.385488"><ele>40.1</ele><time>2025-10-22T11:19:50Z</time></trkpt>
<trkpt lat="43.716417" lon="-1.385558"><ele>40.0</ele><time>2025-10-22T11:19:54Z</time></trkpt>
<trkpt lat="43.716423" lon="-1.385634"><ele>40.6</ele><time>2025-10-22T11:19:58Z</time></trkpt>
<trkpt lat="43.716426" lon="-1.385705"><ele>40.3</ele><time>2025-10-22T11:20:02Z</time></trkpt>
<trkpt lat="43.716421" lon="-1.385774"><ele>40.2</ele><time>2025-10-22T11:20:06Z</time></trkpt>
<trkpt lat="43.716404" lon="-1.385840"><ele>40.4</ele><time>2025-10-22T11:20:10Z</time></trkpt>
<trkpt lat="43.716404" lon="-1.385915"><ele>39.1</ele><time>2025-10-22T11:20:15Z</time></trkpt>
<trkpt lat="43.716399" lon="-1.385988"><ele>37.6</ele><time>2025-10-22T11:20:19Z</time></trkpt>
<trkpt lat="43.716401" lon="-1.386052"><ele>38.2</ele><time>2025-10-22T11:20:23Z</time></trkpt>
<trkpt lat="43.716382" lon="-1.386115"><ele>34.7</ele><time>2025-10-22T11:20:27Z</time></trkpt>
<trkpt lat="43.716372" lon="-1.386180"><ele>35.2</ele><time>2025-10-22T11:20:31Z</time></trkpt>
<trkpt lat="43.716350" lon="-1.386248"><ele>33.9</ele><time>2025-10-22T11:20:35Z</time></trkpt>
<trkpt lat="43.716324" lon="-1.386321"><ele>34.0</ele><time>2025-10-22T11:20:39Z</time></trkpt>
<trkpt lat="43.716305" lon="-1.386386"><ele>37.5</ele><time>2025-10-22T11:20:43Z</time></trkpt>
<trkpt lat="43.716287" lon="-1.386451"><ele>39.6</ele><time>2025-10-22T11:20:47Z</time></trkpt>
<trkpt lat="43.716261" lon="-1.386503"><ele>41.0</ele><time>2025-10-22T11:20:51Z</time></trkpt>
<trkpt lat="43.716231" lon="-1.386561"><ele>40.2</ele><time>2025-10-22T11:20:55Z</time></trkpt>
<trkpt lat="43.716198" lon="-1.386624"><ele>39.6</ele><time>2025-10-22T11:20:59Z</time></trkpt>
<trkpt lat="43.716165" lon="-1.386675"><ele>39.0</ele><time>2025-10-22T11:21:03Z</time></trkpt>
<trkpt lat="43.716133" lon="-1.386742"><ele>37.2</ele><time>2025-10-22T11:21:07Z</time></trkpt>
<trkpt lat="43.716108" lon="-1.386800"><ele>37.0</ele><time>2025-10-22T11:21:11Z</time></trkpt>
<trkpt lat="43.716076" lon="-1.386853"><ele>35.7</ele><time>2025-10-22T11:21:16Z</time></trkpt>
<trkpt lat="43.716044" lon="-1.386900"><ele>34.8</ele><time>2025-10-22T11:21:21Z</time></trkpt>
<trkpt lat="43.716010" lon="-1.386944"><ele>34.6</ele><time>2025-10-22T11:21:25Z</time></trkpt>
<trkpt lat="43.715978" lon="-1.386991"><ele>34.3</ele><time>2025-10-22T11:21:29Z</time></trkpt>
<trkpt lat="43.715946" lon="-1.387040"><ele>33.4</ele><time>2025-10-22T11:21:33Z</time></trkpt>
<trkpt lat="43.715908" lon="-1.387088"><ele>33.3</ele><time>2025-10-22T11:21:37Z</time></trkpt>
<trkpt lat="43.715869" lon="-1.387126"><ele>34.6</ele><time>2025-10-22T11:21:41Z</time></trkpt>
<trkpt lat="43.715830" lon="-1.387171"><ele>34.9</ele><time>2025-10-22T11:21:45Z</time></trkpt>
<trkpt lat="43.715799" lon="-1.387218"><ele>34.2</ele><time>2025-10-22T11:21:49Z</time></trkpt>
<trkpt lat="43.715762" lon="-1.387272"><ele>34.7</ele><time>2025-10-22T11:21:53Z</time></trkpt>
<trkpt lat="43.715725" lon="-1.387311"><ele>33.6</ele><time>2025-10-22T11:21:57Z</time></trkpt>
<trkpt lat="43.715683" lon="-1.387348"><ele>34.1</ele><time>2025-10-22T11:22:02Z</time></trkpt>
<trkpt lat="43.715652" lon="-1.387396"><ele>32.5</ele><time>2025-10-22T11:22:06Z</time></trkpt>
<trkpt lat="43.715621" lon="-1.387452"><ele>33.6</ele><time>2025-10-22T11:22:10Z</time></trkpt>
<trkpt lat="43.715592" lon="-1.387513"><ele>34.5</ele><time>2025-10-22T11:22:15Z</time></trkpt>
<trkpt lat="43.715578" lon="-1.387580"><ele>33.9</ele><time>2025-10-22T11:22:19Z</time></trkpt>
<trkpt lat="43.715566" lon="-1.387651"><ele>33.0</ele><time>2025-10-22T11:22:23Z</time></trkpt>
<trkpt lat="43.715544" lon="-1.387710"><ele>33.6</ele><time>2025-10-22T11:22:27Z</time></trkpt>
<trkpt lat="43.715503" lon="-1.387763"><ele>32.5</ele><time>2025-10-22T11:22:31Z</time></trkpt>
<trkpt lat="43.715475" lon="-1.387817"><ele>31.2</ele><time>2025-10-22T11:22:35Z</time></trkpt>
<trkpt lat="43.715457" lon="-1.387877"><ele>30.5</ele><time>2025-10-22T11:22:39Z</time></trkpt>
<trkpt lat="43.715447" lon="-1.387940"><ele>30.8</ele><time>2025-10-22T11:22:43Z</time></trkpt>
<trkpt lat="43.715428" lon="-1.388004"><ele>31.1</ele><time>2025-10-22T11:22:47Z</time></trkpt>
<trkpt lat="43.715414" lon="-1.388074"><ele>31.1</ele><time>2025-10-22T11:22:51Z</time></trkpt>
<trkpt lat="43.715389" lon="-1.388143"><ele>31.2</ele><time>2025-10-22T11:22:56Z</time></trkpt>
<trkpt lat="43.715368" lon="-1.388202"><ele>31.7</ele><time>2025-10-22T11:23:01Z</time></trkpt>
<trkpt lat="43.715357" lon="-1.388278"><ele>32.0</ele><time>2025-10-22T11:23:06Z</time></trkpt>
<trkpt lat="43.715342" lon="-1.388341"><ele>31.9</ele><time>2025-10-22T11:23:10Z</time></trkpt>
<trkpt lat="43.715321" lon="-1.388412"><ele>32.9</ele><time>2025-10-22T11:23:15Z</time></trkpt>
<trkpt lat="43.715300" lon="-1.388481"><ele>35.0</ele><time>2025-10-22T11:23:20Z</time></trkpt>
<trkpt lat="43.715278" lon="-1.388535"><ele>36.5</ele><time>2025-10-22T11:23:24Z</time></trkpt>
<trkpt lat="43.715259" lon="-1.388607"><ele>38.5</ele><time>2025-10-22T11:23:29Z</time></trkpt>
<trkpt lat="43.715247" lon="-1.388674"><ele>37.5</ele><time>2025-10-22T11:23:34Z</time></trkpt>
<trkpt lat="43.715232" lon="-1.388740"><ele>37.5</ele><time>2025-10-22T11:23:38Z</time></trkpt>
<trkpt lat="43.715201" lon="-1.388794"><ele>37.9</ele><time>2025-10-22T11:23:42Z</time></trkpt>
<trkpt lat="43.715176" lon="-1.388849"><ele>37.4</ele><time>2025-10-22T11:23:46Z</time></trkpt>
<trkpt lat="43.715157" lon="-1.388917"><ele>38.5</ele><time>2025-10-22T11:23:51Z</time></trkpt>
<trkpt lat="43.715142" lon="-1.388979"><ele>39.8</ele><time>2025-10-22T11:23:55Z</time></trkpt>
<trkpt lat="43.715131" lon="-1.389052"><ele>39.8</ele><time>2025-10-22T11:23:59Z</time></trkpt>
<trkpt lat="43.715120" lon="-1.389123"><ele>39.4</ele><time>2025-10-22T11:24:03Z</time></trkpt>
<trkpt lat="43.715120" lon="-1.389186"><ele>39.6</ele><time>2025-10-22T11:24:07Z</time></trkpt>
<trkpt lat="43.715113" lon="-1.389251"><ele>39.8</ele><time>2025-10-22T11:24:11Z</time></trkpt>
<trkpt lat="43.715117" lon="-1.389321"><ele>39.2</ele><time>2025-10-22T11:24:15Z</time></trkpt>
<trkpt lat="43.715117" lon="-1.389388"><ele>39.5</ele><time>2025-10-22T11:24:20Z</time></trkpt>
<trkpt lat="43.715128" lon="-1.389452"><ele>38.6</ele><time>2025-10-22T11:24:24Z</time></trkpt>
<trkpt lat="43.715149" lon="-1.389511"><ele>38.0</ele><time>2025-10-22T11:24:29Z</time></trkpt>
<trkpt lat="43.715154" lon="-1.389583"><ele>38.0</ele><time>2025-10-22T11:24:34Z</time></trkpt>
<trkpt lat="43.715178" lon="-1.389645"><ele>35.9</ele><time>2025-10-22T11:24:38Z</time></trkpt>
<trkpt lat="43.715200" lon="-1.389710"><ele>38.6</ele><time>2025-10-22T11:24:44Z</time></trkpt>
<trkpt lat="43.715212" lon="-1.389778"><ele>38.6</ele><time>2025-10-22T11:24:48Z</time></trkpt>
<trkpt lat="43.715218" lon="-1.389842"><ele>39.3</ele><time>2025-10-22T11:24:52Z</time></trkpt>
<trkpt lat="43.715205" lon="-1.389907"><ele>38.6</ele><time>2025-10-22T11:24:56Z</time></trkpt>
<trkpt lat="43.715198" lon="-1.389979"><ele>36.7</ele><time>2025-10-22T11:25:00Z</time></trkpt>
<trkpt lat="43.715198" lon="-1.390053"><ele>36.5</ele><time>2025-10-22T11:25:04Z</time></trkpt>
<trkpt lat="43.715206" lon="-1.390127"><ele>34.8</ele><time>2025-10-22T11:25:08Z</time></trkpt>
<trkpt lat="43.715212" lon="-1.390191"><ele>33.9</ele><time>2025-10-22T11:25:11Z</time></trkpt>
<trkpt lat="43.715207" lon="-1.390266"><ele>36.0</ele><time>2025-10-22T11:25:16Z</time></trkpt>
<trkpt lat="43.715204" lon="-1.390341"><ele>35.2</ele><time>2025-10-22T11:25:20Z</time></trkpt>
<trkpt lat="43.715214" lon="-1.390414"><ele>38.5</ele><time>2025-10-22T11:25:25Z</time></trkpt>
<trkpt lat="43.715217" lon="-1.390483"><ele>38.8</ele><time>2025-10-22T11:25:29Z</time></trkpt>
<trkpt lat="43.715206" lon="-1.390555"><ele>40.5</ele><time>2025-10-22T11:25:36Z</time></trkpt>
<trkpt lat="43.715189" lon="-1.390620"><ele>41.7</ele><time>2025-10-22T11:25:40Z</time></trkpt>
<trkpt lat="43.715162" lon="-1.390685"><ele>40.4</ele><time>2025-10-22T11:25:44Z</time></trkpt>
<trkpt lat="43.715152" lon="-1.390761"><ele>42.3</ele><time>2025-10-22T11:25:48Z</time></trkpt>
<trkpt lat="43.715143" lon="-1.390828"><ele>43.4</ele><time>2025-10-22T11:25:52Z</time></trkpt>
<trkpt lat="43.715123" lon="-1.390902"><ele>43.0</ele><time>2025-10-22T11:25:56Z</time></trkpt>
<trkpt lat="43.715098" lon="-1.390959"><ele>43.5</ele><time>2025-10-22T11:26:00Z</time></trkpt>
<trkpt lat="43.715079" lon="-1.391018"><ele>42.1</ele><time>2025-10-22T11:26:04Z</time></trkpt>
<trkpt lat="43.715055" lon="-1.391084"><ele>42.3</ele><time>2025-10-22T11:26:08Z</time></trkpt>
<trkpt lat="43.715027" lon="-1.391145"><ele>43.3</ele><time>2025-10-22T11:26:12Z</time></trkpt>
<trkpt lat="43.714997" lon="-1.391202"><ele>45.2</ele><time>2025-10-22T11:26:16Z</time></trkpt>
<trkpt lat="43.714973" lon="-1.391276"><ele>47.1</ele><time>2025-10-22T11:26:21Z</time></trkpt>
<trkpt lat="43.714957" lon="-1.391342"><ele>46.2</ele><time>2025-10-22T11:26:25Z</time></trkpt>
<trkpt lat="43.714955" lon="-1.391413"><ele>45.6</ele><time>2025-10-22T11:26:29Z</time></trkpt>
<trkpt lat="43.714934" lon="-1.391472"><ele>44.7</ele><time>2025-10-22T11:26:33Z</time></trkpt>
<trkpt lat="43.714911" lon="-1.391537"><ele>44.6</ele><time>2025-10-22T11:26:37Z</time></trkpt>
<trkpt lat="43.714871" lon="-1.391578"><ele>43.6</ele><time>2025-10-22T11:26:40Z</time></trkpt>
<trkpt lat="43.714828" lon="-1.391611"><ele>42.8</ele><time>2025-10-22T11:26:43Z</time></trkpt>
<trkpt lat="43.714787" lon="-1.391667"><ele>41.6</ele><time>2025-10-22T11:26:47Z</time></trkpt>
<trkpt lat="43.714749" lon="-1.391701"><ele>41.3</ele><time>2025-10-22T11:26:50Z</time></trkpt>
<trkpt lat="43.714709" lon="-1.391739"><ele>39.6</ele><time>2025-10-22T11:26:53Z</time></trkpt>
<trkpt lat="43.714664" lon="-1.391777"><ele>37.5</ele><time>2025-10-22T11:26:57Z</time></trkpt>
<trkpt lat="43.714632" lon="-1.391821"><ele>35.6</ele><time>2025-10-22T11:27:01Z</time></trkpt>
<trkpt lat="43.714583" lon="-1.391850"><ele>34.6</ele><time>2025-10-22T11:27:05Z</time></trkpt>
<trkpt lat="43.714548" lon="-1.391905"><ele>38.2</ele><time>2025-10-22T11:27:09Z</time></trkpt>
<trkpt lat="43.714504" lon="-1.391939"><ele>37.7</ele><time>2025-10-22T11:27:13Z</time></trkpt>
<trkpt lat="43.714468" lon="-1.391984"><ele>37.9</ele><time>2025-10-22T11:27:17Z</time></trkpt>
<trkpt lat="43.714422" lon="-1.392029"><ele>35.9</ele><time>2025-10-22T11:27:22Z</time></trkpt>
<trkpt lat="43.714379" lon="-1.392056"><ele>35.6</ele><time>2025-10-22T11:27:26Z</time></trkpt>
<trkpt lat="43.714343" lon="-1.392097"><ele>33.4</ele><time>2025-10-22T11:27:30Z</time></trkpt>
<trkpt lat="43.714305" lon="-1.392143"><ele>32.5</ele><time>2025-10-22T11:27:35Z</time></trkpt>
<trkpt lat="43.714285" lon="-1.392201"><ele>34.2</ele><time>2025-10-22T11:27:40Z</time></trkpt>
<trkpt lat="43.714270" lon="-1.392262"><ele>35.8</ele><time>2025-10-22T11:27:45Z</time></trkpt>
<trkpt lat="43.714251" lon="-1.392320"><ele>37.1</ele><time>2025-10-22T11:27:50Z</time></trkpt>
<trkpt lat="43.714229" lon="-1.392375"><ele>38.9</ele><time>2025-10-22T11:27:57Z</time></trkpt>
<trkpt lat="43.714206" lon="-1.392430"><ele>39.4</ele><time>2025-10-22T11:28:01Z</time></trkpt>
<trkpt lat="43.714175" lon="-1.392491"><ele>36.7</ele><time>2025-10-22T11:28:05Z</time></trkpt>
<trkpt lat="43.714145" lon="-1.392560"><ele>35.3</ele><time>2025-10-22T11:28:09Z</time></trkpt>
<trkpt lat="43.714116" lon="-1.392618"><ele>33.7</ele><time>2025-10-22T11:28:13Z</time></trkpt>
<trkpt lat="43.714071" lon="-1.392651"><ele>31.3</ele><time>2025-10-22T11:28:17Z</time></trkpt>
<trkpt lat="43.714027" lon="-1.392687"><ele>30.6</ele><time>2025-10-22T11:28:22Z</time></trkpt>
<trkpt lat="43.713977" lon="-1.392691"><ele>27.8</ele><time>2025-10-22T11:28:37Z</time></trkpt>
<trkpt lat="43.713933" lon="-1.392712"><ele>24.0</ele><time>2025-10-22T11:28:54Z</time></trkpt>
<trkpt lat="43.713888" lon="-1.392718"><ele>22.6</ele><time>2025-10-22T11:29:01Z</time></trkpt>
<trkpt lat="43.713922" lon="-1.392770"><ele>20.9</ele><time>2025-10-22T11:29:31Z</time></trkpt>
<trkpt lat="43.713943" lon="-1.392827"><ele>21.6</ele><time>2025-10-22T11:29:35Z</time></trkpt>
<trkpt lat="43.713964" lon="-1.392887"><ele>21.2</ele><time>2025-10-22T11:29:39Z</time></trkpt>
<trkpt lat="43.713990" lon="-1.392953"><ele>22.5</ele><time>2025-10-22T11:29:44Z</time></trkpt>
<trkpt lat="43.714010" lon="-1.393010"><ele>22.4</ele><time>2025-10-22T11:29:48Z</time></trkpt>
<trkpt lat="43.714030" lon="-1.393066"><ele>22.6</ele><time>2025-10-22T11:29:52Z</time></trkpt>
<trkpt lat="43.714049" lon="-1.393123"><ele>23.2</ele><time>2025-10-22T11:29:56Z</time></trkpt>
<trkpt lat="43.714068" lon="-1.393180"><ele>23.6</ele><time>2025-10-22T11:30:00Z</time></trkpt>
<trkpt lat="43.714093" lon="-1.393249"><ele>24.8</ele><time>2025-10-22T11:30:05Z</time></trkpt>
<trkpt lat="43.714113" lon="-1.393304"><ele>25.8</ele><time>2025-10-22T11:30:09Z</time></trkpt>
<trkpt lat="43.714132" lon="-1.393370"><ele>26.8</ele><time>2025-10-22T11:30:14Z</time></trkpt>
<trkpt lat="43.714155" lon="-1.393432"><ele>27.4</ele><time>2025-10-22T11:30:19Z</time></trkpt>
<trkpt lat="43.714170" lon="-1.393503"><ele>25.5</ele><time>2025-10-22T11:30:24Z</time></trkpt>
<trkpt lat="43.714178" lon="-1.393564"><ele>26.6</ele><time>2025-10-22T11:30:28Z</time></trkpt>
<trkpt lat="43.714135" lon="-1.393604"><ele>23.1</ele><time>2025-10-22T11:30:32Z</time></trkpt>
<trkpt lat="43.714088" lon="-1.393640"><ele>19.3</ele><time>2025-10-22T11:30:37Z</time></trkpt>
<trkpt lat="43.714049" lon="-1.393675"><ele>22.2</ele><time>2025-10-22T11:30:41Z</time></trkpt>
<trkpt lat="43.714010" lon="-1.393722"><ele>22.1</ele><time>2025-10-22T11:30:47Z</time></trkpt>
<trkpt lat="43.713968" lon="-1.393761"><ele>24.4</ele><time>2025-10-22T11:30:52Z</time></trkpt>
<trkpt lat="43.713919" lon="-1.393773"><ele>23.5</ele><time>2025-10-22T11:30:56Z</time></trkpt>
<trkpt lat="43.713872" lon="-1.393786"><ele>22.9</ele><time>2025-10-22T11:30:59Z</time></trkpt>
<trkpt lat="43.713818" lon="-1.393801"><ele>21.7</ele><time>2025-10-22T11:31:03Z</time></trkpt>
<trkpt lat="43.713763" lon="-1.393810"><ele>20.9</ele><time>2025-10-22T11:31:07Z</time></trkpt>
<trkpt lat="43.713709" lon="-1.393821"><ele>20.5</ele><time>2025-10-22T11:31:11Z</time></trkpt>
<trkpt lat="43.713655" lon="-1.393822"><ele>19.5</ele><time>2025-10-22T11:31:15Z</time></trkpt>
<trkpt lat="43.713603" lon="-1.393841"><ele>19.0</ele><time>2025-10-22T11:31:19Z</time></trkpt>
<trkpt lat="43.713550" lon="-1.393850"><ele>18.3</ele><time>2025-10-22T11:31:24Z</time></trkpt>
<trkpt lat="43.713500" lon="-1.393864"><ele>16.8</ele><time>2025-10-22T11:31:28Z</time></trkpt>
<trkpt lat="43.713443" lon="-1.393874"><ele>15.5</ele><time>2025-10-22T11:31:32Z</time></trkpt>
<trkpt lat="43.713390" lon="-1.393881"><ele>16.0</ele><time>2025-10-22T11:31:36Z</time></trkpt>
<trkpt lat="43.713339" lon="-1.393887"><ele>15.8</ele><time>2025-10-22T11:31:40Z</time></trkpt>
<trkpt lat="43.713288" lon="-1.393895"><ele>15.4</ele><time>2025-10-22T11:31:44Z</time></trkpt>
<trkpt lat="43.713241" lon="-1.393914"><ele>14.4</ele><time>2025-10-22T11:31:48Z</time></trkpt>
<trkpt lat="43.713195" lon="-1.393929"><ele>13.6</ele><time>2025-10-22T11:31:52Z</time></trkpt>
<trkpt lat="43.713147" lon="-1.393924"><ele>13.5</ele><time>2025-10-22T11:31:56Z</time></trkpt>
<trkpt lat="43.713102" lon="-1.393916"><ele>13.9</ele><time>2025-10-22T11:32:00Z</time></trkpt>
<trkpt lat="43.713052" lon="-1.393882"><ele>14.3</ele><time>2025-10-22T11:32:05Z</time></trkpt>
<trkpt lat="43.713008" lon="-1.393845"><ele>13.6</ele><time>2025-10-22T11:32:09Z</time></trkpt>
<trkpt lat="43.712958" lon="-1.393818"><ele>13.6</ele><time>2025-10-22T11:32:14Z</time></trkpt>
<trkpt lat="43.712919" lon="-1.393783"><ele>13.9</ele><time>2025-10-22T11:32:18Z</time></trkpt>
<trkpt lat="43.712872" lon="-1.393773"><ele>14.4</ele><time>2025-10-22T11:32:22Z</time></trkpt>
<trkpt lat="43.712819" lon="-1.393770"><ele>15.9</ele><time>2025-10-22T11:32:27Z</time></trkpt>
<trkpt lat="43.712772" lon="-1.393737"><ele>17.2</ele><time>2025-10-22T11:32:32Z</time></trkpt>
<trkpt lat="43.712732" lon="-1.393700"><ele>18.1</ele><time>2025-10-22T11:32:37Z</time></trkpt>
<trkpt lat="43.712687" lon="-1.393667"><ele>19.2</ele><time>2025-10-22T11:32:43Z</time></trkpt>
<trkpt lat="43.712647" lon="-1.393623"><ele>19.1</ele><time>2025-10-22T11:32:49Z</time></trkpt>
<trkpt lat="43.712604" lon="-1.393592"><ele>20.0</ele><time>2025-10-22T11:32:54Z</time></trkpt>
<trkpt lat="43.712557" lon="-1.393584"><ele>21.6</ele><time>2025-10-22T11:32:59Z</time></trkpt>
<trkpt lat="43.712504" lon="-1.393565"><ele>21.5</ele><time>2025-10-22T11:33:04Z</time></trkpt>
<trkpt lat="43.712452" lon="-1.393538"><ele>20.9</ele><time>2025-10-22T11:33:09Z</time></trkpt>
<trkpt lat="43.712408" lon="-1.393510"><ele>21.1</ele><time>2025-10-22T11:33:14Z</time></trkpt>
<trkpt lat="43.712363" lon="-1.393488"><ele>21.3</ele><time>2025-10-22T11:33:19Z</time></trkpt>
<trkpt lat="43.712318" lon="-1.393466"><ele>22.7</ele><time>2025-10-22T11:33:24Z</time></trkpt>
<trkpt lat="43.712275" lon="-1.393445"><ele>23.6</ele><time>2025-10-22T11:33:29Z</time></trkpt>
<trkpt lat="43.712232" lon="-1.393421"><ele>23.0</ele><time>2025-10-22T11:33:34Z</time></trkpt>
<trkpt lat="43.712187" lon="-1.393390"><ele>22.9</ele><time>2025-10-22T11:33:39Z</time></trkpt>
<trkpt lat="43.712140" lon="-1.393365"><ele>23.0</ele><time>2025-10-22T11:33:44Z</time></trkpt>
<trkpt lat="43.712093" lon="-1.393324"><ele>23.2</ele><time>2025-10-22T11:33:50Z</time></trkpt>
<trkpt lat="43.712049" lon="-1.393307"><ele>23.4</ele><time>2025-10-22T11:33:54Z</time></trkpt>
<trkpt lat="43.712008" lon="-1.393271"><ele>23.5</ele><time>2025-10-22T11:33:58Z</time></trkpt>
<trkpt lat="43.711964" lon="-1.393231"><ele>23.8</ele><time>2025-10-22T11:34:02Z</time></trkpt>
<trkpt lat="43.711924" lon="-1.393192"><ele>24.0</ele><time>2025-10-22T11:34:06Z</time></trkpt>
<trkpt lat="43.711886" lon="-1.393156"><ele>23.2</ele><time>2025-10-22T11:34:10Z</time></trkpt>
<trkpt lat="43.711842" lon="-1.393113"><ele>22.7</ele><time>2025-10-22T11:34:16Z</time></trkpt>
<trkpt lat="43.711803" lon="-1.393076"><ele>22.4</ele><time>2025-10-22T11:34:21Z</time></trkpt>
<trkpt lat="43.711766" lon="-1.393039"><ele>21.1</ele><time>2025-10-22T11:34:25Z</time></trkpt>
<trkpt lat="43.711722" lon="-1.393003"><ele>20.4</ele><time>2025-10-22T11:34:29Z</time></trkpt>
<trkpt lat="43.711676" lon="-1.393002"><ele>22.9</ele><time>2025-10-22T11:34:34Z</time></trkpt>
<trkpt lat="43.711623" lon="-1.392982"><ele>23.4</ele><time>2025-10-22T11:34:39Z</time></trkpt>
<trkpt lat="43.711573" lon="-1.392962"><ele>23.9</ele><time>2025-10-22T11:34:43Z</time></trkpt>
<trkpt lat="43.711526" lon="-1.392928"><ele>22.9</ele><time>2025-10-22T11:34:48Z</time></trkpt>
<trkpt lat="43.711484" lon="-1.392887"><ele>19.7</ele><time>2025-10-22T11:34:52Z</time></trkpt>
<trkpt lat="43.711437" lon="-1.392845"><ele>20.0</ele><time>2025-10-22T11:34:56Z</time></trkpt>
<trkpt lat="43.711386" lon="-1.392823"><ele>22.1</ele><time>2025-10-22T11:35:00Z</time></trkpt>
<trkpt lat="43.711336" lon="-1.392799"><ele>22.8</ele><time>2025-10-22T11:35:05Z</time></trkpt>
<trkpt lat="43.711294" lon="-1.392768"><ele>21.3</ele><time>2025-10-22T11:35:09Z</time></trkpt>
<trkpt lat="43.711251" lon="-1.392744"><ele>18.9</ele><time>2025-10-22T11:35:12Z</time></trkpt>
<trkpt lat="43.711197" lon="-1.392720"><ele>17.2</ele><time>2025-10-22T11:35:16Z</time></trkpt>
<trkpt lat="43.711149" lon="-1.392689"><ele>16.3</ele><time>2025-10-22T11:35:20Z</time></trkpt>
<trkpt lat="43.711106" lon="-1.392671"><ele>16.3</ele><time>2025-10-22T11:35:23Z</time></trkpt>
<trkpt lat="43.711062" lon="-1.392644"><ele>17.7</ele><time>2025-10-22T11:35:27Z</time></trkpt>
<trkpt lat="43.711026" lon="-1.392604"><ele>18.3</ele><time>2025-10-22T11:35:30Z</time></trkpt>
<trkpt lat="43.710995" lon="-1.392558"><ele>19.3</ele><time>2025-10-22T11:35:33Z</time></trkpt>
<trkpt lat="43.710950" lon="-1.392517"><ele>21.6</ele><time>2025-10-22T11:35:38Z</time></trkpt>
<trkpt lat="43.710908" lon="-1.392492"><ele>22.2</ele><time>2025-10-22T11:35:42Z</time></trkpt>
<trkpt lat="43.710867" lon="-1.392458"><ele>23.2</ele><time>2025-10-22T11:35:46Z</time></trkpt>
<trkpt lat="43.710824" lon="-1.392426"><ele>23.9</ele><time>2025-10-22T11:35:50Z</time></trkpt>
<trkpt lat="43.710776" lon="-1.392395"><ele>23.3</ele><time>2025-10-22T11:35:55Z</time></trkpt>
<trkpt lat="43.710728" lon="-1.392366"><ele>22.7</ele><time>2025-10-22T11:36:00Z</time></trkpt>
<trkpt lat="43.710684" lon="-1.392343"><ele>25.1</ele><time>2025-10-22T11:36:04Z</time></trkpt>
<trkpt lat="43.710639" lon="-1.392305"><ele>26.7</ele><time>2025-10-22T11:36:09Z</time></trkpt>
<trkpt lat="43.710601" lon="-1.392260"><ele>27.0</ele><time>2025-10-22T11:36:14Z</time></trkpt>
<trkpt lat="43.710562" lon="-1.392223"><ele>27.7</ele><time>2025-10-22T11:36:18Z</time></trkpt>
<trkpt lat="43.710513" lon="-1.392183"><ele>28.1</ele><time>2025-10-22T11:36:23Z</time></trkpt>
<trkpt lat="43.710468" lon="-1.392128"><ele>27.9</ele><time>2025-10-22T11:36:27Z</time></trkpt>
<trkpt lat="43.710419" lon="-1.392090"><ele>27.7</ele><time>2025-10-22T11:36:30Z</time></trkpt>
<trkpt lat="43.710370" lon="-1.392063"><ele>26.5</ele><time>2025-10-22T11:36:33Z</time></trkpt>
<trkpt lat="43.710332" lon="-1.392023"><ele>25.2</ele><time>2025-10-22T11:36:36Z</time></trkpt>
<trkpt lat="43.710292" lon="-1.391985"><ele>23.1</ele><time>2025-10-22T11:36:39Z</time></trkpt>
<trkpt lat="43.710247" lon="-1.391948"><ele>22.8</ele><time>2025-10-22T11:36:42Z</time></trkpt>
<trkpt lat="43.710206" lon="-1.391919"><ele>23.1</ele><time>2025-10-22T11:36:45Z</time></trkpt>
<trkpt lat="43.710164" lon="-1.391892"><ele>23.4</ele><time>2025-10-22T11:36:48Z</time></trkpt>
<trkpt lat="43.710118" lon="-1.391876"><ele>22.4</ele><time>2025-10-22T11:36:51Z</time></trkpt>
<trkpt lat="43.710071" lon="-1.391869"><ele>23.5</ele><time>2025-10-22T11:36:54Z</time></trkpt>
<trkpt lat="43.710014" lon="-1.391849"><ele>22.9</ele><time>2025-10-22T11:36:58Z</time></trkpt>
<trkpt lat="43.709973" lon="-1.391820"><ele>21.7</ele><time>2025-10-22T11:37:01Z</time></trkpt>
<trkpt lat="43.709936" lon="-1.391781"><ele>21.5</ele><time>2025-10-22T11:37:04Z</time></trkpt>
<trkpt lat="43.709893" lon="-1.391753"><ele>20.8</ele><time>2025-10-22T11:37:07Z</time></trkpt>
<trkpt lat="43.709839" lon="-1.391728"><ele>21.3</ele><time>2025-10-22T11:37:11Z</time></trkpt>
<trkpt lat="43.709792" lon="-1.391701"><ele>23.5</ele><time>2025-10-22T11:37:16Z</time></trkpt>
<trkpt lat="43.709750" lon="-1.391670"><ele>27.7</ele><time>2025-10-22T11:37:21Z</time></trkpt>
<trkpt lat="43.709698" lon="-1.391651"><ele>26.6</ele><time>2025-10-22T11:37:25Z</time></trkpt>
<trkpt lat="43.709652" lon="-1.391623"><ele>27.5</ele><time>2025-10-22T11:37:31Z</time></trkpt>
<trkpt lat="43.709611" lon="-1.391585"><ele>25.7</ele><time>2025-10-22T11:37:36Z</time></trkpt>
<trkpt lat="43.709563" lon="-1.391565"><ele>28.4</ele><time>2025-10-22T11:37:40Z</time></trkpt>
<trkpt lat="43.709513" lon="-1.391559"><ele>29.1</ele><time>2025-10-22T11:37:44Z</time></trkpt>
<trkpt lat="43.709468" lon="-1.391550"><ele>29.0</ele><time>2025-10-22T11:37:47Z</time></trkpt>
<trkpt lat="43.709419" lon="-1.391549"><ele>28.0</ele><time>2025-10-22T11:37:50Z</time></trkpt>
<trkpt lat="43.709369" lon="-1.391550"><ele>28.3</ele><time>2025-10-22T11:37:53Z</time></trkpt>
<trkpt lat="43.709322" lon="-1.391537"><ele>28.4</ele><time>2025-10-22T11:37:56Z</time></trkpt>
<trkpt lat="43.709275" lon="-1.391539"><ele>28.5</ele><time>2025-10-22T11:37:59Z</time></trkpt>
<trkpt lat="43.709219" lon="-1.391544"><ele>27.5</ele><time>2025-10-22T11:38:03Z</time></trkpt>
<trkpt lat="43.709164" lon="-1.391556"><ele>27.5</ele><time>2025-10-22T11:38:07Z</time></trkpt>
<trkpt lat="43.709109" lon="-1.391565"><ele>27.0</ele><time>2025-10-22T11:38:11Z</time></trkpt>
<trkpt lat="43.709057" lon="-1.391579"><ele>26.4</ele><time>2025-10-22T11:38:16Z</time></trkpt>
<trkpt lat="43.709010" lon="-1.391591"><ele>26.7</ele><time>2025-10-22T11:38:23Z</time></trkpt>
<trkpt lat="43.708953" lon="-1.391598"><ele>27.1</ele><time>2025-10-22T11:38:29Z</time></trkpt>
<trkpt lat="43.708904" lon="-1.391566"><ele>26.0</ele><time>2025-10-22T11:38:33Z</time></trkpt>
<trkpt lat="43.708864" lon="-1.391526"><ele>24.7</ele><time>2025-10-22T11:38:37Z</time></trkpt>
<trkpt lat="43.708823" lon="-1.391487"><ele>24.5</ele><time>2025-10-22T11:38:41Z</time></trkpt>
<trkpt lat="43.708782" lon="-1.391451"><ele>25.3</ele><time>2025-10-22T11:38:45Z</time></trkpt>
<trkpt lat="43.708733" lon="-1.391416"><ele>26.2</ele><time>2025-10-22T11:38:50Z</time></trkpt>
<trkpt lat="43.708694" lon="-1.391382"><ele>26.1</ele><time>2025-10-22T11:38:54Z</time></trkpt>
<trkpt lat="43.708656" lon="-1.391325"><ele>26.0</ele><time>2025-10-22T11:38:59Z</time></trkpt>
<trkpt lat="43.708628" lon="-1.391274"><ele>26.6</ele><time>2025-10-22T11:39:03Z</time></trkpt>
<trkpt lat="43.708607" lon="-1.391213"><ele>26.0</ele><time>2025-10-22T11:39:07Z</time></trkpt>
<trkpt lat="43.708585" lon="-1.391147"><ele>25.3</ele><time>2025-10-22T11:39:11Z</time></trkpt>
<trkpt lat="43.708573" lon="-1.391081"><ele>24.9</ele><time>2025-10-22T11:39:15Z</time></trkpt>
<trkpt lat="43.708560" lon="-1.391019"><ele>24.3</ele><time>2025-10-22T11:39:19Z</time></trkpt>
<trkpt lat="43.708537" lon="-1.390957"><ele>23.3</ele><time>2025-10-22T11:39:24Z</time></trkpt>
<trkpt lat="43.708515" lon="-1.390887"><ele>22.4</ele><time>2025-10-22T11:39:29Z</time></trkpt>
<trkpt lat="43.708490" lon="-1.390825"><ele>22.4</ele><time>2025-10-22T11:39:34Z</time></trkpt>
<trkpt lat="43.708466" lon="-1.390759"><ele>20.9</ele><time>2025-10-22T11:39:39Z</time></trkpt>
<trkpt lat="43.708441" lon="-1.390703"><ele>20.6</ele><time>2025-10-22T11:39:43Z</time></trkpt>
<trkpt lat="43.708419" lon="-1.390644"><ele>20.2</ele><time>2025-10-22T11:39:47Z</time></trkpt>
<trkpt lat="43.708389" lon="-1.390592"><ele>18.9</ele><time>2025-10-22T11:39:51Z</time></trkpt>
<trkpt lat="43.708360" lon="-1.390537"><ele>18.8</ele><time>2025-10-22T11:39:55Z</time></trkpt>
<trkpt lat="43.708335" lon="-1.390475"><ele>18.0</ele><time>2025-10-22T11:39:59Z</time></trkpt>
<trkpt lat="43.708306" lon="-1.390415"><ele>16.3</ele><time>2025-10-22T11:40:03Z</time></trkpt>
<trkpt lat="43.708274" lon="-1.390356"><ele>15.5</ele><time>2025-10-22T11:40:07Z</time></trkpt>
<trkpt lat="43.708238" lon="-1.390299"><ele>15.1</ele><time>2025-10-22T11:40:11Z</time></trkpt>
<trkpt lat="43.708199" lon="-1.390248"><ele>14.4</ele><time>2025-10-22T11:40:15Z</time></trkpt>
<trkpt lat="43.708161" lon="-1.390198"><ele>14.5</ele><time>2025-10-22T11:40:19Z</time></trkpt>
<trkpt lat="43.708124" lon="-1.390143"><ele>14.1</ele><time>2025-10-22T11:40:23Z</time></trkpt>
<trkpt lat="43.708083" lon="-1.390085"><ele>13.0</ele><time>2025-10-22T11:40:27Z</time></trkpt>
<trkpt lat="43.708045" lon="-1.390026"><ele>13.2</ele><time>2025-10-22T11:40:31Z</time></trkpt>
<trkpt lat="43.708008" lon="-1.389968"><ele>13.5</ele><time>2025-10-22T11:40:35Z</time></trkpt>
<trkpt lat="43.707968" lon="-1.389921"><ele>13.6</ele><time>2025-10-22T11:40:39Z</time></trkpt>
<trkpt lat="43.707930" lon="-1.389868"><ele>13.6</ele><time>2025-10-22T11:40:43Z</time></trkpt>
<trkpt lat="43.707895" lon="-1.389810"><ele>12.9</ele><time>2025-10-22T11:40:47Z</time></trkpt>
<trkpt lat="43.707861" lon="-1.389751"><ele>12.3</ele><time>2025-10-22T11:40:51Z</time></trkpt>
<trkpt lat="43.707830" lon="-1.389688"><ele>12.1</ele><time>2025-10-22T11:40:55Z</time></trkpt>
<trkpt lat="43.707803" lon="-1.389629"><ele>12.5</ele><time>2025-10-22T11:40:59Z</time></trkpt>
<trkpt lat="43.707781" lon="-1.389564"><ele>12.5</ele><time>2025-10-22T11:41:03Z</time></trkpt>
<trkpt lat="43.707756" lon="-1.389497"><ele>12.9</ele><time>2025-10-22T11:41:07Z</time></trkpt>
<trkpt lat="43.707728" lon="-1.389432"><ele>12.6</ele><time>2025-10-22T11:41:11Z</time></trkpt>
<trkpt lat="43.707701" lon="-1.389373"><ele>12.7</ele><time>2025-10-22T11:41:15Z</time></trkpt>
<trkpt lat="43.707675" lon="-1.389310"><ele>12.4</ele><time>2025-10-22T11:41:19Z</time></trkpt>
<trkpt lat="43.707645" lon="-1.389249"><ele>11.7</ele><time>2025-10-22T11:41:23Z</time></trkpt>
<trkpt lat="43.707613" lon="-1.389196"><ele>12.0</ele><time>2025-10-22T11:41:27Z</time></trkpt>
<trkpt lat="43.707578" lon="-1.389143"><ele>12.2</ele><time>2025-10-22T11:41:31Z</time></trkpt>
<trkpt lat="43.707544" lon="-1.389099"><ele>11.7</ele><time>2025-10-22T11:41:35Z</time></trkpt>
<trkpt lat="43.707507" lon="-1.389061"><ele>11.2</ele><time>2025-10-22T11:41:39Z</time></trkpt>
<trkpt lat="43.707464" lon="-1.389034"><ele>10.6</ele><time>2025-10-22T11:41:43Z</time></trkpt>
<trkpt lat="43.707419" lon="-1.389012"><ele>10.9</ele><time>2025-10-22T11:41:47Z</time></trkpt>
<trkpt lat="43.707376" lon="-1.388979"><ele>10.6</ele><time>2025-10-22T11:41:51Z</time></trkpt>
<trkpt lat="43.707325" lon="-1.388963"><ele>10.6</ele><time>2025-10-22T11:41:55Z</time></trkpt>
<trkpt lat="43.707279" lon="-1.388946"><ele>10.7</ele><time>2025-10-22T11:41:59Z</time></trkpt>
<trkpt lat="43.707229" lon="-1.388940"><ele>11.1</ele><time>2025-10-22T11:42:03Z</time></trkpt>
<trkpt lat="43.707177" lon="-1.388929"><ele>11.2</ele><time>2025-10-22T11:42:07Z</time></trkpt>
<trkpt lat="43.707124" lon="-1.388916"><ele>11.9</ele><time>2025-10-22T11:42:11Z</time></trkpt>
<trkpt lat="43.707071" lon="-1.388909"><ele>12.0</ele><time>2025-10-22T11:42:15Z</time></trkpt>
<trkpt lat="43.707021" lon="-1.388901"><ele>12.3</ele><time>2025-10-22T11:42:19Z</time></trkpt>
<trkpt lat="43.706970" lon="-1.388889"><ele>11.9</ele><time>2025-10-22T11:42:23Z</time></trkpt>
<trkpt lat="43.706922" lon="-1.388874"><ele>12.2</ele><time>2025-10-22T11:42:27Z</time></trkpt>
<trkpt lat="43.706875" lon="-1.388863"><ele>12.3</ele><time>2025-10-22T11:42:31Z</time></trkpt>
<trkpt lat="43.706825" lon="-1.388846"><ele>12.8</ele><time>2025-10-22T11:42:35Z</time></trkpt>
<trkpt lat="43.706777" lon="-1.388826"><ele>12.6</ele><time>2025-10-22T11:42:39Z</time></trkpt>
<trkpt lat="43.706727" lon="-1.388806"><ele>13.0</ele><time>2025-10-22T11:42:43Z</time></trkpt>
<trkpt lat="43.706680" lon="-1.388799"><ele>13.1</ele><time>2025-10-22T11:42:47Z</time></trkpt>
<trkpt lat="43.706628" lon="-1.388791"><ele>13.0</ele><time>2025-10-22T11:42:51Z</time></trkpt>
<trkpt lat="43.706578" lon="-1.388785"><ele>13.2</ele><time>2025-10-22T11:42:55Z</time></trkpt>
<trkpt lat="43.706528" lon="-1.388781"><ele>13.6</ele><time>2025-10-22T11:42:59Z</time></trkpt>
<trkpt lat="43.706473" lon="-1.388788"><ele>13.8</ele><time>2025-10-22T11:43:04Z</time></trkpt>
<trkpt lat="43.706428" lon="-1.388779"><ele>14.1</ele><time>2025-10-22T11:43:08Z</time></trkpt>
<trkpt lat="43.706380" lon="-1.388770"><ele>14.4</ele><time>2025-10-22T11:43:12Z</time></trkpt>
<trkpt lat="43.706328" lon="-1.388771"><ele>14.2</ele><time>2025-10-22T11:43:16Z</time></trkpt>
<trkpt lat="43.706273" lon="-1.388774"><ele>15.0</ele><time>2025-10-22T11:43:20Z</time></trkpt>
<trkpt lat="43.706221" lon="-1.388777"><ele>15.8</ele><time>2025-10-22T11:43:24Z</time></trkpt>
<trkpt lat="43.706170" lon="-1.388793"><ele>16.0</ele><time>2025-10-22T11:43:28Z</time></trkpt>
<trkpt lat="43.706119" lon="-1.388809"><ele>16.7</ele><time>2025-10-22T11:43:32Z</time></trkpt>
<trkpt lat="43.706070" lon="-1.388823"><ele>16.7</ele><time>2025-10-22T11:43:36Z</time></trkpt>
<trkpt lat="43.706021" lon="-1.388838"><ele>17.2</ele><time>2025-10-22T11:43:40Z</time></trkpt>
<trkpt lat="43.705975" lon="-1.388848"><ele>17.8</ele><time>2025-10-22T11:43:44Z</time></trkpt>
<trkpt lat="43.705928" lon="-1.388873"><ele>17.9</ele><time>2025-10-22T11:43:48Z</time></trkpt>
<trkpt lat="43.705883" lon="-1.388896"><ele>18.8</ele><time>2025-10-22T11:43:52Z</time></trkpt>
<trkpt lat="43.705835" lon="-1.388920"><ele>19.2</ele><time>2025-10-22T11:43:56Z</time></trkpt>
<trkpt lat="43.705786" lon="-1.388939"><ele>19.5</ele><time>2025-10-22T11:44:00Z</time></trkpt>
<trkpt lat="43.705738" lon="-1.388957"><ele>19.9</ele><time>2025-10-22T11:44:04Z</time></trkpt>
<trkpt lat="43.705692" lon="-1.388982"><ele>20.1</ele><time>2025-10-22T11:44:08Z</time></trkpt>
<trkpt lat="43.705646" lon="-1.389012"><ele>20.8</ele><time>2025-10-22T11:44:12Z</time></trkpt>
<trkpt lat="43.705602" lon="-1.389034"><ele>21.0</ele><time>2025-10-22T11:44:16Z</time></trkpt>
<trkpt lat="43.705558" lon="-1.389050"><ele>20.2</ele><time>2025-10-22T11:44:28Z</time></trkpt>
<trkpt lat="43.705514" lon="-1.389074"><ele>20.5</ele><time>2025-10-22T11:44:36Z</time></trkpt>
<trkpt lat="43.705475" lon="-1.389043"><ele>17.4</ele><time>2025-10-22T11:46:27Z</time></trkpt>
<trkpt lat="43.705431" lon="-1.389079"><ele>16.1</ele><time>2025-10-22T11:47:47Z</time></trkpt>
<trkpt lat="43.705380" lon="-1.389101"><ele>15.8</ele><time>2025-10-22T11:47:52Z</time></trkpt>
<trkpt lat="43.705335" lon="-1.389122"><ele>15.8</ele><time>2025-10-22T11:47:56Z</time></trkpt>
<trkpt lat="43.705291" lon="-1.389140"><ele>14.9</ele><time>2025-10-22T11:48:00Z</time></trkpt>
<trkpt lat="43.705247" lon="-1.389159"><ele>14.9</ele><time>2025-10-22T11:48:04Z</time></trkpt>
<trkpt lat="43.705202" lon="-1.389183"><ele>14.6</ele><time>2025-10-22T11:48:08Z</time></trkpt>
<trkpt lat="43.705153" lon="-1.389208"><ele>15.8</ele><time>2025-10-22T11:48:12Z</time></trkpt>
<trkpt lat="43.705108" lon="-1.389234"><ele>16.0</ele><time>2025-10-22T11:48:16Z</time></trkpt>
<trkpt lat="43.705068" lon="-1.389262"><ele>16.1</ele><time>2025-10-22T11:48:20Z</time></trkpt>
<trkpt lat="43.705025" lon="-1.389286"><ele>16.2</ele><time>2025-10-22T11:48:24Z</time></trkpt>
<trkpt lat="43.704983" lon="-1.389322"><ele>16.4</ele><time>2025-10-22T11:48:28Z</time></trkpt>
<trkpt lat="43.704933" lon="-1.389352"><ele>16.3</ele><time>2025-10-22T11:48:33Z</time></trkpt>
<trkpt lat="43.704885" lon="-1.389380"><ele>15.8</ele><time>2025-10-22T11:48:38Z</time></trkpt>
<trkpt lat="43.704847" lon="-1.389414"><ele>15.3</ele><time>2025-10-22T11:48:43Z</time></trkpt>
<trkpt lat="43.704808" lon="-1.389452"><ele>15.4</ele><time>2025-10-22T11:48:48Z</time></trkpt>
<trkpt lat="43.704759" lon="-1.389486"><ele>15.7</ele><time>2025-10-22T11:48:53Z</time></trkpt>
<trkpt lat="43.704716" lon="-1.389514"><ele>16.6</ele><time>2025-10-22T11:48:57Z</time></trkpt>
<trkpt lat="43.704676" lon="-1.389544"><ele>16.4</ele><time>2025-10-22T11:49:01Z</time></trkpt>
<trkpt lat="43.704632" lon="-1.389569"><ele>16.8</ele><time>2025-10-22T11:49:05Z</time></trkpt>
<trkpt lat="43.704589" lon="-1.389593"><ele>17.1</ele><time>2025-10-22T11:49:09Z</time></trkpt>
<trkpt lat="43.704545" lon="-1.389617"><ele>17.9</ele><time>2025-10-22T11:49:13Z</time></trkpt>
<trkpt lat="43.704501" lon="-1.389645"><ele>18.2</ele><time>2025-10-22T11:49:17Z</time></trkpt>
<trkpt lat="43.704450" lon="-1.389674"><ele>18.5</ele><time>2025-10-22T11:49:22Z</time></trkpt>
<trkpt lat="43.704406" lon="-1.389694"><ele>19.2</ele><time>2025-10-22T11:49:26Z</time></trkpt>
<trkpt lat="43.704364" lon="-1.389721"><ele>19.7</ele><time>2025-10-22T11:49:30Z</time></trkpt>
<trkpt lat="43.704324" lon="-1.389759"><ele>19.9</ele><time>2025-10-22T11:49:35Z</time></trkpt>
<trkpt lat="43.704276" lon="-1.389782"><ele>20.2</ele><time>2025-10-22T11:49:39Z</time></trkpt>
<trkpt lat="43.704230" lon="-1.389808"><ele>20.9</ele><time>2025-10-22T11:49:43Z</time></trkpt>
<trkpt lat="43.704186" lon="-1.389833"><ele>22.3</ele><time>2025-10-22T11:49:47Z</time></trkpt>
<trkpt lat="43.704140" lon="-1.389852"><ele>22.2</ele><time>2025-10-22T11:49:51Z</time></trkpt>
<trkpt lat="43.704090" lon="-1.389864"><ele>22.3</ele><time>2025-10-22T11:49:55Z</time></trkpt>
<trkpt lat="43.704038" lon="-1.389878"><ele>23.5</ele><time>2025-10-22T11:49:59Z</time></trkpt>
<trkpt lat="43.703982" lon="-1.389884"><ele>23.8</ele><time>2025-10-22T11:50:03Z</time></trkpt>
<trkpt lat="43.703923" lon="-1.389888"><ele>24.0</ele><time>2025-10-22T11:50:07Z</time></trkpt>
<trkpt lat="43.703877" lon="-1.389892"><ele>23.8</ele><time>2025-10-22T11:50:10Z</time></trkpt>
<trkpt lat="43.703822" lon="-1.389899"><ele>23.8</ele><time>2025-10-22T11:50:14Z</time></trkpt>
<trkpt lat="43.703771" lon="-1.389904"><ele>23.9</ele><time>2025-10-22T11:50:18Z</time></trkpt>
<trkpt lat="43.703724" lon="-1.389908"><ele>23.7</ele><time>2025-10-22T11:50:22Z</time></trkpt>
<trkpt lat="43.703671" lon="-1.389925"><ele>25.2</ele><time>2025-10-22T11:50:27Z</time></trkpt>
<trkpt lat="43.703624" lon="-1.389927"><ele>26.1</ele><time>2025-10-22T11:50:31Z</time></trkpt>
<trkpt lat="43.703576" lon="-1.389952"><ele>28.6</ele><time>2025-10-22T11:50:39Z</time></trkpt>
<trkpt lat="43.703526" lon="-1.389965"><ele>29.5</ele><time>2025-10-22T11:50:45Z</time></trkpt>
<trkpt lat="43.703481" lon="-1.389977"><ele>30.2</ele><time>2025-10-22T11:50:49Z</time></trkpt>
<trkpt lat="43.703433" lon="-1.389983"><ele>32.0</ele><time>2025-10-22T11:50:55Z</time></trkpt>
<trkpt lat="43.703383" lon="-1.390001"><ele>31.7</ele><time>2025-10-22T11:51:01Z</time></trkpt>
<trkpt lat="43.703337" lon="-1.390005"><ele>32.3</ele><time>2025-10-22T11:51:05Z</time></trkpt>
<trkpt lat="43.703292" lon="-1.390019"><ele>32.7</ele><time>2025-10-22T11:51:10Z</time></trkpt>
<trkpt lat="43.703241" lon="-1.390026"><ele>31.4</ele><time>2025-10-22T11:51:15Z</time></trkpt>
<trkpt lat="43.703195" lon="-1.390043"><ele>32.1</ele><time>2025-10-22T11:51:20Z</time></trkpt>
<trkpt lat="43.703146" lon="-1.390059"><ele>35.4</ele><time>2025-10-22T11:51:25Z</time></trkpt>
<trkpt lat="43.703097" lon="-1.390066"><ele>36.1</ele><time>2025-10-22T11:51:30Z</time></trkpt>
<trkpt lat="43.703052" lon="-1.390077"><ele>36.0</ele><time>2025-10-22T11:51:33Z</time></trkpt>
<trkpt lat="43.702996" lon="-1.390080"><ele>37.7</ele><time>2025-10-22T11:51:37Z</time></trkpt>
<trkpt lat="43.702951" lon="-1.390078"><ele>37.2</ele><time>2025-10-22T11:51:40Z</time></trkpt>
<trkpt lat="43.702898" lon="-1.390077"><ele>36.5</ele><time>2025-10-22T11:51:45Z</time></trkpt>
<trkpt lat="43.702846" lon="-1.390074"><ele>38.1</ele><time>2025-10-22T11:51:49Z</time></trkpt>
<trkpt lat="43.702800" lon="-1.390069"><ele>39.5</ele><time>2025-10-22T11:51:53Z</time></trkpt>
<trkpt lat="43.702750" lon="-1.390054"><ele>42.3</ele><time>2025-10-22T11:51:57Z</time></trkpt>
<trkpt lat="43.702690" lon="-1.390047"><ele>40.8</ele><time>2025-10-22T11:52:02Z</time></trkpt>
<trkpt lat="43.702640" lon="-1.390041"><ele>38.7</ele><time>2025-10-22T11:52:06Z</time></trkpt>
<trkpt lat="43.702591" lon="-1.390037"><ele>40.3</ele><time>2025-10-22T11:52:10Z</time></trkpt>
<trkpt lat="43.702543" lon="-1.390020"><ele>39.8</ele><time>2025-10-22T11:52:14Z</time></trkpt>
<trkpt lat="43.702490" lon="-1.390014"><ele>41.5</ele><time>2025-10-22T11:52:20Z</time></trkpt>
<trkpt lat="43.702445" lon="-1.389985"><ele>43.2</ele><time>2025-10-22T11:52:25Z</time></trkpt>
<trkpt lat="43.702389" lon="-1.389964"><ele>44.4</ele><time>2025-10-22T11:52:30Z</time></trkpt>
<trkpt lat="43.702344" lon="-1.389944"><ele>46.3</ele><time>2025-10-22T11:52:33Z</time></trkpt>
<trkpt lat="43.702300" lon="-1.389909"><ele>46.2</ele><time>2025-10-22T11:52:37Z</time></trkpt>
<trkpt lat="43.702254" lon="-1.389866"><ele>43.5</ele><time>2025-10-22T11:52:41Z</time></trkpt>
<trkpt lat="43.702211" lon="-1.389836"><ele>41.8</ele><time>2025-10-22T11:52:45Z</time></trkpt>
<trkpt lat="43.702163" lon="-1.389809"><ele>42.5</ele><time>2025-10-22T11:52:50Z</time></trkpt>
<trkpt lat="43.702110" lon="-1.389793"><ele>41.7</ele><time>2025-10-22T11:52:55Z</time></trkpt>
<trkpt lat="43.702064" lon="-1.389784"><ele>44.5</ele><time>2025-10-22T11:53:00Z</time></trkpt>
<trkpt lat="43.702015" lon="-1.389764"><ele>48.0</ele><time>2025-10-22T11:53:05Z</time></trkpt>
<trkpt lat="43.701977" lon="-1.389728"><ele>49.1</ele><time>2025-10-22T11:53:09Z</time></trkpt>
<trkpt lat="43.701936" lon="-1.389681"><ele>51.3</ele><time>2025-10-22T11:53:13Z</time></trkpt>
<trkpt lat="43.701898" lon="-1.389644"><ele>53.4</ele><time>2025-10-22T11:53:18Z</time></trkpt>
<trkpt lat="43.701858" lon="-1.389591"><ele>55.6</ele><time>2025-10-22T11:53:24Z</time></trkpt>
<trkpt lat="43.701846" lon="-1.389524"><ele>52.1</ele><time>2025-10-22T11:53:29Z</time></trkpt>
<trkpt lat="43.701824" lon="-1.389466"><ele>51.0</ele><time>2025-10-22T11:53:35Z</time></trkpt>
<trkpt lat="43.701792" lon="-1.389423"><ele>52.7</ele><time>2025-10-22T11:53:41Z</time></trkpt>
<trkpt lat="43.701775" lon="-1.389364"><ele>52.4</ele><time>2025-10-22T11:53:46Z</time></trkpt>
<trkpt lat="43.701747" lon="-1.389306"><ele>54.5</ele><time>2025-10-22T11:54:24Z</time></trkpt>
<trkpt lat="43.701728" lon="-1.389247"><ele>55.1</ele><time>2025-10-22T11:54:29Z</time></trkpt>
<trkpt lat="43.701713" lon="-1.389177"><ele>53.6</ele><time>2025-10-22T11:54:34Z</time></trkpt>
<trkpt lat="43.701693" lon="-1.389108"><ele>52.2</ele><time>2025-10-22T11:54:38Z</time></trkpt>
<trkpt lat="43.701674" lon="-1.389041"><ele>51.0</ele><time>2025-10-22T11:54:42Z</time></trkpt>
<trkpt lat="43.701667" lon="-1.388971"><ele>49.7</ele><time>2025-10-22T11:54:46Z</time></trkpt>
<trkpt lat="43.701656" lon="-1.388899"><ele>48.5</ele><time>2025-10-22T11:54:50Z</time></trkpt>
<trkpt lat="43.701640" lon="-1.388836"><ele>48.3</ele><time>2025-10-22T11:54:55Z</time></trkpt>
<trkpt lat="43.701628" lon="-1.388766"><ele>47.3</ele><time>2025-10-22T11:55:00Z</time></trkpt>
<trkpt lat="43.701638" lon="-1.388694"><ele>44.5</ele><time>2025-10-22T11:55:05Z</time></trkpt>
<trkpt lat="43.701642" lon="-1.388630"><ele>44.6</ele><time>2025-10-22T11:55:08Z</time></trkpt>
<trkpt lat="43.701638" lon="-1.388554"><ele>45.4</ele><time>2025-10-22T11:55:12Z</time></trkpt>
<trkpt lat="43.701627" lon="-1.388484"><ele>45.3</ele><time>2025-10-22T11:55:16Z</time></trkpt>
<trkpt lat="43.701614" lon="-1.388424"><ele>46.1</ele><time>2025-10-22T11:55:20Z</time></trkpt>
<trkpt lat="43.701605" lon="-1.388353"><ele>46.9</ele><time>2025-10-22T11:55:25Z</time></trkpt>
<trkpt lat="43.701602" lon="-1.388286"><ele>47.9</ele><time>2025-10-22T11:55:30Z</time></trkpt>
<trkpt lat="43.701589" lon="-1.388209"><ele>45.9</ele><time>2025-10-22T11:55:35Z</time></trkpt>
<trkpt lat="43.701590" lon="-1.388141"><ele>46.3</ele><time>2025-10-22T11:55:39Z</time></trkpt>
<trkpt lat="43.701573" lon="-1.388083"><ele>47.3</ele><time>2025-10-22T11:55:43Z</time></trkpt>
<trkpt lat="43.701557" lon="-1.388016"><ele>49.8</ele><time>2025-10-22T11:55:47Z</time></trkpt>
<trkpt lat="43.701531" lon="-1.387964"><ele>52.4</ele><time>2025-10-22T11:55:51Z</time></trkpt>
<trkpt lat="43.701499" lon="-1.387908"><ele>53.0</ele><time>2025-10-22T11:55:55Z</time></trkpt>
<trkpt lat="43.701469" lon="-1.387851"><ele>53.8</ele><time>2025-10-22T11:56:00Z</time></trkpt>
<trkpt lat="43.701453" lon="-1.387784"><ele>54.8</ele><time>2025-10-22T11:56:04Z</time></trkpt>
<trkpt lat="43.701448" lon="-1.387709"><ele>52.1</ele><time>2025-10-22T11:56:08Z</time></trkpt>
<trkpt lat="43.701429" lon="-1.387641"><ele>51.3</ele><time>2025-10-22T11:56:13Z</time></trkpt>
<trkpt lat="43.701409" lon="-1.387579"><ele>48.6</ele><time>2025-10-22T11:56:17Z</time></trkpt>
<trkpt lat="43.701381" lon="-1.387527"><ele>49.1</ele><time>2025-10-22T11:56:21Z</time></trkpt>
<trkpt lat="43.701347" lon="-1.387466"><ele>49.8</ele><time>2025-10-22T11:56:26Z</time></trkpt>
<trkpt lat="43.701329" lon="-1.387389"><ele>48.5</ele><time>2025-10-22T11:56:30Z</time></trkpt>
<trkpt lat="43.701314" lon="-1.387324"><ele>47.3</ele><time>2025-10-22T11:56:34Z</time></trkpt>
<trkpt lat="43.701301" lon="-1.387262"><ele>48.4</ele><time>2025-10-22T11:56:38Z</time></trkpt>
<trkpt lat="43.701290" lon="-1.387192"><ele>49.8</ele><time>2025-10-22T11:56:43Z</time></trkpt>
<trkpt lat="43.701269" lon="-1.387120"><ele>49.7</ele><time>2025-10-22T11:56:48Z</time></trkpt>
<trkpt lat="43.701235" lon="-1.387059"><ele>48.8</ele><time>2025-10-22T11:56:52Z</time></trkpt>
<trkpt lat="43.701220" lon="-1.386995"><ele>49.1</ele><time>2025-10-22T11:56:56Z</time></trkpt>
<trkpt lat="43.701195" lon="-1.386928"><ele>51.2</ele><time>2025-10-22T11:57:01Z</time></trkpt>
<trkpt lat="43.701161" lon="-1.386886"><ele>53.2</ele><time>2025-10-22T11:57:05Z</time></trkpt>
<trkpt lat="43.701137" lon="-1.386833"><ele>54.8</ele><time>2025-10-22T11:57:09Z</time></trkpt>
<trkpt lat="43.701098" lon="-1.386792"><ele>56.9</ele><time>2025-10-22T11:57:13Z</time></trkpt>
<trkpt lat="43.701063" lon="-1.386753"><ele>58.1</ele><time>2025-10-22T11:57:17Z</time></trkpt>
<trkpt lat="43.701027" lon="-1.386703"><ele>56.9</ele><time>2025-10-22T11:57:21Z</time></trkpt>
<trkpt lat="43.701003" lon="-1.386634"><ele>58.9</ele><time>2025-10-22T11:57:25Z</time></trkpt>
<trkpt lat="43.700973" lon="-1.386565"><ele>59.2</ele><time>2025-10-22T11:57:30Z</time></trkpt>
<trkpt lat="43.700939" lon="-1.386500"><ele>59.2</ele><time>2025-10-22T11:57:34Z</time></trkpt>
<trkpt lat="43.700905" lon="-1.386452"><ele>57.9</ele><time>2025-10-22T11:57:38Z</time></trkpt>
<trkpt lat="43.700890" lon="-1.386391"><ele>57.7</ele><time>2025-10-22T11:57:42Z</time></trkpt>
<trkpt lat="43.700877" lon="-1.386322"><ele>57.0</ele><time>2025-10-22T11:57:45Z</time></trkpt>
<trkpt lat="43.700861" lon="-1.386256"><ele>56.6</ele><time>2025-10-22T11:57:48Z</time></trkpt>
<trkpt lat="43.700840" lon="-1.386201"><ele>54.1</ele><time>2025-10-22T11:57:52Z</time></trkpt>
<trkpt lat="43.700817" lon="-1.386148"><ele>52.7</ele><time>2025-10-22T11:57:56Z</time></trkpt>
<trkpt lat="43.700799" lon="-1.386086"><ele>51.3</ele><time>2025-10-22T11:57:59Z</time></trkpt>
<trkpt lat="43.700777" lon="-1.386015"><ele>48.4</ele><time>2025-10-22T11:58:03Z</time></trkpt>
<trkpt lat="43.700775" lon="-1.385943"><ele>46.5</ele><time>2025-10-22T11:58:07Z</time></trkpt>
<trkpt lat="43.700764" lon="-1.385864"><ele>43.6</ele><time>2025-10-22T11:58:12Z</time></trkpt>
<trkpt lat="43.700764" lon="-1.385777"><ele>40.8</ele><time>2025-10-22T11:58:16Z</time></trkpt>
<trkpt lat="43.700765" lon="-1.385700"><ele>40.8</ele><time>2025-10-22T11:58:19Z</time></trkpt>
<trkpt lat="43.700772" lon="-1.385636"><ele>41.7</ele><time>2025-10-22T11:58:22Z</time></trkpt>
<trkpt lat="43.700768" lon="-1.385565"><ele>44.0</ele><time>2025-10-22T11:58:26Z</time></trkpt>
<trkpt lat="43.700763" lon="-1.385492"><ele>44.8</ele><time>2025-10-22T11:58:31Z</time></trkpt>
<trkpt lat="43.700750" lon="-1.385426"><ele>45.4</ele><time>2025-10-22T11:58:36Z</time></trkpt>
<trkpt lat="43.700752" lon="-1.385353"><ele>43.5</ele><time>2025-10-22T11:58:40Z</time></trkpt>
<trkpt lat="43.700740" lon="-1.385281"><ele>42.5</ele><time>2025-10-22T11:58:45Z</time></trkpt>
<trkpt lat="43.700740" lon="-1.385215"><ele>42.0</ele><time>2025-10-22T11:58:48Z</time></trkpt>
<trkpt lat="43.700751" lon="-1.385154"><ele>41.8</ele><time>2025-10-22T11:58:51Z</time></trkpt>
<trkpt lat="43.700735" lon="-1.385077"><ele>43.9</ele><time>2025-10-22T11:58:56Z</time></trkpt>
<trkpt lat="43.700716" lon="-1.385016"><ele>42.9</ele><time>2025-10-22T11:59:01Z</time></trkpt>
<trkpt lat="43.700691" lon="-1.384962"><ele>41.5</ele><time>2025-10-22T11:59:06Z</time></trkpt>
<trkpt lat="43.700674" lon="-1.384890"><ele>41.6</ele><time>2025-10-22T11:59:10Z</time></trkpt>
<trkpt lat="43.700652" lon="-1.384831"><ele>41.6</ele><time>2025-10-22T11:59:14Z</time></trkpt>
<trkpt lat="43.700636" lon="-1.384769"><ele>41.6</ele><time>2025-10-22T11:59:18Z</time></trkpt>
<trkpt lat="43.700618" lon="-1.384701"><ele>42.9</ele><time>2025-10-22T11:59:22Z</time></trkpt>
<trkpt lat="43.700603" lon="-1.384636"><ele>42.5</ele><time>2025-10-22T11:59:26Z</time></trkpt>
<trkpt lat="43.700591" lon="-1.384563"><ele>42.9</ele><time>2025-10-22T11:59:30Z</time></trkpt>
<trkpt lat="43.700585" lon="-1.384494"><ele>43.9</ele><time>2025-10-22T11:59:35Z</time></trkpt>
<trkpt lat="43.700562" lon="-1.384419"><ele>44.3</ele><time>2025-10-22T11:59:39Z</time></trkpt>
<trkpt lat="43.700530" lon="-1.384363"><ele>47.5</ele><time>2025-10-22T11:59:44Z</time></trkpt>
<trkpt lat="43.700499" lon="-1.384307"><ele>49.7</ele><time>2025-10-22T11:59:49Z</time></trkpt>
<trkpt lat="43.700468" lon="-1.384247"><ele>50.2</ele><time>2025-10-22T11:59:53Z</time></trkpt>
<trkpt lat="43.700438" lon="-1.384196"><ele>51.0</ele><time>2025-10-22T11:59:57Z</time></trkpt>
<trkpt lat="43.700401" lon="-1.384148"><ele>52.3</ele><time>2025-10-22T12:00:02Z</time></trkpt>
<trkpt lat="43.700361" lon="-1.384098"><ele>53.4</ele><time>2025-10-22T12:00:06Z</time></trkpt>
<trkpt lat="43.700322" lon="-1.384045"><ele>55.2</ele><time>2025-10-22T12:00:11Z</time></trkpt>
<trkpt lat="43.700291" lon="-1.383985"><ele>53.9</ele><time>2025-10-22T12:00:15Z</time></trkpt>
<trkpt lat="43.700247" lon="-1.383942"><ele>54.0</ele><time>2025-10-22T12:00:19Z</time></trkpt>
<trkpt lat="43.700206" lon="-1.383896"><ele>52.6</ele><time>2025-10-22T12:00:23Z</time></trkpt>
<trkpt lat="43.700168" lon="-1.383850"><ele>52.0</ele><time>2025-10-22T12:00:26Z</time></trkpt>
<trkpt lat="43.700134" lon="-1.383790"><ele>47.3</ele><time>2025-10-22T12:00:31Z</time></trkpt>
<trkpt lat="43.700104" lon="-1.383731"><ele>47.1</ele><time>2025-10-22T12:00:36Z</time></trkpt>
<trkpt lat="43.700057" lon="-1.383690"><ele>48.4</ele><time>2025-10-22T12:00:40Z</time></trkpt>
<trkpt lat="43.700020" lon="-1.383652"><ele>51.1</ele><time>2025-10-22T12:00:44Z</time></trkpt>
<trkpt lat="43.699976" lon="-1.383621"><ele>51.5</ele><time>2025-10-22T12:00:48Z</time></trkpt>
<trkpt lat="43.699927" lon="-1.383596"><ele>54.9</ele><time>2025-10-22T12:00:53Z</time></trkpt>
<trkpt lat="43.699888" lon="-1.383540"><ele>54.6</ele><time>2025-10-22T12:00:58Z</time></trkpt>
<trkpt lat="43.699843" lon="-1.383494"><ele>56.8</ele><time>2025-10-22T12:01:03Z</time></trkpt>
<trkpt lat="43.699792" lon="-1.383458"><ele>59.1</ele><time>2025-10-22T12:01:07Z</time></trkpt>
<trkpt lat="43.699746" lon="-1.383430"><ele>57.4</ele><time>2025-10-22T12:01:10Z</time></trkpt>
<trkpt lat="43.699698" lon="-1.383395"><ele>56.1</ele><time>2025-10-22T12:01:13Z</time></trkpt>
<trkpt lat="43.699655" lon="-1.383342"><ele>53.4</ele><time>2025-10-22T12:01:17Z</time></trkpt>
<trkpt lat="43.699610" lon="-1.383291"><ele>52.0</ele><time>2025-10-22T12:01:21Z</time></trkpt>
<trkpt lat="43.699571" lon="-1.383250"><ele>52.3</ele><time>2025-10-22T12:01:24Z</time></trkpt>
<trkpt lat="43.699536" lon="-1.383201"><ele>53.6</ele><time>2025-10-22T12:01:28Z</time></trkpt>
<trkpt lat="43.699499" lon="-1.383148"><ele>53.7</ele><time>2025-10-22T12:01:31Z</time></trkpt>
<trkpt lat="43.699459" lon="-1.383098"><ele>55.4</ele><time>2025-10-22T12:01:35Z</time></trkpt>
<trkpt lat="43.699428" lon="-1.383041"><ele>54.7</ele><time>2025-10-22T12:01:39Z</time></trkpt>
<trkpt lat="43.699394" lon="-1.382998"><ele>53.3</ele><time>2025-10-22T12:01:42Z</time></trkpt>
<trkpt lat="43.699363" lon="-1.382936"><ele>52.4</ele><time>2025-10-22T12:01:45Z</time></trkpt>
<trkpt lat="43.699324" lon="-1.382900"><ele>54.1</ele><time>2025-10-22T12:01:49Z</time></trkpt>
<trkpt lat="43.699299" lon="-1.382841"><ele>55.8</ele><time>2025-10-22T12:01:53Z</time></trkpt>
<trkpt lat="43.699273" lon="-1.382786"><ele>56.6</ele><time>2025-10-22T12:01:57Z</time></trkpt>
<trkpt lat="43.699230" lon="-1.382734"><ele>55.9</ele><time>2025-10-22T12:02:01Z</time></trkpt>
<trkpt lat="43.699197" lon="-1.382678"><ele>56.5</ele><time>2025-10-22T12:02:05Z</time></trkpt>
<trkpt lat="43.699175" lon="-1.382606"><ele>52.7</ele><time>2025-10-22T12:02:09Z</time></trkpt>
<trkpt lat="43.699149" lon="-1.382534"><ele>47.4</ele><time>2025-10-22T12:02:13Z</time></trkpt>
<trkpt lat="43.699133" lon="-1.382466"><ele>46.6</ele><time>2025-10-22T12:02:17Z</time></trkpt>
<trkpt lat="43.699126" lon="-1.382386"><ele>47.1</ele><time>2025-10-22T12:02:21Z</time></trkpt>
<trkpt lat="43.699112" lon="-1.382317"><ele>47.0</ele><time>2025-10-22T12:02:25Z</time></trkpt>
<trkpt lat="43.699083" lon="-1.382253"><ele>47.0</ele><time>2025-10-22T12:02:29Z</time></trkpt>
<trkpt lat="43.699059" lon="-1.382193"><ele>42.2</ele><time>2025-10-22T12:02:33Z</time></trkpt>
<trkpt lat="43.699034" lon="-1.382132"><ele>40.2</ele><time>2025-10-22T12:02:37Z</time></trkpt>
<trkpt lat="43.699001" lon="-1.382072"><ele>37.8</ele><time>2025-10-22T12:02:41Z</time></trkpt>
<trkpt lat="43.698962" lon="-1.382010"><ele>35.3</ele><time>2025-10-22T12:02:45Z</time></trkpt>
<trkpt lat="43.698935" lon="-1.381954"><ele>33.3</ele><time>2025-10-22T12:02:48Z</time></trkpt>
<trkpt lat="43.698897" lon="-1.381900"><ele>29.0</ele><time>2025-10-22T12:02:51Z</time></trkpt>
<trkpt lat="43.698862" lon="-1.381844"><ele>26.7</ele><time>2025-10-22T12:02:54Z</time></trkpt>
<trkpt lat="43.698830" lon="-1.381783"><ele>25.6</ele><time>2025-10-22T12:02:57Z</time></trkpt>
<trkpt lat="43.698800" lon="-1.381727"><ele>24.6</ele><time>2025-10-22T12:03:00Z</time></trkpt>
<trkpt lat="43.698770" lon="-1.381672"><ele>24.5</ele><time>2025-10-22T12:03:03Z</time></trkpt>
<trkpt lat="43.698741" lon="-1.381620"><ele>23.4</ele><time>2025-10-22T12:03:06Z</time></trkpt>
<trkpt lat="43.698716" lon="-1.381564"><ele>22.8</ele><time>2025-10-22T12:03:09Z</time></trkpt>
<trkpt lat="43.698695" lon="-1.381507"><ele>21.9</ele><time>2025-10-22T12:03:12Z</time></trkpt>
<trkpt lat="43.698670" lon="-1.381432"><ele>20.7</ele><time>2025-10-22T12:03:16Z</time></trkpt>
<trkpt lat="43.698652" lon="-1.381372"><ele>19.8</ele><time>2025-10-22T12:03:19Z</time></trkpt>
<trkpt lat="43.698639" lon="-1.381308"><ele>19.2</ele><time>2025-10-22T12:03:22Z</time></trkpt>
<trkpt lat="43.698629" lon="-1.381243"><ele>18.9</ele><time>2025-10-22T12:03:25Z</time></trkpt>
<trkpt lat="43.698623" lon="-1.381181"><ele>17.8</ele><time>2025-10-22T12:03:28Z</time></trkpt>
<trkpt lat="43.698620" lon="-1.381099"><ele>17.1</ele><time>2025-10-22T12:03:32Z</time></trkpt>
<trkpt lat="43.698612" lon="-1.381019"><ele>16.3</ele><time>2025-10-22T12:03:36Z</time></trkpt>
<trkpt lat="43.698605" lon="-1.380939"><ele>16.3</ele><time>2025-10-22T12:03:40Z</time></trkpt>
<trkpt lat="43.698598" lon="-1.380862"><ele>16.6</ele><time>2025-10-22T12:03:44Z</time></trkpt>
<trkpt lat="43.698586" lon="-1.380787"><ele>16.3</ele><time>2025-10-22T12:03:48Z</time></trkpt>
<trkpt lat="43.698577" lon="-1.380715"><ele>16.4</ele><time>2025-10-22T12:03:52Z</time></trkpt>
<trkpt lat="43.698568" lon="-1.380647"><ele>16.3</ele><time>2025-10-22T12:03:56Z</time></trkpt>
<trkpt lat="43.698561" lon="-1.380575"><ele>16.3</ele><time>2025-10-22T12:04:00Z</time></trkpt>
<trkpt lat="43.698557" lon="-1.380501"><ele>16.3</ele><time>2025-10-22T12:04:04Z</time></trkpt>
<trkpt lat="43.698557" lon="-1.380427"><ele>16.1</ele><time>2025-10-22T12:04:08Z</time></trkpt>
<trkpt lat="43.698560" lon="-1.380352"><ele>16.0</ele><time>2025-10-22T12:04:12Z</time></trkpt>
<trkpt lat="43.698565" lon="-1.380276"><ele>16.3</ele><time>2025-10-22T12:04:16Z</time></trkpt>
<trkpt lat="43.698565" lon="-1.380204"><ele>16.2</ele><time>2025-10-22T12:04:20Z</time></trkpt>
<trkpt lat="43.698571" lon="-1.380130"><ele>15.7</ele><time>2025-10-22T12:04:24Z</time></trkpt>
<trkpt lat="43.698568" lon="-1.380057"><ele>15.8</ele><time>2025-10-22T12:04:28Z</time></trkpt>
<trkpt lat="43.698556" lon="-1.379989"><ele>16.0</ele><time>2025-10-22T12:04:32Z</time></trkpt>
<trkpt lat="43.698540" lon="-1.379925"><ele>16.0</ele><time>2025-10-22T12:04:36Z</time></trkpt>
<trkpt lat="43.698523" lon="-1.379866"><ele>16.6</ele><time>2025-10-22T12:04:40Z</time></trkpt>
<trkpt lat="43.698502" lon="-1.379811"><ele>18.0</ele><time>2025-10-22T12:04:45Z</time></trkpt>
<trkpt lat="43.698470" lon="-1.379761"><ele>19.6</ele><time>2025-10-22T12:04:50Z</time></trkpt>
<trkpt lat="43.698449" lon="-1.379705"><ele>21.6</ele><time>2025-10-22T12:04:54Z</time></trkpt>
<trkpt lat="43.698422" lon="-1.379640"><ele>22.1</ele><time>2025-10-22T12:04:59Z</time></trkpt>
<trkpt lat="43.698403" lon="-1.379581"><ele>23.1</ele><time>2025-10-22T12:05:03Z</time></trkpt>
<trkpt lat="43.698377" lon="-1.379529"><ele>25.9</ele><time>2025-10-22T12:05:08Z</time></trkpt>
<trkpt lat="43.698330" lon="-1.379503"><ele>31.3</ele><time>2025-10-22T12:05:14Z</time></trkpt>
<trkpt lat="43.698294" lon="-1.379460"><ele>34.6</ele><time>2025-10-22T12:05:19Z</time></trkpt>
<trkpt lat="43.698258" lon="-1.379414"><ele>35.9</ele><time>2025-10-22T12:05:24Z</time></trkpt>
<trkpt lat="43.698220" lon="-1.379374"><ele>35.5</ele><time>2025-10-22T12:05:28Z</time></trkpt>
<trkpt lat="43.698192" lon="-1.379324"><ele>35.8</ele><time>2025-10-22T12:05:32Z</time></trkpt>
<trkpt lat="43.698162" lon="-1.379267"><ele>38.8</ele><time>2025-10-22T12:05:38Z</time></trkpt>
<trkpt lat="43.698136" lon="-1.379208"><ele>38.4</ele><time>2025-10-22T12:05:42Z</time></trkpt>
<trkpt lat="43.698106" lon="-1.379150"><ele>34.8</ele><time>2025-10-22T12:05:48Z</time></trkpt>
<trkpt lat="43.698063" lon="-1.379122"><ele>32.9</ele><time>2025-10-22T12:05:52Z</time></trkpt>
<trkpt lat="43.698023" lon="-1.379092"><ele>32.0</ele><time>2025-10-22T12:05:58Z</time></trkpt>
<trkpt lat="43.697971" lon="-1.379087"><ele>33.4</ele><time>2025-10-22T12:06:08Z</time></trkpt>
<trkpt lat="43.697924" lon="-1.379099"><ele>33.9</ele><time>2025-10-22T12:06:13Z</time></trkpt>
<trkpt lat="43.697879" lon="-1.379103"><ele>31.5</ele><time>2025-10-22T12:06:17Z</time></trkpt>
<trkpt lat="43.697833" lon="-1.379105"><ele>32.3</ele><time>2025-10-22T12:06:21Z</time></trkpt>
<trkpt lat="43.697788" lon="-1.379093"><ele>32.4</ele><time>2025-10-22T12:06:24Z</time></trkpt>
<trkpt lat="43.697739" lon="-1.379079"><ele>30.7</ele><time>2025-10-22T12:06:27Z</time></trkpt>
<trkpt lat="43.697692" lon="-1.379062"><ele>30.7</ele><time>2025-10-22T12:06:30Z</time></trkpt>
<trkpt lat="43.697641" lon="-1.379038"><ele>28.7</ele><time>2025-10-22T12:06:34Z</time></trkpt>
<trkpt lat="43.697590" lon="-1.379038"><ele>29.0</ele><time>2025-10-22T12:06:38Z</time></trkpt>
<trkpt lat="43.697541" lon="-1.379023"><ele>32.4</ele><time>2025-10-22T12:06:42Z</time></trkpt>
<trkpt lat="43.697487" lon="-1.378997"><ele>34.8</ele><time>2025-10-22T12:06:46Z</time></trkpt>
<trkpt lat="43.697442" lon="-1.378949"><ele>34.7</ele><time>2025-10-22T12:06:50Z</time></trkpt>
<trkpt lat="43.697398" lon="-1.378922"><ele>38.0</ele><time>2025-10-22T12:06:54Z</time></trkpt>
<trkpt lat="43.697359" lon="-1.378875"><ele>38.5</ele><time>2025-10-22T12:06:58Z</time></trkpt>
<trkpt lat="43.697315" lon="-1.378836"><ele>41.3</ele><time>2025-10-22T12:07:03Z</time></trkpt>
<trkpt lat="43.697273" lon="-1.378785"><ele>44.4</ele><time>2025-10-22T12:07:08Z</time></trkpt>
<trkpt lat="43.697230" lon="-1.378747"><ele>44.8</ele><time>2025-10-22T12:07:12Z</time></trkpt>
<trkpt lat="43.697202" lon="-1.378697"><ele>45.4</ele><time>2025-10-22T12:07:16Z</time></trkpt>
<trkpt lat="43.697177" lon="-1.378640"><ele>45.1</ele><time>2025-10-22T12:07:20Z</time></trkpt>
<trkpt lat="43.697148" lon="-1.378580"><ele>42.5</ele><time>2025-10-22T12:07:25Z</time></trkpt>
<trkpt lat="43.697126" lon="-1.378520"><ele>42.8</ele><time>2025-10-22T12:07:29Z</time></trkpt>
<trkpt lat="43.697084" lon="-1.378463"><ele>44.1</ele><time>2025-10-22T12:07:33Z</time></trkpt>
<trkpt lat="43.697056" lon="-1.378402"><ele>43.4</ele><time>2025-10-22T12:07:38Z</time></trkpt>
<trkpt lat="43.697045" lon="-1.378338"><ele>40.2</ele><time>2025-10-22T12:08:30Z</time></trkpt>
<trkpt lat="43.697017" lon="-1.378286"><ele>36.7</ele><time>2025-10-22T12:08:39Z</time></trkpt>
<trkpt lat="43.696964" lon="-1.378269"><ele>37.5</ele><time>2025-10-22T12:08:47Z</time></trkpt>
<trkpt lat="43.696912" lon="-1.378250"><ele>35.5</ele><time>2025-10-22T12:08:52Z</time></trkpt>
<trkpt lat="43.696857" lon="-1.378230"><ele>33.4</ele><time>2025-10-22T12:08:57Z</time></trkpt>
<trkpt lat="43.696804" lon="-1.378227"><ele>32.8</ele><time>2025-10-22T12:09:01Z</time></trkpt>
<trkpt lat="43.696751" lon="-1.378226"><ele>33.1</ele><time>2025-10-22T12:09:06Z</time></trkpt>
<trkpt lat="43.696699" lon="-1.378230"><ele>31.6</ele><time>2025-10-22T12:09:11Z</time></trkpt>
<trkpt lat="43.696646" lon="-1.378244"><ele>30.0</ele><time>2025-10-22T12:09:16Z</time></trkpt>
<trkpt lat="43.696587" lon="-1.378257"><ele>29.0</ele><time>2025-10-22T12:09:20Z</time></trkpt>
<trkpt lat="43.696538" lon="-1.378286"><ele>27.7</ele><time>2025-10-22T12:09:24Z</time></trkpt>
<trkpt lat="43.696493" lon="-1.378303"><ele>29.6</ele><time>2025-10-22T12:09:28Z</time></trkpt>
<trkpt lat="43.696434" lon="-1.378309"><ele>31.0</ele><time>2025-10-22T12:09:33Z</time></trkpt>
<trkpt lat="43.696387" lon="-1.378339"><ele>31.0</ele><time>2025-10-22T12:09:37Z</time></trkpt>
<trkpt lat="43.696348" lon="-1.378385"><ele>29.3</ele><time>2025-10-22T12:09:42Z</time></trkpt>
<trkpt lat="43.696306" lon="-1.378419"><ele>28.5</ele><time>2025-10-22T12:09:46Z</time></trkpt>
<trkpt lat="43.696261" lon="-1.378448"><ele>26.2</ele><time>2025-10-22T12:09:50Z</time></trkpt>
<trkpt lat="43.696220" lon="-1.378480"><ele>25.6</ele><time>2025-10-22T12:09:55Z</time></trkpt>
<trkpt lat="43.696176" lon="-1.378523"><ele>24.3</ele><time>2025-10-22T12:10:00Z</time></trkpt>
<trkpt lat="43.696136" lon="-1.378558"><ele>24.1</ele><time>2025-10-22T12:10:04Z</time></trkpt>
<trkpt lat="43.696096" lon="-1.378596"><ele>23.2</ele><time>2025-10-22T12:10:08Z</time></trkpt>
<trkpt lat="43.696061" lon="-1.378642"><ele>21.9</ele><time>2025-10-22T12:10:11Z</time></trkpt>
<trkpt lat="43.696021" lon="-1.378677"><ele>21.0</ele><time>2025-10-22T12:10:14Z</time></trkpt>
<trkpt lat="43.695969" lon="-1.378712"><ele>21.4</ele><time>2025-10-22T12:10:18Z</time></trkpt>
<trkpt lat="43.695918" lon="-1.378746"><ele>21.0</ele><time>2025-10-22T12:10:22Z</time></trkpt>
<trkpt lat="43.695868" lon="-1.378770"><ele>20.4</ele><time>2025-10-22T12:10:26Z</time></trkpt>
<trkpt lat="43.695815" lon="-1.378785"><ele>20.1</ele><time>2025-10-22T12:10:30Z</time></trkpt>
<trkpt lat="43.695767" lon="-1.378804"><ele>18.2</ele><time>2025-10-22T12:10:33Z</time></trkpt>
<trkpt lat="43.695717" lon="-1.378828"><ele>18.2</ele><time>2025-10-22T12:10:37Z</time></trkpt>
<trkpt lat="43.695666" lon="-1.378839"><ele>20.2</ele><time>2025-10-22T12:10:42Z</time></trkpt>
<trkpt lat="43.695617" lon="-1.378846"><ele>20.5</ele><time>2025-10-22T12:10:46Z</time></trkpt>
<trkpt lat="43.695573" lon="-1.378858"><ele>21.5</ele><time>2025-10-22T12:10:51Z</time></trkpt>
<trkpt lat="43.695520" lon="-1.378862"><ele>22.6</ele><time>2025-10-22T12:10:58Z</time></trkpt>
<trkpt lat="43.695466" lon="-1.378859"><ele>24.1</ele><time>2025-10-22T12:11:03Z</time></trkpt>
<trkpt lat="43.695416" lon="-1.378862"><ele>25.0</ele><time>2025-10-22T12:11:08Z</time></trkpt>
<trkpt lat="43.695367" lon="-1.378856"><ele>23.6</ele><time>2025-10-22T12:11:12Z</time></trkpt>
<trkpt lat="43.695318" lon="-1.378853"><ele>23.3</ele><time>2025-10-22T12:11:16Z</time></trkpt>
<trkpt lat="43.695269" lon="-1.378858"><ele>24.6</ele><time>2025-10-22T12:11:20Z</time></trkpt>
<trkpt lat="43.695226" lon="-1.378842"><ele>25.9</ele><time>2025-10-22T12:11:24Z</time></trkpt>
<trkpt lat="43.695170" lon="-1.378834"><ele>26.1</ele><time>2025-10-22T12:11:28Z</time></trkpt>
<trkpt lat="43.695121" lon="-1.378839"><ele>23.2</ele><time>2025-10-22T12:11:31Z</time></trkpt>
<trkpt lat="43.695063" lon="-1.378847"><ele>23.1</ele><time>2025-10-22T12:11:35Z</time></trkpt>
<trkpt lat="43.695011" lon="-1.378850"><ele>23.8</ele><time>2025-10-22T12:11:39Z</time></trkpt>
<trkpt lat="43.694963" lon="-1.378858"><ele>24.4</ele><time>2025-10-22T12:11:43Z</time></trkpt>
<trkpt lat="43.694917" lon="-1.378867"><ele>24.9</ele><time>2025-10-22T12:11:47Z</time></trkpt>
<trkpt lat="43.694872" lon="-1.378875"><ele>24.7</ele><time>2025-10-22T12:11:51Z</time></trkpt>
<trkpt lat="43.694826" lon="-1.378874"><ele>25.5</ele><time>2025-10-22T12:11:55Z</time></trkpt>
<trkpt lat="43.694778" lon="-1.378882"><ele>25.6</ele><time>2025-10-22T12:12:00Z</time></trkpt>
<trkpt lat="43.694724" lon="-1.378894"><ele>26.1</ele><time>2025-10-22T12:12:05Z</time></trkpt>
<trkpt lat="43.694664" lon="-1.378905"><ele>23.3</ele><time>2025-10-22T12:12:09Z</time></trkpt>
<trkpt lat="43.694609" lon="-1.378909"><ele>24.7</ele><time>2025-10-22T12:12:13Z</time></trkpt>
<trkpt lat="43.694560" lon="-1.378915"><ele>25.1</ele><time>2025-10-22T12:12:17Z</time></trkpt>
<trkpt lat="43.694508" lon="-1.378924"><ele>25.5</ele><time>2025-10-22T12:12:21Z</time></trkpt>
<trkpt lat="43.694449" lon="-1.378932"><ele>23.9</ele><time>2025-10-22T12:12:25Z</time></trkpt>
<trkpt lat="43.694392" lon="-1.378943"><ele>24.0</ele><time>2025-10-22T12:12:29Z</time></trkpt>
<trkpt lat="43.694338" lon="-1.378951"><ele>23.9</ele><time>2025-10-22T12:12:33Z</time></trkpt>
<trkpt lat="43.694285" lon="-1.378958"><ele>24.8</ele><time>2025-10-22T12:12:38Z</time></trkpt>
<trkpt lat="43.694228" lon="-1.378959"><ele>25.6</ele><time>2025-10-22T12:12:42Z</time></trkpt>
<trkpt lat="43.694180" lon="-1.378959"><ele>25.3</ele><time>2025-10-22T12:12:45Z</time></trkpt>
<trkpt lat="43.694134" lon="-1.378967"><ele>24.8</ele><time>2025-10-22T12:12:48Z</time></trkpt>
<trkpt lat="43.694075" lon="-1.378979"><ele>23.5</ele><time>2025-10-22T12:12:52Z</time></trkpt>
<trkpt lat="43.694020" lon="-1.378990"><ele>23.7</ele><time>2025-10-22T12:12:56Z</time></trkpt>
<trkpt lat="43.693967" lon="-1.379006"><ele>22.0</ele><time>2025-10-22T12:13:00Z</time></trkpt>
<trkpt lat="43.693915" lon="-1.379027"><ele>21.3</ele><time>2025-10-22T12:13:04Z</time></trkpt>
<trkpt lat="43.693867" lon="-1.379058"><ele>19.9</ele><time>2025-10-22T12:13:08Z</time></trkpt>
<trkpt lat="43.693825" lon="-1.379090"><ele>18.6</ele><time>2025-10-22T12:13:12Z</time></trkpt>
<trkpt lat="43.693785" lon="-1.379123"><ele>18.1</ele><time>2025-10-22T12:13:16Z</time></trkpt>
<trkpt lat="43.693739" lon="-1.379155"><ele>18.6</ele><time>2025-10-22T12:13:21Z</time></trkpt>
<trkpt lat="43.693693" lon="-1.379192"><ele>17.5</ele><time>2025-10-22T12:13:26Z</time></trkpt>
<trkpt lat="43.693645" lon="-1.379220"><ele>17.1</ele><time>2025-10-22T12:13:30Z</time></trkpt>
<trkpt lat="43.693594" lon="-1.379250"><ele>17.6</ele><time>2025-10-22T12:13:34Z</time></trkpt>
<trkpt lat="43.693540" lon="-1.379278"><ele>16.9</ele><time>2025-10-22T12:13:38Z</time></trkpt>
<trkpt lat="43.693491" lon="-1.379305"><ele>17.1</ele><time>2025-10-22T12:13:42Z</time></trkpt>
<trkpt lat="43.693441" lon="-1.379330"><ele>16.5</ele><time>2025-10-22T12:13:46Z</time></trkpt>
<trkpt lat="43.693391" lon="-1.379360"><ele>16.5</ele><time>2025-10-22T12:13:50Z</time></trkpt>
<trkpt lat="43.693342" lon="-1.379387"><ele>16.3</ele><time>2025-10-22T12:13:54Z</time></trkpt>
<trkpt lat="43.693286" lon="-1.379409"><ele>16.7</ele><time>2025-10-22T12:13:58Z</time></trkpt>
<trkpt lat="43.693234" lon="-1.379434"><ele>17.3</ele><time>2025-10-22T12:14:02Z</time></trkpt>
<trkpt lat="43.693187" lon="-1.379457"><ele>17.3</ele><time>2025-10-22T12:14:06Z</time></trkpt>
<trkpt lat="43.693140" lon="-1.379462"><ele>17.9</ele><time>2025-10-22T12:14:10Z</time></trkpt>
<trkpt lat="43.693095" lon="-1.379453"><ele>17.8</ele><time>2025-10-22T12:14:14Z</time></trkpt>
<trkpt lat="43.693040" lon="-1.379448"><ele>17.5</ele><time>2025-10-22T12:14:19Z</time></trkpt>
<trkpt lat="43.692989" lon="-1.379452"><ele>18.6</ele><time>2025-10-22T12:14:24Z</time></trkpt>
<trkpt lat="43.692950" lon="-1.379412"><ele>19.3</ele><time>2025-10-22T12:14:28Z</time></trkpt>
<trkpt lat="43.692912" lon="-1.379360"><ele>19.3</ele><time>2025-10-22T12:14:32Z</time></trkpt>
<trkpt lat="43.692872" lon="-1.379307"><ele>19.7</ele><time>2025-10-22T12:14:36Z</time></trkpt>
<trkpt lat="43.692822" lon="-1.379280"><ele>18.8</ele><time>2025-10-22T12:14:40Z</time></trkpt>
<trkpt lat="43.692793" lon="-1.379226"><ele>18.3</ele><time>2025-10-22T12:14:44Z</time></trkpt>
<trkpt lat="43.692770" lon="-1.379161"><ele>17.4</ele><time>2025-10-22T12:14:48Z</time></trkpt>
<trkpt lat="43.692752" lon="-1.379092"><ele>17.4</ele><time>2025-10-22T12:14:52Z</time></trkpt>
<trkpt lat="43.692731" lon="-1.379028"><ele>18.0</ele><time>2025-10-22T12:14:56Z</time></trkpt>
<trkpt lat="43.692698" lon="-1.378976"><ele>23.1</ele><time>2025-10-22T12:15:01Z</time></trkpt>
<trkpt lat="43.692670" lon="-1.378916"><ele>23.8</ele><time>2025-10-22T12:15:06Z</time></trkpt>
<trkpt lat="43.692654" lon="-1.378856"><ele>23.6</ele><time>2025-10-22T12:15:10Z</time></trkpt>
<trkpt lat="43.692651" lon="-1.378793"><ele>19.8</ele><time>2025-10-22T12:15:14Z</time></trkpt>
<trkpt lat="43.692643" lon="-1.378714"><ele>19.6</ele><time>2025-10-22T12:15:18Z</time></trkpt>
<trkpt lat="43.692634" lon="-1.378642"><ele>20.0</ele><time>2025-10-22T12:15:23Z</time></trkpt>
<trkpt lat="43.692631" lon="-1.378569"><ele>19.9</ele><time>2025-10-22T12:15:27Z</time></trkpt>
<trkpt lat="43.692624" lon="-1.378507"><ele>21.9</ele><time>2025-10-22T12:15:32Z</time></trkpt>
<trkpt lat="43.692615" lon="-1.378440"><ele>20.0</ele><time>2025-10-22T12:15:37Z</time></trkpt>
<trkpt lat="43.692600" lon="-1.378372"><ele>21.6</ele><time>2025-10-22T12:15:42Z</time></trkpt>
<trkpt lat="43.692577" lon="-1.378316"><ele>20.3</ele><time>2025-10-22T12:15:47Z</time></trkpt>
<trkpt lat="43.692593" lon="-1.378239"><ele>19.7</ele><time>2025-10-22T12:15:52Z</time></trkpt>
<trkpt lat="43.692610" lon="-1.378176"><ele>19.3</ele><time>2025-10-22T12:15:56Z</time></trkpt>
<trkpt lat="43.692621" lon="-1.378102"><ele>16.6</ele><time>2025-10-22T12:16:01Z</time></trkpt>
<trkpt lat="43.692631" lon="-1.378030"><ele>15.6</ele><time>2025-10-22T12:16:06Z</time></trkpt>
<trkpt lat="43.692639" lon="-1.377967"><ele>15.0</ele><time>2025-10-22T12:16:10Z</time></trkpt>
<trkpt lat="43.692642" lon="-1.377903"><ele>15.5</ele><time>2025-10-22T12:16:14Z</time></trkpt>
<trkpt lat="43.692639" lon="-1.377827"><ele>16.7</ele><time>2025-10-22T12:16:18Z</time></trkpt>
<trkpt lat="43.692638" lon="-1.377751"><ele>17.5</ele><time>2025-10-22T12:16:22Z</time></trkpt>
<trkpt lat="43.692645" lon="-1.377682"><ele>18.0</ele><time>2025-10-22T12:16:25Z</time></trkpt>
<trkpt lat="43.692649" lon="-1.377620"><ele>18.6</ele><time>2025-10-22T12:16:28Z</time></trkpt>
<trkpt lat="43.692641" lon="-1.377544"><ele>20.0</ele><time>2025-10-22T12:16:32Z</time></trkpt>
<trkpt lat="43.692623" lon="-1.377476"><ele>20.7</ele><time>2025-10-22T12:16:36Z</time></trkpt>
<trkpt lat="43.692620" lon="-1.377410"><ele>20.5</ele><time>2025-10-22T12:16:40Z</time></trkpt>
<trkpt lat="43.692624" lon="-1.377338"><ele>20.1</ele><time>2025-10-22T12:16:44Z</time></trkpt>
<trkpt lat="43.692634" lon="-1.377266"><ele>20.2</ele><time>2025-10-22T12:16:48Z</time></trkpt>
<trkpt lat="43.692638" lon="-1.377196"><ele>19.9</ele><time>2025-10-22T12:16:52Z</time></trkpt>
<trkpt lat="43.692639" lon="-1.377127"><ele>19.7</ele><time>2025-10-22T12:16:56Z</time></trkpt>
<trkpt lat="43.692640" lon="-1.377060"><ele>19.7</ele><time>2025-10-22T12:17:00Z</time></trkpt>
<trkpt lat="43.692643" lon="-1.376990"><ele>19.8</ele><time>2025-10-22T12:17:04Z</time></trkpt>
<trkpt lat="43.692645" lon="-1.376919"><ele>18.4</ele><time>2025-10-22T12:17:08Z</time></trkpt>
<trkpt lat="43.692646" lon="-1.376855"><ele>16.8</ele><time>2025-10-22T12:17:12Z</time></trkpt>
<trkpt lat="43.692653" lon="-1.376791"><ele>16.1</ele><time>2025-10-22T12:17:16Z</time></trkpt>
<trkpt lat="43.692664" lon="-1.376728"><ele>15.3</ele><time>2025-10-22T12:17:20Z</time></trkpt>
<trkpt lat="43.692679" lon="-1.376663"><ele>14.8</ele><time>2025-10-22T12:17:24Z</time></trkpt>
<trkpt lat="43.692692" lon="-1.376598"><ele>14.0</ele><time>2025-10-22T12:17:28Z</time></trkpt>
<trkpt lat="43.692695" lon="-1.376528"><ele>13.8</ele><time>2025-10-22T12:17:32Z</time></trkpt>
<trkpt lat="43.692702" lon="-1.376460"><ele>14.0</ele><time>2025-10-22T12:17:36Z</time></trkpt>
<trkpt lat="43.692713" lon="-1.376393"><ele>14.3</ele><time>2025-10-22T12:17:40Z</time></trkpt>
<trkpt lat="43.692714" lon="-1.376330"><ele>14.5</ele><time>2025-10-22T12:17:44Z</time></trkpt>
<trkpt lat="43.692718" lon="-1.376265"><ele>14.7</ele><time>2025-10-22T12:17:48Z</time></trkpt>
<trkpt lat="43.692722" lon="-1.376192"><ele>14.6</ele><time>2025-10-22T12:17:53Z</time></trkpt>
<trkpt lat="43.692725" lon="-1.376120"><ele>13.9</ele><time>2025-10-22T12:17:58Z</time></trkpt>
<trkpt lat="43.692733" lon="-1.376044"><ele>15.3</ele><time>2025-10-22T12:18:03Z</time></trkpt>
<trkpt lat="43.692740" lon="-1.375972"><ele>15.6</ele><time>2025-10-22T12:18:09Z</time></trkpt>
<trkpt lat="43.692747" lon="-1.375903"><ele>15.8</ele><time>2025-10-22T12:18:15Z</time></trkpt>
</trkseg>
</trk>
</gpx>